<?xml version='1.0' encoding='UTF-8'?><gpx version="1.1" creator="JPX - https://github.com/jenetics/jpx" xmlns="http://www.topografix.com/GPX/1/1"><trk><trkseg><trkpt lat="43.58960810490203" lon="11.332256680404281"><ele>330.0</ele><time>2026-04-03T17:09:54.999Z</time></trkpt><trkpt lat="43.589563563954734" lon="11.332161723526118"><ele>330.0</ele><time>2026-04-03T17:09:56.999Z</time></trkpt><trkpt lat="43.589470728859574" lon="11.332148403853271"><ele>330.0</ele><time>2026-04-03T17:09:58.999Z</time></trkpt><trkpt lat="43.58940277534213" lon="11.332216506155287"><ele>330.0</ele><time>2026-04-03T17:10:00.999Z</time></trkpt><trkpt lat="43.589320475433205" lon="11.332264005356535"><ele>330.0</ele><time>2026-04-03T17:10:02.999Z</time></trkpt><trkpt lat="43.58923698632407" lon="11.332300902161482"><ele>330.0</ele><time>2026-04-03T17:10:04.999Z</time></trkpt><trkpt lat="43.589147087534876" lon="11.332315125402967"><ele>332.8</ele><time>2026-04-03T17:10:06.999Z</time></trkpt><trkpt lat="43.58906640502913" lon="11.332363721054135"><ele>335.6</ele><time>2026-04-03T17:10:08.999Z</time></trkpt><trkpt lat="43.588981312704725" lon="11.332372590419867"><ele>338.4</ele><time>2026-04-03T17:10:10.999Z</time></trkpt><trkpt lat="43.588878042926865" lon="11.332396570817878"><ele>341.2</ele><time>2026-04-03T17:10:12.999Z</time></trkpt><trkpt lat="43.58877884120702" lon="11.33245584452411"><ele>344.0</ele><time>2026-04-03T17:10:14.999Z</time></trkpt><trkpt lat="43.58868990854683" lon="11.332535034552766"><ele>344.2</ele><time>2026-04-03T17:10:16.999Z</time></trkpt><trkpt lat="43.58859425752281" lon="11.332620925504395"><ele>344.4</ele><time>2026-04-03T17:10:18.999Z</time></trkpt><trkpt lat="43.58851027373253" lon="11.332703934118724"><ele>344.6</ele><time>2026-04-03T17:10:20.999Z</time></trkpt><trkpt lat="43.58844832817628" lon="11.332777186887226"><ele>344.8</ele><time>2026-04-03T17:10:22.999Z</time></trkpt><trkpt lat="43.588362031148066" lon="11.332744543993105"><ele>345.0</ele><time>2026-04-03T17:10:25.999Z</time></trkpt><trkpt lat="43.58827213725689" lon="11.332662704198322"><ele>345.0</ele><time>2026-04-03T17:10:27.999Z</time></trkpt><trkpt lat="43.58820402882775" lon="11.3325754795151"><ele>345.0</ele><time>2026-04-03T17:10:29.999Z</time></trkpt><trkpt lat="43.588136222157125" lon="11.332487916748128"><ele>345.0</ele><time>2026-04-03T17:10:31.999Z</time></trkpt><trkpt lat="43.58805345630461" lon="11.332431007113234"><ele>345.0</ele><time>2026-04-03T17:10:33.998Z</time></trkpt><trkpt lat="43.587997844363635" lon="11.33237908708137"><ele>345.0</ele><time>2026-04-03T17:10:34.998Z</time></trkpt><trkpt lat="43.58793038559837" lon="11.332315321460719"><ele>345.0</ele><time>2026-04-03T17:10:35.998Z</time></trkpt><trkpt lat="43.587865258350185" lon="11.33226921062793"><ele>344.2</ele><time>2026-04-03T17:10:36.998Z</time></trkpt><trkpt lat="43.58780316781999" lon="11.332235399341279"><ele>343.4</ele><time>2026-04-03T17:10:37.998Z</time></trkpt><trkpt lat="43.58770635789904" lon="11.332163600135088"><ele>342.6</ele><time>2026-04-03T17:10:40Z</time></trkpt><trkpt lat="43.587556666830025" lon="11.332088396590082"><ele>341.8</ele><time>2026-04-03T17:10:43Z</time></trkpt><trkpt lat="43.58747279572135" lon="11.332023008285224"><ele>341.0</ele><time>2026-04-03T17:10:45Z</time></trkpt><trkpt lat="43.587381707533815" lon="11.331977346977311"><ele>341.0</ele><time>2026-04-03T17:10:47Z</time></trkpt><trkpt lat="43.5872811907729" lon="11.331926935147282"><ele>341.0</ele><time>2026-04-03T17:10:49Z</time></trkpt><trkpt lat="43.587194696869666" lon="11.331842857063933"><ele>341.0</ele><time>2026-04-03T17:10:51Z</time></trkpt><trkpt lat="43.587100086751036" lon="11.331776648180151"><ele>341.0</ele><time>2026-04-03T17:10:53Z</time></trkpt><trkpt lat="43.587044131953874" lon="11.331736730170348"><ele>341.0</ele><time>2026-04-03T17:10:54Z</time></trkpt><trkpt lat="43.58694076830933" lon="11.331657087755366"><ele>339.0</ele><time>2026-04-03T17:10:56Z</time></trkpt><trkpt lat="43.586838055771246" lon="11.331572183895299"><ele>337.0</ele><time>2026-04-03T17:10:58Z</time></trkpt><trkpt lat="43.5867437440959" lon="11.331480608653685"><ele>335.0</ele><time>2026-04-03T17:11:00Z</time></trkpt><trkpt lat="43.58667152558765" lon="11.331384008369414"><ele>333.0</ele><time>2026-04-03T17:11:01.999Z</time></trkpt><trkpt lat="43.58660920995982" lon="11.331271503734484"><ele>331.0</ele><time>2026-04-03T17:11:03.999Z</time></trkpt><trkpt lat="43.586557452192174" lon="11.331143752541575"><ele>331.0</ele><time>2026-04-03T17:11:05.999Z</time></trkpt><trkpt lat="43.58654612786131" lon="11.33099159370304"><ele>331.0</ele><time>2026-04-03T17:11:07.999Z</time></trkpt><trkpt lat="43.586533889302764" lon="11.3308756754886"><ele>331.0</ele><time>2026-04-03T17:11:09.999Z</time></trkpt><trkpt lat="43.58652358863761" lon="11.33077882879728"><ele>331.0</ele><time>2026-04-03T17:11:12.999Z</time></trkpt><trkpt lat="43.58652709344391" lon="11.330649054344672"><ele>331.0</ele><time>2026-04-03T17:11:37.999Z</time></trkpt><trkpt lat="43.58662185688109" lon="11.330544192356072"><ele>329.5</ele><time>2026-04-03T17:11:39.999Z</time></trkpt><trkpt lat="43.58669939522994" lon="11.330497495597209"><ele>328.0</ele><time>2026-04-03T17:11:40.999Z</time></trkpt><trkpt lat="43.58679596133733" lon="11.330494017642186"><ele>326.5</ele><time>2026-04-03T17:11:41.999Z</time></trkpt><trkpt lat="43.58686382584034" lon="11.33044424872599"><ele>325.0</ele><time>2026-04-03T17:11:42.999Z</time></trkpt><trkpt lat="43.58691990238803" lon="11.330378821087375"><ele>323.5</ele><time>2026-04-03T17:11:43.999Z</time></trkpt><trkpt lat="43.586983771371465" lon="11.330353598337522"><ele>322.0</ele><time>2026-04-03T17:11:44.999Z</time></trkpt><trkpt lat="43.58705876641792" lon="11.330373389330568"><ele>322.0</ele><time>2026-04-03T17:11:45.999Z</time></trkpt><trkpt lat="43.587120591717095" lon="11.330395046251038"><ele>322.0</ele><time>2026-04-03T17:11:46.999Z</time></trkpt><trkpt lat="43.58719679769008" lon="11.330394269294786"><ele>322.0</ele><time>2026-04-03T17:11:47.999Z</time></trkpt><trkpt lat="43.58726934889563" lon="11.330412676098874"><ele>322.0</ele><time>2026-04-03T17:11:48.999Z</time></trkpt><trkpt lat="43.58733680254642" lon="11.330437067164404"><ele>322.0</ele><time>2026-04-03T17:11:49.999Z</time></trkpt><trkpt lat="43.58741310962515" lon="11.330426333952705"><ele>322.0</ele><time>2026-04-03T17:11:50.999Z</time></trkpt><trkpt lat="43.58753282641069" lon="11.33038419145852"><ele>322.0</ele><time>2026-04-03T17:11:52.999Z</time></trkpt><trkpt lat="43.58753704897439" lon="11.330160743617624"><ele>322.0</ele><time>2026-04-03T17:11:54.999Z</time></trkpt><trkpt lat="43.58750689079882" lon="11.330070631573525"><ele>322.0</ele><time>2026-04-03T17:11:55.999Z</time></trkpt><trkpt lat="43.58745650971775" lon="11.329972332646992"><ele>322.0</ele><time>2026-04-03T17:11:56.999Z</time></trkpt><trkpt lat="43.58742114953503" lon="11.329861370416666"><ele>322.0</ele><time>2026-04-03T17:11:57.999Z</time></trkpt><trkpt lat="43.58740286217138" lon="11.329743368618693"><ele>321.40000000000003</ele><time>2026-04-03T17:11:58.999Z</time></trkpt><trkpt lat="43.58739533513584" lon="11.329615199345064"><ele>320.8</ele><time>2026-04-03T17:11:59.999Z</time></trkpt><trkpt lat="43.58737794820936" lon="11.329476454328539"><ele>320.2</ele><time>2026-04-03T17:12:00.999Z</time></trkpt><trkpt lat="43.587366563716685" lon="11.329355079090178"><ele>319.6</ele><time>2026-04-03T17:12:01.999Z</time></trkpt><trkpt lat="43.58735289341118" lon="11.329226111863354"><ele>319.0</ele><time>2026-04-03T17:12:02.999Z</time></trkpt><trkpt lat="43.587347603019694" lon="11.329092870070639"><ele>319.0</ele><time>2026-04-03T17:12:03.999Z</time></trkpt><trkpt lat="43.58734960978708" lon="11.328962327527897"><ele>319.0</ele><time>2026-04-03T17:12:04.999Z</time></trkpt><trkpt lat="43.587340557484154" lon="11.32881660542677"><ele>319.0</ele><time>2026-04-03T17:12:05.999Z</time></trkpt><trkpt lat="43.58732929534582" lon="11.328685311708785"><ele>319.0</ele><time>2026-04-03T17:12:06.999Z</time></trkpt><trkpt lat="43.58731999454782" lon="11.328545101168917"><ele>319.0</ele><time>2026-04-03T17:12:07.999Z</time></trkpt><trkpt lat="43.587288653192964" lon="11.328420379237246"><ele>319.6</ele><time>2026-04-03T17:12:08.999Z</time></trkpt><trkpt lat="43.58723130959815" lon="11.328307744452458"><ele>320.2</ele><time>2026-04-03T17:12:09.999Z</time></trkpt><trkpt lat="43.5871562242815" lon="11.328216602516514"><ele>320.8</ele><time>2026-04-03T17:12:10.999Z</time></trkpt><trkpt lat="43.58707286166901" lon="11.328110702574538"><ele>321.40000000000003</ele><time>2026-04-03T17:12:11.999Z</time></trkpt><trkpt lat="43.58699563324864" lon="11.328013157348728"><ele>322.0</ele><time>2026-04-03T17:12:12.999Z</time></trkpt><trkpt lat="43.58693244882104" lon="11.327885606945005"><ele>319.0</ele><time>2026-04-03T17:12:13.999Z</time></trkpt><trkpt lat="43.58690785577338" lon="11.327744290683304"><ele>316.0</ele><time>2026-04-03T17:12:14.999Z</time></trkpt><trkpt lat="43.586863468867385" lon="11.327601426207883"><ele>313.0</ele><time>2026-04-03T17:12:15.999Z</time></trkpt><trkpt lat="43.58682138186598" lon="11.32747211490908"><ele>310.0</ele><time>2026-04-03T17:12:16.999Z</time></trkpt><trkpt lat="43.586761318493615" lon="11.327381367060557"><ele>307.0</ele><time>2026-04-03T17:12:17.999Z</time></trkpt><trkpt lat="43.58669737768045" lon="11.327288895868927"><ele>307.0</ele><time>2026-04-03T17:12:18.999Z</time></trkpt><trkpt lat="43.586614589814545" lon="11.327243827989799"><ele>307.0</ele><time>2026-04-03T17:12:19.999Z</time></trkpt><trkpt lat="43.58652232679698" lon="11.32721731988522"><ele>307.0</ele><time>2026-04-03T17:12:20.999Z</time></trkpt><trkpt lat="43.58644486095326" lon="11.327160312883219"><ele>307.0</ele><time>2026-04-03T17:12:21.999Z</time></trkpt><trkpt lat="43.586424407408416" lon="11.327046661733522"><ele>307.0</ele><time>2026-04-03T17:12:22.999Z</time></trkpt><trkpt lat="43.586397280309605" lon="11.32691813703605"><ele>308.3333333333333</ele><time>2026-04-03T17:12:23.999Z</time></trkpt><trkpt lat="43.58636370163767" lon="11.326811169417352"><ele>309.66666666666663</ele><time>2026-04-03T17:12:24.999Z</time></trkpt><trkpt lat="43.586302563218425" lon="11.326741185209666"><ele>311.0</ele><time>2026-04-03T17:12:25.999Z</time></trkpt><trkpt lat="43.58622589213873" lon="11.3267068668762"><ele>312.3333333333333</ele><time>2026-04-03T17:12:26.999Z</time></trkpt><trkpt lat="43.58614435137025" lon="11.326733189656217"><ele>313.6666666666667</ele><time>2026-04-03T17:12:27.999Z</time></trkpt><trkpt lat="43.58607167079613" lon="11.326745631197191"><ele>315.0</ele><time>2026-04-03T17:12:29.999Z</time></trkpt><trkpt lat="43.58617279670106" lon="11.326546643503434"><ele>315.0</ele><time>2026-04-03T17:12:33.998Z</time></trkpt><trkpt lat="43.58620750111456" lon="11.326428299187421"><ele>315.0</ele><time>2026-04-03T17:12:34.998Z</time></trkpt><trkpt lat="43.58624454509198" lon="11.326348953406574"><ele>315.0</ele><time>2026-04-03T17:12:35.998Z</time></trkpt><trkpt lat="43.58637956090067" lon="11.326315951890257"><ele>315.0</ele><time>2026-04-03T17:12:37.998Z</time></trkpt><trkpt lat="43.58645694255765" lon="11.32631600642186"><ele>315.0</ele><time>2026-04-03T17:12:38.998Z</time></trkpt><trkpt lat="43.58653837910809" lon="11.326306424337348"><ele>315.5</ele><time>2026-04-03T17:12:39.998Z</time></trkpt><trkpt lat="43.58661140052782" lon="11.326281639946634"><ele>316.0</ele><time>2026-04-03T17:12:40.998Z</time></trkpt><trkpt lat="43.58667255905908" lon="11.326254312584044"><ele>316.5</ele><time>2026-04-03T17:12:41.998Z</time></trkpt><trkpt lat="43.58676134740478" lon="11.326186138563894"><ele>317.0</ele><time>2026-04-03T17:12:43.998Z</time></trkpt><trkpt lat="43.58677151249611" lon="11.32606831178654"><ele>317.5</ele><time>2026-04-03T17:12:45.999Z</time></trkpt><trkpt lat="43.58672167200532" lon="11.325934474082564"><ele>318.0</ele><time>2026-04-03T17:12:47.999Z</time></trkpt><trkpt lat="43.58667614323742" lon="11.325805316357602"><ele>318.0</ele><time>2026-04-03T17:12:49.999Z</time></trkpt><trkpt lat="43.5867028482162" lon="11.325702632379878"><ele>318.0</ele><time>2026-04-03T17:12:51.999Z</time></trkpt><trkpt lat="43.58680428739221" lon="11.325663509229827"><ele>318.0</ele><time>2026-04-03T17:12:53.999Z</time></trkpt><trkpt lat="43.58688396652582" lon="11.325553668998605"><ele>318.0</ele><time>2026-04-03T17:12:55.999Z</time></trkpt><trkpt lat="43.586935034889386" lon="11.325490051037946"><ele>318.0</ele><time>2026-04-03T17:12:56.999Z</time></trkpt><trkpt lat="43.586979066677415" lon="11.325415577624716"><ele>318.0</ele><time>2026-04-03T17:12:57.999Z</time></trkpt><trkpt lat="43.587014206165655" lon="11.32533749649779"><ele>316.0</ele><time>2026-04-03T17:12:58.999Z</time></trkpt><trkpt lat="43.58707655885684" lon="11.325216142216824"><ele>314.0</ele><time>2026-04-03T17:13:00.999Z</time></trkpt><trkpt lat="43.58711962288098" lon="11.325051258166685"><ele>312.0</ele><time>2026-04-03T17:13:02.999Z</time></trkpt><trkpt lat="43.58713461130722" lon="11.324950179344023"><ele>310.0</ele><time>2026-04-03T17:13:03.999Z</time></trkpt><trkpt lat="43.587147833439694" lon="11.324856556456696"><ele>308.0</ele><time>2026-04-03T17:13:04.999Z</time></trkpt><trkpt lat="43.58714538196339" lon="11.324766921083706"><ele>306.0</ele><time>2026-04-03T17:13:05.999Z</time></trkpt><trkpt lat="43.58713007878054" lon="11.324669708870518"><ele>303.6666666666667</ele><time>2026-04-03T17:13:06.999Z</time></trkpt><trkpt lat="43.587116873505174" lon="11.324572456053003"><ele>301.3333333333333</ele><time>2026-04-03T17:13:07.999Z</time></trkpt><trkpt lat="43.58710327401974" lon="11.324370251804305"><ele>299.0</ele><time>2026-04-03T17:13:09.999Z</time></trkpt><trkpt lat="43.58711251781537" lon="11.32424883994003"><ele>296.66666666666663</ele><time>2026-04-03T17:13:10.999Z</time></trkpt><trkpt lat="43.58712159500129" lon="11.324161567657633"><ele>294.3333333333333</ele><time>2026-04-03T17:13:11.999Z</time></trkpt><trkpt lat="43.5871183559054" lon="11.324067586099885"><ele>292.0</ele><time>2026-04-03T17:13:12.999Z</time></trkpt><trkpt lat="43.58711736205626" lon="11.323976603298664"><ele>290.2</ele><time>2026-04-03T17:13:13.999Z</time></trkpt><trkpt lat="43.58714331213234" lon="11.323823339994632"><ele>288.4</ele><time>2026-04-03T17:13:15.999Z</time></trkpt><trkpt lat="43.58713165679716" lon="11.323673771865757"><ele>286.6</ele><time>2026-04-03T17:13:17.999Z</time></trkpt><trkpt lat="43.58708927589564" lon="11.32350711039821"><ele>284.8</ele><time>2026-04-03T17:13:19.999Z</time></trkpt><trkpt lat="43.587089524374925" lon="11.32341259081214"><ele>283.0</ele><time>2026-04-03T17:13:20.999Z</time></trkpt><trkpt lat="43.58709524921909" lon="11.32332180624039"><ele>283.0</ele><time>2026-04-03T17:13:21.999Z</time></trkpt><trkpt lat="43.5870947537128" lon="11.32322868251071"><ele>283.0</ele><time>2026-04-03T17:13:22.999Z</time></trkpt><trkpt lat="43.58709750842621" lon="11.323069866894807"><ele>283.0</ele><time>2026-04-03T17:13:24.999Z</time></trkpt><trkpt lat="43.587094081621025" lon="11.322909705410918"><ele>283.0</ele><time>2026-04-03T17:13:26.999Z</time></trkpt><trkpt lat="43.58706403185901" lon="11.322813808962843"><ele>283.0</ele><time>2026-04-03T17:13:27.999Z</time></trkpt><trkpt lat="43.587032094437866" lon="11.322711295462739"><ele>282.2</ele><time>2026-04-03T17:13:28.999Z</time></trkpt><trkpt lat="43.587006768769506" lon="11.32261254898392"><ele>281.4</ele><time>2026-04-03T17:13:29.999Z</time></trkpt><trkpt lat="43.58689715748897" lon="11.322532721285278"><ele>280.59999999999997</ele><time>2026-04-03T17:13:31.999Z</time></trkpt><trkpt lat="43.58681337337015" lon="11.322538524553057"><ele>279.8</ele><time>2026-04-03T17:13:32.999Z</time></trkpt><trkpt lat="43.58673230125108" lon="11.322550806303624"><ele>279.0</ele><time>2026-04-03T17:13:33.999Z</time></trkpt><trkpt lat="43.58664063996741" lon="11.322466700064451"><ele>279.0</ele><time>2026-04-03T17:13:35.999Z</time></trkpt><trkpt lat="43.58662761288514" lon="11.322363838267604"><ele>279.0</ele><time>2026-04-03T17:13:36.999Z</time></trkpt><trkpt lat="43.586619874746866" lon="11.322240853735877"><ele>279.0</ele><time>2026-04-03T17:13:37.999Z</time></trkpt><trkpt lat="43.58661935893746" lon="11.322133181423267"><ele>279.0</ele><time>2026-04-03T17:13:38.999Z</time></trkpt><trkpt lat="43.58660739538925" lon="11.322026809192215"><ele>279.0</ele><time>2026-04-03T17:13:39.999Z</time></trkpt><trkpt lat="43.58659760393594" lon="11.321926242463936"><ele>279.0</ele><time>2026-04-03T17:13:40.999Z</time></trkpt><trkpt lat="43.586584668334446" lon="11.32183371017327"><ele>278.0</ele><time>2026-04-03T17:13:41.999Z</time></trkpt><trkpt lat="43.58657609696682" lon="11.321744740267013"><ele>277.0</ele><time>2026-04-03T17:13:42.999Z</time></trkpt><trkpt lat="43.586567294678105" lon="11.321641060651897"><ele>276.0</ele><time>2026-04-03T17:13:43.999Z</time></trkpt><trkpt lat="43.58655717467096" lon="11.321545128965367"><ele>275.0</ele><time>2026-04-03T17:13:44.999Z</time></trkpt><trkpt lat="43.586570244536944" lon="11.321382781082571"><ele>274.0</ele><time>2026-04-03T17:13:46.999Z</time></trkpt><trkpt lat="43.586534276361995" lon="11.321236946006486"><ele>273.0</ele><time>2026-04-03T17:13:48.999Z</time></trkpt><trkpt lat="43.586490321728" lon="11.321126664352095"><ele>271.6</ele><time>2026-04-03T17:13:49.999Z</time></trkpt><trkpt lat="43.58644315051993" lon="11.321001079307717"><ele>270.20000000000005</ele><time>2026-04-03T17:13:50.999Z</time></trkpt><trkpt lat="43.586397744900175" lon="11.320861285269796"><ele>268.8</ele><time>2026-04-03T17:13:51.999Z</time></trkpt><trkpt lat="43.58636297619463" lon="11.320728071396237"><ele>267.40000000000003</ele><time>2026-04-03T17:13:52.999Z</time></trkpt><trkpt lat="43.58632154861827" lon="11.320585144044605"><ele>266.0</ele><time>2026-04-03T17:13:53.999Z</time></trkpt><trkpt lat="43.58627689043181" lon="11.320449142749421"><ele>265.6</ele><time>2026-04-03T17:13:54.999Z</time></trkpt><trkpt lat="43.58623179088524" lon="11.320309423044131"><ele>265.20000000000005</ele><time>2026-04-03T17:13:55.999Z</time></trkpt><trkpt lat="43.58618979356712" lon="11.320183722655283"><ele>264.79999999999995</ele><time>2026-04-03T17:13:56.999Z</time></trkpt><trkpt lat="43.586153867567425" lon="11.320073300558171"><ele>264.4</ele><time>2026-04-03T17:13:57.999Z</time></trkpt><trkpt lat="43.58612175809992" lon="11.31995783039672"><ele>264.0</ele><time>2026-04-03T17:13:58.999Z</time></trkpt><trkpt lat="43.58609050331221" lon="11.319844118831801"><ele>264.2</ele><time>2026-04-03T17:13:59.999Z</time></trkpt><trkpt lat="43.58605708966568" lon="11.319752694047278"><ele>264.4</ele><time>2026-04-03T17:14:00.999Z</time></trkpt><trkpt lat="43.586013549352664" lon="11.319661476084185"><ele>264.6</ele><time>2026-04-03T17:14:02.999Z</time></trkpt><trkpt lat="43.5860522348866" lon="11.319509066924741"><ele>264.8</ele><time>2026-04-03T17:14:04.999Z</time></trkpt><trkpt lat="43.586103011868175" lon="11.319359422361252"><ele>265.0</ele><time>2026-04-03T17:14:06.999Z</time></trkpt><trkpt lat="43.58613763000622" lon="11.319285994498937"><ele>264.99999999999994</ele><time>2026-04-03T17:14:07.999Z</time></trkpt><trkpt lat="43.58617173543814" lon="11.319204843205352"><ele>265.0</ele><time>2026-04-03T17:14:08.999Z</time></trkpt><trkpt lat="43.58620642096595" lon="11.319121123802374"><ele>265.0</ele><time>2026-04-03T17:14:09.999Z</time></trkpt><trkpt lat="43.58624222987118" lon="11.319044780576483"><ele>265.0</ele><time>2026-04-03T17:14:10.999Z</time></trkpt><trkpt lat="43.58628486046517" lon="11.3189646747513"><ele>265.0</ele><time>2026-04-03T17:14:11.999Z</time></trkpt><trkpt lat="43.58632867856244" lon="11.318873511160827"><ele>264.99999999999994</ele><time>2026-04-03T17:14:12.999Z</time></trkpt><trkpt lat="43.5863669885545" lon="11.318792129573739"><ele>265.0</ele><time>2026-04-03T17:14:13.999Z</time></trkpt><trkpt lat="43.58642548701788" lon="11.318705735016433"><ele>263.16666666666663</ele><time>2026-04-03T17:14:14.999Z</time></trkpt><trkpt lat="43.586478713741755" lon="11.318633343859284"><ele>261.3333333333333</ele><time>2026-04-03T17:14:15.999Z</time></trkpt><trkpt lat="43.586537484827275" lon="11.318552468249493"><ele>259.5</ele><time>2026-04-03T17:14:16.999Z</time></trkpt><trkpt lat="43.58659256970908" lon="11.31846895818235"><ele>257.6666666666667</ele><time>2026-04-03T17:14:17.999Z</time></trkpt><trkpt lat="43.58664238915504" lon="11.3183927756146"><ele>255.83333333333334</ele><time>2026-04-03T17:14:18.999Z</time></trkpt><trkpt lat="43.586675581627446" lon="11.318318684003003"><ele>254.0</ele><time>2026-04-03T17:14:19.999Z</time></trkpt><trkpt lat="43.586640916493934" lon="11.318158101347024"><ele>254.0</ele><time>2026-04-03T17:14:21.999Z</time></trkpt><trkpt lat="43.586597792174665" lon="11.31808984465878"><ele>253.99999999999997</ele><time>2026-04-03T17:14:22.999Z</time></trkpt><trkpt lat="43.586495489704205" lon="11.317991199920044"><ele>253.99999999999997</ele><time>2026-04-03T17:14:24.999Z</time></trkpt><trkpt lat="43.58640171287755" lon="11.317887874312705"><ele>254.0</ele><time>2026-04-03T17:14:26.999Z</time></trkpt><trkpt lat="43.58639378089762" lon="11.317787577240514"><ele>254.0</ele><time>2026-04-03T17:14:28.999Z</time></trkpt><trkpt lat="43.58646049462134" lon="11.317741225892185"><ele>252.79999999999998</ele><time>2026-04-03T17:14:30.998Z</time></trkpt><trkpt lat="43.58654352486591" lon="11.317744969410272"><ele>251.59999999999997</ele><time>2026-04-03T17:14:32.998Z</time></trkpt><trkpt lat="43.58658450554003" lon="11.317574590324961"><ele>250.4</ele><time>2026-04-03T17:14:34.998Z</time></trkpt><trkpt lat="43.58658074787646" lon="11.317449545699661"><ele>249.2</ele><time>2026-04-03T17:14:35.998Z</time></trkpt><trkpt lat="43.58655393796746" lon="11.317319928108473"><ele>248.0</ele><time>2026-04-03T17:14:36.998Z</time></trkpt><trkpt lat="43.58652786382641" lon="11.31721389704942"><ele>247.2857142857143</ele><time>2026-04-03T17:14:37.998Z</time></trkpt><trkpt lat="43.586516409356065" lon="11.317122194037221"><ele>246.5714285714286</ele><time>2026-04-03T17:14:38.998Z</time></trkpt><trkpt lat="43.58650782224449" lon="11.317031703766848"><ele>245.85714285714286</ele><time>2026-04-03T17:14:39.998Z</time></trkpt><trkpt lat="43.58649828066771" lon="11.316938089033494"><ele>245.14285714285717</ele><time>2026-04-03T17:14:40.998Z</time></trkpt><trkpt lat="43.58647996441925" lon="11.316830107015265"><ele>244.42857142857144</ele><time>2026-04-03T17:14:41.998Z</time></trkpt><trkpt lat="43.586461530655185" lon="11.316716361699754"><ele>243.71428571428572</ele><time>2026-04-03T17:14:42.998Z</time></trkpt><trkpt lat="43.5864463618897" lon="11.316607132683322"><ele>243.0</ele><time>2026-04-03T17:14:43.998Z</time></trkpt><trkpt lat="43.58643603006246" lon="11.31650239328206"><ele>241.71428571428572</ele><time>2026-04-03T17:14:44.998Z</time></trkpt><trkpt lat="43.58642454295447" lon="11.3163952479058"><ele>240.42857142857144</ele><time>2026-04-03T17:14:45.998Z</time></trkpt><trkpt lat="43.586412190286325" lon="11.316289546360505"><ele>239.14285714285717</ele><time>2026-04-03T17:14:46.998Z</time></trkpt><trkpt lat="43.58639859478011" lon="11.316194425741458"><ele>237.85714285714286</ele><time>2026-04-03T17:14:47.998Z</time></trkpt><trkpt lat="43.5863853875113" lon="11.316100430812174"><ele>236.5714285714286</ele><time>2026-04-03T17:14:48.998Z</time></trkpt><trkpt lat="43.58637340453238" lon="11.316011675028378"><ele>235.2857142857143</ele><time>2026-04-03T17:14:49.998Z</time></trkpt><trkpt lat="43.58635959851604" lon="11.315919493783506"><ele>234.0</ele><time>2026-04-03T17:14:50.999Z</time></trkpt><trkpt lat="43.586348373178545" lon="11.315828255677078"><ele>234.0</ele><time>2026-04-03T17:14:51.999Z</time></trkpt><trkpt lat="43.58633979387726" lon="11.31573535188063"><ele>234.0</ele><time>2026-04-03T17:14:52.999Z</time></trkpt><trkpt lat="43.586327412300705" lon="11.31563795188465"><ele>234.0</ele><time>2026-04-03T17:14:53.999Z</time></trkpt><trkpt lat="43.58630672358301" lon="11.315536451153498"><ele>234.0</ele><time>2026-04-03T17:14:54.999Z</time></trkpt><trkpt lat="43.58628923225018" lon="11.315432774955733"><ele>234.0</ele><time>2026-04-03T17:14:55.999Z</time></trkpt><trkpt lat="43.586269403653915" lon="11.315281738245659"><ele>234.0</ele><time>2026-04-03T17:14:58Z</time></trkpt><trkpt lat="43.58626307396868" lon="11.315173901383853"><ele>232.79999999999998</ele><time>2026-04-03T17:14:59.999Z</time></trkpt><trkpt lat="43.58635530099958" lon="11.315156042962068"><ele>231.59999999999997</ele><time>2026-04-03T17:15:01Z</time></trkpt><trkpt lat="43.58644666086698" lon="11.315127841703267"><ele>230.4</ele><time>2026-04-03T17:15:02Z</time></trkpt><trkpt lat="43.58655447444395" lon="11.315117278942223"><ele>229.2</ele><time>2026-04-03T17:15:03Z</time></trkpt><trkpt lat="43.58667606626563" lon="11.315094158250098"><ele>228.0</ele><time>2026-04-03T17:15:04Z</time></trkpt><trkpt lat="43.586816142953815" lon="11.315063119195354"><ele>228.0</ele><time>2026-04-03T17:15:05Z</time></trkpt><trkpt lat="43.586951511597526" lon="11.31502783429153"><ele>228.0</ele><time>2026-04-03T17:15:05.999Z</time></trkpt><trkpt lat="43.58706864135449" lon="11.315000801796357"><ele>228.0</ele><time>2026-04-03T17:15:06.999Z</time></trkpt><trkpt lat="43.587182137343845" lon="11.314983289920992"><ele>228.0</ele><time>2026-04-03T17:15:07.999Z</time></trkpt><trkpt lat="43.58729031672467" lon="11.314959169659282"><ele>227.8</ele><time>2026-04-03T17:15:08.999Z</time></trkpt><trkpt lat="43.587392703683776" lon="11.314937187234145"><ele>227.60000000000002</ele><time>2026-04-03T17:15:09.999Z</time></trkpt><trkpt lat="43.58748468175079" lon="11.314921564950655"><ele>227.39999999999998</ele><time>2026-04-03T17:15:10.999Z</time></trkpt><trkpt lat="43.587573684436904" lon="11.314926336364495"><ele>227.2</ele><time>2026-04-03T17:15:11.999Z</time></trkpt><trkpt lat="43.58766812611116" lon="11.314908789820782"><ele>227.0</ele><time>2026-04-03T17:15:12.999Z</time></trkpt><trkpt lat="43.58774392594208" lon="11.314894706794353"><ele>227.0</ele><time>2026-04-03T17:15:14.999Z</time></trkpt><trkpt lat="43.58766418236904" lon="11.314708539222021"><ele>227.0</ele><time>2026-04-03T17:15:17.999Z</time></trkpt><trkpt lat="43.587591780373906" lon="11.314671331927748"><ele>227.0</ele><time>2026-04-03T17:15:19.999Z</time></trkpt><trkpt lat="43.58749751926471" lon="11.314644025538199"><ele>227.0</ele><time>2026-04-03T17:15:21.999Z</time></trkpt><trkpt lat="43.587400229976076" lon="11.314594172318603"><ele>227.0</ele><time>2026-04-03T17:15:23.999Z</time></trkpt><trkpt lat="43.58733074433067" lon="11.314551830148808"><ele>227.0</ele><time>2026-04-03T17:15:24.999Z</time></trkpt><trkpt lat="43.58726078954402" lon="11.314491504015935"><ele>227.00000000000003</ele><time>2026-04-03T17:15:25.999Z</time></trkpt><trkpt lat="43.5872095067781" lon="11.31443629337198"><ele>227.0</ele><time>2026-04-03T17:15:29Z</time></trkpt><trkpt lat="43.58714852391145" lon="11.314390190911116"><ele>227.0</ele><time>2026-04-03T17:15:32Z</time></trkpt><trkpt lat="43.58708601331219" lon="11.31433732341596"><ele>227.00000000000003</ele><time>2026-04-03T17:15:36Z</time></trkpt><trkpt lat="43.58702449172306" lon="11.3142826223788"><ele>227.0</ele><time>2026-04-03T17:15:39Z</time></trkpt><trkpt lat="43.58697477283714" lon="11.31422211879724"><ele>227.0</ele><time>2026-04-03T17:15:41Z</time></trkpt><trkpt lat="43.58689175199436" lon="11.314142525460465"><ele>227.16666666666669</ele><time>2026-04-03T17:15:43Z</time></trkpt><trkpt lat="43.58681618094685" lon="11.314072805581691"><ele>227.33333333333334</ele><time>2026-04-03T17:15:44Z</time></trkpt><trkpt lat="43.58672913220478" lon="11.314001203242702"><ele>227.5</ele><time>2026-04-03T17:15:45Z</time></trkpt><trkpt lat="43.58666381628044" lon="11.313901761986116"><ele>227.66666666666669</ele><time>2026-04-03T17:15:46Z</time></trkpt><trkpt lat="43.586607365562465" lon="11.313847239527364"><ele>227.83333333333334</ele><time>2026-04-03T17:15:47Z</time></trkpt><trkpt lat="43.58659737394272" lon="11.313742951087647"><ele>228.0</ele><time>2026-04-03T17:15:49Z</time></trkpt><trkpt lat="43.5866595148262" lon="11.313701688218686"><ele>228.2</ele><time>2026-04-03T17:15:50Z</time></trkpt><trkpt lat="43.586741800249335" lon="11.31368181666014"><ele>228.4</ele><time>2026-04-03T17:15:51Z</time></trkpt><trkpt lat="43.586848732609006" lon="11.313707741419485"><ele>228.59999999999997</ele><time>2026-04-03T17:15:52Z</time></trkpt><trkpt lat="43.58696239067985" lon="11.31374916629099"><ele>228.79999999999998</ele><time>2026-04-03T17:15:53Z</time></trkpt><trkpt lat="43.58708968518617" lon="11.31377547233247"><ele>229.0</ele><time>2026-04-03T17:15:54Z</time></trkpt><trkpt lat="43.58722376246555" lon="11.313784113779114"><ele>229.25</ele><time>2026-04-03T17:15:55Z</time></trkpt><trkpt lat="43.587363645976204" lon="11.313797149549927"><ele>229.5</ele><time>2026-04-03T17:15:56Z</time></trkpt><trkpt lat="43.58748835729732" lon="11.31381649562593"><ele>229.75</ele><time>2026-04-03T17:15:57Z</time></trkpt><trkpt lat="43.58760190952778" lon="11.313825203352916"><ele>230.0</ele><time>2026-04-03T17:15:58Z</time></trkpt><trkpt lat="43.58769924639625" lon="11.313851443344218"><ele>230.0</ele><time>2026-04-03T17:15:59Z</time></trkpt><trkpt lat="43.58780767331166" lon="11.313871586373574"><ele>230.0</ele><time>2026-04-03T17:16:00Z</time></trkpt><trkpt lat="43.58792337279963" lon="11.313871900175927"><ele>230.0</ele><time>2026-04-03T17:16:01Z</time></trkpt><trkpt lat="43.58803425459401" lon="11.313882387549572"><ele>230.0</ele><time>2026-04-03T17:16:02Z</time></trkpt><trkpt lat="43.58814730044514" lon="11.31389392560495"><ele>229.4</ele><time>2026-04-03T17:16:03Z</time></trkpt><trkpt lat="43.58825745117713" lon="11.313904359648673"><ele>228.8</ele><time>2026-04-03T17:16:04Z</time></trkpt><trkpt lat="43.58836414303355" lon="11.313917104937975"><ele>228.2</ele><time>2026-04-03T17:16:05Z</time></trkpt><trkpt lat="43.58847231554194" lon="11.313916701966704"><ele>227.6</ele><time>2026-04-03T17:16:06Z</time></trkpt><trkpt lat="43.58857918107786" lon="11.313949155658884"><ele>227.0</ele><time>2026-04-03T17:16:07Z</time></trkpt><trkpt lat="43.58868451076701" lon="11.313963262317323"><ele>226.6</ele><time>2026-04-03T17:16:08Z</time></trkpt><trkpt lat="43.588791134180134" lon="11.313975716016502"><ele>226.2</ele><time>2026-04-03T17:16:09Z</time></trkpt><trkpt lat="43.58889607622954" lon="11.31398672263939"><ele>225.8</ele><time>2026-04-03T17:16:10Z</time></trkpt><trkpt lat="43.58900537507596" lon="11.313998186200394"><ele>225.4</ele><time>2026-04-03T17:16:11Z</time></trkpt><trkpt lat="43.58911208523295" lon="11.314004159289725"><ele>225.0</ele><time>2026-04-03T17:16:12Z</time></trkpt><trkpt lat="43.589218820065646" lon="11.314018184553904"><ele>225.0</ele><time>2026-04-03T17:16:13Z</time></trkpt><trkpt lat="43.58932971238478" lon="11.314028658962469"><ele>225.0</ele><time>2026-04-03T17:16:14Z</time></trkpt><trkpt lat="43.58943842045088" lon="11.314040864383687"><ele>225.0</ele><time>2026-04-03T17:16:15Z</time></trkpt><trkpt lat="43.589545508126804" lon="11.314045185661543"><ele>225.0</ele><time>2026-04-03T17:16:16Z</time></trkpt><trkpt lat="43.58964547351456" lon="11.314052041221531"><ele>225.0</ele><time>2026-04-03T17:16:17Z</time></trkpt><trkpt lat="43.589737781808694" lon="11.31405645752841"><ele>224.66666666666666</ele><time>2026-04-03T17:16:18Z</time></trkpt><trkpt lat="43.589819517571264" lon="11.314062733917533"><ele>224.33333333333331</ele><time>2026-04-03T17:16:19Z</time></trkpt><trkpt lat="43.589897634046615" lon="11.314061119667603"><ele>224.0</ele><time>2026-04-03T17:16:20Z</time></trkpt><trkpt lat="43.58997181460601" lon="11.314035040288328"><ele>223.66666666666666</ele><time>2026-04-03T17:16:21Z</time></trkpt><trkpt lat="43.59004834161242" lon="11.313976924071456"><ele>223.33333333333331</ele><time>2026-04-03T17:16:22Z</time></trkpt><trkpt lat="43.59011740640259" lon="11.313901669209043"><ele>223.0</ele><time>2026-04-03T17:16:23Z</time></trkpt><trkpt lat="43.59016384225943" lon="11.313816281768727"><ele>222.66666666666666</ele><time>2026-04-03T17:16:24Z</time></trkpt><trkpt lat="43.590177910187634" lon="11.313712528070502"><ele>222.33333333333331</ele><time>2026-04-03T17:16:25Z</time></trkpt><trkpt lat="43.590168141198596" lon="11.313584998105608"><ele>222.0</ele><time>2026-04-03T17:16:26Z</time></trkpt><trkpt lat="43.59015645683695" lon="11.313453173410165"><ele>221.66666666666669</ele><time>2026-04-03T17:16:27Z</time></trkpt><trkpt lat="43.5901599814642" lon="11.313336913753762"><ele>221.33333333333334</ele><time>2026-04-03T17:16:28Z</time></trkpt><trkpt lat="43.59016362705392" lon="11.313205422039347"><ele>221.0</ele><time>2026-04-03T17:16:29Z</time></trkpt><trkpt lat="43.590190007942766" lon="11.313075232281516"><ele>221.16666666666669</ele><time>2026-04-03T17:16:30Z</time></trkpt><trkpt lat="43.59019662235742" lon="11.312949147898168"><ele>221.33333333333334</ele><time>2026-04-03T17:16:31Z</time></trkpt><trkpt lat="43.5902057300842" lon="11.312825326884484"><ele>221.5</ele><time>2026-04-03T17:16:32Z</time></trkpt><trkpt lat="43.59021670945265" lon="11.312704720775498"><ele>221.66666666666669</ele><time>2026-04-03T17:16:33Z</time></trkpt><trkpt lat="43.590228977401665" lon="11.312586993548189"><ele>221.83333333333334</ele><time>2026-04-03T17:16:34Z</time></trkpt><trkpt lat="43.590242167687414" lon="11.312472163265074"><ele>222.0</ele><time>2026-04-03T17:16:35Z</time></trkpt><trkpt lat="43.590255462375744" lon="11.31235642412827"><ele>222.0</ele><time>2026-04-03T17:16:36Z</time></trkpt><trkpt lat="43.59026996359773" lon="11.312239928301961"><ele>222.0</ele><time>2026-04-03T17:16:37Z</time></trkpt><trkpt lat="43.59028646708663" lon="11.312117034040366"><ele>222.0</ele><time>2026-04-03T17:16:37.999Z</time></trkpt><trkpt lat="43.5903035816892" lon="11.311996007368242"><ele>222.0</ele><time>2026-04-03T17:16:38.999Z</time></trkpt><trkpt lat="43.59030618053261" lon="11.311869236766501"><ele>222.0</ele><time>2026-04-03T17:16:39.999Z</time></trkpt><trkpt lat="43.590331270729635" lon="11.31174984931746"><ele>222.0</ele><time>2026-04-03T17:16:40.999Z</time></trkpt><trkpt lat="43.590356205956866" lon="11.311629925033229"><ele>221.6</ele><time>2026-04-03T17:16:41.999Z</time></trkpt><trkpt lat="43.590401475442334" lon="11.311525688658719"><ele>221.2</ele><time>2026-04-03T17:16:42.999Z</time></trkpt><trkpt lat="43.59045539393965" lon="11.311423065319463"><ele>220.8</ele><time>2026-04-03T17:16:43.999Z</time></trkpt><trkpt lat="43.59052227171481" lon="11.311312140360885"><ele>220.4</ele><time>2026-04-03T17:16:44.999Z</time></trkpt><trkpt lat="43.59058903891304" lon="11.311177495651979"><ele>220.0</ele><time>2026-04-03T17:16:45.999Z</time></trkpt><trkpt lat="43.59067613086732" lon="11.311068778699713"><ele>221.25</ele><time>2026-04-03T17:16:46.999Z</time></trkpt><trkpt lat="43.59077131091145" lon="11.310959387425358"><ele>222.5</ele><time>2026-04-03T17:16:47.999Z</time></trkpt><trkpt lat="43.590891300843666" lon="11.310899209307255"><ele>223.75</ele><time>2026-04-03T17:16:48.999Z</time></trkpt><trkpt lat="43.59101796120481" lon="11.31086082673526"><ele>225.0</ele><time>2026-04-03T17:16:49.999Z</time></trkpt><trkpt lat="43.5911495116563" lon="11.31085750788169"><ele>227.0</ele><time>2026-04-03T17:16:50.999Z</time></trkpt><trkpt lat="43.59128937729032" lon="11.310859320979176"><ele>229.0</ele><time>2026-04-03T17:16:51.999Z</time></trkpt><trkpt lat="43.59142654664085" lon="11.310865036090515"><ele>231.0</ele><time>2026-04-03T17:16:52.999Z</time></trkpt><trkpt lat="43.59156057637924" lon="11.310871490452653"><ele>233.0</ele><time>2026-04-03T17:16:53.999Z</time></trkpt><trkpt lat="43.59170185065647" lon="11.310878049723442"><ele>233.0</ele><time>2026-04-03T17:16:54.999Z</time></trkpt><trkpt lat="43.59183930255696" lon="11.3108602845486"><ele>233.0</ele><time>2026-04-03T17:16:55.999Z</time></trkpt><trkpt lat="43.59197383955507" lon="11.310876738125552"><ele>233.0</ele><time>2026-04-03T17:16:57.001Z</time></trkpt><trkpt lat="43.59210491103261" lon="11.310870111077001"><ele>233.0</ele><time>2026-04-03T17:16:58.001Z</time></trkpt><trkpt lat="43.592236877241525" lon="11.310861694068542"><ele>236.25</ele><time>2026-04-03T17:16:59.001Z</time></trkpt><trkpt lat="43.59236680183361" lon="11.310865664134354"><ele>239.5</ele><time>2026-04-03T17:17:00.001Z</time></trkpt><trkpt lat="43.59249112389428" lon="11.310893836536449"><ele>242.75</ele><time>2026-04-03T17:17:01.001Z</time></trkpt><trkpt lat="43.59261094237543" lon="11.31086281819935"><ele>246.0</ele><time>2026-04-03T17:17:02.001Z</time></trkpt><trkpt lat="43.5927258709906" lon="11.310817753613467"><ele>247.5</ele><time>2026-04-03T17:17:03.001Z</time></trkpt><trkpt lat="43.592847816839516" lon="11.310750448071117"><ele>249.0</ele><time>2026-04-03T17:17:04.001Z</time></trkpt><trkpt lat="43.59297024080376" lon="11.31068139465286"><ele>250.5</ele><time>2026-04-03T17:17:05.001Z</time></trkpt><trkpt lat="43.593086913604466" lon="11.310612845592813"><ele>252.0</ele><time>2026-04-03T17:17:06.001Z</time></trkpt><trkpt lat="43.59321930385379" lon="11.310562277108835"><ele>252.0</ele><time>2026-04-03T17:17:07.001Z</time></trkpt><trkpt lat="43.59334651234972" lon="11.310494899210989"><ele>252.0</ele><time>2026-04-03T17:17:08Z</time></trkpt><trkpt lat="43.59346250439636" lon="11.310434425554995"><ele>252.0</ele><time>2026-04-03T17:17:09.001Z</time></trkpt><trkpt lat="43.593572754315" lon="11.310364191528825"><ele>252.0</ele><time>2026-04-03T17:17:10.001Z</time></trkpt><trkpt lat="43.593686079859" lon="11.310308134471498"><ele>253.75</ele><time>2026-04-03T17:17:11Z</time></trkpt><trkpt lat="43.59379373007074" lon="11.3102303564904"><ele>255.5</ele><time>2026-04-03T17:17:12Z</time></trkpt><trkpt lat="43.59388737149829" lon="11.310120903271644"><ele>257.25</ele><time>2026-04-03T17:17:13Z</time></trkpt><trkpt lat="43.59395596378923" lon="11.309969801180333"><ele>259.0</ele><time>2026-04-03T17:17:14Z</time></trkpt><trkpt lat="43.594000389359074" lon="11.30977460768001"><ele>259.66666666666663</ele><time>2026-04-03T17:17:15Z</time></trkpt><trkpt lat="43.59403457435042" lon="11.309557490283686"><ele>260.3333333333333</ele><time>2026-04-03T17:17:16Z</time></trkpt><trkpt lat="43.59408492542271" lon="11.309335954895415"><ele>261.0</ele><time>2026-04-03T17:17:17Z</time></trkpt><trkpt lat="43.59413484944799" lon="11.309121750017436"><ele>261.0</ele><time>2026-04-03T17:17:18Z</time></trkpt><trkpt lat="43.5941885207121" lon="11.308962832757375"><ele>261.0</ele><time>2026-04-03T17:17:19Z</time></trkpt><trkpt lat="43.594216976019766" lon="11.308795623858902"><ele>261.0</ele><time>2026-04-03T17:17:20Z</time></trkpt><trkpt lat="43.594249694181016" lon="11.308633837398453"><ele>261.0</ele><time>2026-04-03T17:17:21Z</time></trkpt><trkpt lat="43.59426190547551" lon="11.308446860186248"><ele>261.25</ele><time>2026-04-03T17:17:22Z</time></trkpt><trkpt lat="43.594275714446646" lon="11.308262324936077"><ele>261.5</ele><time>2026-04-03T17:17:23Z</time></trkpt><trkpt lat="43.59429617918768" lon="11.308086494522062"><ele>261.75</ele><time>2026-04-03T17:17:24Z</time></trkpt><trkpt lat="43.59432441429565" lon="11.30791826269957"><ele>262.0</ele><time>2026-04-03T17:17:25Z</time></trkpt><trkpt lat="43.59433037794009" lon="11.307737664730324"><ele>262.75</ele><time>2026-04-03T17:17:26Z</time></trkpt><trkpt lat="43.59434776115948" lon="11.307562378570763"><ele>263.5</ele><time>2026-04-03T17:17:27Z</time></trkpt><trkpt lat="43.594364981914474" lon="11.307390795461652"><ele>264.25</ele><time>2026-04-03T17:17:28Z</time></trkpt><trkpt lat="43.59438362142015" lon="11.30721756063845"><ele>265.0</ele><time>2026-04-03T17:17:29Z</time></trkpt><trkpt lat="43.594401332848435" lon="11.307045044175906"><ele>266.0</ele><time>2026-04-03T17:17:30Z</time></trkpt><trkpt lat="43.59442050720251" lon="11.306874442876547"><ele>267.0</ele><time>2026-04-03T17:17:31Z</time></trkpt><trkpt lat="43.59443966299639" lon="11.306705503272783"><ele>268.0</ele><time>2026-04-03T17:17:32Z</time></trkpt><trkpt lat="43.59445410323149" lon="11.306539793465845"><ele>269.0</ele><time>2026-04-03T17:17:33Z</time></trkpt><trkpt lat="43.594468995196536" lon="11.30637601938818"><ele>269.0</ele><time>2026-04-03T17:17:34Z</time></trkpt><trkpt lat="43.594482871384834" lon="11.306205101509196"><ele>269.0</ele><time>2026-04-03T17:17:35Z</time></trkpt><trkpt lat="43.59449998264554" lon="11.306035337404126"><ele>269.0</ele><time>2026-04-03T17:17:36Z</time></trkpt><trkpt lat="43.594500009024095" lon="11.30585740160077"><ele>269.0</ele><time>2026-04-03T17:17:37Z</time></trkpt><trkpt lat="43.594499273864585" lon="11.305676998061525"><ele>270.0</ele><time>2026-04-03T17:17:38Z</time></trkpt><trkpt lat="43.59449061172854" lon="11.30549635105345"><ele>271.0</ele><time>2026-04-03T17:17:39Z</time></trkpt><trkpt lat="43.59448233509184" lon="11.305321903262028"><ele>272.0</ele><time>2026-04-03T17:17:40Z</time></trkpt><trkpt lat="43.59448110582327" lon="11.305150814349963"><ele>273.0</ele><time>2026-04-03T17:17:41Z</time></trkpt><trkpt lat="43.59447049061169" lon="11.304985631860822"><ele>273.0</ele><time>2026-04-03T17:17:42Z</time></trkpt><trkpt lat="43.594468312379696" lon="11.30482353255132"><ele>273.0</ele><time>2026-04-03T17:17:43Z</time></trkpt><trkpt lat="43.594464900907106" lon="11.304659596610975"><ele>273.0</ele><time>2026-04-03T17:17:44Z</time></trkpt><trkpt lat="43.59445974058912" lon="11.304511170254461"><ele>273.0</ele><time>2026-04-03T17:17:45Z</time></trkpt><trkpt lat="43.594457292076896" lon="11.304386820961216"><ele>273.0</ele><time>2026-04-03T17:17:46Z</time></trkpt><trkpt lat="43.594453546434224" lon="11.304278437214098"><ele>274.1666666666667</ele><time>2026-04-03T17:17:47Z</time></trkpt><trkpt lat="43.59444790730867" lon="11.304187127443322"><ele>275.3333333333333</ele><time>2026-04-03T17:17:48Z</time></trkpt><trkpt lat="43.5944439485489" lon="11.304085740689596"><ele>276.5</ele><time>2026-04-03T17:17:49Z</time></trkpt><trkpt lat="43.59443989099503" lon="11.303964974461717"><ele>277.66666666666663</ele><time>2026-04-03T17:17:50Z</time></trkpt><trkpt lat="43.594450060477406" lon="11.303829873200248"><ele>278.8333333333333</ele><time>2026-04-03T17:17:51Z</time></trkpt><trkpt lat="43.59444668151233" lon="11.303693649541772"><ele>280.0</ele><time>2026-04-03T17:17:52Z</time></trkpt><trkpt lat="43.594443281343274" lon="11.303556571175534"><ele>281.4</ele><time>2026-04-03T17:17:53Z</time></trkpt><trkpt lat="43.59443966842613" lon="11.303408375709937"><ele>282.8</ele><time>2026-04-03T17:17:54Z</time></trkpt><trkpt lat="43.594436469157394" lon="11.303257641079831"><ele>284.2</ele><time>2026-04-03T17:17:55Z</time></trkpt><trkpt lat="43.59443346709938" lon="11.303116198162293"><ele>285.6</ele><time>2026-04-03T17:17:56Z</time></trkpt><trkpt lat="43.594428485588296" lon="11.302975661973731"><ele>287.0</ele><time>2026-04-03T17:17:57Z</time></trkpt><trkpt lat="43.59440770385157" lon="11.302845683706623"><ele>288.4</ele><time>2026-04-03T17:17:58Z</time></trkpt><trkpt lat="43.59443286026763" lon="11.302736086598873"><ele>289.79999999999995</ele><time>2026-04-03T17:17:59Z</time></trkpt><trkpt lat="43.594466146121306" lon="11.302634107794765"><ele>291.2</ele><time>2026-04-03T17:18:00Z</time></trkpt><trkpt lat="43.594503233962314" lon="11.302502609741236"><ele>292.59999999999997</ele><time>2026-04-03T17:18:01Z</time></trkpt><trkpt lat="43.59455560262085" lon="11.30237440178669"><ele>294.0</ele><time>2026-04-03T17:18:02Z</time></trkpt><trkpt lat="43.594619295597326" lon="11.302271448531066"><ele>297.8</ele><time>2026-04-03T17:18:03Z</time></trkpt><trkpt lat="43.594670811715716" lon="11.302144537950658"><ele>301.59999999999997</ele><time>2026-04-03T17:18:04Z</time></trkpt><trkpt lat="43.594711384964626" lon="11.302032277038265"><ele>305.4</ele><time>2026-04-03T17:18:05Z</time></trkpt><trkpt lat="43.5947455479706" lon="11.301917351211472"><ele>309.2</ele><time>2026-04-03T17:18:06Z</time></trkpt><trkpt lat="43.59477313619684" lon="11.301822313974386"><ele>313.0</ele><time>2026-04-03T17:18:07Z</time></trkpt><trkpt lat="43.594812665297134" lon="11.301686140913324"><ele>313.0</ele><time>2026-04-03T17:18:09Z</time></trkpt><trkpt lat="43.59471519685486" lon="11.301565784842087"><ele>313.0</ele><time>2026-04-03T17:18:10Z</time></trkpt><trkpt lat="43.59467773145237" lon="11.301471717567047"><ele>313.0</ele><time>2026-04-03T17:18:11Z</time></trkpt><trkpt lat="43.59465074607617" lon="11.301355754867291"><ele>313.0</ele><time>2026-04-03T17:18:12Z</time></trkpt><trkpt lat="43.59461277891306" lon="11.301248254485415"><ele>313.0</ele><time>2026-04-03T17:18:13Z</time></trkpt><trkpt lat="43.59455982210548" lon="11.301152479991773"><ele>313.5</ele><time>2026-04-03T17:18:14Z</time></trkpt><trkpt lat="43.59453428662664" lon="11.301031228663597"><ele>314.0</ele><time>2026-04-03T17:18:15Z</time></trkpt><trkpt lat="43.59449712407809" lon="11.30092388328784"><ele>314.5</ele><time>2026-04-03T17:18:16Z</time></trkpt><trkpt lat="43.59445844507812" lon="11.300810241278551"><ele>315.0</ele><time>2026-04-03T17:18:17Z</time></trkpt><trkpt lat="43.59441072062477" lon="11.300709633521235"><ele>315.5</ele><time>2026-04-03T17:18:18Z</time></trkpt><trkpt lat="43.59437117296577" lon="11.300598742440728"><ele>316.0</ele><time>2026-04-03T17:18:19Z</time></trkpt><trkpt lat="43.59432805466674" lon="11.300501874726848"><ele>318.16666666666663</ele><time>2026-04-03T17:18:20Z</time></trkpt><trkpt lat="43.594290773002605" lon="11.300393505203198"><ele>320.3333333333333</ele><time>2026-04-03T17:18:21Z</time></trkpt><trkpt lat="43.594249138592765" lon="11.300287222474608"><ele>322.5</ele><time>2026-04-03T17:18:22Z</time></trkpt><trkpt lat="43.59422212295534" lon="11.30016971321642"><ele>324.6666666666667</ele><time>2026-04-03T17:18:23Z</time></trkpt><trkpt lat="43.59420540278754" lon="11.30006521096993"><ele>326.83333333333337</ele><time>2026-04-03T17:18:24Z</time></trkpt><trkpt lat="43.5941822260434" lon="11.299945190913794"><ele>329.0</ele><time>2026-04-03T17:18:25Z</time></trkpt><trkpt lat="43.59423464355635" lon="11.299845294133185"><ele>331.4</ele><time>2026-04-03T17:18:26Z</time></trkpt><trkpt lat="43.59426812141601" lon="11.299723594889112"><ele>333.79999999999995</ele><time>2026-04-03T17:18:27Z</time></trkpt><trkpt lat="43.59428752033345" lon="11.299593419327536"><ele>336.20000000000005</ele><time>2026-04-03T17:18:28Z</time></trkpt><trkpt lat="43.59431997267897" lon="11.299470030684045"><ele>338.6</ele><time>2026-04-03T17:18:29Z</time></trkpt><trkpt lat="43.59435506044237" lon="11.299336471927022"><ele>341.0</ele><time>2026-04-03T17:18:30Z</time></trkpt><trkpt lat="43.59438786172019" lon="11.299205862300607"><ele>341.0</ele><time>2026-04-03T17:18:31Z</time></trkpt><trkpt lat="43.59441656865716" lon="11.299094079194203"><ele>341.0</ele><time>2026-04-03T17:18:32Z</time></trkpt><trkpt lat="43.59444000313171" lon="11.298991332796207"><ele>341.0</ele><time>2026-04-03T17:18:33Z</time></trkpt><trkpt lat="43.594459158874145" lon="11.298858444918864"><ele>341.0</ele><time>2026-04-03T17:18:35Z</time></trkpt><trkpt lat="43.59439094300331" lon="11.29875128827738"><ele>341.0</ele><time>2026-04-03T17:18:37Z</time></trkpt><trkpt lat="43.59429444269204" lon="11.298760612565536"><ele>343.0</ele><time>2026-04-03T17:18:38Z</time></trkpt><trkpt lat="43.59421836737258" lon="11.298738323866814"><ele>345.0</ele><time>2026-04-03T17:18:39Z</time></trkpt><trkpt lat="43.594113856940076" lon="11.298699661525534"><ele>347.0</ele><time>2026-04-03T17:18:41Z</time></trkpt><trkpt lat="43.59405089622467" lon="11.298582476047438"><ele>349.0</ele><time>2026-04-03T17:18:42.999Z</time></trkpt><trkpt lat="43.593991389024815" lon="11.298453097908798"><ele>351.0</ele><time>2026-04-03T17:18:44.999Z</time></trkpt><trkpt lat="43.59399462725004" lon="11.298330822626616"><ele>351.0</ele><time>2026-04-03T17:18:46.999Z</time></trkpt><trkpt lat="43.59410514511467" lon="11.298243816597054"><ele>351.0</ele><time>2026-04-03T17:18:48.999Z</time></trkpt><trkpt lat="43.594160307908545" lon="11.298201121549644"><ele>351.0</ele><time>2026-04-03T17:18:49.999Z</time></trkpt><trkpt lat="43.59421434060274" lon="11.298149197768787"><ele>351.0</ele><time>2026-04-03T17:18:50.999Z</time></trkpt><trkpt lat="43.594270938893615" lon="11.298097818347049"><ele>351.0</ele><time>2026-04-03T17:18:51.999Z</time></trkpt><trkpt lat="43.59432406433838" lon="11.298048618345774"><ele>351.0</ele><time>2026-04-03T17:18:52.999Z</time></trkpt><trkpt lat="43.594404947893615" lon="11.297968952069501"><ele>351.4</ele><time>2026-04-03T17:18:54.999Z</time></trkpt><trkpt lat="43.59450297818093" lon="11.297883018396783"><ele>351.8</ele><time>2026-04-03T17:19:11Z</time></trkpt><trkpt lat="43.59456348348561" lon="11.297827660656079"><ele>352.2</ele><time>2026-04-03T17:19:12Z</time></trkpt><trkpt lat="43.594627778363694" lon="11.29775509102509"><ele>352.59999999999997</ele><time>2026-04-03T17:19:13Z</time></trkpt><trkpt lat="43.59470922004558" lon="11.29770575490529"><ele>353.0</ele><time>2026-04-03T17:19:14Z</time></trkpt><trkpt lat="43.59478871588785" lon="11.297630633611439"><ele>355.2</ele><time>2026-04-03T17:19:15Z</time></trkpt><trkpt lat="43.594871726228206" lon="11.2975517478151"><ele>357.4</ele><time>2026-04-03T17:19:16Z</time></trkpt><trkpt lat="43.59494348008766" lon="11.297462472430945"><ele>359.59999999999997</ele><time>2026-04-03T17:19:17Z</time></trkpt><trkpt lat="43.59502244913055" lon="11.297380104229308"><ele>361.79999999999995</ele><time>2026-04-03T17:19:18Z</time></trkpt><trkpt lat="43.59510864368959" lon="11.297315178742256"><ele>364.0</ele><time>2026-04-03T17:19:19Z</time></trkpt><trkpt lat="43.59517593578683" lon="11.297251967966421"><ele>366.0</ele><time>2026-04-03T17:19:20Z</time></trkpt><trkpt lat="43.595243382815255" lon="11.297145571061558"><ele>368.0</ele><time>2026-04-03T17:19:22Z</time></trkpt><trkpt lat="43.5952842859626" lon="11.29704761431864"><ele>370.0</ele><time>2026-04-03T17:19:24Z</time></trkpt><trkpt lat="43.59520204243254" lon="11.2968805856527"><ele>372.0</ele><time>2026-04-03T17:19:26Z</time></trkpt><trkpt lat="43.59519741244972" lon="11.296774857688572"><ele>374.0</ele><time>2026-04-03T17:19:27Z</time></trkpt><trkpt lat="43.59519949202259" lon="11.296670266230958"><ele>374.0</ele><time>2026-04-03T17:19:28Z</time></trkpt><trkpt lat="43.59520128858446" lon="11.296579909454604"><ele>374.0</ele><time>2026-04-03T17:19:29Z</time></trkpt><trkpt lat="43.595210686490866" lon="11.29648215140357"><ele>374.0</ele><time>2026-04-03T17:19:30Z</time></trkpt><trkpt lat="43.59522304604688" lon="11.296375071501956"><ele>374.0</ele><time>2026-04-03T17:19:31Z</time></trkpt><trkpt lat="43.59523690215568" lon="11.296270050784258"><ele>374.0</ele><time>2026-04-03T17:19:32Z</time></trkpt><trkpt lat="43.59568740967863" lon="11.296123886936673"><ele>376.1666666666667</ele><time>2026-04-03T17:19:34Z</time></trkpt><trkpt lat="43.59573765128246" lon="11.296063096781065"><ele>378.33333333333337</ele><time>2026-04-03T17:19:35Z</time></trkpt><trkpt lat="43.59579668579481" lon="11.295985226753528"><ele>380.5</ele><time>2026-04-03T17:19:36Z</time></trkpt><trkpt lat="43.59585193154926" lon="11.2959204204973"><ele>382.6666666666667</ele><time>2026-04-03T17:19:37Z</time></trkpt><trkpt lat="43.59592281891705" lon="11.295806178163645"><ele>384.8333333333333</ele><time>2026-04-03T17:19:39Z</time></trkpt><trkpt lat="43.59598145413605" lon="11.295739743599167"><ele>387.0</ele><time>2026-04-03T17:19:40Z</time></trkpt><trkpt lat="43.596035946430426" lon="11.295681895943474"><ele>387.0</ele><time>2026-04-03T17:19:41Z</time></trkpt><trkpt lat="43.59610588571474" lon="11.295601979107639"><ele>387.0</ele><time>2026-04-03T17:19:42Z</time></trkpt><trkpt lat="43.59620574023545" lon="11.295453379881828"><ele>387.0</ele><time>2026-04-03T17:19:44Z</time></trkpt><trkpt lat="43.59625901738154" lon="11.295381889532182"><ele>387.0</ele><time>2026-04-03T17:19:45Z</time></trkpt><trkpt lat="43.596307898625234" lon="11.295287257086262"><ele>387.0</ele><time>2026-04-03T17:19:46Z</time></trkpt><trkpt lat="43.596337242579075" lon="11.29519916316577"><ele>388.0</ele><time>2026-04-03T17:19:47Z</time></trkpt><trkpt lat="43.59633268608094" lon="11.295027872962567"><ele>389.0</ele><time>2026-04-03T17:19:49Z</time></trkpt><trkpt lat="43.59633858406329" lon="11.294925779860497"><ele>390.0</ele><time>2026-04-03T17:19:50Z</time></trkpt><trkpt lat="43.59635170260042" lon="11.294782548177505"><ele>391.0</ele><time>2026-04-03T17:19:51Z</time></trkpt><trkpt lat="43.59637235369799" lon="11.294658575077806"><ele>392.0</ele><time>2026-04-03T17:19:52Z</time></trkpt><trkpt lat="43.596397083211734" lon="11.294575251084083"><ele>392.0</ele><time>2026-04-03T17:19:53Z</time></trkpt><trkpt lat="43.59645709537628" lon="11.294403118894877"><ele>392.0</ele><time>2026-04-03T17:19:55Z</time></trkpt><trkpt lat="43.59649421154585" lon="11.294281475249571"><ele>392.0</ele><time>2026-04-03T17:19:56Z</time></trkpt><trkpt lat="43.596548919831655" lon="11.294204729391486"><ele>392.0</ele><time>2026-04-03T17:19:57Z</time></trkpt><trkpt lat="43.596623033134726" lon="11.294123876259508"><ele>392.0</ele><time>2026-04-03T17:19:58Z</time></trkpt><trkpt lat="43.596682069819025" lon="11.293994371798025"><ele>395.0</ele><time>2026-04-03T17:19:59Z</time></trkpt><trkpt lat="43.59673768240343" lon="11.29387854550374"><ele>398.0</ele><time>2026-04-03T17:20:00Z</time></trkpt><trkpt lat="43.5967938927957" lon="11.293786331493838"><ele>401.0</ele><time>2026-04-03T17:20:01Z</time></trkpt><trkpt lat="43.59683837433059" lon="11.293708122525807"><ele>404.0</ele><time>2026-04-03T17:20:02Z</time></trkpt><trkpt lat="43.596923844764504" lon="11.293571822209378"><ele>407.0</ele><time>2026-04-03T17:20:04Z</time></trkpt><trkpt lat="43.59698177165332" lon="11.29343288562249"><ele>405.49999999999994</ele><time>2026-04-03T17:20:06Z</time></trkpt><trkpt lat="43.59701881672579" lon="11.29334609202918"><ele>404.0</ele><time>2026-04-03T17:20:07Z</time></trkpt><trkpt lat="43.59705386394188" lon="11.293268754888508"><ele>402.5</ele><time>2026-04-03T17:20:08Z</time></trkpt><trkpt lat="43.59708734744756" lon="11.293179479088733"><ele>401.0</ele><time>2026-04-03T17:20:09Z</time></trkpt><trkpt lat="43.597114854322754" lon="11.293092813770576"><ele>399.49999999999994</ele><time>2026-04-03T17:20:10Z</time></trkpt><trkpt lat="43.597153897816945" lon="11.293011903651687"><ele>398.0</ele><time>2026-04-03T17:20:11Z</time></trkpt><trkpt lat="43.59721494167588" lon="11.29285027412541"><ele>398.0</ele><time>2026-04-03T17:20:13Z</time></trkpt><trkpt lat="43.597269361699254" lon="11.292722774515457"><ele>398.0</ele><time>2026-04-03T17:20:15Z</time></trkpt><trkpt lat="43.59736039233491" lon="11.292708708902884"><ele>398.0</ele><time>2026-04-03T17:20:17Z</time></trkpt><trkpt lat="43.59741209011263" lon="11.292650725899405"><ele>398.0</ele><time>2026-04-03T17:20:18Z</time></trkpt><trkpt lat="43.597486749382526" lon="11.292544638867621"><ele>398.0</ele><time>2026-04-03T17:20:20Z</time></trkpt><trkpt lat="43.597552643792746" lon="11.292433741283345"><ele>398.0</ele><time>2026-04-03T17:20:22Z</time></trkpt><trkpt lat="43.597596088334015" lon="11.292334613260767"><ele>398.0</ele><time>2026-04-03T17:20:24Z</time></trkpt><trkpt lat="43.59759607235315" lon="11.292187342481869"><ele>398.0</ele><time>2026-04-03T17:20:26Z</time></trkpt><trkpt lat="43.59757792108016" lon="11.292055235167927"><ele>398.0</ele><time>2026-04-03T17:20:28Z</time></trkpt><trkpt lat="43.597548824058045" lon="11.291918542184806"><ele>398.0</ele><time>2026-04-03T17:20:30Z</time></trkpt><trkpt lat="43.59752299067678" lon="11.291821502159323"><ele>399.0</ele><time>2026-04-03T17:21:16Z</time></trkpt><trkpt lat="43.597487345782504" lon="11.291696039640952"><ele>400.0</ele><time>2026-04-03T17:21:18Z</time></trkpt><trkpt lat="43.597449594777565" lon="11.291569904384959"><ele>401.0</ele><time>2026-04-03T17:21:20Z</time></trkpt><trkpt lat="43.59740869163787" lon="11.29143990530741"><ele>402.0</ele><time>2026-04-03T17:21:22Z</time></trkpt><trkpt lat="43.59733438349801" lon="11.291382931426813"><ele>403.0</ele><time>2026-04-03T17:21:24Z</time></trkpt><trkpt lat="43.5972984798858" lon="11.291285101351631"><ele>403.00000000000006</ele><time>2026-04-03T17:21:26Z</time></trkpt><trkpt lat="43.59726165336569" lon="11.291190339942089"><ele>403.0</ele><time>2026-04-03T17:21:28Z</time></trkpt><trkpt lat="43.597233885567874" lon="11.29106495046929"><ele>403.0</ele><time>2026-04-03T17:21:30Z</time></trkpt><trkpt lat="43.59719890926663" lon="11.290924918866825"><ele>403.0</ele><time>2026-04-03T17:21:32Z</time></trkpt><trkpt lat="43.597148910114775" lon="11.290826024431976"><ele>403.00000000000006</ele><time>2026-04-03T17:21:33Z</time></trkpt><trkpt lat="43.59712057861258" lon="11.29073756802755"><ele>403.0</ele><time>2026-04-03T17:21:34Z</time></trkpt><trkpt lat="43.597095774359595" lon="11.29065342475011"><ele>402.4</ele><time>2026-04-03T17:21:35Z</time></trkpt><trkpt lat="43.597050094706326" lon="11.290537559889577"><ele>401.79999999999995</ele><time>2026-04-03T17:21:37Z</time></trkpt><trkpt lat="43.596969166454464" lon="11.29038950057038"><ele>401.2</ele><time>2026-04-03T17:21:39Z</time></trkpt><trkpt lat="43.59689149121569" lon="11.290253341746327"><ele>400.6</ele><time>2026-04-03T17:21:41Z</time></trkpt><trkpt lat="43.59685267077835" lon="11.290167281128426"><ele>400.0</ele><time>2026-04-03T17:21:42Z</time></trkpt><trkpt lat="43.59680817987114" lon="11.29008295794179"><ele>403.6666666666667</ele><time>2026-04-03T17:21:43Z</time></trkpt><trkpt lat="43.59675844716709" lon="11.290007396714914"><ele>407.33333333333337</ele><time>2026-04-03T17:21:44Z</time></trkpt><trkpt lat="43.59669740922783" lon="11.289950217682868"><ele>411.0</ele><time>2026-04-03T17:21:45Z</time></trkpt><trkpt lat="43.59663104861218" lon="11.28985539849269"><ele>414.66666666666663</ele><time>2026-04-03T17:21:47Z</time></trkpt><trkpt lat="43.596613812127536" lon="11.28976891400382"><ele>418.3333333333333</ele><time>2026-04-03T17:21:48Z</time></trkpt><trkpt lat="43.596596877184055" lon="11.28966919805748"><ele>422.0</ele><time>2026-04-03T17:21:49Z</time></trkpt><trkpt lat="43.596578423459704" lon="11.289573060104097"><ele>422.0</ele><time>2026-04-03T17:21:50Z</time></trkpt><trkpt lat="43.59653382041046" lon="11.289466714116179"><ele>422.0</ele><time>2026-04-03T17:21:51Z</time></trkpt><trkpt lat="43.59649109077649" lon="11.289381457660214"><ele>422.0</ele><time>2026-04-03T17:21:52Z</time></trkpt><trkpt lat="43.59643929839345" lon="11.289288294578546"><ele>422.0</ele><time>2026-04-03T17:21:53Z</time></trkpt><trkpt lat="43.596418796950715" lon="11.28919329387657"><ele>422.0</ele><time>2026-04-03T17:21:54Z</time></trkpt><trkpt lat="43.59644869123452" lon="11.28901639040663"><ele>422.49999999999994</ele><time>2026-04-03T17:21:56Z</time></trkpt><trkpt lat="43.5964669863111" lon="11.288919961861293"><ele>423.0</ele><time>2026-04-03T17:21:57Z</time></trkpt><trkpt lat="43.596470572157486" lon="11.28878135273609"><ele>423.5</ele><time>2026-04-03T17:21:58Z</time></trkpt><trkpt lat="43.59646930663938" lon="11.288640174189075"><ele>424.0</ele><time>2026-04-03T17:21:59Z</time></trkpt><trkpt lat="43.59646639285992" lon="11.28851717736693"><ele>424.49999999999994</ele><time>2026-04-03T17:22:00Z</time></trkpt><trkpt lat="43.59648091217209" lon="11.288416383326679"><ele>425.0</ele><time>2026-04-03T17:22:01Z</time></trkpt><trkpt lat="43.596498714351114" lon="11.288295933806877"><ele>424.99999999999994</ele><time>2026-04-03T17:22:02Z</time></trkpt><trkpt lat="43.596519218376734" lon="11.288170350541202"><ele>425.0</ele><time>2026-04-03T17:22:03Z</time></trkpt><trkpt lat="43.59654179455149" lon="11.288055840954552"><ele>425.0</ele><time>2026-04-03T17:22:04Z</time></trkpt><trkpt lat="43.59655990778078" lon="11.287953395409216"><ele>425.0</ele><time>2026-04-03T17:22:05Z</time></trkpt><trkpt lat="43.59656803517922" lon="11.287846902609925"><ele>424.99999999999994</ele><time>2026-04-03T17:22:07Z</time></trkpt><trkpt lat="43.5966203206964" lon="11.287783568048617"><ele>425.0</ele><time>2026-04-03T17:22:09Z</time></trkpt><trkpt lat="43.59665377962139" lon="11.287687266742536"><ele>427.25</ele><time>2026-04-03T17:22:12Z</time></trkpt><trkpt lat="43.59669093518014" lon="11.28754212077172"><ele>429.5</ele><time>2026-04-03T17:22:15Z</time></trkpt><trkpt lat="43.59677725719183" lon="11.28738068522184"><ele>431.75</ele><time>2026-04-03T17:22:17Z</time></trkpt><trkpt lat="43.59685464721872" lon="11.287293645391841"><ele>434.0</ele><time>2026-04-03T17:22:18Z</time></trkpt><trkpt lat="43.59694141876575" lon="11.28721877651975"><ele>433.99999999999994</ele><time>2026-04-03T17:22:19Z</time></trkpt><trkpt lat="43.59701951936278" lon="11.287171397857053"><ele>434.0</ele><time>2026-04-03T17:22:20Z</time></trkpt><trkpt lat="43.59709830097248" lon="11.287132248747803"><ele>434.0</ele><time>2026-04-03T17:22:21Z</time></trkpt><trkpt lat="43.597185304284636" lon="11.28708397164852"><ele>434.0</ele><time>2026-04-03T17:22:22Z</time></trkpt><trkpt lat="43.59727143824939" lon="11.287054933023798"><ele>433.99999999999994</ele><time>2026-04-03T17:22:23Z</time></trkpt><trkpt lat="43.59736291351308" lon="11.28705227126816"><ele>434.0</ele><time>2026-04-03T17:22:24Z</time></trkpt><trkpt lat="43.59745412172619" lon="11.287038070375978"><ele>433.99999999999994</ele><time>2026-04-03T17:22:25Z</time></trkpt><trkpt lat="43.59753225137171" lon="11.287037065706734"><ele>434.0</ele><time>2026-04-03T17:22:26Z</time></trkpt><trkpt lat="43.59762345594405" lon="11.28699754697931"><ele>434.0</ele><time>2026-04-03T17:22:28Z</time></trkpt><trkpt lat="43.59761438571265" lon="11.28688890582558"><ele>434.0</ele><time>2026-04-03T17:22:30Z</time></trkpt><trkpt lat="43.59761047241326" lon="11.286764838073793"><ele>433.99999999999994</ele><time>2026-04-03T17:22:32Z</time></trkpt><trkpt lat="43.59767246212929" lon="11.28665681982115"><ele>434.0</ele><time>2026-04-03T17:22:34Z</time></trkpt><trkpt lat="43.59765685711972" lon="11.286493914908267"><ele>433.3333333333333</ele><time>2026-04-03T17:22:36Z</time></trkpt><trkpt lat="43.59762376561998" lon="11.286418207830017"><ele>432.66666666666663</ele><time>2026-04-03T17:22:37Z</time></trkpt><trkpt lat="43.59758039122152" lon="11.286340177073994"><ele>432.0</ele><time>2026-04-03T17:22:38Z</time></trkpt><trkpt lat="43.59752242150594" lon="11.286279519959912"><ele>431.33333333333337</ele><time>2026-04-03T17:22:39Z</time></trkpt><trkpt lat="43.59745084109717" lon="11.286248119107567"><ele>430.6666666666667</ele><time>2026-04-03T17:22:40Z</time></trkpt><trkpt lat="43.59736058682249" lon="11.286221723440171"><ele>430.0</ele><time>2026-04-03T17:22:41Z</time></trkpt><trkpt lat="43.59724850569347" lon="11.286175545828044"><ele>430.0</ele><time>2026-04-03T17:22:42Z</time></trkpt><trkpt lat="43.597136225136644" lon="11.286134030143108"><ele>430.0</ele><time>2026-04-03T17:22:43Z</time></trkpt><trkpt lat="43.597037431880565" lon="11.286098097476131"><ele>430.0</ele><time>2026-04-03T17:22:44Z</time></trkpt><trkpt lat="43.59694584485205" lon="11.286059894807702"><ele>430.0</ele><time>2026-04-03T17:22:45Z</time></trkpt><trkpt lat="43.59686729191482" lon="11.286019950315533"><ele>430.0</ele><time>2026-04-03T17:22:46Z</time></trkpt><trkpt lat="43.59679096486292" lon="11.285950980007712"><ele>430.83333333333337</ele><time>2026-04-03T17:22:46.999Z</time></trkpt><trkpt lat="43.59670260594374" lon="11.285865074444397"><ele>431.6666666666667</ele><time>2026-04-03T17:22:47.999Z</time></trkpt><trkpt lat="43.59662598230151" lon="11.285809614075687"><ele>432.5</ele><time>2026-04-03T17:22:48.999Z</time></trkpt><trkpt lat="43.596544452704094" lon="11.285770899844186"><ele>433.33333333333337</ele><time>2026-04-03T17:22:49.999Z</time></trkpt><trkpt lat="43.59647610289531" lon="11.285729605245077"><ele>434.1666666666667</ele><time>2026-04-03T17:22:50.999Z</time></trkpt><trkpt lat="43.596424058430884" lon="11.285669353257315"><ele>435.0</ele><time>2026-04-03T17:22:51.999Z</time></trkpt><trkpt lat="43.596354012929794" lon="11.285576106499546"><ele>435.0</ele><time>2026-04-03T17:22:52.999Z</time></trkpt><trkpt lat="43.59629091401315" lon="11.285475171535678"><ele>435.0</ele><time>2026-04-03T17:22:53.999Z</time></trkpt><trkpt lat="43.59622734591339" lon="11.28538636887112"><ele>435.0</ele><time>2026-04-03T17:22:54.999Z</time></trkpt><trkpt lat="43.59614910653534" lon="11.285308051724213"><ele>435.0</ele><time>2026-04-03T17:22:55.999Z</time></trkpt><trkpt lat="43.59607149575763" lon="11.285228217465331"><ele>435.0</ele><time>2026-04-03T17:22:56.999Z</time></trkpt><trkpt lat="43.59600305034127" lon="11.285158242127048"><ele>436.0</ele><time>2026-04-03T17:22:57.999Z</time></trkpt><trkpt lat="43.59593366097966" lon="11.285095571003142"><ele>437.0</ele><time>2026-04-03T17:22:58.999Z</time></trkpt><trkpt lat="43.5958565815502" lon="11.28503381439751"><ele>438.0</ele><time>2026-04-03T17:22:59.999Z</time></trkpt><trkpt lat="43.59579220568981" lon="11.284980865814031"><ele>439.0</ele><time>2026-04-03T17:23:00.999Z</time></trkpt><trkpt lat="43.59574310395779" lon="11.284909634368848"><ele>440.0</ele><time>2026-04-03T17:23:01.999Z</time></trkpt><trkpt lat="43.59571733804173" lon="11.284821659866493"><ele>441.0</ele><time>2026-04-03T17:23:02.999Z</time></trkpt><trkpt lat="43.595703910743396" lon="11.284704987917673"><ele>441.0</ele><time>2026-04-03T17:23:03.999Z</time></trkpt><trkpt lat="43.595686028730476" lon="11.284567020750966"><ele>441.0</ele><time>2026-04-03T17:23:04.999Z</time></trkpt><trkpt lat="43.595665425542705" lon="11.284428418774809"><ele>441.0</ele><time>2026-04-03T17:23:05.999Z</time></trkpt><trkpt lat="43.595643272968495" lon="11.284292473985767"><ele>441.0</ele><time>2026-04-03T17:23:06.999Z</time></trkpt><trkpt lat="43.59562261044943" lon="11.284149037145616"><ele>441.0</ele><time>2026-04-03T17:23:07.999Z</time></trkpt><trkpt lat="43.595602615395485" lon="11.284022830100122"><ele>440.8333333333333</ele><time>2026-04-03T17:23:08.999Z</time></trkpt><trkpt lat="43.595587875667" lon="11.28391331112321"><ele>440.66666666666663</ele><time>2026-04-03T17:23:09.999Z</time></trkpt><trkpt lat="43.59558638621554" lon="11.283799326090316"><ele>440.5</ele><time>2026-04-03T17:23:10.999Z</time></trkpt><trkpt lat="43.59559144307027" lon="11.28370146277196"><ele>440.3333333333333</ele><time>2026-04-03T17:23:11.999Z</time></trkpt><trkpt lat="43.595606885832396" lon="11.283607857619112"><ele>440.16666666666663</ele><time>2026-04-03T17:23:12.999Z</time></trkpt><trkpt lat="43.59563636441392" lon="11.283523432273789"><ele>440.0</ele><time>2026-04-03T17:23:13.999Z</time></trkpt><trkpt lat="43.59566566369259" lon="11.283366386197764"><ele>440.0</ele><time>2026-04-03T17:23:16Z</time></trkpt><trkpt lat="43.59557179473213" lon="11.283221273122402"><ele>440.0</ele><time>2026-04-03T17:23:18Z</time></trkpt><trkpt lat="43.595520480358786" lon="11.28313099037895"><ele>440.0</ele><time>2026-04-03T17:23:19Z</time></trkpt><trkpt lat="43.59548021489849" lon="11.283043685413583"><ele>440.0</ele><time>2026-04-03T17:23:20Z</time></trkpt><trkpt lat="43.595408760650194" lon="11.282966415706865"><ele>440.0</ele><time>2026-04-03T17:23:21Z</time></trkpt><trkpt lat="43.595332011907054" lon="11.282899755370465"><ele>441.8</ele><time>2026-04-03T17:23:22Z</time></trkpt><trkpt lat="43.59524098816814" lon="11.28282679382383"><ele>443.6</ele><time>2026-04-03T17:23:23Z</time></trkpt><trkpt lat="43.595164930146176" lon="11.282725021903662"><ele>445.4</ele><time>2026-04-03T17:23:24Z</time></trkpt><trkpt lat="43.59508805023204" lon="11.282627157249792"><ele>447.2</ele><time>2026-04-03T17:23:25Z</time></trkpt><trkpt lat="43.59503566984569" lon="11.28255240008518"><ele>449.0</ele><time>2026-04-03T17:23:26Z</time></trkpt><trkpt lat="43.59494595242816" lon="11.282432311040745"><ele>449.0</ele><time>2026-04-03T17:23:28Z</time></trkpt><trkpt lat="43.59489009261222" lon="11.28236283254748"><ele>449.0</ele><time>2026-04-03T17:23:29Z</time></trkpt><trkpt lat="43.59482600910589" lon="11.282311553053766"><ele>449.0</ele><time>2026-04-03T17:23:30Z</time></trkpt><trkpt lat="43.594699301244034" lon="11.282193084565945"><ele>449.0</ele><time>2026-04-03T17:23:32Z</time></trkpt><trkpt lat="43.59463712266791" lon="11.282084987357148"><ele>449.0</ele><time>2026-04-03T17:23:33Z</time></trkpt><trkpt lat="43.594600399093444" lon="11.281975779990047"><ele>448.71428571428567</ele><time>2026-04-03T17:23:34Z</time></trkpt><trkpt lat="43.59456997523322" lon="11.281896993326852"><ele>448.4285714285714</ele><time>2026-04-03T17:23:35Z</time></trkpt><trkpt lat="43.594534863937255" lon="11.281817243372245"><ele>448.1428571428571</ele><time>2026-04-03T17:23:36Z</time></trkpt><trkpt lat="43.59450565793206" lon="11.281735837781229"><ele>447.85714285714283</ele><time>2026-04-03T17:23:37Z</time></trkpt><trkpt lat="43.59446262682749" lon="11.281644570093352"><ele>447.57142857142856</ele><time>2026-04-03T17:23:38Z</time></trkpt><trkpt lat="43.59443520190079" lon="11.281550220643522"><ele>447.2857142857142</ele><time>2026-04-03T17:23:39Z</time></trkpt><trkpt lat="43.594413332622" lon="11.281436510046925"><ele>447.0</ele><time>2026-04-03T17:23:40Z</time></trkpt><trkpt lat="43.59441253024084" lon="11.281327934073682"><ele>448.5</ele><time>2026-04-03T17:23:41Z</time></trkpt><trkpt lat="43.59429910356918" lon="11.28114264809376"><ele>450.0</ele><time>2026-04-03T17:23:42Z</time></trkpt><trkpt lat="43.59426911646609" lon="11.28098998632167"><ele>451.5</ele><time>2026-04-03T17:23:43Z</time></trkpt><trkpt lat="43.59424611541813" lon="11.280857737756023"><ele>453.0</ele><time>2026-04-03T17:23:44Z</time></trkpt><trkpt lat="43.594217212806825" lon="11.280717693840378"><ele>454.79999999999995</ele><time>2026-04-03T17:23:45Z</time></trkpt><trkpt lat="43.59417630169638" lon="11.280570552948005"><ele>456.59999999999997</ele><time>2026-04-03T17:23:46Z</time></trkpt><trkpt lat="43.59414439987752" lon="11.280443593903074"><ele>458.40000000000003</ele><time>2026-04-03T17:23:47Z</time></trkpt><trkpt lat="43.59411251915807" lon="11.280333459083018"><ele>460.20000000000005</ele><time>2026-04-03T17:23:48Z</time></trkpt><trkpt lat="43.594063466394154" lon="11.28026005290733"><ele>462.0</ele><time>2026-04-03T17:23:49Z</time></trkpt><trkpt lat="43.593980333432754" lon="11.280204425929583"><ele>462.0</ele><time>2026-04-03T17:23:50Z</time></trkpt><trkpt lat="43.59391362683855" lon="11.280147314796581"><ele>462.0</ele><time>2026-04-03T17:23:51Z</time></trkpt><trkpt lat="43.59385957589748" lon="11.280084687577444"><ele>462.0</ele><time>2026-04-03T17:23:52Z</time></trkpt><trkpt lat="43.593779641669045" lon="11.280053433924959"><ele>462.0</ele><time>2026-04-03T17:23:53Z</time></trkpt><trkpt lat="43.59367970013681" lon="11.2799577982366"><ele>462.0</ele><time>2026-04-03T17:23:55Z</time></trkpt><trkpt lat="43.5936584020451" lon="11.27985748137374"><ele>462.0</ele><time>2026-04-03T17:23:56Z</time></trkpt><trkpt lat="43.59361238429465" lon="11.279759193241404"><ele>463.3333333333333</ele><time>2026-04-03T17:23:57Z</time></trkpt><trkpt lat="43.593538560577095" lon="11.279663603661355"><ele>464.66666666666663</ele><time>2026-04-03T17:23:58Z</time></trkpt><trkpt lat="43.593473896389625" lon="11.279588035475404"><ele>466.0</ele><time>2026-04-03T17:23:59Z</time></trkpt><trkpt lat="43.593420698629956" lon="11.279502406222425"><ele>467.3333333333333</ele><time>2026-04-03T17:24:00Z</time></trkpt><trkpt lat="43.593378864888855" lon="11.27940205290691"><ele>468.66666666666663</ele><time>2026-04-03T17:24:01Z</time></trkpt><trkpt lat="43.5933558744373" lon="11.279296812293456"><ele>470.0</ele><time>2026-04-03T17:24:02Z</time></trkpt><trkpt lat="43.59334052750827" lon="11.279202876465677"><ele>469.99999999999994</ele><time>2026-04-03T17:24:03Z</time></trkpt><trkpt lat="43.59327006185305" lon="11.27906730451317"><ele>470.0</ele><time>2026-04-03T17:24:05Z</time></trkpt><trkpt lat="43.59324624802771" lon="11.27891288473929"><ele>470.0</ele><time>2026-04-03T17:24:07Z</time></trkpt><trkpt lat="43.59324953890603" lon="11.278809191879127"><ele>470.0</ele><time>2026-04-03T17:24:08Z</time></trkpt><trkpt lat="43.59322394127306" lon="11.278727126042071"><ele>469.99999999999994</ele><time>2026-04-03T17:24:09Z</time></trkpt><trkpt lat="43.593194694593535" lon="11.278641101785498"><ele>470.0</ele><time>2026-04-03T17:24:10Z</time></trkpt><trkpt lat="43.59321443033928" lon="11.278425434749582"><ele>470.8</ele><time>2026-04-03T17:24:12Z</time></trkpt><trkpt lat="43.59325833497646" lon="11.27832442669948"><ele>471.6</ele><time>2026-04-03T17:24:13Z</time></trkpt><trkpt lat="43.59329461559776" lon="11.278195628102214"><ele>472.4</ele><time>2026-04-03T17:24:14Z</time></trkpt><trkpt lat="43.59330653633854" lon="11.278054028503776"><ele>473.2</ele><time>2026-04-03T17:24:15Z</time></trkpt><trkpt lat="43.59331749235302" lon="11.277898163005604"><ele>474.0</ele><time>2026-04-03T17:24:16Z</time></trkpt><trkpt lat="43.59333628861408" lon="11.277793602626033"><ele>474.2857142857142</ele><time>2026-04-03T17:24:17Z</time></trkpt><trkpt lat="43.59333584002047" lon="11.277701827573681"><ele>474.57142857142856</ele><time>2026-04-03T17:24:18Z</time></trkpt><trkpt lat="43.593325752519135" lon="11.27759140223092"><ele>474.85714285714283</ele><time>2026-04-03T17:24:19Z</time></trkpt><trkpt lat="43.59331319102767" lon="11.277490653333832"><ele>475.1428571428571</ele><time>2026-04-03T17:24:20Z</time></trkpt><trkpt lat="43.59329357876779" lon="11.277405395844225"><ele>475.42857142857144</ele><time>2026-04-03T17:24:21Z</time></trkpt><trkpt lat="43.59326413777828" lon="11.277301954219284"><ele>475.7142857142857</ele><time>2026-04-03T17:24:22Z</time></trkpt><trkpt lat="43.59324352654326" lon="11.27720178814254"><ele>476.0</ele><time>2026-04-03T17:24:23Z</time></trkpt><trkpt lat="43.5932202421598" lon="11.277108154156505"><ele>475.20000000000005</ele><time>2026-04-03T17:24:24Z</time></trkpt><trkpt lat="43.59320302441721" lon="11.277009511940557"><ele>474.40000000000003</ele><time>2026-04-03T17:24:25Z</time></trkpt><trkpt lat="43.59321005329598" lon="11.276829697834168"><ele>473.6</ele><time>2026-04-03T17:24:27Z</time></trkpt><trkpt lat="43.59320962520718" lon="11.276689459881228"><ele>472.8</ele><time>2026-04-03T17:24:28Z</time></trkpt><trkpt lat="43.593189092878625" lon="11.276539589314206"><ele>472.0</ele><time>2026-04-03T17:24:29Z</time></trkpt><trkpt lat="43.593169170812885" lon="11.276376838080614"><ele>471.00000000000006</ele><time>2026-04-03T17:24:30Z</time></trkpt><trkpt lat="43.59317337877027" lon="11.27628675774845"><ele>470.0</ele><time>2026-04-03T17:24:31Z</time></trkpt><trkpt lat="43.593159513179884" lon="11.276180558732731"><ele>469.0</ele><time>2026-04-03T17:24:32Z</time></trkpt><trkpt lat="43.59312940615863" lon="11.276061858289735"><ele>468.0</ele><time>2026-04-03T17:24:33Z</time></trkpt><trkpt lat="43.59310122609403" lon="11.275963785472698"><ele>467.00000000000006</ele><time>2026-04-03T17:24:34Z</time></trkpt><trkpt lat="43.593084559181165" lon="11.275874674832195"><ele>466.0</ele><time>2026-04-03T17:24:35Z</time></trkpt><trkpt lat="43.593098041141104" lon="11.275773361980875"><ele>466.00000000000006</ele><time>2026-04-03T17:24:36Z</time></trkpt><trkpt lat="43.59309581559756" lon="11.275682119489803"><ele>466.0</ele><time>2026-04-03T17:24:37Z</time></trkpt><trkpt lat="43.593062543878204" lon="11.275557369443488"><ele>466.0</ele><time>2026-04-03T17:24:39Z</time></trkpt><trkpt lat="43.593013040275174" lon="11.275464889475359"><ele>466.0</ele><time>2026-04-03T17:24:40Z</time></trkpt><trkpt lat="43.5929670128637" lon="11.275368975727233"><ele>466.00000000000006</ele><time>2026-04-03T17:24:41Z</time></trkpt><trkpt lat="43.59292013279801" lon="11.275252962943151"><ele>466.0</ele><time>2026-04-03T17:24:42Z</time></trkpt><trkpt lat="43.592880548153914" lon="11.275117970586289"><ele>464.20000000000005</ele><time>2026-04-03T17:24:43Z</time></trkpt><trkpt lat="43.59284597760353" lon="11.27498843534577"><ele>462.40000000000003</ele><time>2026-04-03T17:24:43.999Z</time></trkpt><trkpt lat="43.592810668128145" lon="11.274838779458282"><ele>460.6</ele><time>2026-04-03T17:24:44.999Z</time></trkpt><trkpt lat="43.59278966701044" lon="11.274692721267577"><ele>458.8</ele><time>2026-04-03T17:24:45.999Z</time></trkpt><trkpt lat="43.59276376827145" lon="11.274571405716246"><ele>457.0</ele><time>2026-04-03T17:24:46.999Z</time></trkpt><trkpt lat="43.59273594917421" lon="11.27446147959687"><ele>456.8571428571429</ele><time>2026-04-03T17:24:47.999Z</time></trkpt><trkpt lat="43.592718753393214" lon="11.274357532438719"><ele>456.7142857142857</ele><time>2026-04-03T17:24:48.999Z</time></trkpt><trkpt lat="43.592725467031855" lon="11.27426354804045"><ele>456.57142857142856</ele><time>2026-04-03T17:24:49.999Z</time></trkpt><trkpt lat="43.59275510061057" lon="11.27418042513426"><ele>456.42857142857144</ele><time>2026-04-03T17:24:50.999Z</time></trkpt><trkpt lat="43.59278764907731" lon="11.274105965479645"><ele>456.2857142857142</ele><time>2026-04-03T17:24:51.999Z</time></trkpt><trkpt lat="43.5927873364326" lon="11.274016344329693"><ele>456.1428571428571</ele><time>2026-04-03T17:24:52.999Z</time></trkpt><trkpt lat="43.592787071659586" lon="11.273917240254576"><ele>456.0</ele><time>2026-04-03T17:24:54.999Z</time></trkpt><trkpt lat="43.59285666685847" lon="11.273914098125546"><ele>456.0</ele><time>2026-04-03T17:24:58.999Z</time></trkpt><trkpt lat="43.5928862175336" lon="11.273809330519253"><ele>456.0</ele><time>2026-04-03T17:25:00.999Z</time></trkpt><trkpt lat="43.592887448222605" lon="11.273680140625064"><ele>456.0</ele><time>2026-04-03T17:25:01.999Z</time></trkpt><trkpt lat="43.59289409627578" lon="11.273572335286863"><ele>456.0</ele><time>2026-04-03T17:25:02.999Z</time></trkpt><trkpt lat="43.59292463322673" lon="11.273446926482656"><ele>456.0</ele><time>2026-04-03T17:25:03.999Z</time></trkpt><trkpt lat="43.59295882361568" lon="11.273327753496018"><ele>456.0</ele><time>2026-04-03T17:25:04.999Z</time></trkpt><trkpt lat="43.593000063688436" lon="11.273221651214529"><ele>456.0</ele><time>2026-04-03T17:25:05.999Z</time></trkpt><trkpt lat="43.59301510911906" lon="11.273126481899258"><ele>456.0</ele><time>2026-04-03T17:25:06.999Z</time></trkpt><trkpt lat="43.593021814348404" lon="11.273024916630344"><ele>456.0</ele><time>2026-04-03T17:25:07.999Z</time></trkpt><trkpt lat="43.59302003720588" lon="11.27292541512386"><ele>456.0</ele><time>2026-04-03T17:25:08.999Z</time></trkpt><trkpt lat="43.593006473345426" lon="11.272813628263656"><ele>456.0</ele><time>2026-04-03T17:25:09.999Z</time></trkpt><trkpt lat="43.59297300159725" lon="11.272721435466257"><ele>456.0</ele><time>2026-04-03T17:25:10.999Z</time></trkpt><trkpt lat="43.59287443049792" lon="11.272561428827494"><ele>456.20000000000005</ele><time>2026-04-03T17:25:12.999Z</time></trkpt><trkpt lat="43.59285837387878" lon="11.272440768636217"><ele>456.40000000000003</ele><time>2026-04-03T17:25:13.999Z</time></trkpt><trkpt lat="43.59284514742963" lon="11.272342382265856"><ele>456.6</ele><time>2026-04-03T17:25:14.999Z</time></trkpt><trkpt lat="43.59283505602123" lon="11.272237871111635"><ele>456.8</ele><time>2026-04-03T17:25:15.999Z</time></trkpt><trkpt lat="43.592862802985394" lon="11.272094303517717"><ele>457.0</ele><time>2026-04-03T17:25:17.999Z</time></trkpt><trkpt lat="43.59294393618257" lon="11.271947726514606"><ele>458.0</ele><time>2026-04-03T17:25:20Z</time></trkpt><trkpt lat="43.59299182107813" lon="11.271787222582422"><ele>459.00000000000006</ele><time>2026-04-03T17:25:21Z</time></trkpt><trkpt lat="43.59298966572345" lon="11.271656461345824"><ele>460.00000000000006</ele><time>2026-04-03T17:25:22Z</time></trkpt><trkpt lat="43.592955527197944" lon="11.27154782139098"><ele>461.0</ele><time>2026-04-03T17:25:24Z</time></trkpt><trkpt lat="43.59293997372431" lon="11.271430047854038"><ele>462.0</ele><time>2026-04-03T17:25:26Z</time></trkpt><trkpt lat="43.59299827084052" lon="11.27116359653656"><ele>463.6</ele><time>2026-04-03T17:25:27Z</time></trkpt><trkpt lat="43.59300885637489" lon="11.271021396201084"><ele>465.20000000000005</ele><time>2026-04-03T17:25:28Z</time></trkpt><trkpt lat="43.59302474213147" lon="11.270854839430246"><ele>466.8</ele><time>2026-04-03T17:25:29Z</time></trkpt><trkpt lat="43.59304211115681" lon="11.270718256792968"><ele>468.4</ele><time>2026-04-03T17:25:30Z</time></trkpt><trkpt lat="43.59307029855655" lon="11.270573152711062"><ele>470.0</ele><time>2026-04-03T17:25:31Z</time></trkpt><trkpt lat="43.59310975536632" lon="11.270445348781804"><ele>470.8333333333333</ele><time>2026-04-03T17:25:32Z</time></trkpt><trkpt lat="43.59313483582022" lon="11.270336570775996"><ele>471.66666666666663</ele><time>2026-04-03T17:25:33Z</time></trkpt><trkpt lat="43.59314671670815" lon="11.270229518535418"><ele>472.5</ele><time>2026-04-03T17:25:34Z</time></trkpt><trkpt lat="43.59314811703135" lon="11.27013208003341"><ele>473.33333333333337</ele><time>2026-04-03T17:25:35Z</time></trkpt><trkpt lat="43.593120296744864" lon="11.270033478448031"><ele>474.1666666666667</ele><time>2026-04-03T17:25:36Z</time></trkpt><trkpt lat="43.593084124173096" lon="11.269945754669804"><ele>475.0</ele><time>2026-04-03T17:25:37Z</time></trkpt><trkpt lat="43.59308947567593" lon="11.269809431247712"><ele>475.00000000000006</ele><time>2026-04-03T17:25:39Z</time></trkpt><trkpt lat="43.59313621092235" lon="11.269714473175608"><ele>475.0</ele><time>2026-04-03T17:25:40Z</time></trkpt><trkpt lat="43.59317328133561" lon="11.26960054966777"><ele>475.0</ele><time>2026-04-03T17:25:41Z</time></trkpt><trkpt lat="43.593191688207035" lon="11.269506705864409"><ele>475.0</ele><time>2026-04-03T17:25:42Z</time></trkpt><trkpt lat="43.59323924649505" lon="11.269417501144153"><ele>475.00000000000006</ele><time>2026-04-03T17:25:43Z</time></trkpt><trkpt lat="43.593270370824264" lon="11.269308347277743"><ele>475.0</ele><time>2026-04-03T17:25:44Z</time></trkpt><trkpt lat="43.59330873719724" lon="11.269189606069798"><ele>475.00000000000006</ele><time>2026-04-03T17:25:45Z</time></trkpt><trkpt lat="43.59335883425648" lon="11.269059279591634"><ele>475.0</ele><time>2026-04-03T17:25:46Z</time></trkpt><trkpt lat="43.593385712689745" lon="11.26892669230082"><ele>475.0</ele><time>2026-04-03T17:25:47Z</time></trkpt><trkpt lat="43.59339405822178" lon="11.268810534522459"><ele>475.0</ele><time>2026-04-03T17:25:48Z</time></trkpt><trkpt lat="43.59337365812405" lon="11.26870781170306"><ele>475.00000000000006</ele><time>2026-04-03T17:25:49Z</time></trkpt><trkpt lat="43.59336189722182" lon="11.268618275014008"><ele>475.0</ele><time>2026-04-03T17:25:50Z</time></trkpt><trkpt lat="43.59339351373852" lon="11.268540419362841"><ele>475.33333333333337</ele><time>2026-04-03T17:25:51Z</time></trkpt><trkpt lat="43.59342510940216" lon="11.268454282549914"><ele>475.6666666666667</ele><time>2026-04-03T17:25:52Z</time></trkpt><trkpt lat="43.59341381496886" lon="11.268322585429786"><ele>476.0</ele><time>2026-04-03T17:25:54Z</time></trkpt><trkpt lat="43.593338271654325" lon="11.268296935437032"><ele>476.33333333333337</ele><time>2026-04-03T17:26:07Z</time></trkpt><trkpt lat="43.5932851683977" lon="11.268212715841704"><ele>476.6666666666667</ele><time>2026-04-03T17:26:09Z</time></trkpt><trkpt lat="43.59323319386298" lon="11.268071926327586"><ele>477.0</ele><time>2026-04-03T17:26:11Z</time></trkpt><trkpt lat="43.593202374374215" lon="11.267980573857837"><ele>478.20000000000005</ele><time>2026-04-03T17:26:12Z</time></trkpt><trkpt lat="43.59317449506228" lon="11.267890982484994"><ele>479.40000000000003</ele><time>2026-04-03T17:26:13Z</time></trkpt><trkpt lat="43.59315600855281" lon="11.267735155199102"><ele>480.59999999999997</ele><time>2026-04-03T17:26:15Z</time></trkpt><trkpt lat="43.593176912385665" lon="11.267573083986791"><ele>481.79999999999995</ele><time>2026-04-03T17:26:17Z</time></trkpt><trkpt lat="43.59319276218228" lon="11.267449228562002"><ele>483.0</ele><time>2026-04-03T17:26:19Z</time></trkpt><trkpt lat="43.59322370994597" lon="11.26728686561327"><ele>484.2</ele><time>2026-04-03T17:26:21Z</time></trkpt><trkpt lat="43.59322413960542" lon="11.267172280198174"><ele>485.4</ele><time>2026-04-03T17:26:23Z</time></trkpt><trkpt lat="43.59326482930687" lon="11.267033544384143"><ele>486.59999999999997</ele><time>2026-04-03T17:26:24Z</time></trkpt><trkpt lat="43.5932915017159" lon="11.266863303475906"><ele>487.79999999999995</ele><time>2026-04-03T17:26:26Z</time></trkpt><trkpt lat="43.593319855600164" lon="11.266723574481132"><ele>489.0</ele><time>2026-04-03T17:26:28Z</time></trkpt><trkpt lat="43.593334249278996" lon="11.266579985822865"><ele>489.0</ele><time>2026-04-03T17:26:30Z</time></trkpt><trkpt lat="43.59334619514825" lon="11.266478890537806"><ele>489.00000000000006</ele><time>2026-04-03T17:26:31Z</time></trkpt><trkpt lat="43.593364982466255" lon="11.266389441669624"><ele>489.0</ele><time>2026-04-03T17:26:32Z</time></trkpt><trkpt lat="43.59338697396798" lon="11.266290798778192"><ele>489.0</ele><time>2026-04-03T17:26:33Z</time></trkpt><trkpt lat="43.59341954543238" lon="11.266206477379699"><ele>489.00000000000006</ele><time>2026-04-03T17:26:34Z</time></trkpt><trkpt lat="43.59344433176426" lon="11.26611151716991"><ele>489.0</ele><time>2026-04-03T17:26:35Z</time></trkpt><trkpt lat="43.59345857045318" lon="11.266016143654992"><ele>489.0</ele><time>2026-04-03T17:26:36Z</time></trkpt><trkpt lat="43.59348236200121" lon="11.265837124439868"><ele>490.1666666666667</ele><time>2026-04-03T17:26:38Z</time></trkpt><trkpt lat="43.59349320220888" lon="11.265716606754793"><ele>491.33333333333337</ele><time>2026-04-03T17:26:39Z</time></trkpt><trkpt lat="43.59350089626898" lon="11.265599084415221"><ele>492.5</ele><time>2026-04-03T17:26:40Z</time></trkpt><trkpt lat="43.59351215744964" lon="11.26548902396062"><ele>493.6666666666667</ele><time>2026-04-03T17:26:41Z</time></trkpt><trkpt lat="43.59352275888118" lon="11.265385278141668"><ele>494.83333333333337</ele><time>2026-04-03T17:26:42Z</time></trkpt><trkpt lat="43.5935428914273" lon="11.265294312930532"><ele>496.0</ele><time>2026-04-03T17:26:43Z</time></trkpt><trkpt lat="43.59355528678239" lon="11.265107553808928"><ele>496.33333333333337</ele><time>2026-04-03T17:26:45Z</time></trkpt><trkpt lat="43.59354219258842" lon="11.264996738256835"><ele>496.6666666666667</ele><time>2026-04-03T17:26:46Z</time></trkpt><trkpt lat="43.59353367062495" lon="11.264891496419033"><ele>497.0</ele><time>2026-04-03T17:26:47Z</time></trkpt><trkpt lat="43.59351919253653" lon="11.264780490994747"><ele>497.33333333333337</ele><time>2026-04-03T17:26:48Z</time></trkpt><trkpt lat="43.59350172942704" lon="11.264661140637472"><ele>497.6666666666667</ele><time>2026-04-03T17:26:49Z</time></trkpt><trkpt lat="43.59348625995052" lon="11.264555996861054"><ele>498.0</ele><time>2026-04-03T17:26:50Z</time></trkpt><trkpt lat="43.59348994844682" lon="11.264463986012913"><ele>498.6666666666667</ele><time>2026-04-03T17:26:50.999Z</time></trkpt><trkpt lat="43.5934817659307" lon="11.264293097018722"><ele>499.33333333333337</ele><time>2026-04-03T17:26:52.999Z</time></trkpt><trkpt lat="43.59348105474812" lon="11.264203200407575"><ele>500.0</ele><time>2026-04-03T17:26:53.999Z</time></trkpt><trkpt lat="43.59347977797061" lon="11.264092164755446"><ele>500.6666666666667</ele><time>2026-04-03T17:26:54.999Z</time></trkpt><trkpt lat="43.59347834403009" lon="11.263991493663681"><ele>501.33333333333337</ele><time>2026-04-03T17:26:55.999Z</time></trkpt><trkpt lat="43.59345274923937" lon="11.263886720838121"><ele>502.0</ele><time>2026-04-03T17:26:56.999Z</time></trkpt><trkpt lat="43.593469943499976" lon="11.263790582207285"><ele>503.0</ele><time>2026-04-03T17:26:57.999Z</time></trkpt><trkpt lat="43.59350752042915" lon="11.263652122834863"><ele>504.00000000000006</ele><time>2026-04-03T17:26:59.999Z</time></trkpt><trkpt lat="43.59357654193298" lon="11.263581999170556"><ele>505.00000000000006</ele><time>2026-04-03T17:27:00.999Z</time></trkpt><trkpt lat="43.59364681689138" lon="11.263504541700154"><ele>506.0</ele><time>2026-04-03T17:27:01.999Z</time></trkpt><trkpt lat="43.59372419807837" lon="11.263417668385907"><ele>507.0</ele><time>2026-04-03T17:27:02.999Z</time></trkpt><trkpt lat="43.593781679191096" lon="11.263332721148265"><ele>507.0</ele><time>2026-04-03T17:27:03.999Z</time></trkpt><trkpt lat="43.5938529521279" lon="11.263255597870653"><ele>507.0</ele><time>2026-04-03T17:27:04.999Z</time></trkpt><trkpt lat="43.59391214231981" lon="11.263188243312511"><ele>507.0</ele><time>2026-04-03T17:27:05.999Z</time></trkpt><trkpt lat="43.59396519171105" lon="11.263094383917528"><ele>507.0</ele><time>2026-04-03T17:27:06.999Z</time></trkpt><trkpt lat="43.594013522867314" lon="11.26299097912098"><ele>507.0</ele><time>2026-04-03T17:27:07.999Z</time></trkpt><trkpt lat="43.594051934215514" lon="11.262892930137935"><ele>507.0</ele><time>2026-04-03T17:27:08.999Z</time></trkpt><trkpt lat="43.59409057263893" lon="11.26277551852037"><ele>508.5</ele><time>2026-04-03T17:27:09.999Z</time></trkpt><trkpt lat="43.59410799548673" lon="11.262660927473481"><ele>510.0</ele><time>2026-04-03T17:27:10.999Z</time></trkpt><trkpt lat="43.5941460264775" lon="11.262554083753278"><ele>511.5</ele><time>2026-04-03T17:27:11.999Z</time></trkpt><trkpt lat="43.59418959974709" lon="11.262477305390556"><ele>513.0</ele><time>2026-04-03T17:27:12.999Z</time></trkpt><trkpt lat="43.59420749565319" lon="11.262368469657707"><ele>514.5</ele><time>2026-04-03T17:27:13.999Z</time></trkpt><trkpt lat="43.59423589520786" lon="11.26227828018825"><ele>516.0</ele><time>2026-04-03T17:27:14.999Z</time></trkpt><trkpt lat="43.594246068281116" lon="11.262187710751931"><ele>516.1666666666666</ele><time>2026-04-03T17:27:15.999Z</time></trkpt><trkpt lat="43.59426418407444" lon="11.262097210936076"><ele>516.3333333333334</ele><time>2026-04-03T17:27:16.999Z</time></trkpt><trkpt lat="43.59426368002648" lon="11.261926225469793"><ele>516.5</ele><time>2026-04-03T17:27:18.999Z</time></trkpt><trkpt lat="43.59424785839626" lon="11.26183279677102"><ele>516.6666666666667</ele><time>2026-04-03T17:27:19.999Z</time></trkpt><trkpt lat="43.59425916263048" lon="11.261692581038556"><ele>516.8333333333334</ele><time>2026-04-03T17:27:20.999Z</time></trkpt><trkpt lat="43.594240375230804" lon="11.261578128036138"><ele>517.0</ele><time>2026-04-03T17:27:21.999Z</time></trkpt><trkpt lat="43.59424029640847" lon="11.261482845460717"><ele>516.3333333333334</ele><time>2026-04-03T17:27:22.999Z</time></trkpt><trkpt lat="43.59425187955221" lon="11.261370839927768"><ele>515.6666666666667</ele><time>2026-04-03T17:27:23.999Z</time></trkpt><trkpt lat="43.5942552353009" lon="11.2612758350038"><ele>515.0</ele><time>2026-04-03T17:27:24.999Z</time></trkpt><trkpt lat="43.59426849968643" lon="11.261168468219237"><ele>514.3333333333334</ele><time>2026-04-03T17:27:26Z</time></trkpt><trkpt lat="43.59427479495726" lon="11.261062326450755"><ele>513.6666666666666</ele><time>2026-04-03T17:27:27Z</time></trkpt><trkpt lat="43.594273275879544" lon="11.260935296189205"><ele>513.0</ele><time>2026-04-03T17:27:28Z</time></trkpt><trkpt lat="43.594270786611744" lon="11.260822564259769"><ele>513.0</ele><time>2026-04-03T17:27:29Z</time></trkpt><trkpt lat="43.59429718133362" lon="11.260706620829643"><ele>513.0</ele><time>2026-04-03T17:27:30Z</time></trkpt><trkpt lat="43.59429909607406" lon="11.260579340065378"><ele>513.0</ele><time>2026-04-03T17:27:31Z</time></trkpt><trkpt lat="43.59431586449616" lon="11.260457295152055"><ele>513.0</ele><time>2026-04-03T17:27:32Z</time></trkpt><trkpt lat="43.59434762657265" lon="11.260348089147014"><ele>513.0</ele><time>2026-04-03T17:27:33Z</time></trkpt><trkpt lat="43.5943669555539" lon="11.26022655328066"><ele>513.0</ele><time>2026-04-03T17:27:34Z</time></trkpt><trkpt lat="43.59438468695346" lon="11.260116575285917"><ele>511.59999999999997</ele><time>2026-04-03T17:27:35Z</time></trkpt><trkpt lat="43.59440783190875" lon="11.25997302002846"><ele>510.19999999999993</ele><time>2026-04-03T17:27:36Z</time></trkpt><trkpt lat="43.59441536116263" lon="11.259819384667695"><ele>508.8</ele><time>2026-04-03T17:27:37Z</time></trkpt><trkpt lat="43.59443757231179" lon="11.259701241234714"><ele>507.4</ele><time>2026-04-03T17:27:38Z</time></trkpt><trkpt lat="43.59445771017387" lon="11.259569208787713"><ele>506.0</ele><time>2026-04-03T17:27:40Z</time></trkpt><trkpt lat="43.594450941489484" lon="11.259477340818282"><ele>505.0</ele><time>2026-04-03T17:27:42Z</time></trkpt><trkpt lat="43.594454795278416" lon="11.259374912197794"><ele>504.0</ele><time>2026-04-03T17:27:57Z</time></trkpt><trkpt lat="43.59430263439264" lon="11.259448889982437"><ele>503.0</ele><time>2026-04-03T17:28:00Z</time></trkpt><trkpt lat="43.59424605100123" lon="11.25954907128395"><ele>502.0</ele><time>2026-04-03T17:28:01Z</time></trkpt><trkpt lat="43.59418445764344" lon="11.259649325529036"><ele>501.0</ele><time>2026-04-03T17:28:02Z</time></trkpt><trkpt lat="43.59410866303048" lon="11.259746623624928"><ele>502.25</ele><time>2026-04-03T17:28:03Z</time></trkpt><trkpt lat="43.59399715347729" lon="11.259856435603169"><ele>503.5</ele><time>2026-04-03T17:28:04Z</time></trkpt><trkpt lat="43.59390044946496" lon="11.259975893595161"><ele>504.75</ele><time>2026-04-03T17:28:05Z</time></trkpt><trkpt lat="43.593820956310985" lon="11.260072861717708"><ele>506.0</ele><time>2026-04-03T17:28:06Z</time></trkpt><trkpt lat="43.59373930748754" lon="11.260194364507116"><ele>506.5</ele><time>2026-04-03T17:28:07Z</time></trkpt><trkpt lat="43.59364254494884" lon="11.260297567006006"><ele>507.0</ele><time>2026-04-03T17:28:08Z</time></trkpt><trkpt lat="43.59355568285242" lon="11.260388097164897"><ele>507.5</ele><time>2026-04-03T17:28:09Z</time></trkpt><trkpt lat="43.59346779080372" lon="11.260478150066934"><ele>508.0</ele><time>2026-04-03T17:28:10Z</time></trkpt><trkpt lat="43.593361057576516" lon="11.260535869172196"><ele>508.0</ele><time>2026-04-03T17:28:11Z</time></trkpt><trkpt lat="43.59325880898378" lon="11.260610124246783"><ele>508.0</ele><time>2026-04-03T17:28:12Z</time></trkpt><trkpt lat="43.59314943231096" lon="11.260667435115517"><ele>508.0</ele><time>2026-04-03T17:28:13Z</time></trkpt><trkpt lat="43.593036044788604" lon="11.26072769079375"><ele>508.0</ele><time>2026-04-03T17:28:14Z</time></trkpt><trkpt lat="43.59292060671215" lon="11.260766521240495"><ele>511.0</ele><time>2026-04-03T17:28:15Z</time></trkpt><trkpt lat="43.59280214784706" lon="11.260803293926545"><ele>514.0</ele><time>2026-04-03T17:28:16Z</time></trkpt><trkpt lat="43.592682466725556" lon="11.260825250726771"><ele>517.0</ele><time>2026-04-03T17:28:17Z</time></trkpt><trkpt lat="43.59255748545071" lon="11.260845881523286"><ele>520.0</ele><time>2026-04-03T17:28:18Z</time></trkpt><trkpt lat="43.592448639785786" lon="11.260866183097049"><ele>520.0</ele><time>2026-04-03T17:28:19Z</time></trkpt><trkpt lat="43.592343252695606" lon="11.260878618297609"><ele>520.0</ele><time>2026-04-03T17:28:20Z</time></trkpt><trkpt lat="43.592231972525646" lon="11.260862215820582"><ele>520.0</ele><time>2026-04-03T17:28:21Z</time></trkpt><trkpt lat="43.59213436216219" lon="11.260789847051125"><ele>520.0</ele><time>2026-04-03T17:28:22Z</time></trkpt><trkpt lat="43.59205145866081" lon="11.26071401915364"><ele>520.0</ele><time>2026-04-03T17:28:23Z</time></trkpt><trkpt lat="43.59196194262995" lon="11.260639761549001"><ele>522.8</ele><time>2026-04-03T17:28:24Z</time></trkpt><trkpt lat="43.59186610718713" lon="11.26057239374132"><ele>525.6</ele><time>2026-04-03T17:28:25Z</time></trkpt><trkpt lat="43.59177249826155" lon="11.260496121439655"><ele>528.4</ele><time>2026-04-03T17:28:26Z</time></trkpt><trkpt lat="43.59168403302612" lon="11.26042565636033"><ele>531.2</ele><time>2026-04-03T17:28:27Z</time></trkpt><trkpt lat="43.5915833761834" lon="11.260376929481549"><ele>534.0</ele><time>2026-04-03T17:28:28Z</time></trkpt><trkpt lat="43.59147980333336" lon="11.26035916953662"><ele>534.0</ele><time>2026-04-03T17:28:29Z</time></trkpt><trkpt lat="43.59137300491288" lon="11.26035972147252"><ele>534.0</ele><time>2026-04-03T17:28:30Z</time></trkpt><trkpt lat="43.5912596369643" lon="11.26037433576087"><ele>534.0</ele><time>2026-04-03T17:28:31Z</time></trkpt><trkpt lat="43.59115248217502" lon="11.260398743658163"><ele>534.0</ele><time>2026-04-03T17:28:32Z</time></trkpt><trkpt lat="43.59104676762329" lon="11.260429758179763"><ele>534.0</ele><time>2026-04-03T17:28:33Z</time></trkpt><trkpt lat="43.590936915333614" lon="11.26043827791086"><ele>534.25</ele><time>2026-04-03T17:28:34Z</time></trkpt><trkpt lat="43.590825289184906" lon="11.260466441890793"><ele>534.5</ele><time>2026-04-03T17:28:35Z</time></trkpt><trkpt lat="43.590708708973175" lon="11.260499895366326"><ele>534.75</ele><time>2026-04-03T17:28:36Z</time></trkpt><trkpt lat="43.5905975380917" lon="11.26055469061897"><ele>535.0</ele><time>2026-04-03T17:28:37Z</time></trkpt><trkpt lat="43.59048060835673" lon="11.26059025243335"><ele>534.0</ele><time>2026-04-03T17:28:38Z</time></trkpt><trkpt lat="43.590372473198336" lon="11.260644378785594"><ele>533.0</ele><time>2026-04-03T17:28:39Z</time></trkpt><trkpt lat="43.590262585082755" lon="11.260713424732593"><ele>532.0</ele><time>2026-04-03T17:28:40Z</time></trkpt><trkpt lat="43.59015961276015" lon="11.260781637285788"><ele>531.0</ele><time>2026-04-03T17:28:41Z</time></trkpt><trkpt lat="43.5900549913581" lon="11.26084603051809"><ele>532.6</ele><time>2026-04-03T17:28:42Z</time></trkpt><trkpt lat="43.58995739294011" lon="11.260920821085689"><ele>534.2</ele><time>2026-04-03T17:28:43Z</time></trkpt><trkpt lat="43.5898633928847" lon="11.26099324027024"><ele>535.8</ele><time>2026-04-03T17:28:44Z</time></trkpt><trkpt lat="43.589771572665626" lon="11.261058382113058"><ele>537.4</ele><time>2026-04-03T17:28:45Z</time></trkpt><trkpt lat="43.58969894869936" lon="11.261146748411578"><ele>539.0</ele><time>2026-04-03T17:28:46Z</time></trkpt><trkpt lat="43.58963076051594" lon="11.261255558583645"><ele>539.0</ele><time>2026-04-03T17:28:47Z</time></trkpt><trkpt lat="43.58957604900677" lon="11.261385334281089"><ele>539.0</ele><time>2026-04-03T17:28:48Z</time></trkpt><trkpt lat="43.589532585321685" lon="11.261531735876574"><ele>539.0</ele><time>2026-04-03T17:28:49Z</time></trkpt><trkpt lat="43.58950830442417" lon="11.261695787664898"><ele>539.0</ele><time>2026-04-03T17:28:50Z</time></trkpt><trkpt lat="43.58949542947062" lon="11.261863242317887"><ele>537.25</ele><time>2026-04-03T17:28:51Z</time></trkpt><trkpt lat="43.58947839783917" lon="11.262031347482747"><ele>535.5</ele><time>2026-04-03T17:28:51.999Z</time></trkpt><trkpt lat="43.58945887277871" lon="11.262185632207203"><ele>533.75</ele><time>2026-04-03T17:28:52.999Z</time></trkpt><trkpt lat="43.58942745297197" lon="11.262346077455923"><ele>532.0</ele><time>2026-04-03T17:28:53.999Z</time></trkpt><trkpt lat="43.58935628675035" lon="11.262489412539551"><ele>531.5</ele><time>2026-04-03T17:28:54.999Z</time></trkpt><trkpt lat="43.589309312578074" lon="11.26265762666944"><ele>531.0</ele><time>2026-04-03T17:28:55.999Z</time></trkpt><trkpt lat="43.58924240724731" lon="11.26280945783118"><ele>530.5</ele><time>2026-04-03T17:28:56.999Z</time></trkpt><trkpt lat="43.58917975803504" lon="11.26294676726882"><ele>530.0</ele><time>2026-04-03T17:28:57.999Z</time></trkpt><trkpt lat="43.58911830713703" lon="11.263086202178306"><ele>530.75</ele><time>2026-04-03T17:28:58.999Z</time></trkpt><trkpt lat="43.58905657503544" lon="11.26321445937093"><ele>531.5</ele><time>2026-04-03T17:28:59.999Z</time></trkpt><trkpt lat="43.588989548263704" lon="11.263328801011786"><ele>532.25</ele><time>2026-04-03T17:29:00.999Z</time></trkpt><trkpt lat="43.58890509200111" lon="11.263442557109657"><ele>533.0</ele><time>2026-04-03T17:29:01.999Z</time></trkpt><trkpt lat="43.58880550384466" lon="11.26354882820229"><ele>533.0</ele><time>2026-04-03T17:29:02.999Z</time></trkpt><trkpt lat="43.588701756929495" lon="11.263658305805999"><ele>533.0</ele><time>2026-04-03T17:29:03.999Z</time></trkpt><trkpt lat="43.58861144218365" lon="11.263768385135856"><ele>533.0</ele><time>2026-04-03T17:29:04.999Z</time></trkpt><trkpt lat="43.588524802448184" lon="11.263875035686313"><ele>533.0</ele><time>2026-04-03T17:29:05.999Z</time></trkpt><trkpt lat="43.58845091422317" lon="11.263985285338796"><ele>530.4</ele><time>2026-04-03T17:29:06.999Z</time></trkpt><trkpt lat="43.588383113351526" lon="11.264106033987074"><ele>527.8</ele><time>2026-04-03T17:29:07.999Z</time></trkpt><trkpt lat="43.58832836859457" lon="11.264236052708434"><ele>525.2</ele><time>2026-04-03T17:29:08.999Z</time></trkpt><trkpt lat="43.588285319714956" lon="11.264369984448571"><ele>522.6</ele><time>2026-04-03T17:29:09.999Z</time></trkpt><trkpt lat="43.5882762741789" lon="11.264513328002396"><ele>520.0</ele><time>2026-04-03T17:29:10.999Z</time></trkpt><trkpt lat="43.58829793339617" lon="11.264669426991416"><ele>519.2</ele><time>2026-04-03T17:29:11.999Z</time></trkpt><trkpt lat="43.58834239165761" lon="11.264811830598378"><ele>518.4</ele><time>2026-04-03T17:29:12.999Z</time></trkpt><trkpt lat="43.588381362027654" lon="11.264950324804438"><ele>517.6</ele><time>2026-04-03T17:29:13.999Z</time></trkpt><trkpt lat="43.588398413925056" lon="11.265095729098938"><ele>516.8</ele><time>2026-04-03T17:29:14.999Z</time></trkpt><trkpt lat="43.58841138409479" lon="11.265241925181922"><ele>516.0</ele><time>2026-04-03T17:29:15.999Z</time></trkpt><trkpt lat="43.588384286568235" lon="11.265383626391667"><ele>516.0</ele><time>2026-04-03T17:29:16.999Z</time></trkpt><trkpt lat="43.58836173621516" lon="11.265535805534558"><ele>516.0</ele><time>2026-04-03T17:29:17.999Z</time></trkpt><trkpt lat="43.58833892435289" lon="11.265689749580929"><ele>516.0</ele><time>2026-04-03T17:29:18.999Z</time></trkpt><trkpt lat="43.5883156840456" lon="11.26584137194117"><ele>516.0</ele><time>2026-04-03T17:29:19.999Z</time></trkpt><trkpt lat="43.58829169841714" lon="11.265995846122342"><ele>513.5</ele><time>2026-04-03T17:29:20.999Z</time></trkpt><trkpt lat="43.58827651606688" lon="11.266152007452899"><ele>511.0</ele><time>2026-04-03T17:29:21.999Z</time></trkpt><trkpt lat="43.58821535010489" lon="11.266289021318888"><ele>508.5</ele><time>2026-04-03T17:29:22.999Z</time></trkpt><trkpt lat="43.58813365910128" lon="11.266405489273751"><ele>506.0</ele><time>2026-04-03T17:29:23.999Z</time></trkpt><trkpt lat="43.58806005232661" lon="11.26654708222628"><ele>504.25</ele><time>2026-04-03T17:29:24.999Z</time></trkpt><trkpt lat="43.588020701091864" lon="11.266698659835775"><ele>502.5</ele><time>2026-04-03T17:29:25.999Z</time></trkpt><trkpt lat="43.58799149568586" lon="11.26685263397876"><ele>500.75</ele><time>2026-04-03T17:29:26.999Z</time></trkpt><trkpt lat="43.58795121675178" lon="11.267002524717594"><ele>499.0</ele><time>2026-04-03T17:29:27.999Z</time></trkpt><trkpt lat="43.58791592588612" lon="11.267151896440177"><ele>497.75</ele><time>2026-04-03T17:29:28.999Z</time></trkpt><trkpt lat="43.58788943914143" lon="11.26731924889995"><ele>496.5</ele><time>2026-04-03T17:29:29.999Z</time></trkpt><trkpt lat="43.58783348493191" lon="11.26746271537116"><ele>495.25</ele><time>2026-04-03T17:29:31Z</time></trkpt><trkpt lat="43.587803074728185" lon="11.2676095529938"><ele>494.0</ele><time>2026-04-03T17:29:32Z</time></trkpt><trkpt lat="43.587769012656345" lon="11.267750508265511"><ele>494.0</ele><time>2026-04-03T17:29:33Z</time></trkpt><trkpt lat="43.58772127797359" lon="11.267878793847327"><ele>494.0</ele><time>2026-04-03T17:29:34Z</time></trkpt><trkpt lat="43.58763988055366" lon="11.267977348767378"><ele>494.0</ele><time>2026-04-03T17:29:35Z</time></trkpt><trkpt lat="43.58754504755308" lon="11.268026985016226"><ele>494.0</ele><time>2026-04-03T17:29:36Z</time></trkpt><trkpt lat="43.58746323647728" lon="11.268101437437268"><ele>494.0</ele><time>2026-04-03T17:29:37Z</time></trkpt><trkpt lat="43.58739032969424" lon="11.26814224110321"><ele>492.4</ele><time>2026-04-03T17:29:38Z</time></trkpt><trkpt lat="43.58732370612313" lon="11.268170776807246"><ele>490.79999999999995</ele><time>2026-04-03T17:29:39Z</time></trkpt><trkpt lat="43.5872228308621" lon="11.26819621063689"><ele>489.20000000000005</ele><time>2026-04-03T17:29:41Z</time></trkpt><trkpt lat="43.58721705302195" lon="11.268374305639194"><ele>487.6</ele><time>2026-04-03T17:29:43Z</time></trkpt><trkpt lat="43.5871087180307" lon="11.26823550009477"><ele>486.0</ele><time>2026-04-03T17:29:45Z</time></trkpt><trkpt lat="43.58704640195943" lon="11.268254224140248"><ele>485.20000000000005</ele><time>2026-04-03T17:29:46Z</time></trkpt><trkpt lat="43.58697267773065" lon="11.268277421644886"><ele>484.40000000000003</ele><time>2026-04-03T17:29:47Z</time></trkpt><trkpt lat="43.58687859441989" lon="11.26830702513932"><ele>483.6</ele><time>2026-04-03T17:29:48Z</time></trkpt><trkpt lat="43.58674299408985" lon="11.268351692765528"><ele>482.8</ele><time>2026-04-03T17:29:49Z</time></trkpt><trkpt lat="43.58662511404827" lon="11.26839210159394"><ele>482.0</ele><time>2026-04-03T17:29:50Z</time></trkpt><trkpt lat="43.58653965359876" lon="11.268421397129838"><ele>481.99999999999994</ele><time>2026-04-03T17:29:51Z</time></trkpt><trkpt lat="43.58645912455859" lon="11.268448197333596"><ele>482.0</ele><time>2026-04-03T17:29:52Z</time></trkpt><trkpt lat="43.586392032739255" lon="11.268471561479386"><ele>482.0</ele><time>2026-04-03T17:29:53Z</time></trkpt><trkpt lat="43.58627189030896" lon="11.268516299737778"><ele>482.0</ele><time>2026-04-03T17:29:55Z</time></trkpt><trkpt lat="43.58618266721359" lon="11.26856277096945"><ele>481.99999999999994</ele><time>2026-04-03T17:29:56Z</time></trkpt><trkpt lat="43.586116424118266" lon="11.26860101897205"><ele>482.0</ele><time>2026-04-03T17:29:57Z</time></trkpt><trkpt lat="43.58602902628081" lon="11.26865332259013"><ele>482.5</ele><time>2026-04-03T17:29:59Z</time></trkpt><trkpt lat="43.586067484348064" lon="11.268982523455083"><ele>483.0</ele><time>2026-04-03T17:30:00Z</time></trkpt><trkpt lat="43.58602177420308" lon="11.26908563148409"><ele>483.5</ele><time>2026-04-03T17:30:02Z</time></trkpt><trkpt lat="43.58594656592224" lon="11.269092619008665"><ele>484.0</ele><time>2026-04-03T17:30:05Z</time></trkpt><trkpt lat="43.58587479404128" lon="11.269110169590773"><ele>484.00000000000006</ele><time>2026-04-03T17:30:06Z</time></trkpt><trkpt lat="43.585802304125274" lon="11.269182762787576"><ele>484.0</ele><time>2026-04-03T17:30:07Z</time></trkpt><trkpt lat="43.58574011100491" lon="11.269264778272222"><ele>484.0</ele><time>2026-04-03T17:30:08Z</time></trkpt><trkpt lat="43.5856823643432" lon="11.269309266754638"><ele>484.0</ele><time>2026-04-03T17:30:09Z</time></trkpt><trkpt lat="43.58561513155893" lon="11.26932512674119"><ele>484.00000000000006</ele><time>2026-04-03T17:30:10Z</time></trkpt><trkpt lat="43.58555064934996" lon="11.269284551133604"><ele>484.0</ele><time>2026-04-03T17:30:11Z</time></trkpt><trkpt lat="43.585482712330254" lon="11.269246064928073"><ele>484.00000000000006</ele><time>2026-04-03T17:30:12Z</time></trkpt><trkpt lat="43.58541949817747" lon="11.269227168478404"><ele>484.0</ele><time>2026-04-03T17:30:13Z</time></trkpt><trkpt lat="43.58532165750208" lon="11.269192543311398"><ele>484.0</ele><time>2026-04-03T17:30:15Z</time></trkpt><trkpt lat="43.58527255895118" lon="11.269131326211435"><ele>484.0</ele><time>2026-04-03T17:30:17Z</time></trkpt><trkpt lat="43.58521310712548" lon="11.269075967115445"><ele>484.00000000000006</ele><time>2026-04-03T17:30:19Z</time></trkpt><trkpt lat="43.585153340114026" lon="11.269110172619468"><ele>484.0</ele><time>2026-04-03T17:30:22Z</time></trkpt><trkpt lat="43.585057597886106" lon="11.2691921503037"><ele>483.79999999999995</ele><time>2026-04-03T17:30:24Z</time></trkpt><trkpt lat="43.584973100508705" lon="11.269195829873246"><ele>483.59999999999997</ele><time>2026-04-03T17:30:25Z</time></trkpt><trkpt lat="43.58488693000061" lon="11.269195263255131"><ele>483.4</ele><time>2026-04-03T17:30:26Z</time></trkpt><trkpt lat="43.58482567687731" lon="11.269174192796337"><ele>483.2</ele><time>2026-04-03T17:30:27Z</time></trkpt><trkpt lat="43.584682612523544" lon="11.269219875613674"><ele>483.0</ele><time>2026-04-03T17:30:29Z</time></trkpt><trkpt lat="43.58460459096899" lon="11.269290557938154"><ele>483.0</ele><time>2026-04-03T17:30:30Z</time></trkpt><trkpt lat="43.58452528248588" lon="11.26935361450222"><ele>483.0</ele><time>2026-04-03T17:30:31Z</time></trkpt><trkpt lat="43.5844497960501" lon="11.269385329511488"><ele>483.0</ele><time>2026-04-03T17:30:32Z</time></trkpt><trkpt lat="43.584384114149145" lon="11.269387071692707"><ele>483.0</ele><time>2026-04-03T17:30:33Z</time></trkpt><trkpt lat="43.584269763245366" lon="11.269448028050766"><ele>483.0</ele><time>2026-04-03T17:30:35Z</time></trkpt><trkpt lat="43.584213489377376" lon="11.26949652992291"><ele>483.0</ele><time>2026-04-03T17:30:36Z</time></trkpt><trkpt lat="43.584158544366204" lon="11.269550372172354"><ele>483.2</ele><time>2026-04-03T17:30:37Z</time></trkpt><trkpt lat="43.58405851780169" lon="11.269648997590165"><ele>483.4</ele><time>2026-04-03T17:30:39Z</time></trkpt><trkpt lat="43.58399489378627" lon="11.269714549930365"><ele>483.59999999999997</ele><time>2026-04-03T17:30:40Z</time></trkpt><trkpt lat="43.583932616770404" lon="11.269788647704086"><ele>483.79999999999995</ele><time>2026-04-03T17:30:41Z</time></trkpt><trkpt lat="43.583872491108856" lon="11.269864523223212"><ele>484.0</ele><time>2026-04-03T17:30:42Z</time></trkpt><trkpt lat="43.58380905460203" lon="11.269944123116613"><ele>483.79999999999995</ele><time>2026-04-03T17:30:43Z</time></trkpt><trkpt lat="43.58375741352918" lon="11.270023540476988"><ele>483.59999999999997</ele><time>2026-04-03T17:30:44Z</time></trkpt><trkpt lat="43.58368606191043" lon="11.27011180562879"><ele>483.4</ele><time>2026-04-03T17:30:45Z</time></trkpt><trkpt lat="43.58362315592691" lon="11.270200547009862"><ele>483.2</ele><time>2026-04-03T17:30:46Z</time></trkpt><trkpt lat="43.58357571320599" lon="11.270280293608453"><ele>483.0</ele><time>2026-04-03T17:30:47Z</time></trkpt><trkpt lat="43.58348663140495" lon="11.27039346040947"><ele>483.0</ele><time>2026-04-03T17:30:49Z</time></trkpt><trkpt lat="43.58342645883875" lon="11.270435341730085"><ele>483.0</ele><time>2026-04-03T17:30:50Z</time></trkpt><trkpt lat="43.583355362080056" lon="11.270462173237327"><ele>483.0</ele><time>2026-04-03T17:30:51Z</time></trkpt><trkpt lat="43.58328523061667" lon="11.27050978158992"><ele>483.0</ele><time>2026-04-03T17:30:52Z</time></trkpt><trkpt lat="43.58322980435324" lon="11.270571318213163"><ele>483.0</ele><time>2026-04-03T17:30:52.999Z</time></trkpt><trkpt lat="43.58318196174511" lon="11.270627964446684"><ele>483.0</ele><time>2026-04-03T17:30:53.999Z</time></trkpt><trkpt lat="43.58307244913313" lon="11.270711470054046"><ele>483.0</ele><time>2026-04-03T17:30:55.999Z</time></trkpt><trkpt lat="43.58301377660445" lon="11.270762169526211"><ele>483.0</ele><time>2026-04-03T17:30:56.999Z</time></trkpt><trkpt lat="43.582952400185356" lon="11.270810313620453"><ele>483.0</ele><time>2026-04-03T17:30:57.999Z</time></trkpt><trkpt lat="43.58283664991837" lon="11.270849066797581"><ele>483.0</ele><time>2026-04-03T17:30:59.999Z</time></trkpt><trkpt lat="43.582737818149646" lon="11.270867258268812"><ele>483.0</ele><time>2026-04-03T17:31:01.999Z</time></trkpt><trkpt lat="43.582690348716405" lon="11.27093430734847"><ele>483.0</ele><time>2026-04-03T17:31:02.999Z</time></trkpt><trkpt lat="43.582629569604656" lon="11.271008871270531"><ele>483.0</ele><time>2026-04-03T17:31:03.999Z</time></trkpt><trkpt lat="43.58258097657677" lon="11.27106855084712"><ele>483.0</ele><time>2026-04-03T17:31:04.999Z</time></trkpt><trkpt lat="43.58250183500257" lon="11.271171941003669"><ele>483.0</ele><time>2026-04-03T17:31:06.999Z</time></trkpt><trkpt lat="43.58240761555591" lon="11.271236693677562"><ele>483.0</ele><time>2026-04-03T17:31:08.999Z</time></trkpt><trkpt lat="43.58235180754652" lon="11.271314942759577"><ele>483.0</ele><time>2026-04-03T17:31:10.999Z</time></trkpt><trkpt lat="43.58226329166132" lon="11.27133084104451"><ele>483.0</ele><time>2026-04-03T17:31:16.999Z</time></trkpt><trkpt lat="43.58219952916494" lon="11.271380634161778"><ele>482.79999999999995</ele><time>2026-04-03T17:31:19.999Z</time></trkpt><trkpt lat="43.58212954882954" lon="11.271453539760786"><ele>482.59999999999997</ele><time>2026-04-03T17:31:23.999Z</time></trkpt><trkpt lat="43.582074569876134" lon="11.271527536394816"><ele>482.40000000000003</ele><time>2026-04-03T17:31:25.999Z</time></trkpt><trkpt lat="43.582031960413424" lon="11.271623045082187"><ele>482.20000000000005</ele><time>2026-04-03T17:31:28.999Z</time></trkpt><trkpt lat="43.58192339314223" lon="11.271692631497968"><ele>482.0</ele><time>2026-04-03T17:31:30.999Z</time></trkpt><trkpt lat="43.58181952038014" lon="11.271744251591706"><ele>482.0</ele><time>2026-04-03T17:31:32.999Z</time></trkpt><trkpt lat="43.58174217804044" lon="11.27169448858914"><ele>482.00000000000006</ele><time>2026-04-03T17:31:34.999Z</time></trkpt><trkpt lat="43.58162713392291" lon="11.2716441829237"><ele>482.00000000000006</ele><time>2026-04-03T17:31:37Z</time></trkpt><trkpt lat="43.5815265122009" lon="11.271626075488623"><ele>482.0</ele><time>2026-04-03T17:31:39Z</time></trkpt><trkpt lat="43.58144766950303" lon="11.271644987967333"><ele>482.0</ele><time>2026-04-03T17:31:41Z</time></trkpt><trkpt lat="43.58135535661366" lon="11.271706086773202"><ele>482.0</ele><time>2026-04-03T17:31:43Z</time></trkpt><trkpt lat="43.581289402238326" lon="11.271773644126375"><ele>482.00000000000006</ele><time>2026-04-03T17:31:44Z</time></trkpt><trkpt lat="43.5812099223347" lon="11.271860844036123"><ele>482.00000000000006</ele><time>2026-04-03T17:31:45Z</time></trkpt><trkpt lat="43.581109379989805" lon="11.271935973043155"><ele>482.0</ele><time>2026-04-03T17:31:46Z</time></trkpt><trkpt lat="43.58099176676392" lon="11.2719853282433"><ele>482.0</ele><time>2026-04-03T17:31:47Z</time></trkpt><trkpt lat="43.58088325686888" lon="11.272028769540471"><ele>480.6</ele><time>2026-04-03T17:31:48Z</time></trkpt><trkpt lat="43.5807873349337" lon="11.272067635493148"><ele>479.20000000000005</ele><time>2026-04-03T17:31:49Z</time></trkpt><trkpt lat="43.580688261219535" lon="11.272085389742433"><ele>477.8</ele><time>2026-04-03T17:31:50Z</time></trkpt><trkpt lat="43.58057724395372" lon="11.27209932579576"><ele>476.4</ele><time>2026-04-03T17:31:51Z</time></trkpt><trkpt lat="43.58046128439549" lon="11.272134959989165"><ele>475.0</ele><time>2026-04-03T17:31:52Z</time></trkpt><trkpt lat="43.580352440371485" lon="11.27219200888139"><ele>475.8</ele><time>2026-04-03T17:31:53Z</time></trkpt><trkpt lat="43.5802488316321" lon="11.272260787524282"><ele>476.6</ele><time>2026-04-03T17:31:54Z</time></trkpt><trkpt lat="43.580141273516595" lon="11.272299487341481"><ele>477.4</ele><time>2026-04-03T17:31:55Z</time></trkpt><trkpt lat="43.58004118461887" lon="11.272362321714946"><ele>478.2</ele><time>2026-04-03T17:31:56Z</time></trkpt><trkpt lat="43.579939077017464" lon="11.27242642519658"><ele>479.0</ele><time>2026-04-03T17:31:57Z</time></trkpt><trkpt lat="43.57984109029786" lon="11.272503725773596"><ele>479.0</ele><time>2026-04-03T17:31:58Z</time></trkpt><trkpt lat="43.57974770308315" lon="11.272585589006981"><ele>479.0</ele><time>2026-04-03T17:31:59Z</time></trkpt><trkpt lat="43.579655362891536" lon="11.272680824172863"><ele>479.0</ele><time>2026-04-03T17:32:00Z</time></trkpt><trkpt lat="43.57956700287635" lon="11.272769370655698"><ele>479.0</ele><time>2026-04-03T17:32:01Z</time></trkpt><trkpt lat="43.57947899367123" lon="11.272871802170588"><ele>479.0</ele><time>2026-04-03T17:32:02Z</time></trkpt><trkpt lat="43.57937786119842" lon="11.272954282663907"><ele>479.0</ele><time>2026-04-03T17:32:03Z</time></trkpt><trkpt lat="43.579282824986215" lon="11.273032735785806"><ele>479.0</ele><time>2026-04-03T17:32:04Z</time></trkpt><trkpt lat="43.579184630480015" lon="11.273101074639204"><ele>479.0</ele><time>2026-04-03T17:32:05Z</time></trkpt><trkpt lat="43.57908946871075" lon="11.27318257471453"><ele>480.99999999999994</ele><time>2026-04-03T17:32:06Z</time></trkpt><trkpt lat="43.57899986639645" lon="11.273255537518157"><ele>483.0</ele><time>2026-04-03T17:32:07Z</time></trkpt><trkpt lat="43.57892721672893" lon="11.273317863924353"><ele>485.0</ele><time>2026-04-03T17:32:08Z</time></trkpt><trkpt lat="43.578885261354095" lon="11.273392097859588"><ele>487.0</ele><time>2026-04-03T17:32:09Z</time></trkpt><trkpt lat="43.57887045802736" lon="11.273485659818723"><ele>488.99999999999994</ele><time>2026-04-03T17:32:10Z</time></trkpt><trkpt lat="43.57886548303897" lon="11.273580973437944"><ele>491.0</ele><time>2026-04-03T17:32:11Z</time></trkpt><trkpt lat="43.57885236580828" lon="11.273668631185492"><ele>491.0</ele><time>2026-04-03T17:32:12Z</time></trkpt><trkpt lat="43.57882278907458" lon="11.273748728931125"><ele>490.99999999999994</ele><time>2026-04-03T17:32:13Z</time></trkpt><trkpt lat="43.57878283884489" lon="11.273827750770527"><ele>491.0</ele><time>2026-04-03T17:32:14Z</time></trkpt><trkpt lat="43.57874022863144" lon="11.273915183062869"><ele>491.0</ele><time>2026-04-03T17:32:15Z</time></trkpt><trkpt lat="43.578687715911215" lon="11.273991049384936"><ele>490.99999999999994</ele><time>2026-04-03T17:32:16Z</time></trkpt><trkpt lat="43.578639072246695" lon="11.274082094029021"><ele>491.0</ele><time>2026-04-03T17:32:17Z</time></trkpt><trkpt lat="43.57859777028896" lon="11.274173460593385"><ele>491.0</ele><time>2026-04-03T17:32:18Z</time></trkpt><trkpt lat="43.578573883097825" lon="11.274283354797685"><ele>491.4</ele><time>2026-04-03T17:32:19Z</time></trkpt><trkpt lat="43.578592521424085" lon="11.274411546295958"><ele>491.8</ele><time>2026-04-03T17:32:20Z</time></trkpt><trkpt lat="43.57860183063" lon="11.274526765685062"><ele>492.19999999999993</ele><time>2026-04-03T17:32:21Z</time></trkpt><trkpt lat="43.57859644366542" lon="11.274650161258505"><ele>492.59999999999997</ele><time>2026-04-03T17:32:22Z</time></trkpt><trkpt lat="43.578605088264" lon="11.274773271404275"><ele>493.0</ele><time>2026-04-03T17:32:23Z</time></trkpt><trkpt lat="43.57860249590812" lon="11.274908444694534"><ele>493.0</ele><time>2026-04-03T17:32:24Z</time></trkpt><trkpt lat="43.57858621752156" lon="11.275026086025699"><ele>492.99999999999994</ele><time>2026-04-03T17:32:25Z</time></trkpt><trkpt lat="43.57856180927032" lon="11.275155132626523"><ele>492.99999999999994</ele><time>2026-04-03T17:32:26Z</time></trkpt><trkpt lat="43.57853313401885" lon="11.275287419657474"><ele>493.0</ele><time>2026-04-03T17:32:27Z</time></trkpt><trkpt lat="43.57850313093796" lon="11.27541870284971"><ele>493.0</ele><time>2026-04-03T17:32:28Z</time></trkpt><trkpt lat="43.57846865351961" lon="11.27554876350022"><ele>492.25</ele><time>2026-04-03T17:32:29Z</time></trkpt><trkpt lat="43.578438781243385" lon="11.275683737357179"><ele>491.5</ele><time>2026-04-03T17:32:30Z</time></trkpt><trkpt lat="43.57842618166107" lon="11.27582858942425"><ele>490.75</ele><time>2026-04-03T17:32:31Z</time></trkpt><trkpt lat="43.57848011600485" lon="11.275990161732837"><ele>490.0</ele><time>2026-04-03T17:32:32Z</time></trkpt><trkpt lat="43.5785562887985" lon="11.276123450480165"><ele>490.0</ele><time>2026-04-03T17:32:33Z</time></trkpt><trkpt lat="43.57864845641326" lon="11.276231999741933"><ele>490.0</ele><time>2026-04-03T17:32:34Z</time></trkpt><trkpt lat="43.578750048937906" lon="11.276315143124128"><ele>490.0</ele><time>2026-04-03T17:32:35Z</time></trkpt><trkpt lat="43.57881350320575" lon="11.276461013486777"><ele>490.0</ele><time>2026-04-03T17:32:36Z</time></trkpt><trkpt lat="43.57887339482299" lon="11.27660954595442"><ele>488.0</ele><time>2026-04-03T17:32:37Z</time></trkpt><trkpt lat="43.57894828989567" lon="11.276762974523074"><ele>486.0</ele><time>2026-04-03T17:32:38Z</time></trkpt><trkpt lat="43.57904128300551" lon="11.276900541848052"><ele>484.0</ele><time>2026-04-03T17:32:39Z</time></trkpt><trkpt lat="43.579110174857966" lon="11.277052148996871"><ele>482.0</ele><time>2026-04-03T17:32:40Z</time></trkpt><trkpt lat="43.579155152023674" lon="11.277224277403528"><ele>483.5</ele><time>2026-04-03T17:32:41Z</time></trkpt><trkpt lat="43.57921471523369" lon="11.277395066701372"><ele>485.0</ele><time>2026-04-03T17:32:42Z</time></trkpt><trkpt lat="43.57929597972647" lon="11.27755368294099"><ele>486.5</ele><time>2026-04-03T17:32:43Z</time></trkpt><trkpt lat="43.579381871488685" lon="11.277699716859125"><ele>488.0</ele><time>2026-04-03T17:32:44Z</time></trkpt><trkpt lat="43.57943591671083" lon="11.277855031065236"><ele>488.0</ele><time>2026-04-03T17:32:45Z</time></trkpt><trkpt lat="43.57946669397625" lon="11.2780308644106"><ele>488.0</ele><time>2026-04-03T17:32:46Z</time></trkpt><trkpt lat="43.57952124315771" lon="11.278191233126558"><ele>488.0</ele><time>2026-04-03T17:32:47Z</time></trkpt><trkpt lat="43.57959204940825" lon="11.27832154241151"><ele>488.0</ele><time>2026-04-03T17:32:48Z</time></trkpt><trkpt lat="43.57960509266522" lon="11.278460810188458"><ele>485.59999999999997</ele><time>2026-04-03T17:32:49Z</time></trkpt><trkpt lat="43.57960375022254" lon="11.278588775889691"><ele>483.19999999999993</ele><time>2026-04-03T17:32:50Z</time></trkpt><trkpt lat="43.579592875258214" lon="11.278725723398003"><ele>480.8</ele><time>2026-04-03T17:32:50.999Z</time></trkpt><trkpt lat="43.57957479788475" lon="11.278876272237888"><ele>478.4</ele><time>2026-04-03T17:32:51.999Z</time></trkpt><trkpt lat="43.57956657125855" lon="11.27903251884556"><ele>476.0</ele><time>2026-04-03T17:32:52.999Z</time></trkpt><trkpt lat="43.579593254557075" lon="11.279184456553727"><ele>476.0</ele><time>2026-04-03T17:32:53.999Z</time></trkpt><trkpt lat="43.5796117413574" lon="11.279330339721566"><ele>476.0</ele><time>2026-04-03T17:32:54.999Z</time></trkpt><trkpt lat="43.57958410507696" lon="11.279468946357309"><ele>476.0</ele><time>2026-04-03T17:32:55.999Z</time></trkpt><trkpt lat="43.57958309234566" lon="11.27960989153403"><ele>476.0</ele><time>2026-04-03T17:32:56.999Z</time></trkpt><trkpt lat="43.57959186944173" lon="11.279749461882547"><ele>476.0</ele><time>2026-04-03T17:32:57.999Z</time></trkpt><trkpt lat="43.57961325361263" lon="11.279873735332117"><ele>477.49999999999994</ele><time>2026-04-03T17:32:58.999Z</time></trkpt><trkpt lat="43.57959809547928" lon="11.280001110324934"><ele>479.0</ele><time>2026-04-03T17:32:59.999Z</time></trkpt><trkpt lat="43.57955343079819" lon="11.28011524176012"><ele>480.5</ele><time>2026-04-03T17:33:00.999Z</time></trkpt><trkpt lat="43.579532329265945" lon="11.280234702084403"><ele>482.0</ele><time>2026-04-03T17:33:01.999Z</time></trkpt><trkpt lat="43.57949256893622" lon="11.280336058750725"><ele>483.49999999999994</ele><time>2026-04-03T17:33:02.999Z</time></trkpt><trkpt lat="43.57949822811599" lon="11.280456103348282"><ele>485.0</ele><time>2026-04-03T17:33:03.999Z</time></trkpt><trkpt lat="43.579567679378634" lon="11.280565764336412"><ele>488.0</ele><time>2026-04-03T17:33:04.999Z</time></trkpt><trkpt lat="43.579642285458675" lon="11.280650769351752"><ele>491.0</ele><time>2026-04-03T17:33:05.999Z</time></trkpt><trkpt lat="43.57973458154181" lon="11.28070758402319"><ele>494.0</ele><time>2026-04-03T17:33:06.999Z</time></trkpt><trkpt lat="43.579834001498575" lon="11.280731063815638"><ele>497.0</ele><time>2026-04-03T17:33:07.999Z</time></trkpt><trkpt lat="43.579936551935695" lon="11.280749232603652"><ele>500.0</ele><time>2026-04-03T17:33:08.999Z</time></trkpt><trkpt lat="43.58004118847122" lon="11.280792781952563"><ele>500.0</ele><time>2026-04-03T17:33:09.999Z</time></trkpt><trkpt lat="43.58014713455292" lon="11.280845621378745"><ele>500.0</ele><time>2026-04-03T17:33:10.999Z</time></trkpt><trkpt lat="43.58023116958737" lon="11.280949928933126"><ele>500.0</ele><time>2026-04-03T17:33:11.999Z</time></trkpt><trkpt lat="43.58032039075866" lon="11.281039840078245"><ele>500.0</ele><time>2026-04-03T17:33:12.999Z</time></trkpt><trkpt lat="43.580423614833684" lon="11.281093783063318"><ele>500.0</ele><time>2026-04-03T17:33:13.999Z</time></trkpt><trkpt lat="43.58052793414328" lon="11.281155828952839"><ele>501.0</ele><time>2026-04-03T17:33:14.999Z</time></trkpt><trkpt lat="43.58062711496323" lon="11.281238013494091"><ele>502.0</ele><time>2026-04-03T17:33:15.999Z</time></trkpt><trkpt lat="43.580730590827564" lon="11.281273487118401"><ele>503.0</ele><time>2026-04-03T17:33:16.999Z</time></trkpt><trkpt lat="43.58081412018428" lon="11.281354074313644"><ele>504.0</ele><time>2026-04-03T17:33:17.999Z</time></trkpt><trkpt lat="43.58087555727879" lon="11.281435737838432"><ele>505.0</ele><time>2026-04-03T17:33:18.999Z</time></trkpt><trkpt lat="43.58093049603901" lon="11.281528351707925"><ele>506.6</ele><time>2026-04-03T17:33:19.999Z</time></trkpt><trkpt lat="43.580988623475214" lon="11.281628069955122"><ele>508.2</ele><time>2026-04-03T17:33:20.999Z</time></trkpt><trkpt lat="43.58102914424954" lon="11.281783513008065"><ele>509.79999999999995</ele><time>2026-04-03T17:33:21.999Z</time></trkpt><trkpt lat="43.581058560844696" lon="11.281933989731892"><ele>511.4</ele><time>2026-04-03T17:33:22.999Z</time></trkpt><trkpt lat="43.58106047034421" lon="11.282088797138314"><ele>513.0</ele><time>2026-04-03T17:33:23.999Z</time></trkpt><trkpt lat="43.58104840134278" lon="11.28223848812285"><ele>512.75</ele><time>2026-04-03T17:33:24.999Z</time></trkpt><trkpt lat="43.58102217155823" lon="11.28240126126813"><ele>512.5</ele><time>2026-04-03T17:33:25.999Z</time></trkpt><trkpt lat="43.5809897946672" lon="11.282580895360152"><ele>512.25</ele><time>2026-04-03T17:33:26.999Z</time></trkpt><trkpt lat="43.58095328974482" lon="11.282766104804255"><ele>512.0</ele><time>2026-04-03T17:33:27.999Z</time></trkpt><trkpt lat="43.58090886652357" lon="11.282950386837568"><ele>509.75</ele><time>2026-04-03T17:33:28.999Z</time></trkpt><trkpt lat="43.58085441592552" lon="11.283125004690907"><ele>507.5</ele><time>2026-04-03T17:33:29.999Z</time></trkpt><trkpt lat="43.58079817790666" lon="11.283282263075282"><ele>505.25</ele><time>2026-04-03T17:33:30.999Z</time></trkpt><trkpt lat="43.580739480136685" lon="11.283428927469044"><ele>503.0</ele><time>2026-04-03T17:33:31.999Z</time></trkpt><trkpt lat="43.580680320299216" lon="11.283573032700579"><ele>503.0</ele><time>2026-04-03T17:33:32.999Z</time></trkpt><trkpt lat="43.58063560011928" lon="11.283723736236444"><ele>503.0</ele><time>2026-04-03T17:33:33.999Z</time></trkpt><trkpt lat="43.580584589546255" lon="11.283878276835928"><ele>503.0</ele><time>2026-04-03T17:33:34.999Z</time></trkpt><trkpt lat="43.5805432484506" lon="11.284028932851319"><ele>503.0</ele><time>2026-04-03T17:33:35.999Z</time></trkpt><trkpt lat="43.580508271340584" lon="11.284178399676549"><ele>505.25</ele><time>2026-04-03T17:33:36.999Z</time></trkpt><trkpt lat="43.580476156043545" lon="11.284327903737786"><ele>507.5</ele><time>2026-04-03T17:33:37.999Z</time></trkpt><trkpt lat="43.580436475179354" lon="11.284472116066626"><ele>509.75</ele><time>2026-04-03T17:33:38.999Z</time></trkpt><trkpt lat="43.58038842196522" lon="11.28461115882727"><ele>512.0</ele><time>2026-04-03T17:33:39.999Z</time></trkpt><trkpt lat="43.580319318791496" lon="11.28473861372004"><ele>509.5</ele><time>2026-04-03T17:33:40.999Z</time></trkpt><trkpt lat="43.58025459276718" lon="11.284874245309355"><ele>507.0</ele><time>2026-04-03T17:33:41.999Z</time></trkpt><trkpt lat="43.58019262701463" lon="11.28501476009766"><ele>504.5</ele><time>2026-04-03T17:33:43Z</time></trkpt><trkpt lat="43.580155382515876" lon="11.285156662610847"><ele>502.0</ele><time>2026-04-03T17:33:44Z</time></trkpt><trkpt lat="43.58011735821079" lon="11.285292308596514"><ele>502.0</ele><time>2026-04-03T17:33:45Z</time></trkpt><trkpt lat="43.58009389617559" lon="11.285423873807476"><ele>502.00000000000006</ele><time>2026-04-03T17:33:46Z</time></trkpt><trkpt lat="43.58007918160225" lon="11.285551773424615"><ele>502.00000000000006</ele><time>2026-04-03T17:33:47Z</time></trkpt><trkpt lat="43.580068713053116" lon="11.28568993416142"><ele>502.0</ele><time>2026-04-03T17:33:48Z</time></trkpt><trkpt lat="43.58006550330736" lon="11.285833443209734"><ele>502.0</ele><time>2026-04-03T17:33:49Z</time></trkpt><trkpt lat="43.58006571231324" lon="11.285978249806485"><ele>500.0</ele><time>2026-04-03T17:33:50Z</time></trkpt><trkpt lat="43.580074489874896" lon="11.286126469456185"><ele>498.00000000000006</ele><time>2026-04-03T17:33:51Z</time></trkpt><trkpt lat="43.580091838990526" lon="11.286260702855486"><ele>496.00000000000006</ele><time>2026-04-03T17:33:52Z</time></trkpt><trkpt lat="43.580095613639635" lon="11.286400478268835"><ele>494.0</ele><time>2026-04-03T17:33:53Z</time></trkpt><trkpt lat="43.580112520191435" lon="11.286527643322875"><ele>492.0</ele><time>2026-04-03T17:33:54Z</time></trkpt><trkpt lat="43.580127063611144" lon="11.286637033154717"><ele>490.8333333333333</ele><time>2026-04-03T17:33:55Z</time></trkpt><trkpt lat="43.58013546304792" lon="11.286735888014592"><ele>489.66666666666663</ele><time>2026-04-03T17:33:56Z</time></trkpt><trkpt lat="43.58013530793187" lon="11.286826131229521"><ele>488.5</ele><time>2026-04-03T17:33:57Z</time></trkpt><trkpt lat="43.5800947262464" lon="11.286896691984442"><ele>487.3333333333333</ele><time>2026-04-03T17:33:58Z</time></trkpt><trkpt lat="43.58001005456222" lon="11.28691311637216"><ele>486.16666666666663</ele><time>2026-04-03T17:33:59Z</time></trkpt><trkpt lat="43.579920947526254" lon="11.286913670852096"><ele>485.0</ele><time>2026-04-03T17:34:00Z</time></trkpt><trkpt lat="43.5798178773553" lon="11.286941277722885"><ele>485.0</ele><time>2026-04-03T17:34:01Z</time></trkpt><trkpt lat="43.57969880780317" lon="11.286933041269851"><ele>485.0</ele><time>2026-04-03T17:34:02Z</time></trkpt><trkpt lat="43.5795793097721" lon="11.286923992909937"><ele>485.0</ele><time>2026-04-03T17:34:03Z</time></trkpt><trkpt lat="43.579469009859395" lon="11.286911387206132"><ele>485.0</ele><time>2026-04-03T17:34:04Z</time></trkpt><trkpt lat="43.57936310211272" lon="11.286909133874518"><ele>485.0</ele><time>2026-04-03T17:34:05Z</time></trkpt><trkpt lat="43.57926576304795" lon="11.2868938220676"><ele>485.0</ele><time>2026-04-03T17:34:06Z</time></trkpt><trkpt lat="43.57916273593292" lon="11.28691890889008"><ele>485.0</ele><time>2026-04-03T17:34:07Z</time></trkpt><trkpt lat="43.57907352800874" lon="11.28696050846995"><ele>485.0</ele><time>2026-04-03T17:34:08Z</time></trkpt><trkpt lat="43.57899724332763" lon="11.287041689988172"><ele>485.0</ele><time>2026-04-03T17:34:09Z</time></trkpt><trkpt lat="43.578928027206544" lon="11.28712135528393"><ele>484.99999999999994</ele><time>2026-04-03T17:34:10Z</time></trkpt><trkpt lat="43.57886384384382" lon="11.287208449864735"><ele>485.0</ele><time>2026-04-03T17:34:11Z</time></trkpt><trkpt lat="43.578791493602154" lon="11.28727006789081"><ele>485.0</ele><time>2026-04-03T17:34:12Z</time></trkpt><trkpt lat="43.5787284883876" lon="11.287344929632987"><ele>485.0</ele><time>2026-04-03T17:34:13Z</time></trkpt><trkpt lat="43.5786723770682" lon="11.28741669868918"><ele>484.99999999999994</ele><time>2026-04-03T17:34:14Z</time></trkpt><trkpt lat="43.57862595973636" lon="11.287504732526104"><ele>485.0</ele><time>2026-04-03T17:34:15Z</time></trkpt><trkpt lat="43.57860256710117" lon="11.28759493500619"><ele>483.4</ele><time>2026-04-03T17:34:16Z</time></trkpt><trkpt lat="43.578563197008876" lon="11.287664748420344"><ele>481.8</ele><time>2026-04-03T17:34:17Z</time></trkpt><trkpt lat="43.57857080428954" lon="11.287804286403897"><ele>480.20000000000005</ele><time>2026-04-03T17:34:18Z</time></trkpt><trkpt lat="43.57852982383944" lon="11.287956746131982"><ele>478.6</ele><time>2026-04-03T17:34:20Z</time></trkpt><trkpt lat="43.57849006477365" lon="11.288094341477544"><ele>477.0</ele><time>2026-04-03T17:34:22Z</time></trkpt><trkpt lat="43.57844029023718" lon="11.288218813761459"><ele>474.3333333333333</ele><time>2026-04-03T17:34:24Z</time></trkpt><trkpt lat="43.57837935365056" lon="11.288289900986697"><ele>471.66666666666663</ele><time>2026-04-03T17:34:26Z</time></trkpt><trkpt lat="43.57831628382198" lon="11.288297323802349"><ele>469.0</ele><time>2026-04-03T17:34:28Z</time></trkpt><trkpt lat="43.578200795934336" lon="11.288269854235375"><ele>466.3333333333333</ele><time>2026-04-03T17:34:30Z</time></trkpt><trkpt lat="43.578137156012325" lon="11.28819834759331"><ele>463.66666666666663</ele><time>2026-04-03T17:34:31Z</time></trkpt><trkpt lat="43.57805697303002" lon="11.288170003166089"><ele>461.0</ele><time>2026-04-03T17:34:32Z</time></trkpt><trkpt lat="43.57799061649014" lon="11.288127942892013"><ele>461.0</ele><time>2026-04-03T17:34:33Z</time></trkpt><trkpt lat="43.57790456116237" lon="11.288096036741347"><ele>461.0</ele><time>2026-04-03T17:34:34Z</time></trkpt><trkpt lat="43.57781309746263" lon="11.288102017010944"><ele>461.0</ele><time>2026-04-03T17:34:35Z</time></trkpt><trkpt lat="43.57775133693434" lon="11.287886484292127"><ele>461.0</ele><time>2026-04-03T17:34:36Z</time></trkpt><trkpt lat="43.57769645120034" lon="11.28781591646398"><ele>461.0</ele><time>2026-04-03T17:34:37Z</time></trkpt><trkpt lat="43.57764304295224" lon="11.28774467377376"><ele>462.14285714285717</ele><time>2026-04-03T17:34:38Z</time></trkpt><trkpt lat="43.57758845287481" lon="11.287684930745403"><ele>463.28571428571433</ele><time>2026-04-03T17:34:39Z</time></trkpt><trkpt lat="43.57752662558322" lon="11.287636223069459"><ele>464.42857142857144</ele><time>2026-04-03T17:34:40Z</time></trkpt><trkpt lat="43.57744466447209" lon="11.287585376686891"><ele>465.57142857142856</ele><time>2026-04-03T17:34:41Z</time></trkpt><trkpt lat="43.577378290792325" lon="11.28755231960064"><ele>466.7142857142857</ele><time>2026-04-03T17:34:42Z</time></trkpt><trkpt lat="43.57730580353856" lon="11.287525314009674"><ele>467.8571428571429</ele><time>2026-04-03T17:34:43Z</time></trkpt><trkpt lat="43.57724037692432" lon="11.287525278630623"><ele>469.0</ele><time>2026-04-03T17:34:44Z</time></trkpt><trkpt lat="43.577169092630065" lon="11.287502494846361"><ele>469.00000000000006</ele><time>2026-04-03T17:34:45Z</time></trkpt><trkpt lat="43.577098986412786" lon="11.287494769153204"><ele>469.0</ele><time>2026-04-03T17:34:46Z</time></trkpt><trkpt lat="43.577030695572454" lon="11.28748627226708"><ele>469.0</ele><time>2026-04-03T17:34:47Z</time></trkpt><trkpt lat="43.57696869522585" lon="11.28746480202952"><ele>469.0</ele><time>2026-04-03T17:34:48Z</time></trkpt><trkpt lat="43.57685207673973" lon="11.287405138505251"><ele>469.00000000000006</ele><time>2026-04-03T17:34:50Z</time></trkpt><trkpt lat="43.57680309444948" lon="11.287272568621534"><ele>469.0</ele><time>2026-04-03T17:34:52Z</time></trkpt><trkpt lat="43.57665990031682" lon="11.287374372325415"><ele>468.33333333333337</ele><time>2026-04-03T17:34:59.999Z</time></trkpt><trkpt lat="43.57669620918622" lon="11.28729492355738"><ele>467.6666666666667</ele><time>2026-04-03T18:13:24.999Z</time></trkpt><trkpt lat="43.576763345981476" lon="11.287250554310107"><ele>467.0</ele><time>2026-04-03T18:13:27.999Z</time></trkpt><trkpt lat="43.57674729245137" lon="11.28716475531707"><ele>466.33333333333337</ele><time>2026-04-03T18:13:51Z</time></trkpt><trkpt lat="43.57669117313549" lon="11.287062924854235"><ele>465.6666666666667</ele><time>2026-04-03T18:13:53Z</time></trkpt><trkpt lat="43.576631594799956" lon="11.286966166720738"><ele>465.0</ele><time>2026-04-03T18:13:55Z</time></trkpt><trkpt lat="43.57655478373845" lon="11.286913919466574"><ele>466.8333333333333</ele><time>2026-04-03T18:13:57Z</time></trkpt><trkpt lat="43.57647061139445" lon="11.286867182318051"><ele>468.66666666666663</ele><time>2026-04-03T18:13:59Z</time></trkpt><trkpt lat="43.57639143173871" lon="11.286795119812291"><ele>470.5</ele><time>2026-04-03T18:14:01Z</time></trkpt><trkpt lat="43.57632698058489" lon="11.286720312182776"><ele>472.3333333333333</ele><time>2026-04-03T18:14:02.999Z</time></trkpt><trkpt lat="43.576245811173735" lon="11.286644195527739"><ele>474.16666666666663</ele><time>2026-04-03T18:14:04.999Z</time></trkpt><trkpt lat="43.5761949792125" lon="11.286586178684104"><ele>476.0</ele><time>2026-04-03T18:14:06.999Z</time></trkpt><trkpt lat="43.576139661981976" lon="11.286535606689919"><ele>474.16666666666663</ele><time>2026-04-03T18:14:11.999Z</time></trkpt><trkpt lat="43.57611242817275" lon="11.286442903392576"><ele>472.3333333333333</ele><time>2026-04-03T18:14:23.999Z</time></trkpt><trkpt lat="43.57608594371887" lon="11.286361782939117"><ele>470.5</ele><time>2026-04-03T18:14:25.999Z</time></trkpt><trkpt lat="43.576021659726074" lon="11.286287919214944"><ele>468.66666666666663</ele><time>2026-04-03T18:14:27.999Z</time></trkpt><trkpt lat="43.57596042068809" lon="11.286178134202649"><ele>466.8333333333333</ele><time>2026-04-03T18:14:29.999Z</time></trkpt><trkpt lat="43.57589972370073" lon="11.286072677223922"><ele>465.0</ele><time>2026-04-03T18:14:31.999Z</time></trkpt><trkpt lat="43.57585444737066" lon="11.285997888519852"><ele>465.0</ele><time>2026-04-03T18:14:33.999Z</time></trkpt><trkpt lat="43.57577779375436" lon="11.285927160062696"><ele>465.0</ele><time>2026-04-03T18:14:35.999Z</time></trkpt><trkpt lat="43.57569405499346" lon="11.285853362555192"><ele>465.0</ele><time>2026-04-03T18:14:37.999Z</time></trkpt><trkpt lat="43.57566028939123" lon="11.285776680414596"><ele>465.0</ele><time>2026-04-03T18:14:39.999Z</time></trkpt><trkpt lat="43.57565607293175" lon="11.285671422094609"><ele>465.0</ele><time>2026-04-03T18:14:41.999Z</time></trkpt><trkpt lat="43.57565198649649" lon="11.28556178028214"><ele>465.0</ele><time>2026-04-03T18:14:43.999Z</time></trkpt><trkpt lat="43.57559590886984" lon="11.285496521392345"><ele>466.1666666666667</ele><time>2026-04-03T18:14:45.999Z</time></trkpt><trkpt lat="43.575557057850816" lon="11.285381965836772"><ele>467.33333333333337</ele><time>2026-04-03T18:14:47.999Z</time></trkpt><trkpt lat="43.57556318228882" lon="11.28527798539858"><ele>468.5</ele><time>2026-04-03T18:14:49.999Z</time></trkpt><trkpt lat="43.575553435631136" lon="11.285183804744808"><ele>469.6666666666667</ele><time>2026-04-03T18:14:51.999Z</time></trkpt><trkpt lat="43.57552434869161" lon="11.285068202010512"><ele>470.83333333333337</ele><time>2026-04-03T18:14:54.999Z</time></trkpt><trkpt lat="43.575478638177714" lon="11.284994359926843"><ele>472.0</ele><time>2026-04-03T18:14:56.999Z</time></trkpt><trkpt lat="43.57542121973308" lon="11.284911646939053"><ele>472.00000000000006</ele><time>2026-04-03T18:14:58.999Z</time></trkpt><trkpt lat="43.57536310156576" lon="11.28481869985567"><ele>472.0</ele><time>2026-04-03T18:15:00.999Z</time></trkpt><trkpt lat="43.57531333112107" lon="11.284720866278764"><ele>472.0</ele><time>2026-04-03T18:15:02.999Z</time></trkpt><trkpt lat="43.575255169911934" lon="11.284638531956823"><ele>472.0</ele><time>2026-04-03T18:15:04.999Z</time></trkpt><trkpt lat="43.57518141691714" lon="11.284571362549459"><ele>472.00000000000006</ele><time>2026-04-03T18:15:06.999Z</time></trkpt><trkpt lat="43.57511091239261" lon="11.284484549225958"><ele>472.0</ele><time>2026-04-03T18:15:08.999Z</time></trkpt><trkpt lat="43.57503588992642" lon="11.284398951873447"><ele>469.1666666666667</ele><time>2026-04-03T18:15:10.999Z</time></trkpt><trkpt lat="43.57494071726873" lon="11.284308377819269"><ele>466.33333333333337</ele><time>2026-04-03T18:15:13.999Z</time></trkpt><trkpt lat="43.574870105744445" lon="11.284232512337978"><ele>463.5</ele><time>2026-04-03T18:15:15.999Z</time></trkpt><trkpt lat="43.57481649767395" lon="11.284145546019927"><ele>460.66666666666663</ele><time>2026-04-03T18:15:18.999Z</time></trkpt><trkpt lat="43.57476396796318" lon="11.284075249218038"><ele>457.8333333333333</ele><time>2026-04-03T18:15:20.999Z</time></trkpt><trkpt lat="43.57469626069795" lon="11.284017812182205"><ele>455.0</ele><time>2026-04-03T18:15:26.999Z</time></trkpt><trkpt lat="43.57463019150073" lon="11.283961259381016"><ele>456.66666666666663</ele><time>2026-04-03T18:15:28.999Z</time></trkpt><trkpt lat="43.57460037011623" lon="11.283874428656702"><ele>458.3333333333333</ele><time>2026-04-03T18:15:30.999Z</time></trkpt><trkpt lat="43.57457782372516" lon="11.283767281959898"><ele>460.0</ele><time>2026-04-03T18:15:32.999Z</time></trkpt><trkpt lat="43.57451279331523" lon="11.283682778761154"><ele>461.66666666666663</ele><time>2026-04-03T18:15:34.999Z</time></trkpt><trkpt lat="43.574449822506104" lon="11.283562025076225"><ele>463.3333333333333</ele><time>2026-04-03T18:15:36.999Z</time></trkpt><trkpt lat="43.5743937032485" lon="11.283455436699697"><ele>465.0</ele><time>2026-04-03T18:15:39Z</time></trkpt><trkpt lat="43.574354910552415" lon="11.283386230030924"><ele>465.0</ele><time>2026-04-03T18:15:47Z</time></trkpt><trkpt lat="43.574412122023745" lon="11.283456587273154"><ele>465.0</ele><time>2026-04-03T18:16:09.999Z</time></trkpt><trkpt lat="43.57447390262624" lon="11.283567215886888"><ele>465.0</ele><time>2026-04-03T18:16:11.999Z</time></trkpt><trkpt lat="43.57455194391889" lon="11.2836984960259"><ele>465.0</ele><time>2026-04-03T18:16:13.999Z</time></trkpt><trkpt lat="43.57461903480648" lon="11.283803561692764"><ele>465.0</ele><time>2026-04-03T18:16:15.999Z</time></trkpt><trkpt lat="43.574640263543024" lon="11.28390043558717"><ele>463.3333333333333</ele><time>2026-04-03T18:16:17.999Z</time></trkpt><trkpt lat="43.57468483440722" lon="11.283982594348728"><ele>461.66666666666663</ele><time>2026-04-03T18:16:19.999Z</time></trkpt><trkpt lat="43.57475777220547" lon="11.284043510585118"><ele>460.0</ele><time>2026-04-03T18:16:21.999Z</time></trkpt><trkpt lat="43.57480905741996" lon="11.284109392199356"><ele>458.3333333333333</ele><time>2026-04-03T18:16:23.999Z</time></trkpt><trkpt lat="43.57485288907542" lon="11.284173970986021"><ele>456.66666666666663</ele><time>2026-04-03T18:16:25.999Z</time></trkpt><trkpt lat="43.574924090860364" lon="11.284271729031465"><ele>455.0</ele><time>2026-04-03T18:16:28.999Z</time></trkpt><trkpt lat="43.57500762120526" lon="11.284352943797227"><ele>455.0</ele><time>2026-04-03T18:16:30.999Z</time></trkpt><trkpt lat="43.575075386434165" lon="11.28441692181206"><ele>455.0</ele><time>2026-04-03T18:16:32.999Z</time></trkpt><trkpt lat="43.57514169168339" lon="11.284509513958875"><ele>455.0</ele><time>2026-04-03T18:16:34.999Z</time></trkpt><trkpt lat="43.57521961240898" lon="11.284593607781545"><ele>455.0</ele><time>2026-04-03T18:16:36.999Z</time></trkpt><trkpt lat="43.575296141249474" lon="11.284673150627196"><ele>455.0</ele><time>2026-04-03T18:16:38.999Z</time></trkpt><trkpt lat="43.575362245449945" lon="11.284783944108463"><ele>458.4</ele><time>2026-04-03T18:16:40.999Z</time></trkpt><trkpt lat="43.5754238884409" lon="11.284900866287009"><ele>461.8</ele><time>2026-04-03T18:16:42.999Z</time></trkpt><trkpt lat="43.57549637391398" lon="11.28500392427058"><ele>465.20000000000005</ele><time>2026-04-03T18:16:44.999Z</time></trkpt><trkpt lat="43.57554246357625" lon="11.285110836578166"><ele>468.6</ele><time>2026-04-03T18:16:46.999Z</time></trkpt><trkpt lat="43.575550238388836" lon="11.285234281528368"><ele>472.0</ele><time>2026-04-03T18:16:48.999Z</time></trkpt><trkpt lat="43.57555265690727" lon="11.285335591601227"><ele>472.00000000000006</ele><time>2026-04-03T18:16:50.999Z</time></trkpt><trkpt lat="43.57558672993172" lon="11.285457367956829"><ele>472.0</ele><time>2026-04-03T18:16:53.999Z</time></trkpt><trkpt lat="43.57563227054007" lon="11.285535575691743"><ele>472.0</ele><time>2026-04-03T18:16:55.999Z</time></trkpt><trkpt lat="43.57564612829305" lon="11.285689768256907"><ele>472.0</ele><time>2026-04-03T18:16:58.999Z</time></trkpt><trkpt lat="43.57567188384432" lon="11.28579460495025"><ele>472.00000000000006</ele><time>2026-04-03T18:17:00.999Z</time></trkpt><trkpt lat="43.57572510421197" lon="11.285851482669777"><ele>472.0</ele><time>2026-04-03T18:17:02.999Z</time></trkpt><trkpt lat="43.575814556165476" lon="11.285909959936747"><ele>470.6</ele><time>2026-04-03T18:17:04.999Z</time></trkpt><trkpt lat="43.57588446034611" lon="11.286023149169743"><ele>469.20000000000005</ele><time>2026-04-03T18:17:06.999Z</time></trkpt><trkpt lat="43.57593690918435" lon="11.286135165361877"><ele>467.8</ele><time>2026-04-03T18:17:08.999Z</time></trkpt><trkpt lat="43.57600936668305" lon="11.286254900330542"><ele>466.4</ele><time>2026-04-03T18:17:10.999Z</time></trkpt><trkpt lat="43.576051956190256" lon="11.286326752290122"><ele>465.0</ele><time>2026-04-03T18:17:11.999Z</time></trkpt><trkpt lat="43.576089349085144" lon="11.28641292691678"><ele>467.2</ele><time>2026-04-03T18:17:13.999Z</time></trkpt><trkpt lat="43.57611893753103" lon="11.286500450416334"><ele>469.4</ele><time>2026-04-03T18:17:15.999Z</time></trkpt><trkpt lat="43.576205646958535" lon="11.286604413820571"><ele>471.6</ele><time>2026-04-03T18:17:17.999Z</time></trkpt><trkpt lat="43.57629172469743" lon="11.28669218189191"><ele>473.8</ele><time>2026-04-03T18:17:19.999Z</time></trkpt><trkpt lat="43.57636323109426" lon="11.286763448029518"><ele>476.0</ele><time>2026-04-03T18:17:21.999Z</time></trkpt><trkpt lat="43.57644958018381" lon="11.28682996153465"><ele>476.0</ele><time>2026-04-03T18:17:23.999Z</time></trkpt><trkpt lat="43.57652254744754" lon="11.286891978539735"><ele>476.0</ele><time>2026-04-03T18:17:25.999Z</time></trkpt><trkpt lat="43.57659939250952" lon="11.286944358364906"><ele>476.0</ele><time>2026-04-03T18:17:27.999Z</time></trkpt><trkpt lat="43.57666673754832" lon="11.287042628583851"><ele>476.0</ele><time>2026-04-03T18:17:29.999Z</time></trkpt><trkpt lat="43.57671549504869" lon="11.287140506749903"><ele>476.0</ele><time>2026-04-03T18:17:31.999Z</time></trkpt><trkpt lat="43.57676912796368" lon="11.287255010057036"><ele>474.6</ele><time>2026-04-03T18:17:33.999Z</time></trkpt><trkpt lat="43.57680681774472" lon="11.287325844374228"><ele>473.20000000000005</ele><time>2026-04-03T18:17:34.999Z</time></trkpt><trkpt lat="43.5768860785829" lon="11.28743632536459"><ele>471.79999999999995</ele><time>2026-04-03T18:17:36.999Z</time></trkpt><trkpt lat="43.5769886270538" lon="11.287507393625981"><ele>470.4</ele><time>2026-04-03T18:17:38.999Z</time></trkpt><trkpt lat="43.57710428671041" lon="11.287522090417655"><ele>469.0</ele><time>2026-04-03T18:17:40.999Z</time></trkpt><trkpt lat="43.57721008821029" lon="11.287521195280473"><ele>469.0</ele><time>2026-04-03T18:17:42.999Z</time></trkpt><trkpt lat="43.577323772069555" lon="11.287548370625856"><ele>469.0</ele><time>2026-04-03T18:17:45Z</time></trkpt><trkpt lat="43.57742755130209" lon="11.287611005432115"><ele>469.0</ele><time>2026-04-03T18:17:47Z</time></trkpt><trkpt lat="43.57752716203136" lon="11.287687180934018"><ele>469.0</ele><time>2026-04-03T18:17:49Z</time></trkpt><trkpt lat="43.57758732493864" lon="11.287728582497524"><ele>469.0</ele><time>2026-04-03T18:17:50Z</time></trkpt><trkpt lat="43.57764078504511" lon="11.287782580446342"><ele>469.0</ele><time>2026-04-03T18:17:51Z</time></trkpt><trkpt lat="43.57772273684918" lon="11.287887344698502"><ele>469.0</ele><time>2026-04-03T18:17:53Z</time></trkpt><trkpt lat="43.57778807014066" lon="11.287997094434404"><ele>469.0</ele><time>2026-04-03T18:17:55Z</time></trkpt><trkpt lat="43.57786620152892" lon="11.288099840592777"><ele>469.0</ele><time>2026-04-03T18:17:57Z</time></trkpt><trkpt lat="43.5779472978436" lon="11.28820648703975"><ele>469.0</ele><time>2026-04-03T18:17:59Z</time></trkpt><trkpt lat="43.57803330188439" lon="11.288230551104752"><ele>467.4</ele><time>2026-04-03T18:18:00Z</time></trkpt><trkpt lat="43.57812026300974" lon="11.288287875045324"><ele>465.79999999999995</ele><time>2026-04-03T18:18:02Z</time></trkpt><trkpt lat="43.578188267599295" lon="11.288318204266162"><ele>464.20000000000005</ele><time>2026-04-03T18:18:04Z</time></trkpt><trkpt lat="43.578075789034045" lon="11.288276093619498"><ele>462.6</ele><time>2026-04-03T18:18:09.001Z</time></trkpt><trkpt lat="43.578012983739605" lon="11.288194953256932"><ele>461.0</ele><time>2026-04-03T18:18:10.001Z</time></trkpt><trkpt lat="43.577922920335794" lon="11.288142814993813"><ele>461.0</ele><time>2026-04-03T18:18:12Z</time></trkpt><trkpt lat="43.57790618247501" lon="11.288324519963188"><ele>461.0</ele><time>2026-04-03T18:18:15Z</time></trkpt><trkpt lat="43.57794570947769" lon="11.288415123916863"><ele>461.0</ele><time>2026-04-03T18:18:16Z</time></trkpt><trkpt lat="43.57799421850654" lon="11.288513222016313"><ele>461.0</ele><time>2026-04-03T18:18:17Z</time></trkpt><trkpt lat="43.578046296232884" lon="11.288634351125785"><ele>461.0</ele><time>2026-04-03T18:18:18Z</time></trkpt><trkpt lat="43.5781051090863" lon="11.288774581566273"><ele>461.0</ele><time>2026-04-03T18:18:19Z</time></trkpt><trkpt lat="43.578169370671034" lon="11.288920069465133"><ele>461.0</ele><time>2026-04-03T18:18:20Z</time></trkpt><trkpt lat="43.57822662575347" lon="11.289044960875342"><ele>461.0</ele><time>2026-04-03T18:18:21Z</time></trkpt><trkpt lat="43.57827796009428" lon="11.28914830850218"><ele>461.0</ele><time>2026-04-03T18:18:22Z</time></trkpt><trkpt lat="43.57831554404523" lon="11.28926219541515"><ele>461.0</ele><time>2026-04-03T18:18:23Z</time></trkpt><trkpt lat="43.57836021756709" lon="11.289366875157736"><ele>458.8333333333333</ele><time>2026-04-03T18:18:24Z</time></trkpt><trkpt lat="43.57840542665755" lon="11.289470347657955"><ele>456.66666666666663</ele><time>2026-04-03T18:18:25Z</time></trkpt><trkpt lat="43.57845059515346" lon="11.289573039513622"><ele>454.5</ele><time>2026-04-03T18:18:26Z</time></trkpt><trkpt lat="43.57849684804646" lon="11.289663671104847"><ele>452.33333333333337</ele><time>2026-04-03T18:18:27Z</time></trkpt><trkpt lat="43.57853915115839" lon="11.289745123342875"><ele>450.1666666666667</ele><time>2026-04-03T18:18:28Z</time></trkpt><trkpt lat="43.57857184808446" lon="11.289848713537047"><ele>448.0</ele><time>2026-04-03T18:18:29Z</time></trkpt><trkpt lat="43.578612673484194" lon="11.289940298004742"><ele>446.1666666666667</ele><time>2026-04-03T18:18:30Z</time></trkpt><trkpt lat="43.578653921244154" lon="11.290033240710917"><ele>444.33333333333337</ele><time>2026-04-03T18:18:31Z</time></trkpt><trkpt lat="43.57869428295708" lon="11.290124187010253"><ele>442.5</ele><time>2026-04-03T18:18:32Z</time></trkpt><trkpt lat="43.57873808165378" lon="11.290222877662565"><ele>440.66666666666663</ele><time>2026-04-03T18:18:33Z</time></trkpt><trkpt lat="43.57878007367137" lon="11.290318350068175"><ele>438.8333333333333</ele><time>2026-04-03T18:18:34Z</time></trkpt><trkpt lat="43.57882357710657" lon="11.290417611413293"><ele>437.0</ele><time>2026-04-03T18:18:35Z</time></trkpt><trkpt lat="43.57888283137211" lon="11.290520571686734"><ele>435.0</ele><time>2026-04-03T18:18:36Z</time></trkpt><trkpt lat="43.57893799598" lon="11.29065711340137"><ele>433.00000000000006</ele><time>2026-04-03T18:18:37Z</time></trkpt><trkpt lat="43.57899217660056" lon="11.290779427547896"><ele>431.00000000000006</ele><time>2026-04-03T18:18:38Z</time></trkpt><trkpt lat="43.57904098655568" lon="11.29089490042771"><ele>429.0</ele><time>2026-04-03T18:18:39Z</time></trkpt><trkpt lat="43.57908814027504" lon="11.291010682064282"><ele>427.0</ele><time>2026-04-03T18:18:40Z</time></trkpt><trkpt lat="43.57913607792842" lon="11.29111855072405"><ele>427.00000000000006</ele><time>2026-04-03T18:18:41Z</time></trkpt><trkpt lat="43.579176961852795" lon="11.291225227492406"><ele>427.0</ele><time>2026-04-03T18:18:42Z</time></trkpt><trkpt lat="43.57918753807179" lon="11.291344314350843"><ele>427.0</ele><time>2026-04-03T18:18:43Z</time></trkpt><trkpt lat="43.57920958585243" lon="11.291446265184955"><ele>427.0</ele><time>2026-04-03T18:18:44Z</time></trkpt><trkpt lat="43.57922549561242" lon="11.291538620269755"><ele>427.00000000000006</ele><time>2026-04-03T18:18:45Z</time></trkpt><trkpt lat="43.579237461689196" lon="11.291629771263256"><ele>427.0</ele><time>2026-04-03T18:18:46Z</time></trkpt><trkpt lat="43.57925815765367" lon="11.291788697341767"><ele>427.1666666666667</ele><time>2026-04-03T18:18:48Z</time></trkpt><trkpt lat="43.579287091573974" lon="11.291895340748916"><ele>427.33333333333337</ele><time>2026-04-03T18:18:50Z</time></trkpt><trkpt lat="43.579324838170876" lon="11.291976267648872"><ele>427.5</ele><time>2026-04-03T18:18:52Z</time></trkpt><trkpt lat="43.579408153417525" lon="11.291851430071457"><ele>427.66666666666663</ele><time>2026-04-03T18:18:54Z</time></trkpt><trkpt lat="43.57940490545864" lon="11.29174381077035"><ele>427.8333333333333</ele><time>2026-04-03T18:18:55Z</time></trkpt><trkpt lat="43.579386029716424" lon="11.29164186692553"><ele>428.0</ele><time>2026-04-03T18:18:56Z</time></trkpt><trkpt lat="43.57937262730418" lon="11.291542861503661"><ele>428.0</ele><time>2026-04-03T18:18:57Z</time></trkpt><trkpt lat="43.579388738135485" lon="11.291423331932313"><ele>427.99999999999994</ele><time>2026-04-03T18:18:59Z</time></trkpt><trkpt lat="43.579457249168776" lon="11.291371446684177"><ele>427.99999999999994</ele><time>2026-04-03T18:19:01Z</time></trkpt><trkpt lat="43.57945286574954" lon="11.291480416009888"><ele>428.0</ele><time>2026-04-03T18:19:02Z</time></trkpt><trkpt lat="43.579467554669385" lon="11.291565762412546"><ele>428.0</ele><time>2026-04-03T18:19:03Z</time></trkpt><trkpt lat="43.57950634125641" lon="11.291786048191693"><ele>423.4</ele><time>2026-04-03T18:19:05Z</time></trkpt><trkpt lat="43.57953211375929" lon="11.2919514518899"><ele>418.79999999999995</ele><time>2026-04-03T18:19:06Z</time></trkpt><trkpt lat="43.57955446160412" lon="11.292125505682309"><ele>414.2</ele><time>2026-04-03T18:19:07Z</time></trkpt><trkpt lat="43.57956309336156" lon="11.292267880234784"><ele>409.6</ele><time>2026-04-03T18:19:08Z</time></trkpt><trkpt lat="43.579567286046476" lon="11.2923957100494"><ele>405.0</ele><time>2026-04-03T18:19:09Z</time></trkpt><trkpt lat="43.579566692484235" lon="11.292523671787192"><ele>405.8333333333333</ele><time>2026-04-03T18:19:10Z</time></trkpt><trkpt lat="43.5795620272641" lon="11.292635740665649"><ele>406.66666666666663</ele><time>2026-04-03T18:19:11Z</time></trkpt><trkpt lat="43.579553875238275" lon="11.292751854258723"><ele>407.5</ele><time>2026-04-03T18:19:12Z</time></trkpt><trkpt lat="43.579542402375566" lon="11.292855896466307"><ele>408.3333333333333</ele><time>2026-04-03T18:19:13Z</time></trkpt><trkpt lat="43.5795223354017" lon="11.29296431615832"><ele>409.16666666666663</ele><time>2026-04-03T18:19:14Z</time></trkpt><trkpt lat="43.57949496959986" lon="11.293060280596682"><ele>410.0</ele><time>2026-04-03T18:19:15Z</time></trkpt><trkpt lat="43.57946158890105" lon="11.29316850591265"><ele>409.99999999999994</ele><time>2026-04-03T18:19:16Z</time></trkpt><trkpt lat="43.57942425727186" lon="11.293275475704013"><ele>410.0</ele><time>2026-04-03T18:19:17Z</time></trkpt><trkpt lat="43.57938387142462" lon="11.293373247889903"><ele>410.0</ele><time>2026-04-03T18:19:18Z</time></trkpt><trkpt lat="43.579334426707376" lon="11.293475717967537"><ele>410.0</ele><time>2026-04-03T18:19:19Z</time></trkpt><trkpt lat="43.57927837055386" lon="11.293584460630424"><ele>409.99999999999994</ele><time>2026-04-03T18:19:20Z</time></trkpt><trkpt lat="43.579231360739875" lon="11.29366889755781"><ele>410.0</ele><time>2026-04-03T18:19:21Z</time></trkpt><trkpt lat="43.5791920707968" lon="11.293737818957723"><ele>409.99999999999994</ele><time>2026-04-03T18:19:22Z</time></trkpt><trkpt lat="43.57912761010844" lon="11.293851406343864"><ele>410.0</ele><time>2026-04-03T18:19:24Z</time></trkpt><trkpt lat="43.57905231528184" lon="11.293923227403962"><ele>410.0</ele><time>2026-04-03T18:19:26Z</time></trkpt><trkpt lat="43.57896921790271" lon="11.293921742627523"><ele>410.0</ele><time>2026-04-03T18:19:27Z</time></trkpt><trkpt lat="43.57888827211899" lon="11.29391814155304"><ele>409.99999999999994</ele><time>2026-04-03T18:19:28Z</time></trkpt><trkpt lat="43.57881836181111" lon="11.293884799118413"><ele>410.0</ele><time>2026-04-03T18:19:29Z</time></trkpt><trkpt lat="43.57875059485213" lon="11.293748032703455"><ele>410.0</ele><time>2026-04-03T18:19:31Z</time></trkpt><trkpt lat="43.578717162515794" lon="11.293635791924661"><ele>410.0</ele><time>2026-04-03T18:19:32Z</time></trkpt><trkpt lat="43.57868140473723" lon="11.293504592146807"><ele>410.0</ele><time>2026-04-03T18:19:33Z</time></trkpt><trkpt lat="43.57863417761053" lon="11.293411110808798"><ele>410.0</ele><time>2026-04-03T18:19:34Z</time></trkpt><trkpt lat="43.57858958423282" lon="11.293293519886376"><ele>410.0</ele><time>2026-04-03T18:19:35Z</time></trkpt><trkpt lat="43.5785404531749" lon="11.293163038549524"><ele>410.2</ele><time>2026-04-03T18:19:36Z</time></trkpt><trkpt lat="43.578491849414064" lon="11.29304046815385"><ele>410.4</ele><time>2026-04-03T18:19:37Z</time></trkpt><trkpt lat="43.578447761150194" lon="11.292921797452273"><ele>410.6</ele><time>2026-04-03T18:19:38Z</time></trkpt><trkpt lat="43.57840189066063" lon="11.292804864892057"><ele>410.8</ele><time>2026-04-03T18:19:39Z</time></trkpt><trkpt lat="43.57835931217199" lon="11.292690690989021"><ele>411.0</ele><time>2026-04-03T18:19:40Z</time></trkpt><trkpt lat="43.578322122832056" lon="11.292564925311638"><ele>411.0</ele><time>2026-04-03T18:19:40.999Z</time></trkpt><trkpt lat="43.578285602085266" lon="11.292451325772111"><ele>411.0</ele><time>2026-04-03T18:19:41.999Z</time></trkpt><trkpt lat="43.57825193829645" lon="11.29234579948321"><ele>411.0</ele><time>2026-04-03T18:19:42.999Z</time></trkpt><trkpt lat="43.578216887227626" lon="11.29225008103647"><ele>411.0</ele><time>2026-04-03T18:19:43.999Z</time></trkpt><trkpt lat="43.578180435528594" lon="11.292162278361612"><ele>411.0</ele><time>2026-04-03T18:19:44.999Z</time></trkpt><trkpt lat="43.57814074865887" lon="11.292064481113126"><ele>411.0</ele><time>2026-04-03T18:19:45.999Z</time></trkpt><trkpt lat="43.57809973569504" lon="11.29197338217394"><ele>410.5</ele><time>2026-04-03T18:19:46.999Z</time></trkpt><trkpt lat="43.57805525986077" lon="11.291881776314645"><ele>410.0</ele><time>2026-04-03T18:19:47.999Z</time></trkpt><trkpt lat="43.57801298799939" lon="11.29177924876935"><ele>409.5</ele><time>2026-04-03T18:19:48.999Z</time></trkpt><trkpt lat="43.577963277373655" lon="11.29168356279678"><ele>409.0</ele><time>2026-04-03T18:19:49.999Z</time></trkpt><trkpt lat="43.577910180868166" lon="11.291583234196453"><ele>408.5</ele><time>2026-04-03T18:19:51.001Z</time></trkpt><trkpt lat="43.57785434750664" lon="11.291493810176991"><ele>408.0</ele><time>2026-04-03T18:19:52.001Z</time></trkpt><trkpt lat="43.5778128344872" lon="11.291412668485604"><ele>408.0</ele><time>2026-04-03T18:19:53.001Z</time></trkpt><trkpt lat="43.57776123093182" lon="11.29132458804368"><ele>408.0</ele><time>2026-04-03T18:19:54.001Z</time></trkpt><trkpt lat="43.5777082439229" lon="11.29123484600038"><ele>408.0</ele><time>2026-04-03T18:19:55.001Z</time></trkpt><trkpt lat="43.577654470431625" lon="11.291149551540986"><ele>408.0</ele><time>2026-04-03T18:19:56.001Z</time></trkpt><trkpt lat="43.57760890962544" lon="11.291079183696022"><ele>408.0</ele><time>2026-04-03T18:19:57.001Z</time></trkpt><trkpt lat="43.577553597300735" lon="11.291009588360923"><ele>408.0</ele><time>2026-04-03T18:19:58.001Z</time></trkpt><trkpt lat="43.577494582343014" lon="11.29094166887499"><ele>408.0</ele><time>2026-04-03T18:19:59.001Z</time></trkpt><trkpt lat="43.57743365755432" lon="11.290892063590652"><ele>408.0</ele><time>2026-04-03T18:20:00.001Z</time></trkpt><trkpt lat="43.577366981170435" lon="11.290877808330112"><ele>408.0</ele><time>2026-04-03T18:20:01.001Z</time></trkpt><trkpt lat="43.57728974469753" lon="11.290918712472193"><ele>408.0</ele><time>2026-04-03T18:20:02.001Z</time></trkpt><trkpt lat="43.57723401970591" lon="11.291029726297205"><ele>408.0</ele><time>2026-04-03T18:20:03.001Z</time></trkpt><trkpt lat="43.577182488472936" lon="11.291111271399902"><ele>408.0</ele><time>2026-04-03T18:20:04.001Z</time></trkpt><trkpt lat="43.57713337758175" lon="11.291183997037578"><ele>408.0</ele><time>2026-04-03T18:20:05.001Z</time></trkpt><trkpt lat="43.57709178686517" lon="11.291262315569165"><ele>408.0</ele><time>2026-04-03T18:20:06.001Z</time></trkpt><trkpt lat="43.5770225891003" lon="11.29128543916264"><ele>408.0</ele><time>2026-04-03T18:20:07.001Z</time></trkpt><trkpt lat="43.57694257741314" lon="11.29124291868918"><ele>408.0</ele><time>2026-04-03T18:20:08.001Z</time></trkpt><trkpt lat="43.576865681912494" lon="11.29122025348121"><ele>408.0</ele><time>2026-04-03T18:20:09.001Z</time></trkpt><trkpt lat="43.57677603625249" lon="11.291198242802125"><ele>408.0</ele><time>2026-04-03T18:20:10.001Z</time></trkpt><trkpt lat="43.576688420638675" lon="11.291180176184776"><ele>408.6666666666667</ele><time>2026-04-03T18:20:11.001Z</time></trkpt><trkpt lat="43.576604394343676" lon="11.291168367842447"><ele>409.33333333333337</ele><time>2026-04-03T18:20:12.001Z</time></trkpt><trkpt lat="43.57651835496634" lon="11.291170097474405"><ele>410.0</ele><time>2026-04-03T18:20:13Z</time></trkpt><trkpt lat="43.576432182801824" lon="11.29117534748958"><ele>410.6666666666667</ele><time>2026-04-03T18:20:14Z</time></trkpt><trkpt lat="43.5763483366785" lon="11.291183839974382"><ele>411.33333333333337</ele><time>2026-04-03T18:20:15Z</time></trkpt><trkpt lat="43.57628444380658" lon="11.291190466703497"><ele>412.0</ele><time>2026-04-03T18:20:16Z</time></trkpt><trkpt lat="43.57617480603095" lon="11.29118109060155"><ele>412.85714285714283</ele><time>2026-04-03T18:20:18Z</time></trkpt><trkpt lat="43.576119607854636" lon="11.291129692849024"><ele>413.7142857142857</ele><time>2026-04-03T18:20:19Z</time></trkpt><trkpt lat="43.576067141894974" lon="11.291067001423084"><ele>414.57142857142856</ele><time>2026-04-03T18:20:20Z</time></trkpt><trkpt lat="43.576028161999666" lon="11.290990883936766"><ele>415.42857142857144</ele><time>2026-04-03T18:20:21Z</time></trkpt><trkpt lat="43.57600875785279" lon="11.290894912800214"><ele>416.2857142857143</ele><time>2026-04-03T18:20:22Z</time></trkpt><trkpt lat="43.575972760224616" lon="11.290803420623956"><ele>417.1428571428571</ele><time>2026-04-03T18:20:23Z</time></trkpt><trkpt lat="43.57592394802615" lon="11.290725520589119"><ele>418.0</ele><time>2026-04-03T18:20:24Z</time></trkpt><trkpt lat="43.575838473983204" lon="11.290720489154968"><ele>418.0</ele><time>2026-04-03T18:20:25Z</time></trkpt><trkpt lat="43.57575214392797" lon="11.290697978077702"><ele>418.0</ele><time>2026-04-03T18:20:26Z</time></trkpt><trkpt lat="43.575653720131875" lon="11.290690562244777"><ele>418.0</ele><time>2026-04-03T18:20:27Z</time></trkpt><trkpt lat="43.57555153193765" lon="11.290690271572505"><ele>418.0</ele><time>2026-04-03T18:20:28Z</time></trkpt><trkpt lat="43.575454596478146" lon="11.290734260600104"><ele>418.0</ele><time>2026-04-03T18:20:29Z</time></trkpt><trkpt lat="43.575372760502475" lon="11.290788752071037"><ele>418.4</ele><time>2026-04-03T18:20:30Z</time></trkpt><trkpt lat="43.57529262407035" lon="11.290837204607598"><ele>418.79999999999995</ele><time>2026-04-03T18:20:31Z</time></trkpt><trkpt lat="43.575199556695026" lon="11.29089530040031"><ele>419.2</ele><time>2026-04-03T18:20:32Z</time></trkpt><trkpt lat="43.5751096965974" lon="11.290956269336709"><ele>419.6</ele><time>2026-04-03T18:20:33Z</time></trkpt><trkpt lat="43.57503429813463" lon="11.291005668616293"><ele>420.0</ele><time>2026-04-03T18:20:34Z</time></trkpt><trkpt lat="43.57495061878755" lon="11.291049167733009"><ele>420.0</ele><time>2026-04-03T18:20:36Z</time></trkpt><trkpt lat="43.57487319861531" lon="11.290969653542803"><ele>420.0</ele><time>2026-04-03T18:20:40Z</time></trkpt><trkpt lat="43.57488235290621" lon="11.290822227221929"><ele>420.0</ele><time>2026-04-03T18:20:42Z</time></trkpt><trkpt lat="43.57489659631408" lon="11.290670719429496"><ele>420.0</ele><time>2026-04-03T18:20:44Z</time></trkpt><trkpt lat="43.57488659026599" lon="11.290511846325762"><ele>420.0</ele><time>2026-04-03T18:20:46Z</time></trkpt><trkpt lat="43.57486886962474" lon="11.290428375240781"><ele>421.3333333333333</ele><time>2026-04-03T18:20:47Z</time></trkpt><trkpt lat="43.574844953608384" lon="11.290336828349082"><ele>422.66666666666663</ele><time>2026-04-03T18:20:48Z</time></trkpt><trkpt lat="43.57480683217324" lon="11.290247211514695"><ele>424.0</ele><time>2026-04-03T18:20:49Z</time></trkpt><trkpt lat="43.57475566805744" lon="11.290165670062947"><ele>425.3333333333333</ele><time>2026-04-03T18:20:50Z</time></trkpt><trkpt lat="43.574691315124774" lon="11.290079839636762"><ele>426.66666666666663</ele><time>2026-04-03T18:20:51Z</time></trkpt><trkpt lat="43.574634447049384" lon="11.290006353612677"><ele>428.0</ele><time>2026-04-03T18:20:52Z</time></trkpt><trkpt lat="43.574577923589416" lon="11.289932833299579"><ele>427.99999999999994</ele><time>2026-04-03T18:20:53Z</time></trkpt><trkpt lat="43.57452137937389" lon="11.289870190357133"><ele>428.0</ele><time>2026-04-03T18:20:54Z</time></trkpt><trkpt lat="43.57447796386527" lon="11.289801011677923"><ele>428.0</ele><time>2026-04-03T18:20:55Z</time></trkpt><trkpt lat="43.574416287515966" lon="11.28977183174516"><ele>428.0</ele><time>2026-04-03T18:20:56Z</time></trkpt><trkpt lat="43.5743427359516" lon="11.289636944104062"><ele>427.99999999999994</ele><time>2026-04-03T18:20:58Z</time></trkpt><trkpt lat="43.574334726083755" lon="11.28954391942597"><ele>428.0</ele><time>2026-04-03T18:20:59Z</time></trkpt><trkpt lat="43.57432936515918" lon="11.289433710847202"><ele>422.4</ele><time>2026-04-03T18:21:00Z</time></trkpt><trkpt lat="43.574334992486534" lon="11.289300396449187"><ele>416.79999999999995</ele><time>2026-04-03T18:21:01Z</time></trkpt><trkpt lat="43.57433997089142" lon="11.289159651459762"><ele>411.2</ele><time>2026-04-03T18:21:02Z</time></trkpt><trkpt lat="43.57434097361369" lon="11.289021097414876"><ele>405.6</ele><time>2026-04-03T18:21:03Z</time></trkpt><trkpt lat="43.57434256527703" lon="11.288896957875602"><ele>400.0</ele><time>2026-04-03T18:21:04Z</time></trkpt><trkpt lat="43.57434828921152" lon="11.28877681319896"><ele>399.33333333333337</ele><time>2026-04-03T18:21:05Z</time></trkpt><trkpt lat="43.57435821584807" lon="11.288680597279209"><ele>398.6666666666667</ele><time>2026-04-03T18:21:06Z</time></trkpt><trkpt lat="43.57436687255755" lon="11.288585378217626"><ele>398.0</ele><time>2026-04-03T18:21:07Z</time></trkpt><trkpt lat="43.57437439230486" lon="11.288498378592708"><ele>397.33333333333337</ele><time>2026-04-03T18:21:08Z</time></trkpt><trkpt lat="43.574361335426296" lon="11.288335103987974"><ele>396.6666666666667</ele><time>2026-04-03T18:21:10Z</time></trkpt><trkpt lat="43.5743042943865" lon="11.28825759306966"><ele>396.0</ele><time>2026-04-03T18:21:11Z</time></trkpt><trkpt lat="43.57421073199253" lon="11.2882038785084"><ele>396.0</ele><time>2026-04-03T18:21:12Z</time></trkpt><trkpt lat="43.574125570916806" lon="11.28812057740531"><ele>396.0</ele><time>2026-04-03T18:21:13Z</time></trkpt><trkpt lat="43.574041815720086" lon="11.288016500003472"><ele>396.0</ele><time>2026-04-03T18:21:14Z</time></trkpt><trkpt lat="43.57394316701836" lon="11.287902667364204"><ele>396.0</ele><time>2026-04-03T18:21:15Z</time></trkpt><trkpt lat="43.57384650640084" lon="11.287779708867552"><ele>396.0</ele><time>2026-04-03T18:21:16Z</time></trkpt><trkpt lat="43.57375416120181" lon="11.2876845382116"><ele>396.0</ele><time>2026-04-03T18:21:17Z</time></trkpt><trkpt lat="43.573678280524774" lon="11.287595675052367"><ele>396.0</ele><time>2026-04-03T18:21:18Z</time></trkpt><trkpt lat="43.57360731742792" lon="11.287510221489919"><ele>396.0</ele><time>2026-04-03T18:21:19Z</time></trkpt><trkpt lat="43.57353309075558" lon="11.287418275220976"><ele>396.0</ele><time>2026-04-03T18:21:20Z</time></trkpt><trkpt lat="43.57345208491043" lon="11.287323117799204"><ele>395.4</ele><time>2026-04-03T18:21:21Z</time></trkpt><trkpt lat="43.57337902532134" lon="11.287228990127792"><ele>394.8</ele><time>2026-04-03T18:21:22Z</time></trkpt><trkpt lat="43.57330848029607" lon="11.287134544673481"><ele>394.2</ele><time>2026-04-03T18:21:23Z</time></trkpt><trkpt lat="43.573227654336804" lon="11.28705473339401"><ele>393.59999999999997</ele><time>2026-04-03T18:21:24Z</time></trkpt><trkpt lat="43.57315242357293" lon="11.286959251088474"><ele>393.0</ele><time>2026-04-03T18:21:25Z</time></trkpt><trkpt lat="43.57307805829484" lon="11.286857119386397"><ele>393.0</ele><time>2026-04-03T18:21:26Z</time></trkpt><trkpt lat="43.57300203503639" lon="11.286757258468791"><ele>393.0</ele><time>2026-04-03T18:21:27Z</time></trkpt><trkpt lat="43.572939493228624" lon="11.286670526432408"><ele>393.0</ele><time>2026-04-03T18:21:28Z</time></trkpt><trkpt lat="43.57289385302991" lon="11.286597347495455"><ele>393.0</ele><time>2026-04-03T18:21:29Z</time></trkpt><trkpt lat="43.5728470937763" lon="11.28653090670009"><ele>393.0</ele><time>2026-04-03T18:21:30Z</time></trkpt><trkpt lat="43.57280720966946" lon="11.286435927540362"><ele>393.0</ele><time>2026-04-03T18:21:31Z</time></trkpt><trkpt lat="43.572784346126184" lon="11.286342539024881"><ele>394.2</ele><time>2026-04-03T18:21:32Z</time></trkpt><trkpt lat="43.57282767701741" lon="11.28619916881537"><ele>395.4</ele><time>2026-04-03T18:21:33Z</time></trkpt><trkpt lat="43.57277047964088" lon="11.286088162381203"><ele>396.59999999999997</ele><time>2026-04-03T18:21:35Z</time></trkpt><trkpt lat="43.57265789861793" lon="11.286024405506678"><ele>397.79999999999995</ele><time>2026-04-03T18:21:37Z</time></trkpt><trkpt lat="43.57257732802646" lon="11.286017750790606"><ele>399.0</ele><time>2026-04-03T18:21:38Z</time></trkpt><trkpt lat="43.57249959021586" lon="11.286041617158379"><ele>399.0</ele><time>2026-04-03T18:21:39Z</time></trkpt><trkpt lat="43.57240893388122" lon="11.286071770981902"><ele>399.0</ele><time>2026-04-03T18:21:40Z</time></trkpt><trkpt lat="43.572307445947594" lon="11.286099578166748"><ele>399.0</ele><time>2026-04-03T18:21:41Z</time></trkpt><trkpt lat="43.572214323114956" lon="11.286129168155293"><ele>399.0</ele><time>2026-04-03T18:21:42Z</time></trkpt><trkpt lat="43.57212153446954" lon="11.28617008845363"><ele>399.0</ele><time>2026-04-03T18:21:42.999Z</time></trkpt><trkpt lat="43.572042821370815" lon="11.286230655959285"><ele>401.3333333333333</ele><time>2026-04-03T18:21:43.999Z</time></trkpt><trkpt lat="43.57196317567872" lon="11.286280307572559"><ele>403.66666666666663</ele><time>2026-04-03T18:21:45.999Z</time></trkpt><trkpt lat="43.57187279924006" lon="11.2862757430811"><ele>406.0</ele><time>2026-04-03T18:21:47.999Z</time></trkpt><trkpt lat="43.57180640129951" lon="11.286239678260321"><ele>408.3333333333333</ele><time>2026-04-03T18:21:48.999Z</time></trkpt><trkpt lat="43.57172129459371" lon="11.286229102637627"><ele>410.66666666666663</ele><time>2026-04-03T18:21:49.999Z</time></trkpt><trkpt lat="43.57163975593803" lon="11.286274697396452"><ele>413.0</ele><time>2026-04-03T18:21:50.999Z</time></trkpt><trkpt lat="43.57153924291139" lon="11.28630723361327"><ele>413.0</ele><time>2026-04-03T18:21:52.999Z</time></trkpt><trkpt lat="43.57142668933156" lon="11.286316034434334"><ele>413.0</ele><time>2026-04-03T18:21:55.999Z</time></trkpt><trkpt lat="43.57135621280387" lon="11.286261925806825"><ele>413.0</ele><time>2026-04-03T18:21:58.001Z</time></trkpt><trkpt lat="43.571274861395906" lon="11.286238226896135"><ele>413.0</ele><time>2026-04-03T18:22:01.001Z</time></trkpt><trkpt lat="43.57118306096288" lon="11.286298061279853"><ele>413.0</ele><time>2026-04-03T18:22:05.001Z</time></trkpt><trkpt lat="43.57117446752897" lon="11.286173592670181"><ele>407.0</ele><time>2026-04-03T18:22:07.001Z</time></trkpt><trkpt lat="43.57099114276517" lon="11.28664621103633"><ele>401.0</ele><time>2026-04-03T18:22:09.001Z</time></trkpt><trkpt lat="43.57090120713378" lon="11.286674521972849"><ele>400.99999999999994</ele><time>2026-04-03T18:22:12.001Z</time></trkpt><trkpt lat="43.57083445754389" lon="11.286732504502211"><ele>401.0</ele><time>2026-04-03T18:22:15Z</time></trkpt><trkpt lat="43.57078569516265" lon="11.28681255294792"><ele>401.0</ele><time>2026-04-03T18:22:18Z</time></trkpt><trkpt lat="43.570749768061475" lon="11.286923537447658"><ele>401.0</ele><time>2026-04-03T18:22:21Z</time></trkpt><trkpt lat="43.57075220112821" lon="11.287012656524121"><ele>400.99999999999994</ele><time>2026-04-03T18:22:24Z</time></trkpt><trkpt lat="43.57075175580795" lon="11.28710406562087"><ele>401.0</ele><time>2026-04-03T18:22:39Z</time></trkpt><trkpt lat="43.57069111505796" lon="11.287225451721302"><ele>400.16666666666663</ele><time>2026-04-03T18:22:41Z</time></trkpt><trkpt lat="43.57064969754242" lon="11.287291719805967"><ele>399.3333333333333</ele><time>2026-04-03T18:22:42Z</time></trkpt><trkpt lat="43.57059463247358" lon="11.28742654321783"><ele>398.5</ele><time>2026-04-03T18:22:44Z</time></trkpt><trkpt lat="43.57051660690272" lon="11.287499492943484"><ele>397.66666666666663</ele><time>2026-04-03T18:22:51Z</time></trkpt><trkpt lat="43.57047296864094" lon="11.287562952651397"><ele>396.8333333333333</ele><time>2026-04-03T18:22:54Z</time></trkpt><trkpt lat="43.57051352415655" lon="11.287669358517695"><ele>396.0</ele><time>2026-04-03T18:22:58Z</time></trkpt><trkpt lat="43.57054852827663" lon="11.287746277096515"><ele>396.0</ele><time>2026-04-03T18:23:00Z</time></trkpt><trkpt lat="43.570572425780405" lon="11.287848413759237"><ele>396.0</ele><time>2026-04-03T18:23:02Z</time></trkpt><trkpt lat="43.5705840931748" lon="11.28796268137735"><ele>396.0</ele><time>2026-04-03T18:23:04Z</time></trkpt><trkpt lat="43.57059890714422" lon="11.288063208623326"><ele>396.0</ele><time>2026-04-03T18:23:07Z</time></trkpt><trkpt lat="43.57058908409456" lon="11.28816845320651"><ele>396.0</ele><time>2026-04-03T18:23:11Z</time></trkpt><trkpt lat="43.570607034693865" lon="11.2882907385153"><ele>396.0</ele><time>2026-04-03T18:23:13Z</time></trkpt><trkpt lat="43.57061531873028" lon="11.288454247054766"><ele>396.1666666666667</ele><time>2026-04-03T18:23:15Z</time></trkpt><trkpt lat="43.57060592926139" lon="11.288576845201142"><ele>396.33333333333337</ele><time>2026-04-03T18:23:17Z</time></trkpt><trkpt lat="43.57057283577153" lon="11.288706413061128"><ele>396.5</ele><time>2026-04-03T18:23:19Z</time></trkpt><trkpt lat="43.57058173314533" lon="11.288848524688992"><ele>396.6666666666667</ele><time>2026-04-03T18:23:25Z</time></trkpt><trkpt lat="43.570609020997644" lon="11.288930331607125"><ele>396.83333333333337</ele><time>2026-04-03T18:23:26Z</time></trkpt><trkpt lat="43.5706483034629" lon="11.289003190753364"><ele>397.0</ele><time>2026-04-03T18:23:27Z</time></trkpt><trkpt lat="43.570702082239265" lon="11.289074204952223"><ele>397.83333333333337</ele><time>2026-04-03T18:23:29Z</time></trkpt><trkpt lat="43.570724860844024" lon="11.28918227855464"><ele>398.6666666666667</ele><time>2026-04-03T18:23:31Z</time></trkpt><trkpt lat="43.57071862842522" lon="11.289291517897379"><ele>399.5</ele><time>2026-04-03T18:23:35Z</time></trkpt><trkpt lat="43.5707711757281" lon="11.289365105062632"><ele>400.33333333333337</ele><time>2026-04-03T18:23:39Z</time></trkpt><trkpt lat="43.570829625592744" lon="11.289436675245215"><ele>401.1666666666667</ele><time>2026-04-03T18:24:01.999Z</time></trkpt><trkpt lat="43.57086371401638" lon="11.289553104434479"><ele>402.0</ele><time>2026-04-03T18:24:23Z</time></trkpt><trkpt lat="43.57090531503908" lon="11.2896200922698"><ele>402.0</ele><time>2026-04-03T18:24:24Z</time></trkpt><trkpt lat="43.57098108619895" lon="11.289687320125651"><ele>402.0</ele><time>2026-04-03T18:24:26Z</time></trkpt><trkpt lat="43.57103842514988" lon="11.289728514620107"><ele>402.0</ele><time>2026-04-03T18:24:30Z</time></trkpt><trkpt lat="43.57110670053798" lon="11.289776769407126"><ele>402.0</ele><time>2026-04-03T18:24:48Z</time></trkpt><trkpt lat="43.571189068979024" lon="11.289895617890833"><ele>402.0</ele><time>2026-04-03T18:24:50Z</time></trkpt><trkpt lat="43.57123416278531" lon="11.289970786632988"><ele>402.0</ele><time>2026-04-03T18:24:52Z</time></trkpt><trkpt lat="43.57123527711728" lon="11.290058584745804"><ele>399.3333333333333</ele><time>2026-04-03T18:25:00Z</time></trkpt><trkpt lat="43.571319983205626" lon="11.290105662713009"><ele>396.66666666666663</ele><time>2026-04-03T18:25:05Z</time></trkpt><trkpt lat="43.571333903724074" lon="11.290231200626755"><ele>394.0</ele><time>2026-04-03T18:25:08Z</time></trkpt><trkpt lat="43.571342418776915" lon="11.290353751446084"><ele>391.3333333333333</ele><time>2026-04-03T18:25:11Z</time></trkpt><trkpt lat="43.57133142763415" lon="11.290443177918783"><ele>388.66666666666663</ele><time>2026-04-03T18:25:27Z</time></trkpt><trkpt lat="43.571404992003934" lon="11.29046100229949"><ele>386.0</ele><time>2026-04-03T18:25:47.999Z</time></trkpt><trkpt lat="43.57134810300337" lon="11.290509681150455"><ele>385.99999999999994</ele><time>2026-04-03T18:25:58.999Z</time></trkpt><trkpt lat="43.57129585098258" lon="11.290601630837962"><ele>386.0</ele><time>2026-04-03T18:26:02.999Z</time></trkpt><trkpt lat="43.57128728988508" lon="11.290697967736438"><ele>386.0</ele><time>2026-04-03T18:26:04.999Z</time></trkpt><trkpt lat="43.5712580877703" lon="11.290795168994249"><ele>386.0</ele><time>2026-04-03T18:26:06.999Z</time></trkpt><trkpt lat="43.57125894213482" lon="11.290931157202335"><ele>385.99999999999994</ele><time>2026-04-03T18:26:09Z</time></trkpt><trkpt lat="43.57129333681772" lon="11.291035965021276"><ele>386.0</ele><time>2026-04-03T18:26:11Z</time></trkpt><trkpt lat="43.571334052733995" lon="11.291104491586326"><ele>385.99999999999994</ele><time>2026-04-03T18:26:22Z</time></trkpt><trkpt lat="43.571278083298836" lon="11.291046102427003"><ele>386.0</ele><time>2026-04-03T18:26:53Z</time></trkpt><trkpt lat="43.571241270706565" lon="11.29094140066036"><ele>386.0</ele><time>2026-04-03T18:27:00Z</time></trkpt><trkpt lat="43.57124778596595" lon="11.290826894217446"><ele>386.0</ele><time>2026-04-03T18:27:02Z</time></trkpt><trkpt lat="43.57123783557178" lon="11.290919765911699"><ele>385.99999999999994</ele><time>2026-04-03T18:27:14Z</time></trkpt><trkpt lat="43.57125327722449" lon="11.29104946357502"><ele>386.0</ele><time>2026-04-03T18:27:17Z</time></trkpt><trkpt lat="43.57126598724842" lon="11.291155110985983"><ele>385.99999999999994</ele><time>2026-04-03T18:27:22Z</time></trkpt><trkpt lat="43.57130635582573" lon="11.29123274801653"><ele>386.0</ele><time>2026-04-03T18:27:28Z</time></trkpt><trkpt lat="43.571313410136334" lon="11.291325216050149"><ele>386.0</ele><time>2026-04-03T18:27:32Z</time></trkpt><trkpt lat="43.57138492007482" lon="11.291348406761953"><ele>386.0</ele><time>2026-04-03T18:27:40.999Z</time></trkpt><trkpt lat="43.57142144935365" lon="11.291470203839204"><ele>385.99999999999994</ele><time>2026-04-03T18:27:43.999Z</time></trkpt><trkpt lat="43.57142118552931" lon="11.291600230546486"><ele>386.0</ele><time>2026-04-03T18:27:46.999Z</time></trkpt><trkpt lat="43.57139177250031" lon="11.291682981803822"><ele>385.8333333333333</ele><time>2026-04-03T18:27:56.999Z</time></trkpt><trkpt lat="43.571407662301" lon="11.291775654255002"><ele>385.66666666666663</ele><time>2026-04-03T18:29:12Z</time></trkpt><trkpt lat="43.5713587342382" lon="11.29185749465994"><ele>385.5</ele><time>2026-04-03T18:29:14Z</time></trkpt><trkpt lat="43.57129888015651" lon="11.291923024689849"><ele>385.33333333333337</ele><time>2026-04-03T18:29:16Z</time></trkpt><trkpt lat="43.57122508611391" lon="11.291993428889889"><ele>385.1666666666667</ele><time>2026-04-03T18:29:18Z</time></trkpt><trkpt lat="43.57116200304275" lon="11.292043848797482"><ele>385.0</ele><time>2026-04-03T18:29:20Z</time></trkpt><trkpt lat="43.57110586513876" lon="11.292114069525176"><ele>385.6666666666667</ele><time>2026-04-03T18:29:22Z</time></trkpt><trkpt lat="43.57114897970904" lon="11.29202547656057"><ele>386.33333333333337</ele><time>2026-04-03T18:30:09.999Z</time></trkpt><trkpt lat="43.57107320503958" lon="11.292049117060243"><ele>387.0</ele><time>2026-04-03T18:30:16.999Z</time></trkpt><trkpt lat="43.57101007049652" lon="11.292030986880302"><ele>387.66666666666663</ele><time>2026-04-03T18:30:18.999Z</time></trkpt><trkpt lat="43.570976907982654" lon="11.292147841106294"><ele>388.3333333333333</ele><time>2026-04-03T18:30:27Z</time></trkpt><trkpt lat="43.57092636658584" lon="11.292230198845056"><ele>389.0</ele><time>2026-04-03T18:30:30Z</time></trkpt><trkpt lat="43.570867714679295" lon="11.292325263816837"><ele>389.0</ele><time>2026-04-03T18:30:36Z</time></trkpt><trkpt lat="43.570816332206476" lon="11.292376583945295"><ele>389.0</ele><time>2026-04-03T18:30:39Z</time></trkpt><trkpt lat="43.570751934222166" lon="11.292327704960067"><ele>389.0</ele><time>2026-04-03T18:30:46Z</time></trkpt><trkpt lat="43.570667608198754" lon="11.292355565958456"><ele>389.0</ele><time>2026-04-03T18:31:01Z</time></trkpt><trkpt lat="43.570729042606445" lon="11.292295992751146"><ele>389.0</ele><time>2026-04-03T18:31:26Z</time></trkpt><trkpt lat="43.57070282553926" lon="11.292199948878787"><ele>389.0</ele><time>2026-04-03T18:31:30Z</time></trkpt><trkpt lat="43.57064803967938" lon="11.292136130750215"><ele>389.0</ele><time>2026-04-03T18:31:33Z</time></trkpt><trkpt lat="43.57064422617197" lon="11.292027704347158"><ele>389.0</ele><time>2026-04-03T18:31:36Z</time></trkpt><trkpt lat="43.570709082630344" lon="11.292003308285274"><ele>389.0</ele><time>2026-04-03T18:32:02.999Z</time></trkpt><trkpt lat="43.57077831439912" lon="11.292006725672227"><ele>389.0</ele><time>2026-04-03T18:32:10.999Z</time></trkpt><trkpt lat="43.57079109965019" lon="11.292097145577928"><ele>389.0</ele><time>2026-04-03T18:32:19.999Z</time></trkpt><trkpt lat="43.570791815706684" lon="11.292186701234922"><ele>389.0</ele><time>2026-04-03T18:32:23.999Z</time></trkpt><trkpt lat="43.570754154316575" lon="11.292281068044868"><ele>389.0</ele><time>2026-04-03T18:32:35Z</time></trkpt><trkpt lat="43.57079557928494" lon="11.292354638522784"><ele>389.0</ele><time>2026-04-03T18:32:40Z</time></trkpt><trkpt lat="43.570857925848316" lon="11.292309249255402"><ele>388.3333333333333</ele><time>2026-04-03T18:32:56Z</time></trkpt><trkpt lat="43.57090998191384" lon="11.292254853663824"><ele>387.66666666666663</ele><time>2026-04-03T18:32:59Z</time></trkpt><trkpt lat="43.57095788369781" lon="11.29215765846754"><ele>387.0</ele><time>2026-04-03T18:33:02Z</time></trkpt><trkpt lat="43.57100304466182" lon="11.29208543417659"><ele>386.33333333333337</ele><time>2026-04-03T18:33:05Z</time></trkpt><trkpt lat="43.57104325200231" lon="11.292013478563355"><ele>385.6666666666667</ele><time>2026-04-03T18:33:23Z</time></trkpt><trkpt lat="43.571126760316105" lon="11.292026621723766"><ele>385.0</ele><time>2026-04-03T18:33:27Z</time></trkpt><trkpt lat="43.571213919746235" lon="11.291980493396329"><ele>385.00000000000006</ele><time>2026-04-03T18:33:36Z</time></trkpt><trkpt lat="43.57127439700365" lon="11.2919252739702"><ele>385.0</ele><time>2026-04-03T18:33:38Z</time></trkpt><trkpt lat="43.57132460394277" lon="11.291867120249519"><ele>385.0</ele><time>2026-04-03T18:33:40Z</time></trkpt><trkpt lat="43.5713659962995" lon="11.291797052793681"><ele>385.0</ele><time>2026-04-03T18:33:42Z</time></trkpt><trkpt lat="43.57133805525484" lon="11.291695088278061"><ele>385.00000000000006</ele><time>2026-04-03T18:33:57.999Z</time></trkpt><trkpt lat="43.571397626112805" lon="11.291647496178923"><ele>385.0</ele><time>2026-04-03T18:34:07.999Z</time></trkpt><trkpt lat="43.571406394443784" lon="11.291512253152368"><ele>385.1666666666667</ele><time>2026-04-03T18:34:10.999Z</time></trkpt><trkpt lat="43.571388549327246" lon="11.291387948183445"><ele>385.33333333333337</ele><time>2026-04-03T18:34:12.999Z</time></trkpt><trkpt lat="43.57130351365042" lon="11.291346475458125"><ele>385.5</ele><time>2026-04-03T18:34:17.999Z</time></trkpt><trkpt lat="43.57128124049589" lon="11.291258053123888"><ele>385.66666666666663</ele><time>2026-04-03T18:34:31.999Z</time></trkpt><trkpt lat="43.571243432748226" lon="11.291175301375912"><ele>385.8333333333333</ele><time>2026-04-03T18:34:38Z</time></trkpt><trkpt lat="43.57123502632559" lon="11.291085323688325"><ele>386.0</ele><time>2026-04-03T18:34:44Z</time></trkpt><trkpt lat="43.57123267011508" lon="11.290959287658378"><ele>386.00000000000006</ele><time>2026-04-03T18:34:51Z</time></trkpt><trkpt lat="43.57122969779688" lon="11.290851000466253"><ele>386.0</ele><time>2026-04-03T18:34:54Z</time></trkpt><trkpt lat="43.57124608931669" lon="11.290759280572924"><ele>386.0</ele><time>2026-04-03T18:34:56Z</time></trkpt><trkpt lat="43.57127337790157" lon="11.290665977087706"><ele>386.0</ele><time>2026-04-03T18:34:58Z</time></trkpt><trkpt lat="43.571280410169436" lon="11.290574741150039"><ele>386.0</ele><time>2026-04-03T18:35:00Z</time></trkpt><trkpt lat="43.57133954303782" lon="11.290521168384247"><ele>386.00000000000006</ele><time>2026-04-03T18:35:03Z</time></trkpt><trkpt lat="43.571319425340185" lon="11.290422208195578"><ele>386.0</ele><time>2026-04-03T18:35:11Z</time></trkpt><trkpt lat="43.57133147826416" lon="11.290321958837936"><ele>385.99999999999994</ele><time>2026-04-03T18:35:14Z</time></trkpt><trkpt lat="43.57131248046867" lon="11.290183133986313"><ele>386.0</ele><time>2026-04-03T18:35:16Z</time></trkpt><trkpt lat="43.57126425098438" lon="11.290125414748266"><ele>386.0</ele><time>2026-04-03T18:35:19Z</time></trkpt><trkpt lat="43.571224093859826" lon="11.290046002729461"><ele>386.0</ele><time>2026-04-03T18:35:26Z</time></trkpt><trkpt lat="43.57121203612918" lon="11.289945551128893"><ele>385.99999999999994</ele><time>2026-04-03T18:35:28Z</time></trkpt><trkpt lat="43.571141632471544" lon="11.289875151346255"><ele>386.0</ele><time>2026-04-03T18:35:30Z</time></trkpt><trkpt lat="43.571094440818165" lon="11.289812877908519"><ele>388.28571428571433</ele><time>2026-04-03T18:35:32Z</time></trkpt><trkpt lat="43.571042446673225" lon="11.289744087484268"><ele>390.57142857142856</ele><time>2026-04-03T18:35:52.999Z</time></trkpt><trkpt lat="43.57097498447436" lon="11.289702619629614"><ele>392.8571428571429</ele><time>2026-04-03T18:35:57.999Z</time></trkpt><trkpt lat="43.5709184755468" lon="11.289645451647294"><ele>395.14285714285717</ele><time>2026-04-03T18:35:59.999Z</time></trkpt><trkpt lat="43.57086234463902" lon="11.289576351423687"><ele>397.42857142857144</ele><time>2026-04-03T18:36:01.999Z</time></trkpt><trkpt lat="43.570835518849584" lon="11.289486647235258"><ele>399.7142857142857</ele><time>2026-04-03T18:36:08.999Z</time></trkpt><trkpt lat="43.5708265403449" lon="11.28937271823728"><ele>402.0</ele><time>2026-04-03T18:36:12.999Z</time></trkpt><trkpt lat="43.570760230894656" lon="11.28937152112124"><ele>402.0</ele><time>2026-04-03T18:36:15.999Z</time></trkpt><trkpt lat="43.57073412885566" lon="11.289285879159378"><ele>402.0</ele><time>2026-04-03T18:36:18.999Z</time></trkpt><trkpt lat="43.57071311454744" lon="11.289161514325984"><ele>402.0</ele><time>2026-04-03T18:36:21.999Z</time></trkpt><trkpt lat="43.5706636909248" lon="11.28905352244224"><ele>402.0</ele><time>2026-04-03T18:36:23.999Z</time></trkpt><trkpt lat="43.57059097026656" lon="11.28894551302193"><ele>402.0</ele><time>2026-04-03T18:36:25.999Z</time></trkpt><trkpt lat="43.570554237180495" lon="11.28882019219769"><ele>401.1666666666667</ele><time>2026-04-03T18:36:27.999Z</time></trkpt><trkpt lat="43.57044807789938" lon="11.288831683387793"><ele>400.33333333333337</ele><time>2026-04-03T18:36:36.999Z</time></trkpt><trkpt lat="43.57036160590498" lon="11.288786589308781"><ele>399.5</ele><time>2026-04-03T18:36:39Z</time></trkpt><trkpt lat="43.5703265349096" lon="11.288683126119073"><ele>398.6666666666667</ele><time>2026-04-03T18:36:41Z</time></trkpt><trkpt lat="43.570279788408726" lon="11.288595344032485"><ele>397.83333333333337</ele><time>2026-04-03T18:36:43Z</time></trkpt><trkpt lat="43.570219181944125" lon="11.288514842816788"><ele>397.0</ele><time>2026-04-03T18:36:45Z</time></trkpt><trkpt lat="43.57017178027233" lon="11.28844834520569"><ele>399.50000000000006</ele><time>2026-04-03T18:36:46Z</time></trkpt><trkpt lat="43.570121639690996" lon="11.288377022257702"><ele>402.0</ele><time>2026-04-03T18:36:47Z</time></trkpt><trkpt lat="43.57006967431032" lon="11.288304305049872"><ele>404.5</ele><time>2026-04-03T18:36:48Z</time></trkpt><trkpt lat="43.57002096116564" lon="11.288240369802681"><ele>407.0</ele><time>2026-04-03T18:36:49Z</time></trkpt><trkpt lat="43.56993215724199" lon="11.288140695937448"><ele>409.50000000000006</ele><time>2026-04-03T18:36:51Z</time></trkpt><trkpt lat="43.56987433909008" lon="11.288024714208724"><ele>412.0</ele><time>2026-04-03T18:36:53Z</time></trkpt><trkpt lat="43.569848124861764" lon="11.287892798569453"><ele>412.0</ele><time>2026-04-03T18:36:55Z</time></trkpt><trkpt lat="43.569852075015135" lon="11.287760755016494"><ele>412.0</ele><time>2026-04-03T18:36:57Z</time></trkpt><trkpt lat="43.56988667708052" lon="11.2876372922754"><ele>412.0</ele><time>2026-04-03T18:36:59Z</time></trkpt><trkpt lat="43.5698727920007" lon="11.287508375089033"><ele>412.0</ele><time>2026-04-03T18:37:01Z</time></trkpt><trkpt lat="43.569807242855376" lon="11.287386354018375"><ele>412.0</ele><time>2026-04-03T18:37:03Z</time></trkpt><trkpt lat="43.569770277423025" lon="11.287237703897405"><ele>412.0</ele><time>2026-04-03T18:37:05Z</time></trkpt><trkpt lat="43.56973978971163" lon="11.287079439518772"><ele>412.0</ele><time>2026-04-03T18:37:07Z</time></trkpt><trkpt lat="43.56974052291757" lon="11.286942068449646"><ele>412.0</ele><time>2026-04-03T18:37:09Z</time></trkpt><trkpt lat="43.569718492545476" lon="11.286818100624739"><ele>412.0</ele><time>2026-04-03T18:37:11Z</time></trkpt><trkpt lat="43.56969557675818" lon="11.286700151596275"><ele>412.0</ele><time>2026-04-03T18:37:13Z</time></trkpt><trkpt lat="43.56968609150789" lon="11.286560225496013"><ele>412.0</ele><time>2026-04-03T18:37:15Z</time></trkpt><trkpt lat="43.56962081964911" lon="11.28647689022227"><ele>412.0</ele><time>2026-04-03T18:37:17Z</time></trkpt><trkpt lat="43.56954292281316" lon="11.286391113757436"><ele>412.0</ele><time>2026-04-03T18:37:19Z</time></trkpt><trkpt lat="43.56947093503629" lon="11.286274731643076"><ele>412.0</ele><time>2026-04-03T18:37:21Z</time></trkpt><trkpt lat="43.56940448181015" lon="11.286150285088892"><ele>412.0</ele><time>2026-04-03T18:37:23Z</time></trkpt><trkpt lat="43.569340775090936" lon="11.286067705655663"><ele>414.00000000000006</ele><time>2026-04-03T18:37:25Z</time></trkpt><trkpt lat="43.56929907852975" lon="11.286168504328936"><ele>416.0</ele><time>2026-04-03T18:37:29Z</time></trkpt><trkpt lat="43.56934900138888" lon="11.28632088113827"><ele>418.0</ele><time>2026-04-03T18:37:31Z</time></trkpt><trkpt lat="43.569343884809385" lon="11.286430166104845"><ele>420.0</ele><time>2026-04-03T18:37:32Z</time></trkpt><trkpt lat="43.5693228081819" lon="11.286538305146383"><ele>422.00000000000006</ele><time>2026-04-03T18:37:33Z</time></trkpt><trkpt lat="43.56928843550426" lon="11.286637324079857"><ele>424.0</ele><time>2026-04-03T18:37:34Z</time></trkpt><trkpt lat="43.56923857653571" lon="11.286732706650673"><ele>425.00000000000006</ele><time>2026-04-03T18:37:35Z</time></trkpt><trkpt lat="43.56917180001229" lon="11.286808608763412"><ele>426.0</ele><time>2026-04-03T18:37:36Z</time></trkpt><trkpt lat="43.5691028697567" lon="11.2868689141755"><ele>427.0</ele><time>2026-04-03T18:37:37Z</time></trkpt><trkpt lat="43.569026146795856" lon="11.286927026816445"><ele>428.0</ele><time>2026-04-03T18:37:38Z</time></trkpt><trkpt lat="43.56894328526007" lon="11.286976016660095"><ele>429.00000000000006</ele><time>2026-04-03T18:37:39Z</time></trkpt><trkpt lat="43.56887181305552" lon="11.28701352972746"><ele>430.0</ele><time>2026-04-03T18:37:40Z</time></trkpt><trkpt lat="43.56879556719606" lon="11.287052537819417"><ele>430.00000000000006</ele><time>2026-04-03T18:37:41Z</time></trkpt><trkpt lat="43.56872331428542" lon="11.287115427740064"><ele>430.0</ele><time>2026-04-03T18:37:42Z</time></trkpt><trkpt lat="43.56865999403876" lon="11.287186701027737"><ele>430.0</ele><time>2026-04-03T18:37:43Z</time></trkpt><trkpt lat="43.56861011142139" lon="11.287267434409488"><ele>430.0</ele><time>2026-04-03T18:37:44Z</time></trkpt><trkpt lat="43.56853828155388" lon="11.287333193295138"><ele>430.00000000000006</ele><time>2026-04-03T18:37:45Z</time></trkpt><trkpt lat="43.56848439785016" lon="11.287425448449797"><ele>430.0</ele><time>2026-04-03T18:37:46Z</time></trkpt><trkpt lat="43.5684335436379" lon="11.287519956703171"><ele>431.83333333333337</ele><time>2026-04-03T18:37:47Z</time></trkpt><trkpt lat="43.56838314562738" lon="11.287621654859233"><ele>433.6666666666667</ele><time>2026-04-03T18:37:48Z</time></trkpt><trkpt lat="43.568338098318364" lon="11.287712515686406"><ele>435.5</ele><time>2026-04-03T18:37:49Z</time></trkpt><trkpt lat="43.568291393431124" lon="11.287802713239783"><ele>437.33333333333337</ele><time>2026-04-03T18:37:50Z</time></trkpt><trkpt lat="43.56824344495723" lon="11.28788599424427"><ele>439.1666666666667</ele><time>2026-04-03T18:37:51Z</time></trkpt><trkpt lat="43.56819696652473" lon="11.287982426462204"><ele>441.0</ele><time>2026-04-03T18:37:52Z</time></trkpt><trkpt lat="43.56813981734021" lon="11.288080625805982"><ele>443.20000000000005</ele><time>2026-04-03T18:37:53Z</time></trkpt><trkpt lat="43.568085170521194" lon="11.288196981031945"><ele>445.40000000000003</ele><time>2026-04-03T18:37:54Z</time></trkpt><trkpt lat="43.56802390316133" lon="11.288309297930496"><ele>447.6</ele><time>2026-04-03T18:37:54.999Z</time></trkpt><trkpt lat="43.567979028720366" lon="11.288440415150923"><ele>449.8</ele><time>2026-04-03T18:37:55.999Z</time></trkpt><trkpt lat="43.56793494644661" lon="11.288567341610378"><ele>452.0</ele><time>2026-04-03T18:37:56.999Z</time></trkpt><trkpt lat="43.56789172004362" lon="11.288691498545381"><ele>452.0</ele><time>2026-04-03T18:37:57.999Z</time></trkpt><trkpt lat="43.567853759370024" lon="11.288798207272775"><ele>452.00000000000006</ele><time>2026-04-03T18:37:58.999Z</time></trkpt><trkpt lat="43.567808116590385" lon="11.288915091187635"><ele>452.00000000000006</ele><time>2026-04-03T18:37:59.999Z</time></trkpt><trkpt lat="43.56775652447185" lon="11.28903272811472"><ele>452.0</ele><time>2026-04-03T18:38:00.999Z</time></trkpt><trkpt lat="43.567699312464995" lon="11.28913606838809"><ele>452.0</ele><time>2026-04-03T18:38:01.999Z</time></trkpt><trkpt lat="43.567633474551904" lon="11.28923567614081"><ele>452.0</ele><time>2026-04-03T18:38:02.999Z</time></trkpt><trkpt lat="43.56756540551748" lon="11.28933554547699"><ele>452.00000000000006</ele><time>2026-04-03T18:38:03.999Z</time></trkpt><trkpt lat="43.56749476688265" lon="11.289439185126021"><ele>452.00000000000006</ele><time>2026-04-03T18:38:04.999Z</time></trkpt><trkpt lat="43.56742523904216" lon="11.289544078934831"><ele>452.0</ele><time>2026-04-03T18:38:05.999Z</time></trkpt><trkpt lat="43.56736048640778" lon="11.289657737140038"><ele>452.0</ele><time>2026-04-03T18:38:06.999Z</time></trkpt><trkpt lat="43.56730335172946" lon="11.289765366141024"><ele>452.40000000000003</ele><time>2026-04-03T18:38:07.999Z</time></trkpt><trkpt lat="43.567243346284" lon="11.28986415122593"><ele>452.80000000000007</ele><time>2026-04-03T18:38:08.999Z</time></trkpt><trkpt lat="43.56716951324634" lon="11.289941359754703"><ele>453.2</ele><time>2026-04-03T18:38:09.999Z</time></trkpt><trkpt lat="43.56708634639159" lon="11.289985616336478"><ele>453.6</ele><time>2026-04-03T18:38:10.999Z</time></trkpt><trkpt lat="43.56699190524806" lon="11.290004448921419"><ele>454.0</ele><time>2026-04-03T18:38:11.999Z</time></trkpt><trkpt lat="43.56689080195864" lon="11.290007022110233"><ele>454.0</ele><time>2026-04-03T18:38:12.999Z</time></trkpt><trkpt lat="43.56679082469911" lon="11.290030108736062"><ele>454.0</ele><time>2026-04-03T18:38:13.999Z</time></trkpt><trkpt lat="43.56668901927121" lon="11.290034978056768"><ele>454.0</ele><time>2026-04-03T18:38:14.999Z</time></trkpt><trkpt lat="43.56658478111093" lon="11.290058121022177"><ele>454.0</ele><time>2026-04-03T18:38:15.999Z</time></trkpt><trkpt lat="43.56648332349843" lon="11.290092432602652"><ele>454.0</ele><time>2026-04-03T18:38:16.999Z</time></trkpt><trkpt lat="43.56638190146636" lon="11.290115310978225"><ele>454.0</ele><time>2026-04-03T18:38:17.999Z</time></trkpt><trkpt lat="43.56628389662139" lon="11.290159138162453"><ele>454.0</ele><time>2026-04-03T18:38:18.999Z</time></trkpt><trkpt lat="43.5661907026477" lon="11.290203900484189"><ele>454.0</ele><time>2026-04-03T18:38:19.999Z</time></trkpt><trkpt lat="43.56611509126311" lon="11.290258709105265"><ele>454.0</ele><time>2026-04-03T18:38:20.999Z</time></trkpt><trkpt lat="43.56603109406791" lon="11.290254118177598"><ele>454.0</ele><time>2026-04-03T18:38:21.999Z</time></trkpt><trkpt lat="43.56596297889623" lon="11.29019039083109"><ele>454.6666666666667</ele><time>2026-04-03T18:38:22.999Z</time></trkpt><trkpt lat="43.5658890032951" lon="11.290118805969241"><ele>455.33333333333337</ele><time>2026-04-03T18:38:23.999Z</time></trkpt><trkpt lat="43.56580590715395" lon="11.290075289929014"><ele>456.0</ele><time>2026-04-03T18:38:24.999Z</time></trkpt><trkpt lat="43.56572109410972" lon="11.29002184993759"><ele>456.66666666666663</ele><time>2026-04-03T18:38:25.999Z</time></trkpt><trkpt lat="43.56563765611255" lon="11.289995037672947"><ele>457.3333333333333</ele><time>2026-04-03T18:38:26.999Z</time></trkpt><trkpt lat="43.56555613032379" lon="11.289993523704627"><ele>458.0</ele><time>2026-04-03T18:38:27.999Z</time></trkpt><trkpt lat="43.565468830183036" lon="11.289982512861567"><ele>457.99999999999994</ele><time>2026-04-03T18:38:28.999Z</time></trkpt><trkpt lat="43.56538228356665" lon="11.289997038018162"><ele>458.0</ele><time>2026-04-03T18:38:29.999Z</time></trkpt><trkpt lat="43.56530203321336" lon="11.290028392999428"><ele>458.0</ele><time>2026-04-03T18:38:30.999Z</time></trkpt><trkpt lat="43.56523761538925" lon="11.290098606194796"><ele>458.0</ele><time>2026-04-03T18:38:31.999Z</time></trkpt><trkpt lat="43.5651850282358" lon="11.290212779111911"><ele>457.99999999999994</ele><time>2026-04-03T18:38:32.999Z</time></trkpt><trkpt lat="43.565127317916705" lon="11.290300129259505"><ele>458.0</ele><time>2026-04-03T18:38:33.999Z</time></trkpt><trkpt lat="43.56506493574813" lon="11.290391011925827"><ele>457.79999999999995</ele><time>2026-04-03T18:38:34.999Z</time></trkpt><trkpt lat="43.56498817607024" lon="11.29047323654012"><ele>457.59999999999997</ele><time>2026-04-03T18:38:35.999Z</time></trkpt><trkpt lat="43.56490091646217" lon="11.290564857195418"><ele>457.40000000000003</ele><time>2026-04-03T18:38:36.999Z</time></trkpt><trkpt lat="43.564800826036766" lon="11.290660924718088"><ele>457.20000000000005</ele><time>2026-04-03T18:38:37.999Z</time></trkpt><trkpt lat="43.56470519985591" lon="11.290738118941837"><ele>457.0</ele><time>2026-04-03T18:38:38.999Z</time></trkpt><trkpt lat="43.56461483773699" lon="11.290831866942947"><ele>456.8</ele><time>2026-04-03T18:38:39.999Z</time></trkpt><trkpt lat="43.5645291361737" lon="11.290897692151487"><ele>456.6</ele><time>2026-04-03T18:38:40.999Z</time></trkpt><trkpt lat="43.56444360762033" lon="11.29096836396855"><ele>456.40000000000003</ele><time>2026-04-03T18:38:41.999Z</time></trkpt><trkpt lat="43.56436080884159" lon="11.291039041545295"><ele>456.20000000000005</ele><time>2026-04-03T18:38:42.999Z</time></trkpt><trkpt lat="43.564272496128055" lon="11.291094821983556"><ele>456.0</ele><time>2026-04-03T18:38:44Z</time></trkpt><trkpt lat="43.56421319797666" lon="11.291207437696617"><ele>456.0</ele><time>2026-04-03T18:38:45Z</time></trkpt><trkpt lat="43.564204995133366" lon="11.291356050438175"><ele>456.0</ele><time>2026-04-03T18:38:46Z</time></trkpt><trkpt lat="43.56428821753412" lon="11.291483810037422"><ele>456.0</ele><time>2026-04-03T18:38:47Z</time></trkpt><trkpt lat="43.56430293897844" lon="11.291607154033919"><ele>456.0</ele><time>2026-04-03T18:38:48Z</time></trkpt><trkpt lat="43.56430019632638" lon="11.29170664955651"><ele>456.0</ele><time>2026-04-03T18:38:49Z</time></trkpt><trkpt lat="43.56427548058135" lon="11.291810779609623"><ele>457.4</ele><time>2026-04-03T18:38:50Z</time></trkpt><trkpt lat="43.564227806852884" lon="11.291912813680774"><ele>458.8</ele><time>2026-04-03T18:38:51Z</time></trkpt><trkpt lat="43.56412942563316" lon="11.291931539143278"><ele>460.19999999999993</ele><time>2026-04-03T18:38:52Z</time></trkpt><trkpt lat="43.56403731707526" lon="11.291940768376348"><ele>461.59999999999997</ele><time>2026-04-03T18:38:53Z</time></trkpt><trkpt lat="43.56393149881593" lon="11.291962042053735"><ele>463.0</ele><time>2026-04-03T18:38:54Z</time></trkpt><trkpt lat="43.56382470984336" lon="11.291996772090426"><ele>463.0</ele><time>2026-04-03T18:38:55Z</time></trkpt><trkpt lat="43.563718488388744" lon="11.292045076701722"><ele>463.0</ele><time>2026-04-03T18:38:56Z</time></trkpt><trkpt lat="43.56361138633376" lon="11.2921089344253"><ele>463.0</ele><time>2026-04-03T18:38:57Z</time></trkpt><trkpt lat="43.56350797406385" lon="11.292176668788974"><ele>463.0</ele><time>2026-04-03T18:38:58Z</time></trkpt><trkpt lat="43.563408021239255" lon="11.29225156253404"><ele>465.59999999999997</ele><time>2026-04-03T18:38:59Z</time></trkpt><trkpt lat="43.56332281954066" lon="11.292321408009537"><ele>468.19999999999993</ele><time>2026-04-03T18:39:00Z</time></trkpt><trkpt lat="43.56323194953299" lon="11.292412773349815"><ele>470.8</ele><time>2026-04-03T18:39:01Z</time></trkpt><trkpt lat="43.56315269229616" lon="11.292506953086512"><ele>473.4</ele><time>2026-04-03T18:39:02Z</time></trkpt><trkpt lat="43.56307881185655" lon="11.292607819702674"><ele>476.0</ele><time>2026-04-03T18:39:03Z</time></trkpt><trkpt lat="43.56301043833143" lon="11.292716003050757"><ele>476.0</ele><time>2026-04-03T18:39:04Z</time></trkpt><trkpt lat="43.56294284305746" lon="11.292826418875217"><ele>476.0</ele><time>2026-04-03T18:39:05Z</time></trkpt><trkpt lat="43.56287776388929" lon="11.292937496338334"><ele>476.0</ele><time>2026-04-03T18:39:06Z</time></trkpt><trkpt lat="43.562818970019606" lon="11.293051474220789"><ele>476.0</ele><time>2026-04-03T18:39:07Z</time></trkpt><trkpt lat="43.562761857026324" lon="11.293172381553852"><ele>476.0</ele><time>2026-04-03T18:39:08Z</time></trkpt><trkpt lat="43.56270854029311" lon="11.293293068484404"><ele>478.4</ele><time>2026-04-03T18:39:09Z</time></trkpt><trkpt lat="43.56266139461307" lon="11.293413423644234"><ele>480.8</ele><time>2026-04-03T18:39:10Z</time></trkpt><trkpt lat="43.562616171840666" lon="11.293536099450844"><ele>483.19999999999993</ele><time>2026-04-03T18:39:11Z</time></trkpt><trkpt lat="43.56257184421299" lon="11.293660121755037"><ele>485.59999999999997</ele><time>2026-04-03T18:39:12Z</time></trkpt><trkpt lat="43.5625288549402" lon="11.293787803617345"><ele>488.0</ele><time>2026-04-03T18:39:13Z</time></trkpt><trkpt lat="43.562488901669134" lon="11.29391513325735"><ele>488.79999999999995</ele><time>2026-04-03T18:39:14Z</time></trkpt><trkpt lat="43.56245244613262" lon="11.294048781725282"><ele>489.59999999999997</ele><time>2026-04-03T18:39:15Z</time></trkpt><trkpt lat="43.56241681841243" lon="11.294183472718904"><ele>490.40000000000003</ele><time>2026-04-03T18:39:16Z</time></trkpt><trkpt lat="43.5623823321539" lon="11.294318374870869"><ele>491.20000000000005</ele><time>2026-04-03T18:39:17Z</time></trkpt><trkpt lat="43.56235104393189" lon="11.29445282215348"><ele>492.0</ele><time>2026-04-03T18:39:18Z</time></trkpt><trkpt lat="43.56232139549913" lon="11.294595034024228"><ele>492.0</ele><time>2026-04-03T18:39:19Z</time></trkpt><trkpt lat="43.56229720819187" lon="11.294731579292435"><ele>492.00000000000006</ele><time>2026-04-03T18:39:20Z</time></trkpt><trkpt lat="43.56227993417542" lon="11.29486226579537"><ele>492.00000000000006</ele><time>2026-04-03T18:39:21Z</time></trkpt><trkpt lat="43.56226958183016" lon="11.29499156393429"><ele>492.0</ele><time>2026-04-03T18:39:22Z</time></trkpt><trkpt lat="43.5622594345452" lon="11.295126371166534"><ele>492.0</ele><time>2026-04-03T18:39:23Z</time></trkpt><trkpt lat="43.562249770753326" lon="11.295251316186166"><ele>492.5</ele><time>2026-04-03T18:39:24Z</time></trkpt><trkpt lat="43.56222257396516" lon="11.295365445634"><ele>493.0</ele><time>2026-04-03T18:39:25Z</time></trkpt><trkpt lat="43.5621763339536" lon="11.29545544304575"><ele>493.5</ele><time>2026-04-03T18:39:26Z</time></trkpt><trkpt lat="43.56210064668298" lon="11.295477998460365"><ele>494.0</ele><time>2026-04-03T18:39:27Z</time></trkpt><trkpt lat="43.56201364866435" lon="11.29550530734079"><ele>494.5</ele><time>2026-04-03T18:39:28Z</time></trkpt><trkpt lat="43.561922989057244" lon="11.295532107599206"><ele>495.0</ele><time>2026-04-03T18:39:29Z</time></trkpt><trkpt lat="43.561839219072496" lon="11.295573342358434"><ele>497.8</ele><time>2026-04-03T18:39:30Z</time></trkpt><trkpt lat="43.56174913823268" lon="11.295601222097547"><ele>500.6</ele><time>2026-04-03T18:39:31Z</time></trkpt><trkpt lat="43.56166057431118" lon="11.295646867785578"><ele>503.4</ele><time>2026-04-03T18:39:32Z</time></trkpt><trkpt lat="43.56156399744615" lon="11.295691307766923"><ele>506.2</ele><time>2026-04-03T18:39:33Z</time></trkpt><trkpt lat="43.56147959050069" lon="11.295771094669549"><ele>509.0</ele><time>2026-04-03T18:39:34Z</time></trkpt><trkpt lat="43.561400851660785" lon="11.295850802258949"><ele>509.0</ele><time>2026-04-03T18:39:35Z</time></trkpt><trkpt lat="43.56131394334302" lon="11.295938584579181"><ele>509.0</ele><time>2026-04-03T18:39:36Z</time></trkpt><trkpt lat="43.561218860252524" lon="11.296025051220877"><ele>509.0</ele><time>2026-04-03T18:39:37Z</time></trkpt><trkpt lat="43.56110387961929" lon="11.296115694782864"><ele>509.0</ele><time>2026-04-03T18:39:38Z</time></trkpt><trkpt lat="43.560975476886135" lon="11.29622608600939"><ele>508.0</ele><time>2026-04-03T18:39:39Z</time></trkpt><trkpt lat="43.560849194179426" lon="11.29629415673019"><ele>507.0</ele><time>2026-04-03T18:39:40Z</time></trkpt><trkpt lat="43.560729216332184" lon="11.296343297655874"><ele>506.0</ele><time>2026-04-03T18:39:41Z</time></trkpt><trkpt lat="43.56061988763352" lon="11.296421537952297"><ele>505.0</ele><time>2026-04-03T18:39:42Z</time></trkpt><trkpt lat="43.560505161070616" lon="11.296485205044656"><ele>505.0</ele><time>2026-04-03T18:39:43Z</time></trkpt><trkpt lat="43.56038267111026" lon="11.296543845538725"><ele>505.0</ele><time>2026-04-03T18:39:44Z</time></trkpt><trkpt lat="43.560272546623374" lon="11.296599815426559"><ele>505.0</ele><time>2026-04-03T18:39:45Z</time></trkpt><trkpt lat="43.56016069527217" lon="11.296663285321914"><ele>505.0</ele><time>2026-04-03T18:39:46Z</time></trkpt><trkpt lat="43.5600376074949" lon="11.296680964930966"><ele>504.4</ele><time>2026-04-03T18:39:47Z</time></trkpt><trkpt lat="43.55992806343869" lon="11.296689853241148"><ele>503.8</ele><time>2026-04-03T18:39:48Z</time></trkpt><trkpt lat="43.55982118360886" lon="11.296688017380124"><ele>503.20000000000005</ele><time>2026-04-03T18:39:49Z</time></trkpt><trkpt lat="43.559713213074986" lon="11.296684621847433"><ele>502.6</ele><time>2026-04-03T18:39:50Z</time></trkpt><trkpt lat="43.55959654194461" lon="11.296703909361415"><ele>502.0</ele><time>2026-04-03T18:39:51Z</time></trkpt><trkpt lat="43.55947407072036" lon="11.296693836956527"><ele>502.0</ele><time>2026-04-03T18:39:52Z</time></trkpt><trkpt lat="43.559352808092505" lon="11.296713745174802"><ele>502.0</ele><time>2026-04-03T18:39:53Z</time></trkpt><trkpt lat="43.559228224684546" lon="11.296757109288718"><ele>502.0</ele><time>2026-04-03T18:39:54Z</time></trkpt><trkpt lat="43.55910654878421" lon="11.296787349792519"><ele>502.0</ele><time>2026-04-03T18:39:54.999Z</time></trkpt><trkpt lat="43.55899154807264" lon="11.296860307255843"><ele>502.0</ele><time>2026-04-03T18:39:55.999Z</time></trkpt><trkpt lat="43.558883382391656" lon="11.296899499975106"><ele>502.00000000000006</ele><time>2026-04-03T18:39:56.999Z</time></trkpt><trkpt lat="43.558782252081116" lon="11.296928320571398"><ele>502.00000000000006</ele><time>2026-04-03T18:39:57.999Z</time></trkpt><trkpt lat="43.55868558056592" lon="11.296948323679837"><ele>502.0</ele><time>2026-04-03T18:39:58.999Z</time></trkpt><trkpt lat="43.558584366450106" lon="11.296964482105267"><ele>502.0</ele><time>2026-04-03T18:39:59.999Z</time></trkpt><trkpt lat="43.55848000737025" lon="11.296982281796543"><ele>502.0</ele><time>2026-04-03T18:40:00.999Z</time></trkpt><trkpt lat="43.55838173447446" lon="11.29701061771643"><ele>502.00000000000006</ele><time>2026-04-03T18:40:01.999Z</time></trkpt><trkpt lat="43.55828642620251" lon="11.297076317604677"><ele>502.00000000000006</ele><time>2026-04-03T18:40:02.999Z</time></trkpt><trkpt lat="43.55817851695111" lon="11.29711071563931"><ele>502.0</ele><time>2026-04-03T18:40:03.999Z</time></trkpt><trkpt lat="43.55807758970302" lon="11.297172260208255"><ele>502.0</ele><time>2026-04-03T18:40:04.999Z</time></trkpt><trkpt lat="43.557983126706105" lon="11.297231527278965"><ele>501.40000000000003</ele><time>2026-04-03T18:40:05.999Z</time></trkpt><trkpt lat="43.557894211634995" lon="11.297312120998127"><ele>500.80000000000007</ele><time>2026-04-03T18:40:06.999Z</time></trkpt><trkpt lat="43.55779838239577" lon="11.297364103345597"><ele>500.2</ele><time>2026-04-03T18:40:07.999Z</time></trkpt><trkpt lat="43.557706521453774" lon="11.297430369314142"><ele>499.6</ele><time>2026-04-03T18:40:08.999Z</time></trkpt><trkpt lat="43.557615041030694" lon="11.297434045943188"><ele>499.0</ele><time>2026-04-03T18:40:09.999Z</time></trkpt><trkpt lat="43.55752780367155" lon="11.297416879532578"><ele>499.0</ele><time>2026-04-03T18:40:10.999Z</time></trkpt><trkpt lat="43.55743077493305" lon="11.297388461098553"><ele>499.0</ele><time>2026-04-03T18:40:11.999Z</time></trkpt><trkpt lat="43.557331722464944" lon="11.297368728739789"><ele>499.0</ele><time>2026-04-03T18:40:12.999Z</time></trkpt><trkpt lat="43.557230838225244" lon="11.297367517293985"><ele>499.0</ele><time>2026-04-03T18:40:13.999Z</time></trkpt><trkpt lat="43.55712538036643" lon="11.29738292380419"><ele>499.0</ele><time>2026-04-03T18:40:14.999Z</time></trkpt><trkpt lat="43.55702178702338" lon="11.297410225933154"><ele>497.5</ele><time>2026-04-03T18:40:15.999Z</time></trkpt><trkpt lat="43.55690900977851" lon="11.297447465266288"><ele>496.0</ele><time>2026-04-03T18:40:16.999Z</time></trkpt><trkpt lat="43.55679478875715" lon="11.297493248657071"><ele>494.5</ele><time>2026-04-03T18:40:17.999Z</time></trkpt><trkpt lat="43.55668004758627" lon="11.297538608554087"><ele>493.0</ele><time>2026-04-03T18:40:18.999Z</time></trkpt><trkpt lat="43.556573630858516" lon="11.297574339750945"><ele>493.0</ele><time>2026-04-03T18:40:19.999Z</time></trkpt><trkpt lat="43.556464567665586" lon="11.297596107528326"><ele>492.99999999999994</ele><time>2026-04-03T18:40:20.999Z</time></trkpt><trkpt lat="43.556356200702005" lon="11.297609193024279"><ele>492.99999999999994</ele><time>2026-04-03T18:40:21.999Z</time></trkpt><trkpt lat="43.556251712504846" lon="11.297624101302288"><ele>493.0</ele><time>2026-04-03T18:40:22.999Z</time></trkpt><trkpt lat="43.55615164886242" lon="11.2976604144827"><ele>493.0</ele><time>2026-04-03T18:40:23.999Z</time></trkpt><trkpt lat="43.55604850727564" lon="11.297683256267488"><ele>491.79999999999995</ele><time>2026-04-03T18:40:24.999Z</time></trkpt><trkpt lat="43.5559442753773" lon="11.297711236731347"><ele>490.59999999999997</ele><time>2026-04-03T18:40:25.999Z</time></trkpt><trkpt lat="43.555842011490526" lon="11.29773804859365"><ele>489.40000000000003</ele><time>2026-04-03T18:40:26.999Z</time></trkpt><trkpt lat="43.555743274139495" lon="11.297767020697492"><ele>488.20000000000005</ele><time>2026-04-03T18:40:27.999Z</time></trkpt><trkpt lat="43.55564170593633" lon="11.297797067255548"><ele>487.0</ele><time>2026-04-03T18:40:28.999Z</time></trkpt><trkpt lat="43.55553738319159" lon="11.297831240531245"><ele>487.0</ele><time>2026-04-03T18:40:29.999Z</time></trkpt><trkpt lat="43.555423744533535" lon="11.297842650471486"><ele>487.0</ele><time>2026-04-03T18:40:30.999Z</time></trkpt><trkpt lat="43.55530743067529" lon="11.297878995416703"><ele>487.0</ele><time>2026-04-03T18:40:31.999Z</time></trkpt><trkpt lat="43.55519137030809" lon="11.297918587359764"><ele>487.0</ele><time>2026-04-03T18:40:32.999Z</time></trkpt><trkpt lat="43.55508636683657" lon="11.297964624227498"><ele>485.75</ele><time>2026-04-03T18:40:33.999Z</time></trkpt><trkpt lat="43.554982148146784" lon="11.298018323828234"><ele>484.5</ele><time>2026-04-03T18:40:34.999Z</time></trkpt><trkpt lat="43.55488041275763" lon="11.298083558666042"><ele>483.25</ele><time>2026-04-03T18:40:35.999Z</time></trkpt><trkpt lat="43.55479083423808" lon="11.298173727541993"><ele>482.0</ele><time>2026-04-03T18:40:36.999Z</time></trkpt><trkpt lat="43.554680905368336" lon="11.298237995417"><ele>482.0</ele><time>2026-04-03T18:40:37.999Z</time></trkpt><trkpt lat="43.55458239063231" lon="11.298340808869089"><ele>482.0</ele><time>2026-04-03T18:40:38.999Z</time></trkpt><trkpt lat="43.554501375762506" lon="11.298467650908941"><ele>482.0</ele><time>2026-04-03T18:40:39.999Z</time></trkpt><trkpt lat="43.55441347302761" lon="11.29858232352844"><ele>482.0</ele><time>2026-04-03T18:40:40.999Z</time></trkpt><trkpt lat="43.5543230089209" lon="11.298685666184431"><ele>482.0</ele><time>2026-04-03T18:40:41.999Z</time></trkpt><trkpt lat="43.554212822405624" lon="11.298747905309968"><ele>482.0</ele><time>2026-04-03T18:40:42.999Z</time></trkpt><trkpt lat="43.55410525434565" lon="11.298799965350444"><ele>482.0</ele><time>2026-04-03T18:40:43.999Z</time></trkpt><trkpt lat="43.55399789282575" lon="11.29885026917316"><ele>482.0</ele><time>2026-04-03T18:40:44.999Z</time></trkpt><trkpt lat="43.55387833100304" lon="11.298821716087264"><ele>482.0</ele><time>2026-04-03T18:40:45.999Z</time></trkpt><trkpt lat="43.55375974584644" lon="11.298836087986066"><ele>482.0</ele><time>2026-04-03T18:40:46.999Z</time></trkpt><trkpt lat="43.553638092023476" lon="11.298830355667352"><ele>482.0</ele><time>2026-04-03T18:40:47.999Z</time></trkpt><trkpt lat="43.553526182077036" lon="11.29884258836264"><ele>482.0</ele><time>2026-04-03T18:40:48.999Z</time></trkpt><trkpt lat="43.5534140230579" lon="11.298851591232598"><ele>483.0</ele><time>2026-04-03T18:40:50Z</time></trkpt><trkpt lat="43.55330320953499" lon="11.298901322246502"><ele>484.0</ele><time>2026-04-03T18:40:51Z</time></trkpt><trkpt lat="43.55320182871042" lon="11.29897531249315"><ele>485.0</ele><time>2026-04-03T18:40:52Z</time></trkpt><trkpt lat="43.553113253583525" lon="11.299082706250884"><ele>486.0</ele><time>2026-04-03T18:40:53Z</time></trkpt><trkpt lat="43.55304778321668" lon="11.299208478134359"><ele>488.5</ele><time>2026-04-03T18:40:54Z</time></trkpt><trkpt lat="43.552994127136074" lon="11.299342961451586"><ele>491.0</ele><time>2026-04-03T18:40:55Z</time></trkpt><trkpt lat="43.552943195051675" lon="11.299478455958619"><ele>493.5</ele><time>2026-04-03T18:40:56Z</time></trkpt><trkpt lat="43.55289237692024" lon="11.299618763870797"><ele>496.0</ele><time>2026-04-03T18:40:57Z</time></trkpt><trkpt lat="43.55284012963392" lon="11.299761364725011"><ele>497.25</ele><time>2026-04-03T18:40:58Z</time></trkpt><trkpt lat="43.5527835563349" lon="11.299901152266449"><ele>498.5</ele><time>2026-04-03T18:40:59Z</time></trkpt><trkpt lat="43.55272287987726" lon="11.30003483286479"><ele>499.75</ele><time>2026-04-03T18:41:00Z</time></trkpt><trkpt lat="43.552661416761" lon="11.300168183277432"><ele>501.0</ele><time>2026-04-03T18:41:01Z</time></trkpt><trkpt lat="43.55259873069692" lon="11.30029784329573"><ele>501.0</ele><time>2026-04-03T18:41:02Z</time></trkpt><trkpt lat="43.55253808321872" lon="11.300428926271183"><ele>501.0</ele><time>2026-04-03T18:41:03Z</time></trkpt><trkpt lat="43.55248104194638" lon="11.300559989931918"><ele>501.0</ele><time>2026-04-03T18:41:04Z</time></trkpt><trkpt lat="43.55242593513317" lon="11.30069177839869"><ele>501.0</ele><time>2026-04-03T18:41:05Z</time></trkpt><trkpt lat="43.55237138678953" lon="11.300821178734978"><ele>501.0</ele><time>2026-04-03T18:41:06Z</time></trkpt><trkpt lat="43.55231743258982" lon="11.300951838988578"><ele>501.0</ele><time>2026-04-03T18:41:07Z</time></trkpt><trkpt lat="43.55226541982893" lon="11.301086200263175"><ele>501.0</ele><time>2026-04-03T18:41:08Z</time></trkpt><trkpt lat="43.5522186014148" lon="11.301232963151678"><ele>501.0</ele><time>2026-04-03T18:41:09Z</time></trkpt><trkpt lat="43.552180574099594" lon="11.301382431410936"><ele>501.0</ele><time>2026-04-03T18:41:10Z</time></trkpt><trkpt lat="43.55214503798196" lon="11.301528977269422"><ele>500.20000000000005</ele><time>2026-04-03T18:41:11Z</time></trkpt><trkpt lat="43.55210812723792" lon="11.301666670254988"><ele>499.40000000000003</ele><time>2026-04-03T18:41:12Z</time></trkpt><trkpt lat="43.55206562641186" lon="11.301810668173855"><ele>498.6</ele><time>2026-04-03T18:41:13Z</time></trkpt><trkpt lat="43.552016509921145" lon="11.301948550035142"><ele>497.8</ele><time>2026-04-03T18:41:14Z</time></trkpt><trkpt lat="43.55196258973574" lon="11.302086623481493"><ele>497.0</ele><time>2026-04-03T18:41:15Z</time></trkpt><trkpt lat="43.55191153981721" lon="11.30221558916048"><ele>497.8</ele><time>2026-04-03T18:41:16Z</time></trkpt><trkpt lat="43.55185796027705" lon="11.302344069988258"><ele>498.6</ele><time>2026-04-03T18:41:17Z</time></trkpt><trkpt lat="43.55181385794005" lon="11.3024776849906"><ele>499.40000000000003</ele><time>2026-04-03T18:41:18Z</time></trkpt><trkpt lat="43.55175267761782" lon="11.302613722616233"><ele>500.20000000000005</ele><time>2026-04-03T18:41:19Z</time></trkpt><trkpt lat="43.55167248124188" lon="11.302724411561014"><ele>501.0</ele><time>2026-04-03T18:41:20Z</time></trkpt><trkpt lat="43.55159236460679" lon="11.30283559821329"><ele>501.0</ele><time>2026-04-03T18:41:21Z</time></trkpt><trkpt lat="43.5515062442926" lon="11.302919825388146"><ele>501.0</ele><time>2026-04-03T18:41:22Z</time></trkpt><trkpt lat="43.55141656997293" lon="11.302999850730764"><ele>501.0</ele><time>2026-04-03T18:41:23Z</time></trkpt><trkpt lat="43.55132958778405" lon="11.303069199746487"><ele>501.0</ele><time>2026-04-03T18:41:24Z</time></trkpt><trkpt lat="43.55124931989193" lon="11.303151495180261"><ele>501.0</ele><time>2026-04-03T18:41:25Z</time></trkpt><trkpt lat="43.55115039801151" lon="11.303226273701265"><ele>500.0</ele><time>2026-04-03T18:41:26Z</time></trkpt><trkpt lat="43.55104867639388" lon="11.303339797606547"><ele>499.0</ele><time>2026-04-03T18:41:27Z</time></trkpt><trkpt lat="43.55094726061068" lon="11.303451603052673"><ele>498.0</ele><time>2026-04-03T18:41:28Z</time></trkpt><trkpt lat="43.550843622894185" lon="11.303542326058801"><ele>497.0</ele><time>2026-04-03T18:41:29Z</time></trkpt><trkpt lat="43.550750105991234" lon="11.303656810007858"><ele>497.0</ele><time>2026-04-03T18:41:30Z</time></trkpt><trkpt lat="43.550656644252534" lon="11.303771226380652"><ele>497.0</ele><time>2026-04-03T18:41:31Z</time></trkpt><trkpt lat="43.55055733876498" lon="11.303892796710764"><ele>497.0</ele><time>2026-04-03T18:41:32Z</time></trkpt><trkpt lat="43.550458679558524" lon="11.304011314484805"><ele>497.0</ele><time>2026-04-03T18:41:33Z</time></trkpt><trkpt lat="43.5503679551627" lon="11.304119989036474"><ele>495.8</ele><time>2026-04-03T18:41:34Z</time></trkpt><trkpt lat="43.55028116078633" lon="11.304216115194928"><ele>494.6</ele><time>2026-04-03T18:41:35Z</time></trkpt><trkpt lat="43.550191869991686" lon="11.30431254469789"><ele>493.40000000000003</ele><time>2026-04-03T18:41:36Z</time></trkpt><trkpt lat="43.5501051484229" lon="11.304400500273006"><ele>492.20000000000005</ele><time>2026-04-03T18:41:37Z</time></trkpt><trkpt lat="43.55001850278097" lon="11.304483659121939"><ele>491.0</ele><time>2026-04-03T18:41:38Z</time></trkpt><trkpt lat="43.54993083123081" lon="11.304570811456395"><ele>491.0</ele><time>2026-04-03T18:41:39Z</time></trkpt><trkpt lat="43.549849007991284" lon="11.30465190950223"><ele>491.0</ele><time>2026-04-03T18:41:40Z</time></trkpt><trkpt lat="43.54976448552888" lon="11.304741840662981"><ele>491.0</ele><time>2026-04-03T18:41:41Z</time></trkpt><trkpt lat="43.54968507290873" lon="11.304825816673107"><ele>491.0</ele><time>2026-04-03T18:41:42Z</time></trkpt><trkpt lat="43.5496171858618" lon="11.304937560687735"><ele>491.0</ele><time>2026-04-03T18:41:43Z</time></trkpt><trkpt lat="43.5495280124728" lon="11.305022827582615"><ele>488.25</ele><time>2026-04-03T18:41:44Z</time></trkpt><trkpt lat="43.54943198642957" lon="11.305141655031974"><ele>485.5</ele><time>2026-04-03T18:41:45Z</time></trkpt><trkpt lat="43.54933562846673" lon="11.305258724352896"><ele>482.75</ele><time>2026-04-03T18:41:46Z</time></trkpt><trkpt lat="43.54925079010488" lon="11.305366460595334"><ele>480.0</ele><time>2026-04-03T18:41:47Z</time></trkpt><trkpt lat="43.549171615037686" lon="11.30547626508875"><ele>478.0</ele><time>2026-04-03T18:41:48Z</time></trkpt><trkpt lat="43.54909531742223" lon="11.305584787029886"><ele>476.0</ele><time>2026-04-03T18:41:49Z</time></trkpt><trkpt lat="43.54901978558764" lon="11.305691339875043"><ele>474.0</ele><time>2026-04-03T18:41:50Z</time></trkpt><trkpt lat="43.54894341166368" lon="11.305795459078647"><ele>472.0</ele><time>2026-04-03T18:41:51Z</time></trkpt><trkpt lat="43.54886710940814" lon="11.305899584801795"><ele>470.0</ele><time>2026-04-03T18:41:52Z</time></trkpt><trkpt lat="43.54878975769415" lon="11.306005869390887"><ele>470.0</ele><time>2026-04-03T18:41:53Z</time></trkpt><trkpt lat="43.54870972508715" lon="11.306108982634427"><ele>470.0</ele><time>2026-04-03T18:41:54Z</time></trkpt><trkpt lat="43.54862354651707" lon="11.306219136114814"><ele>470.0</ele><time>2026-04-03T18:41:55Z</time></trkpt><trkpt lat="43.54854387191253" lon="11.306321001004147"><ele>470.0</ele><time>2026-04-03T18:41:56Z</time></trkpt><trkpt lat="43.54847069594882" lon="11.30640792497702"><ele>470.0</ele><time>2026-04-03T18:41:57Z</time></trkpt><trkpt lat="43.54840479666094" lon="11.306488577493601"><ele>470.66666666666663</ele><time>2026-04-03T18:41:58Z</time></trkpt><trkpt lat="43.548338201353985" lon="11.306553865033564"><ele>471.3333333333333</ele><time>2026-04-03T18:41:59Z</time></trkpt><trkpt lat="43.54827650193997" lon="11.30661521929926"><ele>472.0</ele><time>2026-04-03T18:42:00Z</time></trkpt><trkpt lat="43.54819936749584" lon="11.306621089115692"><ele>472.66666666666663</ele><time>2026-04-03T18:42:01Z</time></trkpt><trkpt lat="43.54811825566307" lon="11.306556502654942"><ele>473.3333333333333</ele><time>2026-04-03T18:42:02Z</time></trkpt><trkpt lat="43.54803318850788" lon="11.306514577254873"><ele>474.0</ele><time>2026-04-03T18:42:02.999Z</time></trkpt><trkpt lat="43.54795134983255" lon="11.306441362961738"><ele>472.6</ele><time>2026-04-03T18:42:03.999Z</time></trkpt><trkpt lat="43.54787052227093" lon="11.306382183661134"><ele>471.2</ele><time>2026-04-03T18:42:04.999Z</time></trkpt><trkpt lat="43.547785116195406" lon="11.306355109974916"><ele>469.80000000000007</ele><time>2026-04-03T18:42:05.999Z</time></trkpt><trkpt lat="43.54769640975413" lon="11.30636716266268"><ele>468.40000000000003</ele><time>2026-04-03T18:42:06.999Z</time></trkpt><trkpt lat="43.54760637449525" lon="11.306396598591174"><ele>467.0</ele><time>2026-04-03T18:42:07.999Z</time></trkpt><trkpt lat="43.54751368509029" lon="11.30642270265352"><ele>466.99999999999994</ele><time>2026-04-03T18:42:08.999Z</time></trkpt><trkpt lat="43.54742108965114" lon="11.306460867280586"><ele>467.0</ele><time>2026-04-03T18:42:09.999Z</time></trkpt><trkpt lat="43.54733908739017" lon="11.306504662886862"><ele>467.0</ele><time>2026-04-03T18:42:10.999Z</time></trkpt><trkpt lat="43.547265997787775" lon="11.306557243926008"><ele>467.0</ele><time>2026-04-03T18:42:11.999Z</time></trkpt><trkpt lat="43.547188117621886" lon="11.306616469557595"><ele>466.99999999999994</ele><time>2026-04-03T18:42:12.999Z</time></trkpt><trkpt lat="43.547108187979184" lon="11.306673527532135"><ele>467.0</ele><time>2026-04-03T18:42:13.999Z</time></trkpt><trkpt lat="43.54702874733612" lon="11.306727204415015"><ele>464.20000000000005</ele><time>2026-04-03T18:42:14.999Z</time></trkpt><trkpt lat="43.54695074279986" lon="11.306775912192506"><ele>461.40000000000003</ele><time>2026-04-03T18:42:15.999Z</time></trkpt><trkpt lat="43.546866521833365" lon="11.306814264386036"><ele>458.59999999999997</ele><time>2026-04-03T18:42:16.999Z</time></trkpt><trkpt lat="43.5468004460474" lon="11.306901409082391"><ele>455.79999999999995</ele><time>2026-04-03T18:42:17.999Z</time></trkpt><trkpt lat="43.54675745470624" lon="11.307013980897633"><ele>453.0</ele><time>2026-04-03T18:42:18.999Z</time></trkpt><trkpt lat="43.54672579131692" lon="11.307133348792577"><ele>453.59999999999997</ele><time>2026-04-03T18:42:19.999Z</time></trkpt><trkpt lat="43.546694875468376" lon="11.307253613662533"><ele>454.19999999999993</ele><time>2026-04-03T18:42:20.999Z</time></trkpt><trkpt lat="43.546658725067154" lon="11.307390577037964"><ele>454.8</ele><time>2026-04-03T18:42:21.999Z</time></trkpt><trkpt lat="43.546620915948225" lon="11.307533823934028"><ele>455.4</ele><time>2026-04-03T18:42:22.999Z</time></trkpt><trkpt lat="43.54658018719624" lon="11.30765174622814"><ele>456.0</ele><time>2026-04-03T18:42:23.999Z</time></trkpt><trkpt lat="43.5465277718242" lon="11.307747077571042"><ele>456.0</ele><time>2026-04-03T18:42:24.999Z</time></trkpt><trkpt lat="43.54646089778136" lon="11.307819869889192"><ele>456.0</ele><time>2026-04-03T18:42:25.999Z</time></trkpt><trkpt lat="43.54639057081483" lon="11.307891589087049"><ele>456.0</ele><time>2026-04-03T18:42:26.999Z</time></trkpt><trkpt lat="43.54632677534448" lon="11.307973021972886"><ele>456.0</ele><time>2026-04-03T18:42:27.999Z</time></trkpt><trkpt lat="43.5462679498985" lon="11.308066196152119"><ele>456.0</ele><time>2026-04-03T18:42:28.999Z</time></trkpt><trkpt lat="43.54621066761217" lon="11.308167540071347"><ele>456.0</ele><time>2026-04-03T18:42:29.999Z</time></trkpt><trkpt lat="43.546156143988796" lon="11.308264406024733"><ele>454.20000000000005</ele><time>2026-04-03T18:42:30.999Z</time></trkpt><trkpt lat="43.54608477816065" lon="11.308355914135744"><ele>452.40000000000003</ele><time>2026-04-03T18:42:31.999Z</time></trkpt><trkpt lat="43.546000628913156" lon="11.308455982545409"><ele>450.6</ele><time>2026-04-03T18:42:32.999Z</time></trkpt><trkpt lat="43.545919850598494" lon="11.308556092188308"><ele>448.8</ele><time>2026-04-03T18:42:33.999Z</time></trkpt><trkpt lat="43.5458615684166" lon="11.308672544642807"><ele>447.0</ele><time>2026-04-03T18:42:34.999Z</time></trkpt><trkpt lat="43.54581127421824" lon="11.308785420218932"><ele>447.0</ele><time>2026-04-03T18:42:35.999Z</time></trkpt><trkpt lat="43.545759791298906" lon="11.308900963669492"><ele>447.00000000000006</ele><time>2026-04-03T18:42:36.999Z</time></trkpt><trkpt lat="43.545707050084324" lon="11.309014930145098"><ele>447.00000000000006</ele><time>2026-04-03T18:42:37.999Z</time></trkpt><trkpt lat="43.545655736076505" lon="11.309123316878178"><ele>447.0</ele><time>2026-04-03T18:42:38.999Z</time></trkpt><trkpt lat="43.54560351009564" lon="11.309231941869859"><ele>447.0</ele><time>2026-04-03T18:42:39.999Z</time></trkpt><trkpt lat="43.54555458520631" lon="11.309333701328631"><ele>447.1666666666667</ele><time>2026-04-03T18:42:40.999Z</time></trkpt><trkpt lat="43.54550493750136" lon="11.309427513015743"><ele>447.33333333333337</ele><time>2026-04-03T18:42:41.999Z</time></trkpt><trkpt lat="43.5454633207769" lon="11.309515132690851"><ele>447.5</ele><time>2026-04-03T18:42:42.999Z</time></trkpt><trkpt lat="43.54542511703016" lon="11.309623751208143"><ele>447.6666666666667</ele><time>2026-04-03T18:42:43.999Z</time></trkpt><trkpt lat="43.54539891995361" lon="11.309743881297088"><ele>447.83333333333337</ele><time>2026-04-03T18:42:44.999Z</time></trkpt><trkpt lat="43.54538124459636" lon="11.309863768653175"><ele>448.0</ele><time>2026-04-03T18:42:45.999Z</time></trkpt><trkpt lat="43.54537591286884" lon="11.309990873828554"><ele>448.00000000000006</ele><time>2026-04-03T18:42:46.999Z</time></trkpt><trkpt lat="43.5453743136251" lon="11.310117055117868"><ele>448.0</ele><time>2026-04-03T18:42:47.999Z</time></trkpt><trkpt lat="43.54538185184948" lon="11.310230199551706"><ele>448.0</ele><time>2026-04-03T18:42:48.999Z</time></trkpt><trkpt lat="43.54534953638663" lon="11.310331607281377"><ele>448.0</ele><time>2026-04-03T18:42:49.999Z</time></trkpt><trkpt lat="43.54530378061409" lon="11.31043441348257"><ele>448.00000000000006</ele><time>2026-04-03T18:42:50.999Z</time></trkpt><trkpt lat="43.545269678510586" lon="11.310551311692791"><ele>448.0</ele><time>2026-04-03T18:42:51.999Z</time></trkpt><trkpt lat="43.54522785151208" lon="11.310669368126199"><ele>448.0</ele><time>2026-04-03T18:42:52.999Z</time></trkpt><trkpt lat="43.545205539669986" lon="11.31079970879277"><ele>447.99999999999994</ele><time>2026-04-03T18:42:53.999Z</time></trkpt><trkpt lat="43.545182982415206" lon="11.310931482630062"><ele>447.99999999999994</ele><time>2026-04-03T18:42:55Z</time></trkpt><trkpt lat="43.54515811358291" lon="11.311071048873574"><ele>448.0</ele><time>2026-04-03T18:42:56Z</time></trkpt><trkpt lat="43.54513318079312" lon="11.311208276300002"><ele>448.0</ele><time>2026-04-03T18:42:57Z</time></trkpt><trkpt lat="43.54510593168113" lon="11.311356452990825"><ele>448.5</ele><time>2026-04-03T18:42:58Z</time></trkpt><trkpt lat="43.54507792231649" lon="11.311512171111339"><ele>449.0</ele><time>2026-04-03T18:42:59Z</time></trkpt><trkpt lat="43.545019739665484" lon="11.31166485414554"><ele>449.5</ele><time>2026-04-03T18:43:00Z</time></trkpt><trkpt lat="43.54493810880235" lon="11.311809641647587"><ele>450.0</ele><time>2026-04-03T18:43:01Z</time></trkpt><trkpt lat="43.54483055400802" lon="11.311906271684482"><ele>450.0</ele><time>2026-04-03T18:43:02Z</time></trkpt><trkpt lat="43.54473739011237" lon="11.311999775330538"><ele>450.0</ele><time>2026-04-03T18:43:03Z</time></trkpt><trkpt lat="43.54464563949512" lon="11.312091229460664"><ele>450.0</ele><time>2026-04-03T18:43:04Z</time></trkpt><trkpt lat="43.54456211938555" lon="11.312192560510628"><ele>450.0</ele><time>2026-04-03T18:43:05Z</time></trkpt><trkpt lat="43.544469680900725" lon="11.312289139086936"><ele>449.5</ele><time>2026-04-03T18:43:06Z</time></trkpt><trkpt lat="43.54437303106837" lon="11.312383137399886"><ele>449.0</ele><time>2026-04-03T18:43:07Z</time></trkpt><trkpt lat="43.5442702518824" lon="11.312485693499337"><ele>448.5</ele><time>2026-04-03T18:43:08Z</time></trkpt><trkpt lat="43.54417590215243" lon="11.312579374589877"><ele>448.0</ele><time>2026-04-03T18:43:09Z</time></trkpt><trkpt lat="43.54409233178555" lon="11.312663387120745"><ele>448.00000000000006</ele><time>2026-04-03T18:43:10Z</time></trkpt><trkpt lat="43.54400922393892" lon="11.312743352002245"><ele>448.0</ele><time>2026-04-03T18:43:11Z</time></trkpt><trkpt lat="43.54393237728636" lon="11.312819219350539"><ele>448.0</ele><time>2026-04-03T18:43:12Z</time></trkpt><trkpt lat="43.54386262929419" lon="11.312890243034085"><ele>448.0</ele><time>2026-04-03T18:43:13Z</time></trkpt><trkpt lat="43.543810325942424" lon="11.312976430770416"><ele>448.00000000000006</ele><time>2026-04-03T18:43:14Z</time></trkpt><trkpt lat="43.543773075524186" lon="11.313082587881695"><ele>448.0</ele><time>2026-04-03T18:43:15Z</time></trkpt><trkpt lat="43.543740371392694" lon="11.313191911922711"><ele>449.0</ele><time>2026-04-03T18:43:16Z</time></trkpt><trkpt lat="43.54378070773273" lon="11.31331777785763"><ele>449.99999999999994</ele><time>2026-04-03T18:43:17Z</time></trkpt><trkpt lat="43.5438178350276" lon="11.313433404222573"><ele>450.99999999999994</ele><time>2026-04-03T18:43:18Z</time></trkpt><trkpt lat="43.54386040098519" lon="11.313550778945967"><ele>452.0</ele><time>2026-04-03T18:43:19Z</time></trkpt><trkpt lat="43.54389491280379" lon="11.313677304055087"><ele>453.0</ele><time>2026-04-03T18:43:20Z</time></trkpt><trkpt lat="43.543928106166696" lon="11.313807981126383"><ele>453.4</ele><time>2026-04-03T18:43:21Z</time></trkpt><trkpt lat="43.54396199412636" lon="11.313936611431364"><ele>453.79999999999995</ele><time>2026-04-03T18:43:22Z</time></trkpt><trkpt lat="43.54397943170807" lon="11.314060284966812"><ele>454.2</ele><time>2026-04-03T18:43:23Z</time></trkpt><trkpt lat="43.54397999347318" lon="11.31417937612603"><ele>454.6</ele><time>2026-04-03T18:43:24Z</time></trkpt><trkpt lat="43.54393580528561" lon="11.314298981089339"><ele>455.0</ele><time>2026-04-03T18:43:25Z</time></trkpt><trkpt lat="43.543898057497046" lon="11.31441932534847"><ele>455.0</ele><time>2026-04-03T18:43:26Z</time></trkpt><trkpt lat="43.54385180755881" lon="11.31454173090888"><ele>455.0</ele><time>2026-04-03T18:43:27Z</time></trkpt><trkpt lat="43.543787371910966" lon="11.3146474806712"><ele>455.0</ele><time>2026-04-03T18:43:28Z</time></trkpt><trkpt lat="43.54371106990874" lon="11.314712819589381"><ele>455.0</ele><time>2026-04-03T18:43:29Z</time></trkpt><trkpt lat="43.543630807653436" lon="11.314791901669105"><ele>455.0</ele><time>2026-04-03T18:43:30Z</time></trkpt><trkpt lat="43.54354968686291" lon="11.31488533623711"><ele>453.8</ele><time>2026-04-03T18:43:31Z</time></trkpt><trkpt lat="43.543455095746694" lon="11.31495941751305"><ele>452.6</ele><time>2026-04-03T18:43:32Z</time></trkpt><trkpt lat="43.54336120768767" lon="11.315041362213687"><ele>451.4</ele><time>2026-04-03T18:43:33Z</time></trkpt><trkpt lat="43.543268432207114" lon="11.31511383266118"><ele>450.2</ele><time>2026-04-03T18:43:34Z</time></trkpt><trkpt lat="43.54317544009773" lon="11.315182470271163"><ele>449.0</ele><time>2026-04-03T18:43:35Z</time></trkpt><trkpt lat="43.54308319220385" lon="11.315239972995098"><ele>449.0</ele><time>2026-04-03T18:43:36Z</time></trkpt><trkpt lat="43.54298849139711" lon="11.315282664019252"><ele>449.0</ele><time>2026-04-03T18:43:37Z</time></trkpt><trkpt lat="43.54288216703283" lon="11.315325881622247"><ele>449.0</ele><time>2026-04-03T18:43:38Z</time></trkpt><trkpt lat="43.54276825628956" lon="11.31537601401755"><ele>449.0</ele><time>2026-04-03T18:43:39Z</time></trkpt><trkpt lat="43.542653891918924" lon="11.315430893573778"><ele>450.0</ele><time>2026-04-03T18:43:40Z</time></trkpt><trkpt lat="43.54254372031293" lon="11.315487284861053"><ele>451.0</ele><time>2026-04-03T18:43:41Z</time></trkpt><trkpt lat="43.54243461778658" lon="11.315539074513756"><ele>452.0</ele><time>2026-04-03T18:43:42Z</time></trkpt><trkpt lat="43.54232549294275" lon="11.315586216294573"><ele>453.0</ele><time>2026-04-03T18:43:43Z</time></trkpt><trkpt lat="43.5422149415481" lon="11.315635661269358"><ele>453.0</ele><time>2026-04-03T18:43:44Z</time></trkpt><trkpt lat="43.542104358305146" lon="11.31568565060269"><ele>453.0</ele><time>2026-04-03T18:43:45Z</time></trkpt><trkpt lat="43.54198844955843" lon="11.315727197678575"><ele>453.0</ele><time>2026-04-03T18:43:46Z</time></trkpt><trkpt lat="43.54187839326553" lon="11.31576656862816"><ele>453.0</ele><time>2026-04-03T18:43:47Z</time></trkpt><trkpt lat="43.541770034347095" lon="11.315791697574566"><ele>449.5</ele><time>2026-04-03T18:43:48Z</time></trkpt><trkpt lat="43.541652749315176" lon="11.315797347779311"><ele>446.0</ele><time>2026-04-03T18:43:49Z</time></trkpt><trkpt lat="43.54153312844226" lon="11.315763067244665"><ele>442.5</ele><time>2026-04-03T18:43:50Z</time></trkpt><trkpt lat="43.5414130529541" lon="11.315717442064985"><ele>439.0</ele><time>2026-04-03T18:43:51Z</time></trkpt><trkpt lat="43.54129424384339" lon="11.315676701842385"><ele>438.79999999999995</ele><time>2026-04-03T18:43:52Z</time></trkpt><trkpt lat="43.541174967897255" lon="11.315653555776437"><ele>438.59999999999997</ele><time>2026-04-03T18:43:53Z</time></trkpt><trkpt lat="43.54106807979396" lon="11.315657936426785"><ele>438.4</ele><time>2026-04-03T18:43:54Z</time></trkpt><trkpt lat="43.5409636896961" lon="11.315683263260064"><ele>438.2</ele><time>2026-04-03T18:43:55Z</time></trkpt><trkpt lat="43.54086303077828" lon="11.315719681762856"><ele>438.0</ele><time>2026-04-03T18:43:56Z</time></trkpt><trkpt lat="43.54076296189786" lon="11.315769356032293"><ele>438.0</ele><time>2026-04-03T18:43:57Z</time></trkpt><trkpt lat="43.540678858792276" lon="11.315831538831166"><ele>437.99999999999994</ele><time>2026-04-03T18:43:58Z</time></trkpt><trkpt lat="43.54060057259477" lon="11.31591125867509"><ele>437.99999999999994</ele><time>2026-04-03T18:43:59Z</time></trkpt><trkpt lat="43.5405256338839" lon="11.315992725659541"><ele>438.0</ele><time>2026-04-03T18:44:00Z</time></trkpt><trkpt lat="43.5404567328292" lon="11.316074724589415"><ele>438.0</ele><time>2026-04-03T18:44:01Z</time></trkpt><trkpt lat="43.54039740967659" lon="11.316165292732402"><ele>437.5</ele><time>2026-04-03T18:44:02Z</time></trkpt><trkpt lat="43.54034030738423" lon="11.316261805051127"><ele>437.0</ele><time>2026-04-03T18:44:03Z</time></trkpt><trkpt lat="43.54028922732454" lon="11.316361312713505"><ele>436.5</ele><time>2026-04-03T18:44:04Z</time></trkpt><trkpt lat="43.54023803678279" lon="11.316458611758854"><ele>436.0</ele><time>2026-04-03T18:44:04.999Z</time></trkpt><trkpt lat="43.540178609977104" lon="11.316543738260394"><ele>435.5</ele><time>2026-04-03T18:44:05.999Z</time></trkpt><trkpt lat="43.540104454275514" lon="11.316609580409303"><ele>435.0</ele><time>2026-04-03T18:44:06.999Z</time></trkpt><trkpt lat="43.540022517447845" lon="11.316666359441804"><ele>436.3333333333333</ele><time>2026-04-03T18:44:07.999Z</time></trkpt><trkpt lat="43.539936786424136" lon="11.316708308557953"><ele>437.66666666666663</ele><time>2026-04-03T18:44:08.999Z</time></trkpt><trkpt lat="43.53985127159485" lon="11.316734494595053"><ele>439.0</ele><time>2026-04-03T18:44:09.999Z</time></trkpt><trkpt lat="43.539759342771276" lon="11.316755936069335"><ele>440.3333333333333</ele><time>2026-04-03T18:44:10.999Z</time></trkpt><trkpt lat="43.53967111708359" lon="11.31677862250072"><ele>441.66666666666663</ele><time>2026-04-03T18:44:11.999Z</time></trkpt><trkpt lat="43.53958718377881" lon="11.316809983564973"><ele>443.0</ele><time>2026-04-03T18:44:12.999Z</time></trkpt><trkpt lat="43.53950815244991" lon="11.316843282882468"><ele>442.99999999999994</ele><time>2026-04-03T18:44:13.999Z</time></trkpt><trkpt lat="43.53943794353095" lon="11.316876624450483"><ele>443.0</ele><time>2026-04-03T18:44:14.999Z</time></trkpt><trkpt lat="43.539370999843115" lon="11.316908227627248"><ele>443.0</ele><time>2026-04-03T18:44:15.999Z</time></trkpt><trkpt lat="43.53930766369001" lon="11.316943986688624"><ele>443.0</ele><time>2026-04-03T18:44:16.999Z</time></trkpt><trkpt lat="43.53924436832659" lon="11.317057966129074"><ele>442.99999999999994</ele><time>2026-04-03T18:44:18.999Z</time></trkpt><trkpt lat="43.53925640178554" lon="11.317150760288476"><ele>443.0</ele><time>2026-04-03T18:44:21.999Z</time></trkpt><trkpt lat="43.53938878089811" lon="11.317246136516948"><ele>446.0</ele><time>2026-04-03T18:44:23.999Z</time></trkpt><trkpt lat="43.53945895742406" lon="11.317295336471192"><ele>448.99999999999994</ele><time>2026-04-03T18:44:24.999Z</time></trkpt><trkpt lat="43.539534386221966" lon="11.317324195316198"><ele>451.99999999999994</ele><time>2026-04-03T18:44:25.999Z</time></trkpt><trkpt lat="43.53962432294702" lon="11.317329715233102"><ele>455.0</ele><time>2026-04-03T18:44:26.999Z</time></trkpt><trkpt lat="43.53972405845174" lon="11.317354568957738"><ele>458.0</ele><time>2026-04-03T18:44:27.999Z</time></trkpt><trkpt lat="43.53982668081177" lon="11.317364394763377"><ele>458.4</ele><time>2026-04-03T18:44:28.999Z</time></trkpt><trkpt lat="43.53992738806346" lon="11.31737159141733"><ele>458.79999999999995</ele><time>2026-04-03T18:44:29.999Z</time></trkpt><trkpt lat="43.54002900244882" lon="11.31740079340168"><ele>459.2</ele><time>2026-04-03T18:44:30.999Z</time></trkpt><trkpt lat="43.54013323268682" lon="11.317445620352382"><ele>459.6</ele><time>2026-04-03T18:44:31.999Z</time></trkpt><trkpt lat="43.540234141741344" lon="11.317501624664215"><ele>460.0</ele><time>2026-04-03T18:44:32.999Z</time></trkpt><trkpt lat="43.54033069959274" lon="11.317563956896375"><ele>461.8</ele><time>2026-04-03T18:44:33.999Z</time></trkpt><trkpt lat="43.5404275252965" lon="11.317609102157947"><ele>463.6</ele><time>2026-04-03T18:44:34.999Z</time></trkpt><trkpt lat="43.5405245167844" lon="11.317625649814557"><ele>465.4</ele><time>2026-04-03T18:44:35.999Z</time></trkpt><trkpt lat="43.54062406864978" lon="11.317629655841884"><ele>467.2</ele><time>2026-04-03T18:44:36.999Z</time></trkpt><trkpt lat="43.54072300282519" lon="11.317633336843688"><ele>469.0</ele><time>2026-04-03T18:44:37.999Z</time></trkpt><trkpt lat="43.54081498927201" lon="11.317637294754318"><ele>469.0</ele><time>2026-04-03T18:44:38.999Z</time></trkpt><trkpt lat="43.540909974541215" lon="11.31766774363454"><ele>469.0</ele><time>2026-04-03T18:44:39.999Z</time></trkpt><trkpt lat="43.541008605469884" lon="11.31765448904354"><ele>469.0</ele><time>2026-04-03T18:44:40.999Z</time></trkpt><trkpt lat="43.541097828771974" lon="11.31766752667499"><ele>469.0</ele><time>2026-04-03T18:44:41.999Z</time></trkpt><trkpt lat="43.541190775265456" lon="11.317676702610859"><ele>469.0</ele><time>2026-04-03T18:44:42.999Z</time></trkpt><trkpt lat="43.5412830620936" lon="11.317689602048032"><ele>470.0</ele><time>2026-04-03T18:44:43.999Z</time></trkpt><trkpt lat="43.54137213874654" lon="11.317695729727136"><ele>471.0</ele><time>2026-04-03T18:44:44.999Z</time></trkpt><trkpt lat="43.54145121317553" lon="11.317739510401728"><ele>472.0</ele><time>2026-04-03T18:44:45.999Z</time></trkpt><trkpt lat="43.54153270455056" lon="11.317775525452582"><ele>473.0</ele><time>2026-04-03T18:44:46.999Z</time></trkpt><trkpt lat="43.54161876576168" lon="11.317832262127896"><ele>474.0</ele><time>2026-04-03T18:44:47.999Z</time></trkpt><trkpt lat="43.54171197691879" lon="11.31789853117031"><ele>474.0</ele><time>2026-04-03T18:44:48.999Z</time></trkpt><trkpt lat="43.54180618212237" lon="11.317964881401574"><ele>474.0</ele><time>2026-04-03T18:44:49.999Z</time></trkpt><trkpt lat="43.54190469276267" lon="11.3180311239891"><ele>474.0</ele><time>2026-04-03T18:44:50.999Z</time></trkpt><trkpt lat="43.54199907395213" lon="11.318094181071766"><ele>474.0</ele><time>2026-04-03T18:44:51.999Z</time></trkpt><trkpt lat="43.54208652095083" lon="11.31814528811268"><ele>474.0</ele><time>2026-04-03T18:44:52.999Z</time></trkpt><trkpt lat="43.54217862232007" lon="11.318171946544497"><ele>475.2</ele><time>2026-04-03T18:44:53.999Z</time></trkpt><trkpt lat="43.542287876167414" lon="11.318140005128344"><ele>476.4</ele><time>2026-04-03T18:44:54.999Z</time></trkpt><trkpt lat="43.54238638870886" lon="11.318124668513065"><ele>477.6</ele><time>2026-04-03T18:44:55.999Z</time></trkpt><trkpt lat="43.542470195034184" lon="11.318029548127734"><ele>478.8</ele><time>2026-04-03T18:44:56.999Z</time></trkpt><trkpt lat="43.54254765256843" lon="11.31793899954324"><ele>480.0</ele><time>2026-04-03T18:44:57.999Z</time></trkpt><trkpt lat="43.542627814632525" lon="11.317845756472629"><ele>480.0</ele><time>2026-04-03T18:44:58.999Z</time></trkpt><trkpt lat="43.54270582636594" lon="11.317761789730437"><ele>480.0</ele><time>2026-04-03T18:44:59.999Z</time></trkpt><trkpt lat="43.54277899336071" lon="11.31769323247407"><ele>480.0</ele><time>2026-04-03T18:45:01Z</time></trkpt><trkpt lat="43.54285269646252" lon="11.317653171978256"><ele>480.0</ele><time>2026-04-03T18:45:02Z</time></trkpt><trkpt lat="43.5429336174903" lon="11.317692992188093"><ele>480.0</ele><time>2026-04-03T18:45:03Z</time></trkpt><trkpt lat="43.5430274101415" lon="11.317718270478364"><ele>480.0</ele><time>2026-04-03T18:45:04Z</time></trkpt><trkpt lat="43.54311510613649" lon="11.317743364525478"><ele>481.3333333333333</ele><time>2026-04-03T18:45:05Z</time></trkpt><trkpt lat="43.543184703278435" lon="11.31783600248797"><ele>482.66666666666663</ele><time>2026-04-03T18:45:07Z</time></trkpt><trkpt lat="43.543186292001664" lon="11.317930637725883"><ele>484.0</ele><time>2026-04-03T18:45:08Z</time></trkpt><trkpt lat="43.54316677697395" lon="11.318046299907525"><ele>485.3333333333333</ele><time>2026-04-03T18:45:09Z</time></trkpt><trkpt lat="43.54311680361487" lon="11.318131466682294"><ele>486.66666666666663</ele><time>2026-04-03T18:45:10Z</time></trkpt><trkpt lat="43.54307171028662" lon="11.31823402959803"><ele>488.0</ele><time>2026-04-03T18:45:11Z</time></trkpt><trkpt lat="43.54299491350983" lon="11.31833370426464"><ele>488.0</ele><time>2026-04-03T18:45:12Z</time></trkpt><trkpt lat="43.54291515406604" lon="11.318428751979301"><ele>487.99999999999994</ele><time>2026-04-03T18:45:13Z</time></trkpt><trkpt lat="43.542827417608855" lon="11.31852402888187"><ele>487.99999999999994</ele><time>2026-04-03T18:45:14Z</time></trkpt><trkpt lat="43.54274198080098" lon="11.318613051366864"><ele>488.0</ele><time>2026-04-03T18:45:15Z</time></trkpt><trkpt lat="43.54266081031771" lon="11.318701077492834"><ele>488.0</ele><time>2026-04-03T18:45:16Z</time></trkpt><trkpt lat="43.54257811336578" lon="11.318799975772565"><ele>488.0</ele><time>2026-04-03T18:45:17Z</time></trkpt><trkpt lat="43.54249702377498" lon="11.318891716633024"><ele>487.99999999999994</ele><time>2026-04-03T18:45:18Z</time></trkpt><trkpt lat="43.542411603161305" lon="11.318968157275338"><ele>487.99999999999994</ele><time>2026-04-03T18:45:19Z</time></trkpt><trkpt lat="43.5423275505106" lon="11.319058731213234"><ele>488.0</ele><time>2026-04-03T18:45:20Z</time></trkpt><trkpt lat="43.542247218910354" lon="11.319151354857237"><ele>488.0</ele><time>2026-04-03T18:45:21Z</time></trkpt><trkpt lat="43.54216869926618" lon="11.31922928795214"><ele>488.4</ele><time>2026-04-03T18:45:22Z</time></trkpt><trkpt lat="43.54209576934882" lon="11.319308821657033"><ele>488.79999999999995</ele><time>2026-04-03T18:45:23Z</time></trkpt><trkpt lat="43.5420182905026" lon="11.319386968173859"><ele>489.2</ele><time>2026-04-03T18:45:24Z</time></trkpt><trkpt lat="43.54193733664682" lon="11.319472397768704"><ele>489.6</ele><time>2026-04-03T18:45:25Z</time></trkpt><trkpt lat="43.54185100066415" lon="11.319561864365628"><ele>490.0</ele><time>2026-04-03T18:45:26Z</time></trkpt><trkpt lat="43.54176103547026" lon="11.319651121535664"><ele>491.0</ele><time>2026-04-03T18:45:27Z</time></trkpt><trkpt lat="43.541669306476244" lon="11.319748862068202"><ele>492.0</ele><time>2026-04-03T18:45:28Z</time></trkpt><trkpt lat="43.54158130333472" lon="11.319835873959594"><ele>493.0</ele><time>2026-04-03T18:45:29Z</time></trkpt><trkpt lat="43.54148947318611" lon="11.31990599973302"><ele>494.0</ele><time>2026-04-03T18:45:30Z</time></trkpt><trkpt lat="43.541397032487914" lon="11.319997958049159"><ele>495.0</ele><time>2026-04-03T18:45:31Z</time></trkpt><trkpt lat="43.541303269571905" lon="11.32009443485159"><ele>495.0</ele><time>2026-04-03T18:45:32Z</time></trkpt><trkpt lat="43.54121750559445" lon="11.320215857008028"><ele>495.0</ele><time>2026-04-03T18:45:33Z</time></trkpt><trkpt lat="43.541126618034255" lon="11.320314604049942"><ele>495.0</ele><time>2026-04-03T18:45:34Z</time></trkpt><trkpt lat="43.54103264130507" lon="11.320402053678318"><ele>495.0</ele><time>2026-04-03T18:45:35Z</time></trkpt><trkpt lat="43.540953358136434" lon="11.320524101946779"><ele>497.5</ele><time>2026-04-03T18:45:36Z</time></trkpt><trkpt lat="43.540884988339194" lon="11.320668514308846"><ele>500.0</ele><time>2026-04-03T18:45:37Z</time></trkpt><trkpt lat="43.54082114107716" lon="11.320816353856394"><ele>502.5</ele><time>2026-04-03T18:45:38Z</time></trkpt><trkpt lat="43.540776500095184" lon="11.320968587764733"><ele>505.0</ele><time>2026-04-03T18:45:39Z</time></trkpt><trkpt lat="43.540714901377626" lon="11.321110399474263"><ele>505.0</ele><time>2026-04-03T18:45:40Z</time></trkpt><trkpt lat="43.540649781845" lon="11.321258133431296"><ele>505.0</ele><time>2026-04-03T18:45:41Z</time></trkpt><trkpt lat="43.540584654206185" lon="11.321412559992824"><ele>505.0</ele><time>2026-04-03T18:45:42Z</time></trkpt><trkpt lat="43.540515941476656" lon="11.321571969261688"><ele>505.0</ele><time>2026-04-03T18:45:43Z</time></trkpt><trkpt lat="43.54044611903747" lon="11.321718141756316"><ele>507.25</ele><time>2026-04-03T18:45:44Z</time></trkpt><trkpt lat="43.54037328824344" lon="11.321833747569025"><ele>509.5</ele><time>2026-04-03T18:45:45Z</time></trkpt><trkpt lat="43.54030971822341" lon="11.321965844513402"><ele>511.75</ele><time>2026-04-03T18:45:46Z</time></trkpt><trkpt lat="43.540274924866935" lon="11.322115814256474"><ele>514.0</ele><time>2026-04-03T18:45:47Z</time></trkpt><trkpt lat="43.540221472624076" lon="11.322250873546734"><ele>514.0</ele><time>2026-04-03T18:45:48Z</time></trkpt><trkpt lat="43.54020916990032" lon="11.322409361116684"><ele>514.0</ele><time>2026-04-03T18:45:49Z</time></trkpt><trkpt lat="43.54016905024368" lon="11.322549159521026"><ele>514.0</ele><time>2026-04-03T18:45:50Z</time></trkpt><trkpt lat="43.54011831470007" lon="11.32265283833361"><ele>514.0</ele><time>2026-04-03T18:45:51Z</time></trkpt><trkpt lat="43.540033177490784" lon="11.322723939865735"><ele>514.0</ele><time>2026-04-03T18:45:52Z</time></trkpt><trkpt lat="43.539946641347726" lon="11.32278902953912"><ele>514.0</ele><time>2026-04-03T18:45:53Z</time></trkpt><trkpt lat="43.53987254358502" lon="11.32289898658609"><ele>514.0</ele><time>2026-04-03T18:45:54Z</time></trkpt><trkpt lat="43.53978501904499" lon="11.323000255640993"><ele>514.0</ele><time>2026-04-03T18:45:55Z</time></trkpt><trkpt lat="43.53969018651973" lon="11.323100379084194"><ele>514.0</ele><time>2026-04-03T18:45:56Z</time></trkpt><trkpt lat="43.53962674412908" lon="11.323258886123705"><ele>511.75</ele><time>2026-04-03T18:45:57Z</time></trkpt><trkpt lat="43.53955485389601" lon="11.323410340726815"><ele>509.5</ele><time>2026-04-03T18:45:58Z</time></trkpt><trkpt lat="43.53946211120546" lon="11.323561709818572"><ele>507.25</ele><time>2026-04-03T18:45:59Z</time></trkpt><trkpt lat="43.53938130577379" lon="11.32373118868487"><ele>505.0</ele><time>2026-04-03T18:46:00Z</time></trkpt><trkpt lat="43.53931499985433" lon="11.323903067464114"><ele>505.0</ele><time>2026-04-03T18:46:01Z</time></trkpt><trkpt lat="43.539247036588854" lon="11.324048682606447"><ele>505.0</ele><time>2026-04-03T18:46:02Z</time></trkpt><trkpt lat="43.53917632151679" lon="11.324195271445953"><ele>505.0</ele><time>2026-04-03T18:46:03Z</time></trkpt><trkpt lat="43.53908991464613" lon="11.32433938927918"><ele>505.0</ele><time>2026-04-03T18:46:04Z</time></trkpt><trkpt lat="43.53903342070962" lon="11.324502728243736"><ele>505.0</ele><time>2026-04-03T18:46:05Z</time></trkpt><trkpt lat="43.53899980230213" lon="11.324685087599084"><ele>505.0</ele><time>2026-04-03T18:46:06Z</time></trkpt><trkpt lat="43.538947511074745" lon="11.324852593703644"><ele>505.0</ele><time>2026-04-03T18:46:07Z</time></trkpt><trkpt lat="43.538902745760524" lon="11.324999848264724"><ele>505.0</ele><time>2026-04-03T18:46:08Z</time></trkpt><trkpt lat="43.538856048819454" lon="11.325125331337777"><ele>504.5</ele><time>2026-04-03T18:46:09Z</time></trkpt><trkpt lat="43.538788739938056" lon="11.3252519446092"><ele>504.0</ele><time>2026-04-03T18:46:10Z</time></trkpt><trkpt lat="43.53873815490673" lon="11.32540244709253"><ele>503.5</ele><time>2026-04-03T18:46:10.999Z</time></trkpt><trkpt lat="43.53869288386158" lon="11.325554345869614"><ele>503.0</ele><time>2026-04-03T18:46:11.999Z</time></trkpt><trkpt lat="43.53865511772214" lon="11.325709047250214"><ele>503.0</ele><time>2026-04-03T18:46:12.999Z</time></trkpt><trkpt lat="43.53863047797168" lon="11.325864594195007"><ele>503.0</ele><time>2026-04-03T18:46:13.999Z</time></trkpt><trkpt lat="43.53861954167808" lon="11.326020270844964"><ele>503.0</ele><time>2026-04-03T18:46:14.999Z</time></trkpt><trkpt lat="43.5386384348491" lon="11.326179296879973"><ele>503.0</ele><time>2026-04-03T18:46:15.999Z</time></trkpt><trkpt lat="43.538665634409185" lon="11.326337057858048"><ele>503.4</ele><time>2026-04-03T18:46:16.999Z</time></trkpt><trkpt lat="43.53869115182223" lon="11.32648572458481"><ele>503.79999999999995</ele><time>2026-04-03T18:46:17.999Z</time></trkpt><trkpt lat="43.538722736551144" lon="11.326636797361576"><ele>504.2</ele><time>2026-04-03T18:46:18.999Z</time></trkpt><trkpt lat="43.53876280396845" lon="11.326778739146938"><ele>504.6</ele><time>2026-04-03T18:46:19.999Z</time></trkpt><trkpt lat="43.53878237110784" lon="11.326931334625556"><ele>505.0</ele><time>2026-04-03T18:46:20.999Z</time></trkpt><trkpt lat="43.538775949341584" lon="11.327085735432593"><ele>506.5</ele><time>2026-04-03T18:46:21.999Z</time></trkpt><trkpt lat="43.53873949858679" lon="11.327241609240328"><ele>508.0</ele><time>2026-04-03T18:46:22.999Z</time></trkpt><trkpt lat="43.53869478379397" lon="11.327397889309601"><ele>509.5</ele><time>2026-04-03T18:46:23.999Z</time></trkpt><trkpt lat="43.53863504703322" lon="11.3275500246482"><ele>511.0</ele><time>2026-04-03T18:46:24.999Z</time></trkpt><trkpt lat="43.53855568834318" lon="11.327692731092874"><ele>511.0</ele><time>2026-04-03T18:46:25.999Z</time></trkpt><trkpt lat="43.538475257146736" lon="11.32783694183804"><ele>511.0</ele><time>2026-04-03T18:46:26.999Z</time></trkpt><trkpt lat="43.53838359525521" lon="11.32797429343941"><ele>511.0</ele><time>2026-04-03T18:46:27.999Z</time></trkpt><trkpt lat="43.53830115707246" lon="11.328101840029044"><ele>511.0</ele><time>2026-04-03T18:46:28.999Z</time></trkpt><trkpt lat="43.53823010868894" lon="11.328214916419245"><ele>513.2</ele><time>2026-04-03T18:46:29.999Z</time></trkpt><trkpt lat="43.53816544642416" lon="11.328315946832655"><ele>515.4000000000001</ele><time>2026-04-03T18:46:30.999Z</time></trkpt><trkpt lat="43.53810132237589" lon="11.328427011466383"><ele>517.6</ele><time>2026-04-03T18:46:31.999Z</time></trkpt><trkpt lat="43.53804337482439" lon="11.328537302635999"><ele>519.8000000000001</ele><time>2026-04-03T18:46:32.999Z</time></trkpt><trkpt lat="43.53802501963696" lon="11.328675876043642"><ele>522.0</ele><time>2026-04-03T18:46:33.999Z</time></trkpt><trkpt lat="43.53800708014885" lon="11.32883459206341"><ele>523.5</ele><time>2026-04-03T18:46:34.999Z</time></trkpt><trkpt lat="43.537972645821675" lon="11.329008070602718"><ele>525.0</ele><time>2026-04-03T18:46:35.999Z</time></trkpt><trkpt lat="43.53796292806706" lon="11.329202479376187"><ele>526.5</ele><time>2026-04-03T18:46:36.999Z</time></trkpt><trkpt lat="43.53796490289463" lon="11.32940984170776"><ele>528.0</ele><time>2026-04-03T18:46:37.999Z</time></trkpt><trkpt lat="43.53797751549628" lon="11.329588135989693"><ele>527.25</ele><time>2026-04-03T18:46:38.999Z</time></trkpt><trkpt lat="43.538008415404235" lon="11.329767332006215"><ele>526.5</ele><time>2026-04-03T18:46:39.999Z</time></trkpt><trkpt lat="43.53800888220886" lon="11.32994887128778"><ele>525.75</ele><time>2026-04-03T18:46:40.999Z</time></trkpt><trkpt lat="43.538027676945774" lon="11.330124499636533"><ele>525.0</ele><time>2026-04-03T18:46:41.999Z</time></trkpt><trkpt lat="43.538041181802875" lon="11.330300633286628"><ele>525.0</ele><time>2026-04-03T18:46:42.999Z</time></trkpt><trkpt lat="43.53805215165609" lon="11.330469354435523"><ele>525.0</ele><time>2026-04-03T18:46:43.999Z</time></trkpt><trkpt lat="43.538064818385934" lon="11.330640262585224"><ele>525.0</ele><time>2026-04-03T18:46:44.999Z</time></trkpt><trkpt lat="43.53807740432236" lon="11.330794193494068"><ele>525.0</ele><time>2026-04-03T18:46:45.999Z</time></trkpt><trkpt lat="43.53809061643147" lon="11.330948089567839"><ele>523.6</ele><time>2026-04-03T18:46:46.999Z</time></trkpt><trkpt lat="43.53810448550542" lon="11.33109848550391"><ele>522.2</ele><time>2026-04-03T18:46:47.999Z</time></trkpt><trkpt lat="43.53811509703909" lon="11.33124110955585"><ele>520.8</ele><time>2026-04-03T18:46:48.999Z</time></trkpt><trkpt lat="43.53810952438776" lon="11.331383271982164"><ele>519.4</ele><time>2026-04-03T18:46:49.999Z</time></trkpt><trkpt lat="43.53807519816954" lon="11.331522779634604"><ele>518.0</ele><time>2026-04-03T18:46:50.999Z</time></trkpt><trkpt lat="43.53803419059755" lon="11.331659967944402"><ele>517.1999999999999</ele><time>2026-04-03T18:46:51.999Z</time></trkpt><trkpt lat="43.537980905599746" lon="11.331795417401693"><ele>516.4</ele><time>2026-04-03T18:46:52.999Z</time></trkpt><trkpt lat="43.537917611129636" lon="11.331910893380217"><ele>515.5999999999999</ele><time>2026-04-03T18:46:53.999Z</time></trkpt><trkpt lat="43.53783809777329" lon="11.332025878932118"><ele>514.8</ele><time>2026-04-03T18:46:54.999Z</time></trkpt><trkpt lat="43.53776070044143" lon="11.332133943946852"><ele>514.0</ele><time>2026-04-03T18:46:55.999Z</time></trkpt><trkpt lat="43.537689118596596" lon="11.332243149921442"><ele>513.0</ele><time>2026-04-03T18:46:56.999Z</time></trkpt><trkpt lat="43.53762792729872" lon="11.332358401881306"><ele>512.0</ele><time>2026-04-03T18:46:57.999Z</time></trkpt><trkpt lat="43.5375791304727" lon="11.332491975179186"><ele>511.0</ele><time>2026-04-03T18:46:58.999Z</time></trkpt><trkpt lat="43.537536091441304" lon="11.332635403371441"><ele>510.0</ele><time>2026-04-03T18:46:59.999Z</time></trkpt><trkpt lat="43.5374892678159" lon="11.332781510933192"><ele>509.0</ele><time>2026-04-03T18:47:00.999Z</time></trkpt><trkpt lat="43.53744231644808" lon="11.332939479626894"><ele>508.75</ele><time>2026-04-03T18:47:01.999Z</time></trkpt><trkpt lat="43.537402008523266" lon="11.333094891225695"><ele>508.5</ele><time>2026-04-03T18:47:02.999Z</time></trkpt><trkpt lat="43.53736659472667" lon="11.333250494348166"><ele>508.25</ele><time>2026-04-03T18:47:03.999Z</time></trkpt><trkpt lat="43.537340963599085" lon="11.333394749933118"><ele>508.0</ele><time>2026-04-03T18:47:04.999Z</time></trkpt><trkpt lat="43.5373445217351" lon="11.333546992090762"><ele>508.0</ele><time>2026-04-03T18:47:05.999Z</time></trkpt><trkpt lat="43.53738928879649" lon="11.33368985525685"><ele>507.99999999999994</ele><time>2026-04-03T18:47:07Z</time></trkpt><trkpt lat="43.537411441588425" lon="11.333811902503966"><ele>507.99999999999994</ele><time>2026-04-03T18:47:08Z</time></trkpt><trkpt lat="43.537422668836236" lon="11.333934616608866"><ele>508.0</ele><time>2026-04-03T18:47:09Z</time></trkpt><trkpt lat="43.537400578891564" lon="11.334069237013844"><ele>508.0</ele><time>2026-04-03T18:47:10Z</time></trkpt><trkpt lat="43.53737710463056" lon="11.334211730288898"><ele>508.4</ele><time>2026-04-03T18:47:11Z</time></trkpt><trkpt lat="43.53736308775275" lon="11.334345396402455"><ele>508.79999999999995</ele><time>2026-04-03T18:47:12Z</time></trkpt><trkpt lat="43.53734602025974" lon="11.33447514603549"><ele>509.2</ele><time>2026-04-03T18:47:13Z</time></trkpt><trkpt lat="43.53732460553657" lon="11.334599387520354"><ele>509.6</ele><time>2026-04-03T18:47:14Z</time></trkpt><trkpt lat="43.53730196004725" lon="11.334701977368683"><ele>510.0</ele><time>2026-04-03T18:47:15Z</time></trkpt><trkpt lat="43.537269965378634" lon="11.334831986551437"><ele>511.2</ele><time>2026-04-03T18:47:16Z</time></trkpt><trkpt lat="43.53723601133902" lon="11.334950128518285"><ele>512.4</ele><time>2026-04-03T18:47:17Z</time></trkpt><trkpt lat="43.537202873545056" lon="11.335062846307746"><ele>513.6</ele><time>2026-04-03T18:47:18Z</time></trkpt><trkpt lat="43.53717533992378" lon="11.335153350958135"><ele>514.8</ele><time>2026-04-03T18:47:19Z</time></trkpt><trkpt lat="43.53713440464226" lon="11.335287907717182"><ele>516.0</ele><time>2026-04-03T18:47:21Z</time></trkpt><trkpt lat="43.53709779446225" lon="11.335408146993993"><ele>516.0</ele><time>2026-04-03T18:47:23Z</time></trkpt><trkpt lat="43.537059007224904" lon="11.335530746202586"><ele>516.0</ele><time>2026-04-03T18:47:25Z</time></trkpt><trkpt lat="43.53701296648225" lon="11.335639006523111"><ele>516.0</ele><time>2026-04-03T18:47:27Z</time></trkpt><trkpt lat="43.536974489076904" lon="11.335707954107654"><ele>516.0</ele><time>2026-04-03T18:47:29Z</time></trkpt><trkpt lat="43.53690923449042" lon="11.335764011514685"><ele>516.0</ele><time>2026-04-03T18:47:38Z</time></trkpt><trkpt lat="43.536794113228204" lon="11.335857446680409"><ele>518.0</ele><time>2026-04-03T18:47:40Z</time></trkpt><trkpt lat="43.53670998728019" lon="11.335882692058332"><ele>520.0</ele><time>2026-04-03T18:47:41Z</time></trkpt><trkpt lat="43.536634458747216" lon="11.335941061592195"><ele>522.0</ele><time>2026-04-03T18:47:42Z</time></trkpt><trkpt lat="43.53655019234107" lon="11.335979029614842"><ele>524.0</ele><time>2026-04-03T18:47:43Z</time></trkpt><trkpt lat="43.5364728932862" lon="11.336014282433347"><ele>526.0</ele><time>2026-04-03T18:47:44Z</time></trkpt><trkpt lat="43.536392355054105" lon="11.336049304375274"><ele>528.0</ele><time>2026-04-03T18:47:45Z</time></trkpt><trkpt lat="43.53631278304428" lon="11.33607805800795"><ele>528.0</ele><time>2026-04-03T18:47:46Z</time></trkpt><trkpt lat="43.536241999633866" lon="11.336090209957742"><ele>528.0</ele><time>2026-04-03T18:47:47Z</time></trkpt><trkpt lat="43.53616983855837" lon="11.336078615646679"><ele>528.0</ele><time>2026-04-03T18:47:48Z</time></trkpt><trkpt lat="43.5360864293946" lon="11.3360288920959"><ele>528.0</ele><time>2026-04-03T18:47:49Z</time></trkpt><trkpt lat="43.535994013466656" lon="11.336000619528726"><ele>528.0</ele><time>2026-04-03T18:47:50Z</time></trkpt><trkpt lat="43.535923849867935" lon="11.335992860722984"><ele>528.0</ele><time>2026-04-03T18:47:51Z</time></trkpt><trkpt lat="43.535857375921665" lon="11.33600292663316"><ele>528.1666666666666</ele><time>2026-04-03T18:47:52Z</time></trkpt><trkpt lat="43.53578927515804" lon="11.33605538475649"><ele>528.3333333333334</ele><time>2026-04-03T18:47:53Z</time></trkpt><trkpt lat="43.535737791778885" lon="11.336144736428203"><ele>528.5</ele><time>2026-04-03T18:47:54Z</time></trkpt><trkpt lat="43.53571051877933" lon="11.336260660929458"><ele>528.6666666666667</ele><time>2026-04-03T18:47:55Z</time></trkpt><trkpt lat="43.53571385050775" lon="11.33637747191839"><ele>528.8333333333334</ele><time>2026-04-03T18:47:56Z</time></trkpt><trkpt lat="43.53572197620348" lon="11.336469231689374"><ele>529.0</ele><time>2026-04-03T18:47:57Z</time></trkpt><trkpt lat="43.53571315387185" lon="11.33657966496553"><ele>530.2</ele><time>2026-04-03T18:48:00Z</time></trkpt><trkpt lat="43.53566866441203" lon="11.336696888933787"><ele>531.4</ele><time>2026-04-03T18:48:02Z</time></trkpt><trkpt lat="43.535563674696164" lon="11.336804489092463"><ele>532.6</ele><time>2026-04-03T18:48:04Z</time></trkpt><trkpt lat="43.53549927471015" lon="11.336866020375039"><ele>533.8</ele><time>2026-04-03T18:48:05Z</time></trkpt><trkpt lat="43.535429459119605" lon="11.336930230414087"><ele>535.0</ele><time>2026-04-03T18:48:06Z</time></trkpt><trkpt lat="43.535355133924924" lon="11.33698946713359"><ele>535.0</ele><time>2026-04-03T18:48:06.999Z</time></trkpt><trkpt lat="43.535272807036435" lon="11.337048571885205"><ele>535.0</ele><time>2026-04-03T18:48:07.999Z</time></trkpt><trkpt lat="43.53520471359651" lon="11.337104571144646"><ele>535.0</ele><time>2026-04-03T18:48:08.999Z</time></trkpt><trkpt lat="43.53514560605052" lon="11.33718566191302"><ele>535.0</ele><time>2026-04-03T18:48:09.999Z</time></trkpt><trkpt lat="43.53505724308716" lon="11.33724751058136"><ele>535.0</ele><time>2026-04-03T18:48:10.999Z</time></trkpt><trkpt lat="43.53497125192697" lon="11.337325056398937"><ele>537.2</ele><time>2026-04-03T18:48:11.999Z</time></trkpt><trkpt lat="43.53487353401753" lon="11.337392346021321"><ele>539.4</ele><time>2026-04-03T18:48:12.999Z</time></trkpt><trkpt lat="43.53478253722263" lon="11.337468840485869"><ele>541.6</ele><time>2026-04-03T18:48:13.999Z</time></trkpt><trkpt lat="43.534691939293964" lon="11.337548220579347"><ele>543.8</ele><time>2026-04-03T18:48:14.999Z</time></trkpt><trkpt lat="43.53459833205678" lon="11.337637769970314"><ele>546.0</ele><time>2026-04-03T18:48:15.999Z</time></trkpt><trkpt lat="43.534519862653504" lon="11.33771442407883"><ele>546.0</ele><time>2026-04-03T18:48:16.999Z</time></trkpt><trkpt lat="43.534438107582446" lon="11.337762534047638"><ele>546.0</ele><time>2026-04-03T18:48:17.999Z</time></trkpt><trkpt lat="43.53436687259096" lon="11.337822480776788"><ele>546.0</ele><time>2026-04-03T18:48:18.999Z</time></trkpt><trkpt lat="43.53430317874518" lon="11.337907860227919"><ele>546.0</ele><time>2026-04-03T18:48:19.999Z</time></trkpt><trkpt lat="43.53426555510198" lon="11.33801502210639"><ele>546.0</ele><time>2026-04-03T18:48:20.999Z</time></trkpt><trkpt lat="43.53425375553419" lon="11.33810878029937"><ele>546.0</ele><time>2026-04-03T18:48:21.999Z</time></trkpt><trkpt lat="43.534286310181464" lon="11.338222741049561"><ele>547.6666666666666</ele><time>2026-04-03T18:48:22.999Z</time></trkpt><trkpt lat="43.5343273813417" lon="11.338316222058765"><ele>549.3333333333334</ele><time>2026-04-03T18:48:23.999Z</time></trkpt><trkpt lat="43.53437584368927" lon="11.338411615783269"><ele>551.0</ele><time>2026-04-03T18:48:24.999Z</time></trkpt><trkpt lat="43.53441875056959" lon="11.33850376120401"><ele>552.6666666666667</ele><time>2026-04-03T18:48:25.999Z</time></trkpt><trkpt lat="43.53446808676106" lon="11.338609444996509"><ele>554.3333333333334</ele><time>2026-04-03T18:48:26.999Z</time></trkpt><trkpt lat="43.53451724523118" lon="11.338714522737446"><ele>556.0</ele><time>2026-04-03T18:48:27.999Z</time></trkpt><trkpt lat="43.53456957124086" lon="11.338820242730572"><ele>561.6</ele><time>2026-04-03T18:48:28.999Z</time></trkpt><trkpt lat="43.534628917060175" lon="11.338936380104949"><ele>567.2</ele><time>2026-04-03T18:48:29.999Z</time></trkpt><trkpt lat="43.53468845609749" lon="11.339056754993763"><ele>572.8</ele><time>2026-04-03T18:48:30.999Z</time></trkpt><trkpt lat="43.53474312539277" lon="11.339176160932999"><ele>578.4</ele><time>2026-04-03T18:48:31.999Z</time></trkpt><trkpt lat="43.53479878014228" lon="11.339305057848513"><ele>584.0</ele><time>2026-04-03T18:48:32.999Z</time></trkpt><trkpt lat="43.534852557984856" lon="11.339435066486441"><ele>584.0</ele><time>2026-04-03T18:48:33.999Z</time></trkpt><trkpt lat="43.53490469503948" lon="11.339554580608585"><ele>584.0</ele><time>2026-04-03T18:48:34.999Z</time></trkpt><trkpt lat="43.53495510793288" lon="11.339667135867538"><ele>584.0</ele><time>2026-04-03T18:48:35.999Z</time></trkpt><trkpt lat="43.53500530941787" lon="11.33977910968744"><ele>584.0</ele><time>2026-04-03T18:48:36.999Z</time></trkpt><trkpt lat="43.53505943016378" lon="11.33989982551603"><ele>584.0</ele><time>2026-04-03T18:48:37.999Z</time></trkpt><trkpt lat="43.53512136732296" lon="11.340017902646714"><ele>582.4</ele><time>2026-04-03T18:48:38.999Z</time></trkpt><trkpt lat="43.53520010462895" lon="11.340120736096322"><ele>580.8</ele><time>2026-04-03T18:48:39.999Z</time></trkpt><trkpt lat="43.53528594691832" lon="11.340206674175798"><ele>579.2</ele><time>2026-04-03T18:48:40.999Z</time></trkpt><trkpt lat="43.53537539748278" lon="11.340287879068246"><ele>577.6</ele><time>2026-04-03T18:48:41.999Z</time></trkpt><trkpt lat="43.53547379290043" lon="11.34034901949145"><ele>576.0</ele><time>2026-04-03T18:48:42.999Z</time></trkpt><trkpt lat="43.53557021529221" lon="11.340426287091399"><ele>578.75</ele><time>2026-04-03T18:48:43.999Z</time></trkpt><trkpt lat="43.53566647203878" lon="11.340494664056164"><ele>581.5</ele><time>2026-04-03T18:48:44.999Z</time></trkpt><trkpt lat="43.53576037976755" lon="11.34058493504454"><ele>584.25</ele><time>2026-04-03T18:48:45.999Z</time></trkpt><trkpt lat="43.535862033535885" lon="11.340653425086499"><ele>587.0</ele><time>2026-04-03T18:48:46.999Z</time></trkpt><trkpt lat="43.53596868993595" lon="11.340722046030603"><ele>587.0</ele><time>2026-04-03T18:48:47.999Z</time></trkpt><trkpt lat="43.53608114042393" lon="11.340786841978796"><ele>587.0</ele><time>2026-04-03T18:48:48.999Z</time></trkpt><trkpt lat="43.536188856746726" lon="11.340855143532995"><ele>587.0</ele><time>2026-04-03T18:48:49.999Z</time></trkpt><trkpt lat="43.53627727917933" lon="11.340938471882932"><ele>587.0</ele><time>2026-04-03T18:48:50.999Z</time></trkpt><trkpt lat="43.536354307436476" lon="11.341022587686897"><ele>587.0</ele><time>2026-04-03T18:48:51.999Z</time></trkpt><trkpt lat="43.53643629382627" lon="11.341097619523598"><ele>591.8000000000001</ele><time>2026-04-03T18:48:52.999Z</time></trkpt><trkpt lat="43.53653167230094" lon="11.341165607672718"><ele>596.6</ele><time>2026-04-03T18:48:53.999Z</time></trkpt><trkpt lat="43.53663588306005" lon="11.341213697377555"><ele>601.4000000000001</ele><time>2026-04-03T18:48:54.999Z</time></trkpt><trkpt lat="43.53673579476387" lon="11.341264670950432"><ele>606.2</ele><time>2026-04-03T18:48:55.999Z</time></trkpt><trkpt lat="43.53682808882767" lon="11.341318043367291"><ele>611.0</ele><time>2026-04-03T18:48:56.999Z</time></trkpt><trkpt lat="43.53689516605764" lon="11.341380368346531"><ele>609.2</ele><time>2026-04-03T18:48:57.999Z</time></trkpt><trkpt lat="43.53694935476674" lon="11.34146226478"><ele>607.4000000000001</ele><time>2026-04-03T18:48:58.999Z</time></trkpt><trkpt lat="43.53696939371324" lon="11.341566363542661"><ele>605.6</ele><time>2026-04-03T18:48:59.999Z</time></trkpt><trkpt lat="43.536954150418424" lon="11.34168662746212"><ele>603.8000000000001</ele><time>2026-04-03T18:49:00.999Z</time></trkpt><trkpt lat="43.53695415042292" lon="11.341838598272588"><ele>602.0</ele><time>2026-04-03T18:49:01.999Z</time></trkpt><trkpt lat="43.53695564612379" lon="11.341992668353539"><ele>602.0</ele><time>2026-04-03T18:49:02.999Z</time></trkpt><trkpt lat="43.536964108380104" lon="11.34213694561919"><ele>602.0</ele><time>2026-04-03T18:49:03.999Z</time></trkpt><trkpt lat="43.53696445054726" lon="11.342274870872117"><ele>602.0</ele><time>2026-04-03T18:49:04.999Z</time></trkpt><trkpt lat="43.53696095043633" lon="11.342428495640315"><ele>602.0</ele><time>2026-04-03T18:49:05.999Z</time></trkpt><trkpt lat="43.53696095044263" lon="11.342565467428235"><ele>602.0</ele><time>2026-04-03T18:49:06.999Z</time></trkpt><trkpt lat="43.536961347211644" lon="11.342714427977386"><ele>604.0</ele><time>2026-04-03T18:49:07.999Z</time></trkpt><trkpt lat="43.536962882620045" lon="11.342845784477621"><ele>606.0</ele><time>2026-04-03T18:49:08.999Z</time></trkpt><trkpt lat="43.536964837059784" lon="11.342975414581133"><ele>608.0</ele><time>2026-04-03T18:49:09.999Z</time></trkpt><trkpt lat="43.536970607252236" lon="11.343104927031668"><ele>610.0</ele><time>2026-04-03T18:49:10.999Z</time></trkpt><trkpt lat="43.53697689132495" lon="11.343230317039186"><ele>612.0</ele><time>2026-04-03T18:49:12Z</time></trkpt><trkpt lat="43.53698758779686" lon="11.343356766572542"><ele>614.6</ele><time>2026-04-03T18:49:13Z</time></trkpt><trkpt lat="43.53694498209276" lon="11.34347240672857"><ele>617.2</ele><time>2026-04-03T18:49:14Z</time></trkpt><trkpt lat="43.536904776481535" lon="11.3436019561027"><ele>619.8</ele><time>2026-04-03T18:49:15Z</time></trkpt><trkpt lat="43.536867306463236" lon="11.343733394230853"><ele>622.4</ele><time>2026-04-03T18:49:16Z</time></trkpt><trkpt lat="43.536827166890475" lon="11.34387032955505"><ele>625.0</ele><time>2026-04-03T18:49:17Z</time></trkpt><trkpt lat="43.536790924378444" lon="11.343993970459115"><ele>626.6</ele><time>2026-04-03T18:49:18Z</time></trkpt><trkpt lat="43.53675507034651" lon="11.344116249831465"><ele>628.2</ele><time>2026-04-03T18:49:19Z</time></trkpt><trkpt lat="43.53672041541746" lon="11.344234375665524"><ele>629.8</ele><time>2026-04-03T18:49:20Z</time></trkpt><trkpt lat="43.53668681125429" lon="11.34434891993415"><ele>631.4</ele><time>2026-04-03T18:49:21Z</time></trkpt><trkpt lat="43.536649457264716" lon="11.344476245852317"><ele>633.0</ele><time>2026-04-03T18:49:22Z</time></trkpt><trkpt lat="43.536608980769536" lon="11.34461421526534"><ele>634.0</ele><time>2026-04-03T18:49:23Z</time></trkpt><trkpt lat="43.53656738954867" lon="11.34475296200484"><ele>635.0</ele><time>2026-04-03T18:49:24Z</time></trkpt><trkpt lat="43.536524469960305" lon="11.344885634686527"><ele>636.0</ele><time>2026-04-03T18:49:25Z</time></trkpt><trkpt lat="43.536482638728565" lon="11.345011057837834"><ele>637.0</ele><time>2026-04-03T18:49:26Z</time></trkpt><trkpt lat="43.536442518744714" lon="11.345129331087033"><ele>638.0</ele><time>2026-04-03T18:49:27Z</time></trkpt><trkpt lat="43.53640222681547" lon="11.345246002514498"><ele>638.0</ele><time>2026-04-03T18:49:28Z</time></trkpt><trkpt lat="43.53635450341062" lon="11.345380680678845"><ele>638.0</ele><time>2026-04-03T18:49:29Z</time></trkpt><trkpt lat="43.53630216727067" lon="11.345529247597883"><ele>638.0</ele><time>2026-04-03T18:49:30Z</time></trkpt><trkpt lat="43.53624760754757" lon="11.345688550214538"><ele>638.0</ele><time>2026-04-03T18:49:31Z</time></trkpt><trkpt lat="43.536201558396634" lon="11.345823003492171"><ele>639.2</ele><time>2026-04-03T18:49:32Z</time></trkpt><trkpt lat="43.53616137483704" lon="11.345940330613134"><ele>640.4</ele><time>2026-04-03T18:49:33Z</time></trkpt><trkpt lat="43.53612380766145" lon="11.346050018562197"><ele>641.6</ele><time>2026-04-03T18:49:34Z</time></trkpt><trkpt lat="43.53608612303397" lon="11.346160049429889"><ele>642.8000000000001</ele><time>2026-04-03T18:49:35Z</time></trkpt><trkpt lat="43.536046405972684" lon="11.346276014388517"><ele>644.0</ele><time>2026-04-03T18:49:36Z</time></trkpt><trkpt lat="43.53600338012143" lon="11.346405496900925"><ele>644.5</ele><time>2026-04-03T18:49:37Z</time></trkpt><trkpt lat="43.53598131663936" lon="11.3465347547645"><ele>645.0</ele><time>2026-04-03T18:49:38Z</time></trkpt><trkpt lat="43.535938141265284" lon="11.3466214101801"><ele>645.5</ele><time>2026-04-03T18:49:39Z</time></trkpt><trkpt lat="43.53590974843919" lon="11.346703316022426"><ele>646.0</ele><time>2026-04-03T18:49:40Z</time></trkpt><trkpt lat="43.535881739775995" lon="11.346795171498568"><ele>646.5</ele><time>2026-04-03T18:49:41Z</time></trkpt><trkpt lat="43.5358173512922" lon="11.346875366953967"><ele>647.0</ele><time>2026-04-03T18:49:42Z</time></trkpt><trkpt lat="43.53572643519108" lon="11.34693086619396"><ele>647.0</ele><time>2026-04-03T18:49:43Z</time></trkpt><trkpt lat="43.53564243043554" lon="11.347003020417185"><ele>647.0</ele><time>2026-04-03T18:49:44Z</time></trkpt><trkpt lat="43.53555832450962" lon="11.347073719783266"><ele>647.0</ele><time>2026-04-03T18:49:45Z</time></trkpt><trkpt lat="43.53547773367662" lon="11.34714574875241"><ele>647.0</ele><time>2026-04-03T18:49:46Z</time></trkpt><trkpt lat="43.535401518751314" lon="11.347219818379621"><ele>647.0</ele><time>2026-04-03T18:49:47Z</time></trkpt><trkpt lat="43.53532539711479" lon="11.34729432667721"><ele>648.3333333333333</ele><time>2026-04-03T18:49:48Z</time></trkpt><trkpt lat="43.53525440268092" lon="11.347363816600359"><ele>649.6666666666666</ele><time>2026-04-03T18:49:49Z</time></trkpt><trkpt lat="43.53519122525446" lon="11.347425786215535"><ele>651.0</ele><time>2026-04-03T18:49:50Z</time></trkpt><trkpt lat="43.53513805786435" lon="11.347476295303817"><ele>652.3333333333334</ele><time>2026-04-03T18:49:51Z</time></trkpt><trkpt lat="43.535056068661305" lon="11.347551546194937"><ele>653.6666666666667</ele><time>2026-04-03T18:49:53Z</time></trkpt><trkpt lat="43.534985882211096" lon="11.3476110799749"><ele>655.0</ele><time>2026-04-03T18:49:55Z</time></trkpt><trkpt lat="43.53490845040025" lon="11.347671783536418"><ele>655.0</ele><time>2026-04-03T18:49:57Z</time></trkpt><trkpt lat="43.53482742720193" lon="11.347736606333362"><ele>655.0</ele><time>2026-04-03T18:49:58Z</time></trkpt><trkpt lat="43.53470573943879" lon="11.347843010360977"><ele>655.0</ele><time>2026-04-03T18:50:00Z</time></trkpt><trkpt lat="43.534623618891416" lon="11.34791236409733"><ele>655.0</ele><time>2026-04-03T18:50:01Z</time></trkpt><trkpt lat="43.53451828695372" lon="11.347997516536806"><ele>654.5</ele><time>2026-04-03T18:50:02Z</time></trkpt><trkpt lat="43.5344474009308" lon="11.348059697029178"><ele>654.0</ele><time>2026-04-03T18:50:03Z</time></trkpt><trkpt lat="43.534377124797345" lon="11.348121342132373"><ele>653.5</ele><time>2026-04-03T18:50:03.999Z</time></trkpt><trkpt lat="43.534322929698796" lon="11.34816888118894"><ele>653.0</ele><time>2026-04-03T18:50:04.999Z</time></trkpt><trkpt lat="43.53426846669891" lon="11.348214648159688"><ele>652.5</ele><time>2026-04-03T18:50:05.999Z</time></trkpt><trkpt lat="43.53418877282517" lon="11.348280240171635"><ele>652.0</ele><time>2026-04-03T18:50:06.999Z</time></trkpt><trkpt lat="43.534101140427595" lon="11.3483523660094"><ele>658.0</ele><time>2026-04-03T18:50:07.999Z</time></trkpt><trkpt lat="43.53429844534678" lon="11.349057074726863"><ele>658.0</ele><time>2026-04-03T18:50:08.999Z</time></trkpt><trkpt lat="43.534227539246174" lon="11.34911455774681"><ele>658.0</ele><time>2026-04-03T18:50:09.999Z</time></trkpt><trkpt lat="43.53415559226128" lon="11.349184484989092"><ele>658.0</ele><time>2026-04-03T18:50:10.999Z</time></trkpt><trkpt lat="43.53408308024045" lon="11.349276907399517"><ele>658.0</ele><time>2026-04-03T18:50:11.999Z</time></trkpt><trkpt lat="43.534017755865186" lon="11.34938461410075"><ele>658.0</ele><time>2026-04-03T18:50:12.999Z</time></trkpt><trkpt lat="43.53396233258146" lon="11.349480803884592"><ele>658.0</ele><time>2026-04-03T18:50:13.999Z</time></trkpt><trkpt lat="43.53390101364125" lon="11.349563713602883"><ele>658.0</ele><time>2026-04-03T18:50:14.999Z</time></trkpt><trkpt lat="43.53383332917166" lon="11.349641040047569"><ele>658.0</ele><time>2026-04-03T18:50:15.999Z</time></trkpt><trkpt lat="43.53378357843117" lon="11.349710646809498"><ele>658.0</ele><time>2026-04-03T18:50:16.999Z</time></trkpt><trkpt lat="43.53376043643975" lon="11.34982608470827"><ele>658.0</ele><time>2026-04-03T18:50:18.999Z</time></trkpt><trkpt lat="43.53385591529793" lon="11.34997523702016"><ele>659.1666666666667</ele><time>2026-04-03T18:50:20.999Z</time></trkpt><trkpt lat="43.53392651910312" lon="11.350054458866516"><ele>660.3333333333334</ele><time>2026-04-03T18:50:21.999Z</time></trkpt><trkpt lat="43.53398199583175" lon="11.350143513829932"><ele>661.5</ele><time>2026-04-03T18:50:22.999Z</time></trkpt><trkpt lat="43.534013815294216" lon="11.350221967905727"><ele>662.6666666666666</ele><time>2026-04-03T18:50:23.999Z</time></trkpt><trkpt lat="43.53402912242617" lon="11.35031835791173"><ele>663.8333333333333</ele><time>2026-04-03T18:50:24.999Z</time></trkpt><trkpt lat="43.534028483988095" lon="11.350416380292517"><ele>665.0</ele><time>2026-04-03T18:50:25.999Z</time></trkpt><trkpt lat="43.533997494088304" lon="11.350590428910932"><ele>666.1666666666666</ele><time>2026-04-03T18:50:27.999Z</time></trkpt><trkpt lat="43.534001129525194" lon="11.350689035775801"><ele>667.3333333333333</ele><time>2026-04-03T18:50:28.999Z</time></trkpt><trkpt lat="43.53400971437836" lon="11.350827807562617"><ele>668.5</ele><time>2026-04-03T18:50:30.999Z</time></trkpt><trkpt lat="43.53397978215887" lon="11.350928028715963"><ele>669.6666666666666</ele><time>2026-04-03T18:50:31.999Z</time></trkpt><trkpt lat="43.53397191650195" lon="11.351027494124116"><ele>670.8333333333334</ele><time>2026-04-03T18:50:32.999Z</time></trkpt><trkpt lat="43.5339976278885" lon="11.351166245537694"><ele>672.0</ele><time>2026-04-03T18:50:34.999Z</time></trkpt><trkpt lat="43.533918361991326" lon="11.351302521650334"><ele>672.0</ele><time>2026-04-03T18:50:36.999Z</time></trkpt><trkpt lat="43.53385992421609" lon="11.351344720174874"><ele>672.0</ele><time>2026-04-03T18:50:37.999Z</time></trkpt><trkpt lat="43.533790328661595" lon="11.351387407334471"><ele>672.0</ele><time>2026-04-03T18:50:38.999Z</time></trkpt><trkpt lat="43.53369705858476" lon="11.351465854967303"><ele>672.0</ele><time>2026-04-03T18:50:39.999Z</time></trkpt><trkpt lat="43.53362674899823" lon="11.351514027576274"><ele>672.0</ele><time>2026-04-03T18:50:40.999Z</time></trkpt><trkpt lat="43.53353670920254" lon="11.351605663823777"><ele>672.0</ele><time>2026-04-03T18:50:42.999Z</time></trkpt><trkpt lat="43.53350125960688" lon="11.351683976183335"><ele>673.8</ele><time>2026-04-03T18:50:43.999Z</time></trkpt><trkpt lat="43.5334584544265" lon="11.351804171151828"><ele>675.6</ele><time>2026-04-03T18:50:44.999Z</time></trkpt><trkpt lat="43.53341360449806" lon="11.351899242137785"><ele>677.4</ele><time>2026-04-03T18:50:45.999Z</time></trkpt><trkpt lat="43.53333410228507" lon="11.352003399551165"><ele>679.1999999999999</ele><time>2026-04-03T18:50:47.999Z</time></trkpt><trkpt lat="43.53324057206332" lon="11.351937485274302"><ele>681.0</ele><time>2026-04-03T18:50:49.999Z</time></trkpt><trkpt lat="43.5331561203825" lon="11.3518545709372"><ele>681.0</ele><time>2026-04-03T18:50:50.999Z</time></trkpt><trkpt lat="43.53307646221572" lon="11.35177482755708"><ele>681.0</ele><time>2026-04-03T18:50:51.999Z</time></trkpt><trkpt lat="43.53302041287056" lon="11.351732761420255"><ele>681.0</ele><time>2026-04-03T18:50:52.999Z</time></trkpt><trkpt lat="43.53299585048367" lon="11.351640727725883"><ele>681.0</ele><time>2026-04-03T18:50:54.999Z</time></trkpt><trkpt lat="43.532914019511885" lon="11.351597744994656"><ele>681.0</ele><time>2026-04-03T18:50:56.999Z</time></trkpt><trkpt lat="43.53283829060681" lon="11.351552709447972"><ele>681.0</ele><time>2026-04-03T18:50:57.999Z</time></trkpt><trkpt lat="43.532778155641886" lon="11.351482490227378"><ele>680.5999999999999</ele><time>2026-04-03T18:50:58.999Z</time></trkpt><trkpt lat="43.53272823984391" lon="11.351411571640643"><ele>680.2</ele><time>2026-04-03T18:50:59.999Z</time></trkpt><trkpt lat="43.532675157418495" lon="11.351352539644894"><ele>679.8</ele><time>2026-04-03T18:51:01.999Z</time></trkpt><trkpt lat="43.53259398883823" lon="11.351356322386723"><ele>679.4000000000001</ele><time>2026-04-03T18:51:03.999Z</time></trkpt><trkpt lat="43.53249648222191" lon="11.351285796495786"><ele>679.0</ele><time>2026-04-03T18:51:05.999Z</time></trkpt><trkpt lat="43.532378916907476" lon="11.35117812544544"><ele>679.0</ele><time>2026-04-03T18:51:07.999Z</time></trkpt><trkpt lat="43.53227812583235" lon="11.351110245564817"><ele>679.0</ele><time>2026-04-03T18:51:09.999Z</time></trkpt><trkpt lat="43.53218704053609" lon="11.351164093048217"><ele>679.0</ele><time>2026-04-03T18:51:11.999Z</time></trkpt><trkpt lat="43.53213392905813" lon="11.351289317467247"><ele>679.0</ele><time>2026-04-03T18:51:13.999Z</time></trkpt><trkpt lat="43.53212942577509" lon="11.351376784145488"><ele>679.0</ele><time>2026-04-03T18:51:14.999Z</time></trkpt><trkpt lat="43.53211757435587" lon="11.351521799467031"><ele>679.0</ele><time>2026-04-03T18:51:16.999Z</time></trkpt><trkpt lat="43.53209343564205" lon="11.35164144036737"><ele>679.0</ele><time>2026-04-03T18:51:19Z</time></trkpt><trkpt lat="43.53205463177938" lon="11.351771446522863"><ele>679.0</ele><time>2026-04-03T18:51:21Z</time></trkpt><trkpt lat="43.53197950711698" lon="11.351883852342667"><ele>679.0</ele><time>2026-04-03T18:51:23Z</time></trkpt><trkpt lat="43.53192497847017" lon="11.351952568697273"><ele>679.0</ele><time>2026-04-03T18:51:24Z</time></trkpt><trkpt lat="43.53186905902597" lon="11.352019607340639"><ele>677.1666666666667</ele><time>2026-04-03T18:51:25Z</time></trkpt><trkpt lat="43.531813019915184" lon="11.352085752566541"><ele>675.3333333333334</ele><time>2026-04-03T18:51:26Z</time></trkpt><trkpt lat="43.53177587789548" lon="11.352164338429008"><ele>673.5</ele><time>2026-04-03T18:51:27Z</time></trkpt><trkpt lat="43.53175003742276" lon="11.352251456980781"><ele>671.6666666666666</ele><time>2026-04-03T18:51:28Z</time></trkpt><trkpt lat="43.53172289564372" lon="11.352356761261325"><ele>669.8333333333333</ele><time>2026-04-03T18:51:29Z</time></trkpt><trkpt lat="43.5317012270108" lon="11.35250178927558"><ele>668.0</ele><time>2026-04-03T18:51:31Z</time></trkpt><trkpt lat="43.5316824120976" lon="11.352618234321133"><ele>668.0</ele><time>2026-04-03T18:51:33Z</time></trkpt><trkpt lat="43.531620879028246" lon="11.352711037629728"><ele>668.0</ele><time>2026-04-03T18:51:35Z</time></trkpt><trkpt lat="43.53155916076639" lon="11.352795237991852"><ele>668.0</ele><time>2026-04-03T18:51:37Z</time></trkpt><trkpt lat="43.53152938562864" lon="11.352991568091323"><ele>668.0</ele><time>2026-04-03T18:51:39Z</time></trkpt><trkpt lat="43.5315224063813" lon="11.353177202001268"><ele>667.25</ele><time>2026-04-03T18:51:40Z</time></trkpt><trkpt lat="43.53150653476819" lon="11.35335188668917"><ele>666.5</ele><time>2026-04-03T18:51:41Z</time></trkpt><trkpt lat="43.5314860526143" lon="11.353525174700762"><ele>665.75</ele><time>2026-04-03T18:51:42Z</time></trkpt><trkpt lat="43.5314678321115" lon="11.353697090731734"><ele>665.0</ele><time>2026-04-03T18:51:43Z</time></trkpt><trkpt lat="43.531447921517604" lon="11.353853369856282"><ele>664.25</ele><time>2026-04-03T18:51:44Z</time></trkpt><trkpt lat="43.531417031668354" lon="11.354012681236565"><ele>663.5</ele><time>2026-04-03T18:51:45Z</time></trkpt><trkpt lat="43.531372273694686" lon="11.35418424915853"><ele>662.75</ele><time>2026-04-03T18:51:46Z</time></trkpt><trkpt lat="43.53132413193973" lon="11.35436470130451"><ele>662.0</ele><time>2026-04-03T18:51:47Z</time></trkpt><trkpt lat="43.531278214769685" lon="11.354525865105163"><ele>662.0</ele><time>2026-04-03T18:51:48Z</time></trkpt><trkpt lat="43.531237123588184" lon="11.354673826719193"><ele>662.0</ele><time>2026-04-03T18:51:49Z</time></trkpt><trkpt lat="43.53119711685246" lon="11.354815549744913"><ele>662.0</ele><time>2026-04-03T18:51:50Z</time></trkpt><trkpt lat="43.53115690545799" lon="11.354949569906328"><ele>662.0</ele><time>2026-04-03T18:51:51Z</time></trkpt><trkpt lat="43.531118024187506" lon="11.355076840569664"><ele>662.0</ele><time>2026-04-03T18:51:52Z</time></trkpt><trkpt lat="43.53104598634503" lon="11.355188928230524"><ele>662.0</ele><time>2026-04-03T18:51:53Z</time></trkpt><trkpt lat="43.53099357082366" lon="11.355317355238824"><ele>662.0</ele><time>2026-04-03T18:51:54Z</time></trkpt><trkpt lat="43.53095045144804" lon="11.355453936014522"><ele>662.0</ele><time>2026-04-03T18:51:55Z</time></trkpt><trkpt lat="43.53089728838443" lon="11.355567983321833"><ele>662.0</ele><time>2026-04-03T18:51:56Z</time></trkpt><trkpt lat="43.53082375615718" lon="11.355648031710192"><ele>662.0</ele><time>2026-04-03T18:51:57Z</time></trkpt><trkpt lat="43.53076645156653" lon="11.355724836988443"><ele>662.4000000000001</ele><time>2026-04-03T18:51:58Z</time></trkpt><trkpt lat="43.53071421969458" lon="11.35578156774345"><ele>662.8000000000001</ele><time>2026-04-03T18:51:59Z</time></trkpt><trkpt lat="43.530598786577265" lon="11.355874211233823"><ele>663.2</ele><time>2026-04-03T18:52:01Z</time></trkpt><trkpt lat="43.53052907137959" lon="11.355903905086917"><ele>663.6</ele><time>2026-04-03T18:52:02Z</time></trkpt><trkpt lat="43.53042429860499" lon="11.35585518345679"><ele>664.0</ele><time>2026-04-03T18:52:02.999Z</time></trkpt><trkpt lat="43.53033686207108" lon="11.355796601895367"><ele>664.4000000000001</ele><time>2026-04-03T18:52:03.999Z</time></trkpt><trkpt lat="43.530235280566494" lon="11.355748813243142"><ele>664.8</ele><time>2026-04-03T18:52:04.999Z</time></trkpt><trkpt lat="43.53012618169429" lon="11.355688932690825"><ele>665.2</ele><time>2026-04-03T18:52:05.999Z</time></trkpt><trkpt lat="43.530018091490064" lon="11.355645731280271"><ele>665.5999999999999</ele><time>2026-04-03T18:52:06.999Z</time></trkpt><trkpt lat="43.52993361741174" lon="11.355586497645572"><ele>666.0</ele><time>2026-04-03T18:52:07.999Z</time></trkpt><trkpt lat="43.52984812869324" lon="11.355546690379116"><ele>664.0</ele><time>2026-04-03T18:52:08.999Z</time></trkpt><trkpt lat="43.52976631376605" lon="11.355517477382607"><ele>662.0</ele><time>2026-04-03T18:52:09.999Z</time></trkpt><trkpt lat="43.529687282085845" lon="11.355494557781425"><ele>660.0</ele><time>2026-04-03T18:52:10.999Z</time></trkpt><trkpt lat="43.529601016734006" lon="11.355442704757312"><ele>658.0</ele><time>2026-04-03T18:52:11.999Z</time></trkpt><trkpt lat="43.5295057055382" lon="11.355434002712611"><ele>656.0</ele><time>2026-04-03T18:52:12.999Z</time></trkpt><trkpt lat="43.529418417826776" lon="11.355382972754727"><ele>656.0</ele><time>2026-04-03T18:52:13.999Z</time></trkpt><trkpt lat="43.52931998689382" lon="11.355351378390006"><ele>656.0</ele><time>2026-04-03T18:52:14.999Z</time></trkpt><trkpt lat="43.52922476620747" lon="11.355346254782377"><ele>656.0</ele><time>2026-04-03T18:52:15.999Z</time></trkpt><trkpt lat="43.52914208695687" lon="11.35533211510383"><ele>656.0</ele><time>2026-04-03T18:52:16.999Z</time></trkpt><trkpt lat="43.529060310739006" lon="11.355299593345359"><ele>656.0</ele><time>2026-04-03T18:52:17.999Z</time></trkpt><trkpt lat="43.52896779768342" lon="11.355307446093477"><ele>656.0</ele><time>2026-04-03T18:52:18.999Z</time></trkpt><trkpt lat="43.52887424862729" lon="11.355334097352458"><ele>656.0</ele><time>2026-04-03T18:52:19.999Z</time></trkpt><trkpt lat="43.528783280312005" lon="11.355380756015903"><ele>656.0</ele><time>2026-04-03T18:52:20.999Z</time></trkpt><trkpt lat="43.528683962326255" lon="11.355440763145893"><ele>656.0</ele><time>2026-04-03T18:52:21.999Z</time></trkpt><trkpt lat="43.52858853574911" lon="11.355506627086415"><ele>656.0</ele><time>2026-04-03T18:52:22.999Z</time></trkpt><trkpt lat="43.52850867500961" lon="11.355577177929053"><ele>657.5999999999999</ele><time>2026-04-03T18:52:23.999Z</time></trkpt><trkpt lat="43.52842304314909" lon="11.355633782706388"><ele>659.2</ele><time>2026-04-03T18:52:24.999Z</time></trkpt><trkpt lat="43.528329799541716" lon="11.355679576356042"><ele>660.8</ele><time>2026-04-03T18:52:25.999Z</time></trkpt><trkpt lat="43.528244723976094" lon="11.355764579981972"><ele>662.4000000000001</ele><time>2026-04-03T18:52:26.999Z</time></trkpt><trkpt lat="43.5281706827532" lon="11.355847959232914"><ele>664.0</ele><time>2026-04-03T18:52:27.999Z</time></trkpt><trkpt lat="43.528118208474254" lon="11.355980325114187"><ele>664.0</ele><time>2026-04-03T18:52:28.999Z</time></trkpt><trkpt lat="43.52805941260633" lon="11.35610405374248"><ele>664.0</ele><time>2026-04-03T18:52:29.999Z</time></trkpt><trkpt lat="43.52800154520494" lon="11.356230757818132"><ele>664.0</ele><time>2026-04-03T18:52:30.999Z</time></trkpt><trkpt lat="43.52794498399723" lon="11.356355463470303"><ele>664.0</ele><time>2026-04-03T18:52:31.999Z</time></trkpt><trkpt lat="43.52788691706094" lon="11.356483488899155"><ele>664.0</ele><time>2026-04-03T18:52:32.999Z</time></trkpt><trkpt lat="43.527830990445906" lon="11.356606820151617"><ele>666.2</ele><time>2026-04-03T18:52:33.999Z</time></trkpt><trkpt lat="43.52777516182285" lon="11.356732043235034"><ele>668.4000000000001</ele><time>2026-04-03T18:52:34.999Z</time></trkpt><trkpt lat="43.52771939950335" lon="11.35685873346377"><ele>670.6</ele><time>2026-04-03T18:52:35.999Z</time></trkpt><trkpt lat="43.52766502035912" lon="11.356986260392878"><ele>672.8</ele><time>2026-04-03T18:52:36.999Z</time></trkpt><trkpt lat="43.52761396139111" lon="11.357109476053607"><ele>675.0</ele><time>2026-04-03T18:52:37.999Z</time></trkpt><trkpt lat="43.52756553463813" lon="11.35723590399349"><ele>675.4</ele><time>2026-04-03T18:52:38.999Z</time></trkpt><trkpt lat="43.527524968361625" lon="11.357374128474827"><ele>675.8</ele><time>2026-04-03T18:52:39.999Z</time></trkpt><trkpt lat="43.52750274348405" lon="11.357498473000682"><ele>676.2</ele><time>2026-04-03T18:52:40.999Z</time></trkpt><trkpt lat="43.52749888558932" lon="11.357619638959068"><ele>676.6</ele><time>2026-04-03T18:52:41.999Z</time></trkpt><trkpt lat="43.527504961541666" lon="11.357740563578009"><ele>677.0</ele><time>2026-04-03T18:52:42.999Z</time></trkpt><trkpt lat="43.52754124547757" lon="11.357870084264379"><ele>677.0</ele><time>2026-04-03T18:52:43.999Z</time></trkpt><trkpt lat="43.52755343917986" lon="11.358004267991882"><ele>677.0</ele><time>2026-04-03T18:52:44.999Z</time></trkpt><trkpt lat="43.5275554493298" lon="11.358138704486283"><ele>677.0</ele><time>2026-04-03T18:52:45.999Z</time></trkpt><trkpt lat="43.527544457470135" lon="11.358267863217895"><ele>677.0</ele><time>2026-04-03T18:52:46.999Z</time></trkpt><trkpt lat="43.527490331188346" lon="11.358391934593888"><ele>677.0</ele><time>2026-04-03T18:52:47.999Z</time></trkpt><trkpt lat="43.52744362992113" lon="11.358523044642997"><ele>677.2</ele><time>2026-04-03T18:52:48.999Z</time></trkpt><trkpt lat="43.527390453187856" lon="11.358650539968723"><ele>677.4000000000001</ele><time>2026-04-03T18:52:49.999Z</time></trkpt><trkpt lat="43.52733303836185" lon="11.358759227358563"><ele>677.5999999999999</ele><time>2026-04-03T18:52:50.999Z</time></trkpt><trkpt lat="43.52726542358621" lon="11.358874329744284"><ele>677.8</ele><time>2026-04-03T18:52:51.999Z</time></trkpt><trkpt lat="43.52719377502244" lon="11.358972377465852"><ele>678.0</ele><time>2026-04-03T18:52:52.999Z</time></trkpt><trkpt lat="43.52711481120345" lon="11.359055391835392"><ele>682.5</ele><time>2026-04-03T18:52:53.999Z</time></trkpt><trkpt lat="43.52702583096302" lon="11.359140690609893"><ele>687.0</ele><time>2026-04-03T18:52:54.999Z</time></trkpt><trkpt lat="43.526929424693925" lon="11.359230452190198"><ele>691.5</ele><time>2026-04-03T18:52:55.999Z</time></trkpt><trkpt lat="43.52682789873225" lon="11.359325388081695"><ele>696.0</ele><time>2026-04-03T18:52:56.999Z</time></trkpt><trkpt lat="43.52672527728508" lon="11.359435011038748"><ele>696.0</ele><time>2026-04-03T18:52:57.999Z</time></trkpt><trkpt lat="43.526625360021335" lon="11.35955771869697"><ele>696.0</ele><time>2026-04-03T18:52:58.999Z</time></trkpt><trkpt lat="43.526521729216775" lon="11.359692061130374"><ele>696.0</ele><time>2026-04-03T18:52:59.999Z</time></trkpt><trkpt lat="43.526422142945876" lon="11.359833799242164"><ele>696.0</ele><time>2026-04-03T18:53:00.999Z</time></trkpt><trkpt lat="43.5263326479344" lon="11.359967777224453"><ele>696.75</ele><time>2026-04-03T18:53:01.999Z</time></trkpt><trkpt lat="43.52624873265129" lon="11.360088303175045"><ele>697.5</ele><time>2026-04-03T18:53:02.999Z</time></trkpt><trkpt lat="43.526157402304854" lon="11.360210720655566"><ele>698.25</ele><time>2026-04-03T18:53:03.999Z</time></trkpt><trkpt lat="43.5260603717971" lon="11.360339437325374"><ele>699.0</ele><time>2026-04-03T18:53:04.999Z</time></trkpt><trkpt lat="43.52596750421685" lon="11.360474327937409"><ele>696.75</ele><time>2026-04-03T18:53:05.999Z</time></trkpt><trkpt lat="43.52588546540187" lon="11.360615176349553"><ele>694.5</ele><time>2026-04-03T18:53:06.999Z</time></trkpt><trkpt lat="43.52581982076598" lon="11.360744451435865"><ele>692.25</ele><time>2026-04-03T18:53:07.999Z</time></trkpt><trkpt lat="43.525787169339516" lon="11.360873631372892"><ele>690.0</ele><time>2026-04-03T18:53:08.999Z</time></trkpt><trkpt lat="43.525784088382395" lon="11.361030824576957"><ele>690.0</ele><time>2026-04-03T18:53:09.999Z</time></trkpt><trkpt lat="43.525782050605144" lon="11.361185073357621"><ele>690.0</ele><time>2026-04-03T18:53:10.999Z</time></trkpt><trkpt lat="43.52578541388944" lon="11.361349565372477"><ele>690.0</ele><time>2026-04-03T18:53:11.999Z</time></trkpt><trkpt lat="43.52579921717508" lon="11.361512690839394"><ele>690.0</ele><time>2026-04-03T18:53:12.999Z</time></trkpt><trkpt lat="43.52581624205566" lon="11.361683261731525"><ele>690.75</ele><time>2026-04-03T18:53:13.999Z</time></trkpt><trkpt lat="43.525834459443494" lon="11.361861017310881"><ele>691.5</ele><time>2026-04-03T18:53:14.999Z</time></trkpt><trkpt lat="43.52585328861269" lon="11.362043152533834"><ele>692.25</ele><time>2026-04-03T18:53:15.999Z</time></trkpt><trkpt lat="43.52587353626943" lon="11.362244299542327"><ele>693.0</ele><time>2026-04-03T18:53:16.999Z</time></trkpt><trkpt lat="43.52589153547041" lon="11.362431220717106"><ele>693.0</ele><time>2026-04-03T18:53:17.999Z</time></trkpt><trkpt lat="43.52590688425839" lon="11.362590616907601"><ele>693.0</ele><time>2026-04-03T18:53:18.999Z</time></trkpt><trkpt lat="43.52592155537953" lon="11.362742975724508"><ele>693.0</ele><time>2026-04-03T18:53:19.999Z</time></trkpt><trkpt lat="43.52593787799792" lon="11.362909859550692"><ele>693.0</ele><time>2026-04-03T18:53:20.999Z</time></trkpt><trkpt lat="43.52597103819637" lon="11.363074733313896"><ele>693.0</ele><time>2026-04-03T18:53:21.999Z</time></trkpt><trkpt lat="43.5259872241194" lon="11.363242448454667"><ele>693.0</ele><time>2026-04-03T18:53:23Z</time></trkpt><trkpt lat="43.526006011827675" lon="11.363410948354018"><ele>693.0</ele><time>2026-04-03T18:53:24Z</time></trkpt><trkpt lat="43.52602274575343" lon="11.36355947253669"><ele>693.0</ele><time>2026-04-03T18:53:25Z</time></trkpt><trkpt lat="43.52603972619794" lon="11.363705794965611"><ele>693.0</ele><time>2026-04-03T18:53:26Z</time></trkpt><trkpt lat="43.52606340465616" lon="11.36384107289046"><ele>693.0</ele><time>2026-04-03T18:53:27Z</time></trkpt><trkpt lat="43.52609028520077" lon="11.363963834819415"><ele>693.0</ele><time>2026-04-03T18:53:28Z</time></trkpt><trkpt lat="43.526125892752034" lon="11.364076956700812"><ele>693.0</ele><time>2026-04-03T18:53:29Z</time></trkpt><trkpt lat="43.52617086019621" lon="11.36417007026444"><ele>693.0</ele><time>2026-04-03T18:53:30Z</time></trkpt><trkpt lat="43.52623025322631" lon="11.364283854130825"><ele>693.0</ele><time>2026-04-03T18:53:31Z</time></trkpt><trkpt lat="43.52630470466295" lon="11.3644119874988"><ele>693.0</ele><time>2026-04-03T18:53:32Z</time></trkpt><trkpt lat="43.52637281885651" lon="11.364562022453647"><ele>693.0</ele><time>2026-04-03T18:53:33Z</time></trkpt><trkpt lat="43.526436524139854" lon="11.364683907437794"><ele>693.0</ele><time>2026-04-03T18:53:34Z</time></trkpt><trkpt lat="43.52649250718146" lon="11.364792921503355"><ele>694.5999999999999</ele><time>2026-04-03T18:53:35Z</time></trkpt><trkpt lat="43.52653619407132" lon="11.364898349783886"><ele>696.1999999999999</ele><time>2026-04-03T18:53:36Z</time></trkpt><trkpt lat="43.526565806506056" lon="11.365011677879064"><ele>697.8</ele><time>2026-04-03T18:53:37Z</time></trkpt><trkpt lat="43.52658175398885" lon="11.365128399817609"><ele>699.4</ele><time>2026-04-03T18:53:38Z</time></trkpt><trkpt lat="43.52658823633097" lon="11.365237919780139"><ele>701.0</ele><time>2026-04-03T18:53:39Z</time></trkpt><trkpt lat="43.52654202060503" lon="11.365381454726514"><ele>703.0</ele><time>2026-04-03T18:53:41Z</time></trkpt><trkpt lat="43.526929691189785" lon="11.365614190799155"><ele>705.0</ele><time>2026-04-03T18:53:43Z</time></trkpt><trkpt lat="43.52698245750499" lon="11.365698895883538"><ele>705.0</ele><time>2026-04-03T18:53:44Z</time></trkpt><trkpt lat="43.52702143428869" lon="11.365783332183758"><ele>705.0</ele><time>2026-04-03T18:53:45Z</time></trkpt><trkpt lat="43.527067118729526" lon="11.36587909636794"><ele>705.0</ele><time>2026-04-03T18:53:46Z</time></trkpt><trkpt lat="43.52711084280886" lon="11.365985656413885"><ele>705.0</ele><time>2026-04-03T18:53:47Z</time></trkpt><trkpt lat="43.52715812574381" lon="11.366113372340491"><ele>705.0</ele><time>2026-04-03T18:53:48Z</time></trkpt><trkpt lat="43.527199934898256" lon="11.366230555292267"><ele>705.0</ele><time>2026-04-03T18:53:49Z</time></trkpt><trkpt lat="43.52722021977567" lon="11.366316112426427"><ele>706.6666666666666</ele><time>2026-04-03T18:53:50Z</time></trkpt><trkpt lat="43.52724938791915" lon="11.36639439534068"><ele>708.3333333333334</ele><time>2026-04-03T18:53:51Z</time></trkpt><trkpt lat="43.527272594383" lon="11.366481595201632"><ele>710.0</ele><time>2026-04-03T18:53:52Z</time></trkpt><trkpt lat="43.52730609285825" lon="11.36655815010937"><ele>711.6666666666667</ele><time>2026-04-03T18:53:53Z</time></trkpt><trkpt lat="43.527390953511" lon="11.366731684145988"><ele>713.3333333333334</ele><time>2026-04-03T18:53:55Z</time></trkpt><trkpt lat="43.52742593751682" lon="11.3668498606375"><ele>715.0</ele><time>2026-04-03T18:53:56Z</time></trkpt><trkpt lat="43.5274549031398" lon="11.366991772575554"><ele>715.0</ele><time>2026-04-03T18:53:58Z</time></trkpt><trkpt lat="43.52749113284092" lon="11.367076933780055"><ele>715.0</ele><time>2026-04-03T18:53:59Z</time></trkpt><trkpt lat="43.52754335877976" lon="11.367164344754432"><ele>715.0</ele><time>2026-04-03T18:54:00Z</time></trkpt><trkpt lat="43.52759661724296" lon="11.367279146984682"><ele>715.0</ele><time>2026-04-03T18:54:01Z</time></trkpt><trkpt lat="43.527650164644506" lon="11.367401224749782"><ele>715.0</ele><time>2026-04-03T18:54:02Z</time></trkpt><trkpt lat="43.52770555523211" lon="11.367518349212384"><ele>715.6</ele><time>2026-04-03T18:54:03Z</time></trkpt><trkpt lat="43.52776725092255" lon="11.36760842929394"><ele>716.2</ele><time>2026-04-03T18:54:04Z</time></trkpt><trkpt lat="43.52780950813571" lon="11.367698923977205"><ele>716.8</ele><time>2026-04-03T18:54:05Z</time></trkpt><trkpt lat="43.52787650737669" lon="11.367845107749126"><ele>717.4</ele><time>2026-04-03T18:54:07Z</time></trkpt><trkpt lat="43.52791726027327" lon="11.367917624324194"><ele>718.0</ele><time>2026-04-03T18:54:08Z</time></trkpt><trkpt lat="43.527981672501795" lon="11.368070152118904"><ele>720.4</ele><time>2026-04-03T18:54:09.999Z</time></trkpt><trkpt lat="43.528018707958445" lon="11.36815804697416"><ele>722.8</ele><time>2026-04-03T18:54:10.999Z</time></trkpt><trkpt lat="43.52805868669241" lon="11.368238142217415"><ele>725.2</ele><time>2026-04-03T18:54:11.999Z</time></trkpt><trkpt lat="43.528154076236426" lon="11.368365288692793"><ele>727.6</ele><time>2026-04-03T18:54:13.999Z</time></trkpt><trkpt lat="43.528255536471214" lon="11.368461222510446"><ele>730.0</ele><time>2026-04-03T18:54:15.999Z</time></trkpt><trkpt lat="43.52836804561705" lon="11.368534432593975"><ele>730.0000000000001</ele><time>2026-04-03T18:54:17.999Z</time></trkpt><trkpt lat="43.528431478802766" lon="11.368600796837617"><ele>730.0</ele><time>2026-04-03T18:54:18.999Z</time></trkpt><trkpt lat="43.528482948912014" lon="11.368697590810312"><ele>730.0</ele><time>2026-04-03T18:54:19.999Z</time></trkpt><trkpt lat="43.52852841377218" lon="11.368775453520692"><ele>730.0</ele><time>2026-04-03T18:54:20.999Z</time></trkpt><trkpt lat="43.528580289905" lon="11.368831142430723"><ele>730.0</ele><time>2026-04-03T18:54:21.999Z</time></trkpt><trkpt lat="43.528626111312256" lon="11.368896337775496"><ele>730.0000000000001</ele><time>2026-04-03T18:54:22.999Z</time></trkpt><trkpt lat="43.52866123048208" lon="11.368972117624006"><ele>730.0</ele><time>2026-04-03T18:54:23.999Z</time></trkpt><trkpt lat="43.52871216170904" lon="11.369057404656763"><ele>732.1666666666667</ele><time>2026-04-03T18:54:25.999Z</time></trkpt><trkpt lat="43.528759574694384" lon="11.369128648954515"><ele>734.3333333333334</ele><time>2026-04-03T18:54:26.999Z</time></trkpt><trkpt lat="43.52880366522009" lon="11.369216730395443"><ele>736.5</ele><time>2026-04-03T18:54:27.999Z</time></trkpt><trkpt lat="43.528824067110534" lon="11.369316690234697"><ele>738.6666666666666</ele><time>2026-04-03T18:54:28.999Z</time></trkpt><trkpt lat="43.52882605753216" lon="11.369428604136129"><ele>740.8333333333333</ele><time>2026-04-03T18:54:29.999Z</time></trkpt><trkpt lat="43.52885044701439" lon="11.369538644582454"><ele>743.0</ele><time>2026-04-03T18:54:30.999Z</time></trkpt><trkpt lat="43.528899736523066" lon="11.369619440338452"><ele>744.5</ele><time>2026-04-03T18:54:31.999Z</time></trkpt><trkpt lat="43.528948200806056" lon="11.369697834281546"><ele>746.0</ele><time>2026-04-03T18:54:32.999Z</time></trkpt><trkpt lat="43.528990617261414" lon="11.369790717643403"><ele>747.5</ele><time>2026-04-03T18:54:33.999Z</time></trkpt><trkpt lat="43.529013466842635" lon="11.369880029584392"><ele>749.0</ele><time>2026-04-03T18:54:34.999Z</time></trkpt><trkpt lat="43.529042047508376" lon="11.369971557508004"><ele>750.5</ele><time>2026-04-03T18:54:35.999Z</time></trkpt><trkpt lat="43.52911610271953" lon="11.370107610069761"><ele>752.0</ele><time>2026-04-03T18:54:37.999Z</time></trkpt><trkpt lat="43.52916697491705" lon="11.370189836597538"><ele>752.0</ele><time>2026-04-03T18:54:38.999Z</time></trkpt><trkpt lat="43.52920263100562" lon="11.370271845518278"><ele>752.0</ele><time>2026-04-03T18:54:39.999Z</time></trkpt><trkpt lat="43.529236971347785" lon="11.37039044047349"><ele>752.0</ele><time>2026-04-03T18:54:40.999Z</time></trkpt><trkpt lat="43.52926396965981" lon="11.370529443626621"><ele>752.0</ele><time>2026-04-03T18:54:41.999Z</time></trkpt><trkpt lat="43.52926663487449" lon="11.370650052054929"><ele>752.0</ele><time>2026-04-03T18:54:42.999Z</time></trkpt><trkpt lat="43.52925966167283" lon="11.37074010730276"><ele>752.0</ele><time>2026-04-03T18:54:43.999Z</time></trkpt><trkpt lat="43.52925986454051" lon="11.37087797176622"><ele>753.2</ele><time>2026-04-03T18:54:45.999Z</time></trkpt><trkpt lat="43.52929967027052" lon="11.371026562145863"><ele>754.4000000000001</ele><time>2026-04-03T18:54:47.999Z</time></trkpt><trkpt lat="43.529322642492" lon="11.371131009736407"><ele>755.5999999999999</ele><time>2026-04-03T18:54:48.999Z</time></trkpt><trkpt lat="43.52935729632383" lon="11.371255270573304"><ele>756.8</ele><time>2026-04-03T18:54:49.999Z</time></trkpt><trkpt lat="43.52939187986592" lon="11.37137456708927"><ele>758.0</ele><time>2026-04-03T18:54:50.999Z</time></trkpt><trkpt lat="43.52941217241324" lon="11.37146661825767"><ele>758.8333333333333</ele><time>2026-04-03T18:54:51.999Z</time></trkpt><trkpt lat="43.529426576966415" lon="11.371555545524982"><ele>759.6666666666666</ele><time>2026-04-03T18:54:52.999Z</time></trkpt><trkpt lat="43.52943653878113" lon="11.371650804455703"><ele>760.5</ele><time>2026-04-03T18:54:53.999Z</time></trkpt><trkpt lat="43.52945346996168" lon="11.371759374203444"><ele>761.3333333333334</ele><time>2026-04-03T18:54:54.999Z</time></trkpt><trkpt lat="43.529474395586575" lon="11.371904452509838"><ele>762.1666666666667</ele><time>2026-04-03T18:54:56.999Z</time></trkpt><trkpt lat="43.52949357400806" lon="11.371997061512635"><ele>763.0</ele><time>2026-04-03T18:54:57.999Z</time></trkpt><trkpt lat="43.52950383810874" lon="11.372094051461756"><ele>763.1428571428571</ele><time>2026-04-03T18:54:58.999Z</time></trkpt><trkpt lat="43.52951667475907" lon="11.372204941070887"><ele>763.2857142857142</ele><time>2026-04-03T18:54:59.999Z</time></trkpt><trkpt lat="43.52952789611315" lon="11.372299610987225"><ele>763.4285714285714</ele><time>2026-04-03T18:55:00.999Z</time></trkpt><trkpt lat="43.529555940505176" lon="11.372385019733644"><ele>763.5714285714286</ele><time>2026-04-03T18:55:01.999Z</time></trkpt><trkpt lat="43.529599325269615" lon="11.372479732559752"><ele>763.7142857142857</ele><time>2026-04-03T18:55:02.999Z</time></trkpt><trkpt lat="43.5296364208572" lon="11.37256200266818"><ele>763.8571428571429</ele><time>2026-04-03T18:55:03.999Z</time></trkpt><trkpt lat="43.529669892781804" lon="11.372654476052663"><ele>764.0</ele><time>2026-04-03T18:55:04.999Z</time></trkpt><trkpt lat="43.52970401203972" lon="11.37274271945685"><ele>765.3333333333333</ele><time>2026-04-03T18:55:05.999Z</time></trkpt><trkpt lat="43.52974352085769" lon="11.372820270604398"><ele>766.6666666666666</ele><time>2026-04-03T18:55:06.999Z</time></trkpt><trkpt lat="43.529787876061015" lon="11.372885991630648"><ele>768.0</ele><time>2026-04-03T18:55:07.999Z</time></trkpt><trkpt lat="43.52986701532329" lon="11.373015043063452"><ele>769.3333333333333</ele><time>2026-04-03T18:55:09.999Z</time></trkpt><trkpt lat="43.52992514174799" lon="11.373077383560565"><ele>770.6666666666666</ele><time>2026-04-03T18:55:10.999Z</time></trkpt><trkpt lat="43.52998711884373" lon="11.373121264199545"><ele>772.0</ele><time>2026-04-03T18:55:11.999Z</time></trkpt><trkpt lat="43.53005440083089" lon="11.37316305364214"><ele>772.7142857142858</ele><time>2026-04-03T18:55:12.999Z</time></trkpt><trkpt lat="43.53012375815403" lon="11.373210048922962"><ele>773.4285714285714</ele><time>2026-04-03T18:55:13.999Z</time></trkpt><trkpt lat="43.53018229131321" lon="11.373252879210826"><ele>774.1428571428571</ele><time>2026-04-03T18:55:14.999Z</time></trkpt><trkpt lat="43.530246443303106" lon="11.373288921467488"><ele>774.8571428571429</ele><time>2026-04-03T18:55:15.999Z</time></trkpt><trkpt lat="43.53031831534703" lon="11.373338688039205"><ele>775.5714285714286</ele><time>2026-04-03T18:55:16.999Z</time></trkpt><trkpt lat="43.53038143243461" lon="11.373373791424404"><ele>776.2857142857143</ele><time>2026-04-03T18:55:17.999Z</time></trkpt><trkpt lat="43.530452029027835" lon="11.373435520718118"><ele>777.0</ele><time>2026-04-03T18:55:18.999Z</time></trkpt><trkpt lat="43.5304853756686" lon="11.373526653759146"><ele>777.0</ele><time>2026-04-03T18:55:19.999Z</time></trkpt><trkpt lat="43.530520805151696" lon="11.373621595919673"><ele>777.0</ele><time>2026-04-03T18:55:20.999Z</time></trkpt><trkpt lat="43.530562904895305" lon="11.37373580134975"><ele>777.0</ele><time>2026-04-03T18:55:21.999Z</time></trkpt><trkpt lat="43.530585762776184" lon="11.373826626172056"><ele>777.0</ele><time>2026-04-03T18:55:22.999Z</time></trkpt><trkpt lat="43.53062922563836" lon="11.373964878113767"><ele>777.0</ele><time>2026-04-03T18:55:24.999Z</time></trkpt><trkpt lat="43.53066049792072" lon="11.37406556954659"><ele>777.0</ele><time>2026-04-03T18:55:25.999Z</time></trkpt><trkpt lat="43.53070355209979" lon="11.374134378640985"><ele>778.8333333333334</ele><time>2026-04-03T18:55:26.999Z</time></trkpt><trkpt lat="43.53075959135808" lon="11.374280046985076"><ele>780.6666666666667</ele><time>2026-04-03T18:55:29Z</time></trkpt><trkpt lat="43.530770206758774" lon="11.374401036711049"><ele>782.5</ele><time>2026-04-03T18:55:30Z</time></trkpt><trkpt lat="43.53078699102411" lon="11.374512748427438"><ele>784.3333333333334</ele><time>2026-04-03T18:55:31Z</time></trkpt><trkpt lat="43.53079135561588" lon="11.374610283234233"><ele>786.1666666666667</ele><time>2026-04-03T18:55:32Z</time></trkpt><trkpt lat="43.530796643459816" lon="11.374714928541794"><ele>788.0</ele><time>2026-04-03T18:55:33Z</time></trkpt><trkpt lat="43.53081204421161" lon="11.374813431467386"><ele>789.5000000000001</ele><time>2026-04-03T18:55:34Z</time></trkpt><trkpt lat="43.53083052520993" lon="11.37497102296255"><ele>791.0</ele><time>2026-04-03T18:55:36Z</time></trkpt><trkpt lat="43.53084307526312" lon="11.375061896924127"><ele>792.5</ele><time>2026-04-03T18:55:37Z</time></trkpt><trkpt lat="43.53085439203944" lon="11.375161343787514"><ele>794.0</ele><time>2026-04-03T18:55:38Z</time></trkpt><trkpt lat="43.53086212999523" lon="11.375267102050726"><ele>795.5000000000001</ele><time>2026-04-03T18:55:39Z</time></trkpt><trkpt lat="43.53082784109791" lon="11.375413288017574"><ele>797.0</ele><time>2026-04-03T18:55:41Z</time></trkpt><trkpt lat="43.530821146142664" lon="11.37551093371691"><ele>798.6</ele><time>2026-04-03T18:55:42Z</time></trkpt><trkpt lat="43.530814830915304" lon="11.375628563454002"><ele>800.2</ele><time>2026-04-03T18:55:43Z</time></trkpt><trkpt lat="43.53080987342154" lon="11.375721850180609"><ele>801.8</ele><time>2026-04-03T18:55:44Z</time></trkpt><trkpt lat="43.53081060166752" lon="11.37582394790936"><ele>803.4</ele><time>2026-04-03T18:55:45Z</time></trkpt><trkpt lat="43.530817688785824" lon="11.375958161989937"><ele>805.0</ele><time>2026-04-03T18:55:47Z</time></trkpt><trkpt lat="43.53084185950472" lon="11.376148386649291"><ele>804.9999999999999</ele><time>2026-04-03T18:55:49Z</time></trkpt><trkpt lat="43.53086830204405" lon="11.376264378794671"><ele>805.0</ele><time>2026-04-03T18:55:50Z</time></trkpt><trkpt lat="43.53090047327688" lon="11.376369676635662"><ele>805.0</ele><time>2026-04-03T18:55:51Z</time></trkpt><trkpt lat="43.5309318767522" lon="11.376457956778287"><ele>805.0</ele><time>2026-04-03T18:55:52Z</time></trkpt><trkpt lat="43.53096161376887" lon="11.376538329879175"><ele>804.9999999999999</ele><time>2026-04-03T18:55:53Z</time></trkpt><trkpt lat="43.53099763443762" lon="11.376629408241712"><ele>805.0</ele><time>2026-04-03T18:55:54Z</time></trkpt><trkpt lat="43.531033676552894" lon="11.376717773613034"><ele>806.3333333333333</ele><time>2026-04-03T18:55:55Z</time></trkpt><trkpt lat="43.531062598280535" lon="11.376803043091515"><ele>807.6666666666666</ele><time>2026-04-03T18:55:56Z</time></trkpt><trkpt lat="43.531103872600646" lon="11.376917240816601"><ele>809.0</ele><time>2026-04-03T18:55:57Z</time></trkpt><trkpt lat="43.53115418179139" lon="11.37702766624435"><ele>810.3333333333333</ele><time>2026-04-03T18:55:58Z</time></trkpt><trkpt lat="43.53119871919286" lon="11.37711527348336"><ele>811.6666666666666</ele><time>2026-04-03T18:55:59Z</time></trkpt><trkpt lat="43.53124101860692" lon="11.377198043004404"><ele>813.0</ele><time>2026-04-03T18:56:00Z</time></trkpt><trkpt lat="43.53128419761572" lon="11.37727550986295"><ele>813.1666666666666</ele><time>2026-04-03T18:56:01Z</time></trkpt><trkpt lat="43.531356021929334" lon="11.377412311581116"><ele>813.3333333333333</ele><time>2026-04-03T18:56:03Z</time></trkpt><trkpt lat="43.53140579087543" lon="11.3775023304622"><ele>813.5</ele><time>2026-04-03T18:56:04Z</time></trkpt><trkpt lat="43.53146120344531" lon="11.37758461415358"><ele>813.6666666666666</ele><time>2026-04-03T18:56:04.999Z</time></trkpt><trkpt lat="43.53151773676346" lon="11.377664854740773"><ele>813.8333333333333</ele><time>2026-04-03T18:56:05.999Z</time></trkpt><trkpt lat="43.53156445975454" lon="11.37772724201587"><ele>814.0</ele><time>2026-04-03T18:56:06.999Z</time></trkpt><trkpt lat="43.5316131778075" lon="11.377790023483728"><ele>814.0</ele><time>2026-04-03T18:56:07.999Z</time></trkpt><trkpt lat="43.53166447578094" lon="11.377843970396066"><ele>814.0</ele><time>2026-04-03T18:56:08.999Z</time></trkpt><trkpt lat="43.531760510509756" lon="11.37794385341326"><ele>814.0</ele><time>2026-04-03T18:56:10.999Z</time></trkpt><trkpt lat="43.53180870249435" lon="11.3780128110812"><ele>814.0</ele><time>2026-04-03T18:56:11.999Z</time></trkpt><trkpt lat="43.5318658337154" lon="11.378158482382068"><ele>814.0</ele><time>2026-04-03T18:56:13.999Z</time></trkpt><trkpt lat="43.53192632801238" lon="11.378294755448254"><ele>815.3333333333333</ele><time>2026-04-03T18:56:15.999Z</time></trkpt><trkpt lat="43.532008558447494" lon="11.378421178622634"><ele>816.6666666666666</ele><time>2026-04-03T18:56:17.999Z</time></trkpt><trkpt lat="43.53204408552855" lon="11.378498632494098"><ele>818.0</ele><time>2026-04-03T18:56:18.999Z</time></trkpt><trkpt lat="43.5320901529945" lon="11.378577667754946"><ele>819.3333333333333</ele><time>2026-04-03T18:56:19.999Z</time></trkpt><trkpt lat="43.53213031421469" lon="11.378662865845698"><ele>820.6666666666666</ele><time>2026-04-03T18:56:20.999Z</time></trkpt><trkpt lat="43.53216770086175" lon="11.378735613904206"><ele>822.0</ele><time>2026-04-03T18:56:21.999Z</time></trkpt><trkpt lat="43.53220160329871" lon="11.378810128844004"><ele>824.8</ele><time>2026-04-03T18:56:22.999Z</time></trkpt><trkpt lat="43.53224554546292" lon="11.378971426987189"><ele>827.6</ele><time>2026-04-03T18:56:24.999Z</time></trkpt><trkpt lat="43.53228413322707" lon="11.379097475933014"><ele>830.4</ele><time>2026-04-03T18:56:26.999Z</time></trkpt><trkpt lat="43.53233936221416" lon="11.37922270554184"><ele>833.1999999999999</ele><time>2026-04-03T18:56:28.999Z</time></trkpt><trkpt lat="43.53238718302116" lon="11.379295982446783"><ele>836.0</ele><time>2026-04-03T18:56:29.999Z</time></trkpt><trkpt lat="43.53242770146749" lon="11.379367742323575"><ele>836.0000000000001</ele><time>2026-04-03T18:56:30.999Z</time></trkpt><trkpt lat="43.53246361465346" lon="11.379448917684726"><ele>836.0</ele><time>2026-04-03T18:56:31.999Z</time></trkpt><trkpt lat="43.5324744300059" lon="11.37954652782606"><ele>836.0</ele><time>2026-04-03T18:56:32.999Z</time></trkpt><trkpt lat="43.532472233031314" lon="11.379661731941653"><ele>836.0</ele><time>2026-04-03T18:56:33.999Z</time></trkpt><trkpt lat="43.532476087097635" lon="11.379761703612742"><ele>836.0000000000001</ele><time>2026-04-03T18:56:34.999Z</time></trkpt><trkpt lat="43.532487167484085" lon="11.379917267912809"><ele>836.0</ele><time>2026-04-03T18:56:36.999Z</time></trkpt><trkpt lat="43.532495266803" lon="11.380063557907814"><ele>836.1666666666667</ele><time>2026-04-03T18:56:38.999Z</time></trkpt><trkpt lat="43.53249897611668" lon="11.380150488614664"><ele>836.3333333333334</ele><time>2026-04-03T18:56:39.999Z</time></trkpt><trkpt lat="43.53249001827692" lon="11.380257540358294"><ele>836.5</ele><time>2026-04-03T18:56:40.999Z</time></trkpt><trkpt lat="43.532493097906084" lon="11.38037784776211"><ele>836.6666666666667</ele><time>2026-04-03T18:56:41.999Z</time></trkpt><trkpt lat="43.5325033023824" lon="11.380491417920044"><ele>836.8333333333334</ele><time>2026-04-03T18:56:42.999Z</time></trkpt><trkpt lat="43.532510656607585" lon="11.380590106569938"><ele>837.0</ele><time>2026-04-03T18:56:43.999Z</time></trkpt><trkpt lat="43.53252944149207" lon="11.380706931901285"><ele>837.0</ele><time>2026-04-03T18:56:45.999Z</time></trkpt><trkpt lat="43.53254104381479" lon="11.380835425019665"><ele>837.0</ele><time>2026-04-03T18:56:47.999Z</time></trkpt><trkpt lat="43.53251640810429" lon="11.38098155280248"><ele>837.0</ele><time>2026-04-03T18:56:49.999Z</time></trkpt><trkpt lat="43.53245986241284" lon="11.381118219311059"><ele>837.0</ele><time>2026-04-03T18:56:51.999Z</time></trkpt><trkpt lat="43.532433732121746" lon="11.381249976269782"><ele>837.0</ele><time>2026-04-03T18:56:53.999Z</time></trkpt><trkpt lat="43.53241123141189" lon="11.381365866939001"><ele>837.2</ele><time>2026-04-03T18:56:55.999Z</time></trkpt><trkpt lat="43.53241543730991" lon="11.381505997960634"><ele>837.4000000000001</ele><time>2026-04-03T18:56:57.999Z</time></trkpt><trkpt lat="43.53245830767858" lon="11.381614663052764"><ele>837.5999999999999</ele><time>2026-04-03T18:56:59.999Z</time></trkpt><trkpt lat="43.532503698884035" lon="11.381744388006338"><ele>837.8</ele><time>2026-04-03T18:57:01.999Z</time></trkpt><trkpt lat="43.532542267999006" lon="11.381887564535338"><ele>838.0</ele><time>2026-04-03T18:57:03.999Z</time></trkpt><trkpt lat="43.53255569069921" lon="11.382018961026235"><ele>838.0</ele><time>2026-04-03T18:57:05.999Z</time></trkpt><trkpt lat="43.53264421459288" lon="11.382122499433677"><ele>838.0</ele><time>2026-04-03T18:57:07.999Z</time></trkpt><trkpt lat="43.53273844017667" lon="11.382150927308508"><ele>838.0</ele><time>2026-04-03T18:57:09.999Z</time></trkpt><trkpt lat="43.532803381995905" lon="11.382163155291895"><ele>838.0</ele><time>2026-04-03T18:57:11.999Z</time></trkpt><trkpt lat="43.532877428619315" lon="11.382215780066007"><ele>838.0</ele><time>2026-04-03T18:57:13.999Z</time></trkpt><trkpt lat="43.53298306793764" lon="11.382276989353443"><ele>837.2</ele><time>2026-04-03T18:57:15.999Z</time></trkpt><trkpt lat="43.533070594804954" lon="11.382347840942218"><ele>836.4</ele><time>2026-04-03T18:57:17.999Z</time></trkpt><trkpt lat="43.53312684882221" lon="11.382387541219703"><ele>835.6</ele><time>2026-04-03T18:57:18.999Z</time></trkpt><trkpt lat="43.5332258113093" lon="11.382478219421357"><ele>834.8000000000001</ele><time>2026-04-03T18:57:20.999Z</time></trkpt><trkpt lat="43.53332006291678" lon="11.382546001896742"><ele>834.0</ele><time>2026-04-03T18:57:22.999Z</time></trkpt><trkpt lat="43.53339572762237" lon="11.382554257165497"><ele>834.0</ele><time>2026-04-03T18:57:23.999Z</time></trkpt><trkpt lat="43.53350558191052" lon="11.38257886620974"><ele>834.0</ele><time>2026-04-03T18:57:25.999Z</time></trkpt><trkpt lat="43.53357711730957" lon="11.382616423867555"><ele>834.0</ele><time>2026-04-03T18:57:26.999Z</time></trkpt><trkpt lat="43.53367377363479" lon="11.382635568746167"><ele>834.0</ele><time>2026-04-03T18:57:27.999Z</time></trkpt><trkpt lat="43.53375742938145" lon="11.382641124595125"><ele>834.0</ele><time>2026-04-03T18:57:28.999Z</time></trkpt><trkpt lat="43.533821974496014" lon="11.382647264953846"><ele>834.0</ele><time>2026-04-03T18:57:29.999Z</time></trkpt><trkpt lat="43.53395468512051" lon="11.382654765763425"><ele>831.5</ele><time>2026-04-03T18:57:31.999Z</time></trkpt><trkpt lat="43.5340415740697" lon="11.382668600885307"><ele>829.0</ele><time>2026-04-03T18:57:33Z</time></trkpt><trkpt lat="43.53412088405671" lon="11.382677721093724"><ele>826.5</ele><time>2026-04-03T18:57:34Z</time></trkpt><trkpt lat="43.5341899413739" lon="11.382682780986169"><ele>824.0</ele><time>2026-04-03T18:57:35Z</time></trkpt><trkpt lat="43.53425256719957" lon="11.382694782486924"><ele>821.5</ele><time>2026-04-03T18:57:36Z</time></trkpt><trkpt lat="43.53436263100147" lon="11.382734303067368"><ele>819.0</ele><time>2026-04-03T18:57:38Z</time></trkpt><trkpt lat="43.53442694787387" lon="11.382789971752265"><ele>819.0</ele><time>2026-04-03T18:57:40Z</time></trkpt><trkpt lat="43.534502042260264" lon="11.382847101068025"><ele>819.0</ele><time>2026-04-03T18:57:42Z</time></trkpt><trkpt lat="43.534602090314365" lon="11.382904076922955"><ele>819.0</ele><time>2026-04-03T18:57:44Z</time></trkpt><trkpt lat="43.53470292435614" lon="11.382933370738616"><ele>819.0</ele><time>2026-04-03T18:57:47Z</time></trkpt><trkpt lat="43.53478091034181" lon="11.38303680994389"><ele>819.0</ele><time>2026-04-03T18:57:49Z</time></trkpt><trkpt lat="43.5349062566057" lon="11.383076270842839"><ele>818.8000000000001</ele><time>2026-04-03T18:57:51Z</time></trkpt><trkpt lat="43.535002064588866" lon="11.383061869577537"><ele>818.6</ele><time>2026-04-03T18:57:53Z</time></trkpt><trkpt lat="43.53509909754509" lon="11.382969097587265"><ele>818.4</ele><time>2026-04-03T18:57:55Z</time></trkpt><trkpt lat="43.53516024400667" lon="11.382922561242252"><ele>818.2</ele><time>2026-04-03T18:57:56Z</time></trkpt><trkpt lat="43.53526327390966" lon="11.382852948393786"><ele>818.0</ele><time>2026-04-03T18:57:58Z</time></trkpt><trkpt lat="43.53535086416798" lon="11.382794890978056"><ele>818.0000000000001</ele><time>2026-04-03T18:58:00Z</time></trkpt><trkpt lat="43.53539311372257" lon="11.382725708263449"><ele>818.0</ele><time>2026-04-03T18:58:02Z</time></trkpt><trkpt lat="43.535467042596416" lon="11.382691149521857"><ele>818.0</ele><time>2026-04-03T18:58:04Z</time></trkpt><trkpt lat="43.53552631413267" lon="11.38263180470955"><ele>818.0</ele><time>2026-04-03T18:58:06Z</time></trkpt><trkpt lat="43.53563830475225" lon="11.382640452393394"><ele>818.0000000000001</ele><time>2026-04-03T18:58:08Z</time></trkpt><trkpt lat="43.53572734747326" lon="11.382647271629583"><ele>818.0</ele><time>2026-04-03T18:58:10Z</time></trkpt><trkpt lat="43.53580008498567" lon="11.382644500959701"><ele>818.0000000000001</ele><time>2026-04-03T18:58:12Z</time></trkpt><trkpt lat="43.53587675993443" lon="11.382652277610108"><ele>818.0</ele><time>2026-04-03T18:58:15Z</time></trkpt><trkpt lat="43.53595210500183" lon="11.382647607311565"><ele>818.0</ele><time>2026-04-03T18:58:16.999Z</time></trkpt><trkpt lat="43.53601401469471" lon="11.38267038864459"><ele>818.0</ele><time>2026-04-03T18:58:18.999Z</time></trkpt><trkpt lat="43.5361330213895" lon="11.382681597713415"><ele>818.0000000000001</ele><time>2026-04-03T18:58:20.999Z</time></trkpt><trkpt lat="43.53619933921631" lon="11.382691321484515"><ele>818.0</ele><time>2026-04-03T18:58:21.999Z</time></trkpt><trkpt lat="43.53626145147055" lon="11.382745068949008"><ele>817.5999999999999</ele><time>2026-04-03T18:58:22.999Z</time></trkpt><trkpt lat="43.53632114651827" lon="11.382789872566011"><ele>817.1999999999999</ele><time>2026-04-03T18:58:23.999Z</time></trkpt><trkpt lat="43.53643484604856" lon="11.382853544367174"><ele>816.8</ele><time>2026-04-03T18:58:25.999Z</time></trkpt><trkpt lat="43.53649019292085" lon="11.382897521677714"><ele>816.4</ele><time>2026-04-03T18:58:26.999Z</time></trkpt><trkpt lat="43.53657126594133" lon="11.38293125072342"><ele>816.0</ele><time>2026-04-03T18:58:27.999Z</time></trkpt><trkpt lat="43.53667958692699" lon="11.382990294986962"><ele>817.0</ele><time>2026-04-03T18:58:28.999Z</time></trkpt><trkpt lat="43.53676464959436" lon="11.383042366537639"><ele>818.0</ele><time>2026-04-03T18:58:29.999Z</time></trkpt><trkpt lat="43.53683517749621" lon="11.383098566269185"><ele>819.0</ele><time>2026-04-03T18:58:30.999Z</time></trkpt><trkpt lat="43.5368950256526" lon="11.383167737873855"><ele>820.0</ele><time>2026-04-03T18:58:31.999Z</time></trkpt><trkpt lat="43.53695137886112" lon="11.383237442770035"><ele>821.0</ele><time>2026-04-03T18:58:32.999Z</time></trkpt><trkpt lat="43.53701026318772" lon="11.383302750753407"><ele>822.0</ele><time>2026-04-03T18:58:33.999Z</time></trkpt><trkpt lat="43.537072477105724" lon="11.38334992420894"><ele>822.0</ele><time>2026-04-03T18:58:34.999Z</time></trkpt><trkpt lat="43.53714293012872" lon="11.383399501750887"><ele>822.0</ele><time>2026-04-03T18:58:36.999Z</time></trkpt><trkpt lat="43.537253897140616" lon="11.383353347972836"><ele>822.0</ele><time>2026-04-03T18:58:38.999Z</time></trkpt><trkpt lat="43.537339456618014" lon="11.383301868345907"><ele>822.0</ele><time>2026-04-03T18:58:39.999Z</time></trkpt><trkpt lat="43.537402868749595" lon="11.38326897149927"><ele>822.0</ele><time>2026-04-03T18:58:40.999Z</time></trkpt><trkpt lat="43.53750462332762" lon="11.383245542128764"><ele>822.0</ele><time>2026-04-03T18:58:42.999Z</time></trkpt><trkpt lat="43.537621685206716" lon="11.383205584648945"><ele>822.0</ele><time>2026-04-03T18:58:44.999Z</time></trkpt><trkpt lat="43.53771064240068" lon="11.383116753747887"><ele>822.0</ele><time>2026-04-03T18:58:45.999Z</time></trkpt><trkpt lat="43.53778310801022" lon="11.383063743817047"><ele>822.0</ele><time>2026-04-03T18:58:46.999Z</time></trkpt><trkpt lat="43.53784980530994" lon="11.383024624330714"><ele>822.0</ele><time>2026-04-03T18:58:47.999Z</time></trkpt><trkpt lat="43.537906882475724" lon="11.38297785425418"><ele>822.5</ele><time>2026-04-03T18:58:48.999Z</time></trkpt><trkpt lat="43.53797192078859" lon="11.382876309874371"><ele>823.0</ele><time>2026-04-03T18:58:50.999Z</time></trkpt><trkpt lat="43.53806795862362" lon="11.38285758981281"><ele>823.5</ele><time>2026-04-03T18:58:52.999Z</time></trkpt><trkpt lat="43.538128141519124" lon="11.382827053705066"><ele>824.0</ele><time>2026-04-03T18:58:53.999Z</time></trkpt><trkpt lat="43.53821963266982" lon="11.382797277562727"><ele>824.5</ele><time>2026-04-03T18:58:55.999Z</time></trkpt><trkpt lat="43.53828910439973" lon="11.382768058827907"><ele>825.0</ele><time>2026-04-03T18:59:04.999Z</time></trkpt><trkpt lat="43.53834477040375" lon="11.382725872319817"><ele>825.0</ele><time>2026-04-03T18:59:09.999Z</time></trkpt><trkpt lat="43.53826712484299" lon="11.38278691777553"><ele>825.0</ele><time>2026-04-03T18:59:33.999Z</time></trkpt><trkpt lat="43.538155134124295" lon="11.382815662126784"><ele>825.0</ele><time>2026-04-03T18:59:36.999Z</time></trkpt><trkpt lat="43.538049140041956" lon="11.38287467366078"><ele>825.0</ele><time>2026-04-03T18:59:39Z</time></trkpt><trkpt lat="43.53794119230006" lon="11.382894526608421"><ele>825.0</ele><time>2026-04-03T18:59:41Z</time></trkpt><trkpt lat="43.53795568177367" lon="11.38275484305978"><ele>825.0</ele><time>2026-04-03T18:59:43Z</time></trkpt><trkpt lat="43.537981275595364" lon="11.382628099315152"><ele>825.0</ele><time>2026-04-03T18:59:44Z</time></trkpt><trkpt lat="43.53801393233889" lon="11.382532702356631"><ele>825.0</ele><time>2026-04-03T18:59:45Z</time></trkpt><trkpt lat="43.53807606342213" lon="11.38243387181604"><ele>825.0</ele><time>2026-04-03T18:59:47Z</time></trkpt><trkpt lat="43.53817859179039" lon="11.382407003218534"><ele>825.0</ele><time>2026-04-03T18:59:50Z</time></trkpt><trkpt lat="43.53829051064299" lon="11.382355533495105"><ele>825.0</ele><time>2026-04-03T18:59:52Z</time></trkpt><trkpt lat="43.5383718672362" lon="11.382330028584349"><ele>825.0</ele><time>2026-04-03T18:59:53Z</time></trkpt><trkpt lat="43.53845650650927" lon="11.382282765075903"><ele>825.0</ele><time>2026-04-03T18:59:54Z</time></trkpt><trkpt lat="43.53856946719998" lon="11.382252220774273"><ele>825.0</ele><time>2026-04-03T18:59:55Z</time></trkpt><trkpt lat="43.53863951771548" lon="11.382248507431186"><ele>825.0</ele><time>2026-04-03T18:59:56Z</time></trkpt><trkpt lat="43.53876819182455" lon="11.38222957807658"><ele>824.5714285714286</ele><time>2026-04-03T18:59:58Z</time></trkpt><trkpt lat="43.538828658164114" lon="11.382201199422472"><ele>824.1428571428572</ele><time>2026-04-03T18:59:59Z</time></trkpt><trkpt lat="43.53888397020492" lon="11.38215415116562"><ele>823.7142857142858</ele><time>2026-04-03T19:00:00Z</time></trkpt><trkpt lat="43.538938559290116" lon="11.382108138708798"><ele>823.2857142857142</ele><time>2026-04-03T19:00:01Z</time></trkpt><trkpt lat="43.538993878727126" lon="11.382062801855252"><ele>822.8571428571429</ele><time>2026-04-03T19:00:02Z</time></trkpt><trkpt lat="43.53905713097708" lon="11.382010317680844"><ele>822.4285714285714</ele><time>2026-04-03T19:00:03Z</time></trkpt><trkpt lat="43.53915309893601" lon="11.381948726415018"><ele>822.0</ele><time>2026-04-03T19:00:05Z</time></trkpt><trkpt lat="43.53925254772557" lon="11.381879392842478"><ele>821.5</ele><time>2026-04-03T19:00:07Z</time></trkpt><trkpt lat="43.53931944164143" lon="11.381853641687334"><ele>821.0</ele><time>2026-04-03T19:00:08Z</time></trkpt><trkpt lat="43.53939402561224" lon="11.381821750992202"><ele>820.5</ele><time>2026-04-03T19:00:09Z</time></trkpt><trkpt lat="43.5394661772548" lon="11.381775149549114"><ele>820.0</ele><time>2026-04-03T19:00:10Z</time></trkpt><trkpt lat="43.53954865682944" lon="11.38172184855181"><ele>819.5</ele><time>2026-04-03T19:00:11Z</time></trkpt><trkpt lat="43.53962639342997" lon="11.381686864675201"><ele>819.0</ele><time>2026-04-03T19:00:12Z</time></trkpt><trkpt lat="43.53969896880997" lon="11.381658181504536"><ele>818.8000000000001</ele><time>2026-04-03T19:00:13Z</time></trkpt><trkpt lat="43.53978376955562" lon="11.381615372669021"><ele>818.6</ele><time>2026-04-03T19:00:14Z</time></trkpt><trkpt lat="43.53988794903281" lon="11.38157538914195"><ele>818.4</ele><time>2026-04-03T19:00:15Z</time></trkpt><trkpt lat="43.53999540124384" lon="11.381529362315094"><ele>818.2</ele><time>2026-04-03T19:00:16Z</time></trkpt><trkpt lat="43.54008174053034" lon="11.381498895463123"><ele>818.0</ele><time>2026-04-03T19:00:17Z</time></trkpt><trkpt lat="43.54014917375765" lon="11.381480755513627"><ele>818.0</ele><time>2026-04-03T19:00:18Z</time></trkpt><trkpt lat="43.54027784453462" lon="11.381406235212621"><ele>818.0</ele><time>2026-04-03T19:00:20Z</time></trkpt><trkpt lat="43.54035092623548" lon="11.381361284444054"><ele>818.0</ele><time>2026-04-03T19:00:21Z</time></trkpt><trkpt lat="43.540428207938255" lon="11.381323483443232"><ele>818.0</ele><time>2026-04-03T19:00:22Z</time></trkpt><trkpt lat="43.54050553049407" lon="11.381279823735987"><ele>818.0</ele><time>2026-04-03T19:00:23Z</time></trkpt><trkpt lat="43.540611019470596" lon="11.381243658904973"><ele>818.0</ele><time>2026-04-03T19:00:24.999Z</time></trkpt><trkpt lat="43.54070804445595" lon="11.381229315307976"><ele>818.0</ele><time>2026-04-03T19:00:26.999Z</time></trkpt><trkpt lat="43.540798243087664" lon="11.38122618702393"><ele>818.0</ele><time>2026-04-03T19:00:28.999Z</time></trkpt><trkpt lat="43.54088314808695" lon="11.381163507346676"><ele>818.0</ele><time>2026-04-03T19:00:30.999Z</time></trkpt><trkpt lat="43.54094180518081" lon="11.381004601606922"><ele>818.0</ele><time>2026-04-03T19:00:32.999Z</time></trkpt><trkpt lat="43.541013073349106" lon="11.380927085009933"><ele>818.0000000000001</ele><time>2026-04-03T19:00:34.999Z</time></trkpt><trkpt lat="43.54109391808714" lon="11.380822510378888"><ele>818.0</ele><time>2026-04-03T19:00:36.999Z</time></trkpt><trkpt lat="43.54115191934631" lon="11.380735169837052"><ele>818.0</ele><time>2026-04-03T19:00:37.999Z</time></trkpt><trkpt lat="43.54121655770283" lon="11.380649454828252"><ele>818.0</ele><time>2026-04-03T19:00:38.999Z</time></trkpt><trkpt lat="43.54126753509495" lon="11.380584635314083"><ele>818.0000000000001</ele><time>2026-04-03T19:00:39.999Z</time></trkpt><trkpt lat="43.54131771684273" lon="11.380513299944433"><ele>818.0</ele><time>2026-04-03T19:00:40.999Z</time></trkpt><trkpt lat="43.541377099276986" lon="11.380437402328603"><ele>819.3333333333334</ele><time>2026-04-03T19:00:41.999Z</time></trkpt><trkpt lat="43.54143723280843" lon="11.380362311912046"><ele>820.6666666666667</ele><time>2026-04-03T19:00:42.999Z</time></trkpt><trkpt lat="43.541540733263304" lon="11.380261681721146"><ele>822.0</ele><time>2026-04-03T19:00:44.999Z</time></trkpt><trkpt lat="43.54159680686602" lon="11.38021223784556"><ele>823.3333333333333</ele><time>2026-04-03T19:00:45.999Z</time></trkpt><trkpt lat="43.54164584111073" lon="11.380143819761736"><ele>824.6666666666666</ele><time>2026-04-03T19:00:46.999Z</time></trkpt><trkpt lat="43.541709872217645" lon="11.38006152935044"><ele>826.0</ele><time>2026-04-03T19:00:47.999Z</time></trkpt><trkpt lat="43.541767749714445" lon="11.380006180035727"><ele>825.9999999999999</ele><time>2026-04-03T19:00:48.999Z</time></trkpt><trkpt lat="43.54183090880374" lon="11.379974376055253"><ele>826.0</ele><time>2026-04-03T19:00:49.999Z</time></trkpt><trkpt lat="43.54190471614564" lon="11.379951302048369"><ele>826.0</ele><time>2026-04-03T19:00:50.999Z</time></trkpt><trkpt lat="43.541982695911905" lon="11.37993533782507"><ele>826.0</ele><time>2026-04-03T19:00:51.999Z</time></trkpt><trkpt lat="43.542058290513715" lon="11.379906167615921"><ele>825.9999999999999</ele><time>2026-04-03T19:00:52.999Z</time></trkpt><trkpt lat="43.54213549701618" lon="11.379870438729071"><ele>826.0</ele><time>2026-04-03T19:00:53.999Z</time></trkpt><trkpt lat="43.54221327747043" lon="11.379823205802209"><ele>827.4999999999999</ele><time>2026-04-03T19:00:54.999Z</time></trkpt><trkpt lat="43.5422857124691" lon="11.379764783522443"><ele>829.0</ele><time>2026-04-03T19:00:55.999Z</time></trkpt><trkpt lat="43.54237166331004" lon="11.379698706933803"><ele>830.5</ele><time>2026-04-03T19:00:56.999Z</time></trkpt><trkpt lat="43.542444554043456" lon="11.379644725114716"><ele>832.0</ele><time>2026-04-03T19:00:57.999Z</time></trkpt><trkpt lat="43.5425209860714" lon="11.379595916736903"><ele>833.4999999999999</ele><time>2026-04-03T19:00:58.999Z</time></trkpt><trkpt lat="43.54261260610157" lon="11.379550454783788"><ele>835.0</ele><time>2026-04-03T19:00:59.999Z</time></trkpt><trkpt lat="43.54270836107461" lon="11.379509172073393"><ele>835.4</ele><time>2026-04-03T19:01:00.999Z</time></trkpt><trkpt lat="43.542816982465574" lon="11.379458237890967"><ele>835.8</ele><time>2026-04-03T19:01:01.999Z</time></trkpt><trkpt lat="43.5429244588131" lon="11.37940417414555"><ele>836.2</ele><time>2026-04-03T19:01:02.999Z</time></trkpt><trkpt lat="43.543027004562354" lon="11.379356879020825"><ele>836.6</ele><time>2026-04-03T19:01:03.999Z</time></trkpt><trkpt lat="43.543105892964824" lon="11.37932071536756"><ele>837.0</ele><time>2026-04-03T19:01:04.999Z</time></trkpt><trkpt lat="43.54318798465705" lon="11.379299884141156"><ele>837.0</ele><time>2026-04-03T19:01:05.999Z</time></trkpt><trkpt lat="43.543280479174086" lon="11.379279003269593"><ele>837.0</ele><time>2026-04-03T19:01:06.999Z</time></trkpt><trkpt lat="43.5433723848647" lon="11.379240636360022"><ele>837.0</ele><time>2026-04-03T19:01:07.999Z</time></trkpt><trkpt lat="43.54346421113271" lon="11.379172448194959"><ele>837.0</ele><time>2026-04-03T19:01:08.999Z</time></trkpt><trkpt lat="43.54355469326661" lon="11.3790987545215"><ele>837.0</ele><time>2026-04-03T19:01:09.999Z</time></trkpt><trkpt lat="43.54363082651393" lon="11.379044818873789"><ele>837.0</ele><time>2026-04-03T19:01:10.999Z</time></trkpt><trkpt lat="43.543700587553" lon="11.379000414386736"><ele>837.0</ele><time>2026-04-03T19:01:11.999Z</time></trkpt><trkpt lat="43.5437720376689" lon="11.378950914124976"><ele>837.0</ele><time>2026-04-03T19:01:12.999Z</time></trkpt><trkpt lat="43.54384274560523" lon="11.378897565642102"><ele>837.0</ele><time>2026-04-03T19:01:13.999Z</time></trkpt><trkpt lat="43.54391338482513" lon="11.378869913561777"><ele>837.0</ele><time>2026-04-03T19:01:14.999Z</time></trkpt><trkpt lat="43.543995093418424" lon="11.37885780169855"><ele>837.0</ele><time>2026-04-03T19:01:15.999Z</time></trkpt><trkpt lat="43.544084104967666" lon="11.378847393328954"><ele>837.4000000000001</ele><time>2026-04-03T19:01:16.999Z</time></trkpt><trkpt lat="43.5441864690773" lon="11.378859627740155"><ele>837.8000000000001</ele><time>2026-04-03T19:01:17.999Z</time></trkpt><trkpt lat="43.54429645865702" lon="11.378882937289218"><ele>838.2</ele><time>2026-04-03T19:01:18.999Z</time></trkpt><trkpt lat="43.54439305257662" lon="11.37888663108546"><ele>838.6</ele><time>2026-04-03T19:01:19.999Z</time></trkpt><trkpt lat="43.5444728823541" lon="11.378885055208611"><ele>839.0</ele><time>2026-04-03T19:01:20.999Z</time></trkpt><trkpt lat="43.54457323368003" lon="11.378859364676792"><ele>838.0</ele><time>2026-04-03T19:01:22.999Z</time></trkpt><trkpt lat="43.54464088066661" lon="11.37891731231847"><ele>837.0</ele><time>2026-04-03T19:01:24.999Z</time></trkpt><trkpt lat="43.54472460373619" lon="11.379042096894588"><ele>836.0</ele><time>2026-04-03T19:01:26.999Z</time></trkpt><trkpt lat="43.544794259558074" lon="11.379165100200279"><ele>835.0</ele><time>2026-04-03T19:01:28.999Z</time></trkpt><trkpt lat="43.54486390330305" lon="11.37930815569308"><ele>834.0</ele><time>2026-04-03T19:01:30.999Z</time></trkpt><trkpt lat="43.54489576883177" lon="11.379396787952924"><ele>834.0</ele><time>2026-04-03T19:01:31.999Z</time></trkpt><trkpt lat="43.54500477348129" lon="11.379523239791402"><ele>834.0</ele><time>2026-04-03T19:01:33.999Z</time></trkpt><trkpt lat="43.545064987568615" lon="11.379623529174168"><ele>834.0</ele><time>2026-04-03T19:01:34.999Z</time></trkpt><trkpt lat="43.54510001495718" lon="11.379701315475168"><ele>834.0</ele><time>2026-04-03T19:01:35.999Z</time></trkpt><trkpt lat="43.5451543074584" lon="11.379849199235537"><ele>834.0</ele><time>2026-04-03T19:01:37.999Z</time></trkpt><trkpt lat="43.5451899153937" lon="11.379927834029083"><ele>834.6666666666666</ele><time>2026-04-03T19:01:38.999Z</time></trkpt><trkpt lat="43.54523338526565" lon="11.380001959695951"><ele>835.3333333333333</ele><time>2026-04-03T19:01:39.999Z</time></trkpt><trkpt lat="43.545306263305044" lon="11.380096948372946"><ele>836.0</ele><time>2026-04-03T19:01:41.999Z</time></trkpt><trkpt lat="43.545380641805075" lon="11.380154794448451"><ele>836.6666666666666</ele><time>2026-04-03T19:01:44Z</time></trkpt><trkpt lat="43.54542739117655" lon="11.380215743830146"><ele>837.3333333333333</ele><time>2026-04-03T19:01:48Z</time></trkpt><trkpt lat="43.545348249102894" lon="11.38014306154074"><ele>838.0</ele><time>2026-04-03T19:02:01Z</time></trkpt><trkpt lat="43.54527882081997" lon="11.38007882884888"><ele>838.0</ele><time>2026-04-03T19:02:04Z</time></trkpt><trkpt lat="43.54518571916246" lon="11.380123111849228"><ele>838.0</ele><time>2026-04-03T19:02:07Z</time></trkpt><trkpt lat="43.54512256398193" lon="11.380208650545448"><ele>838.0</ele><time>2026-04-03T19:02:09Z</time></trkpt><trkpt lat="43.54521308111004" lon="11.380095373874822"><ele>838.0</ele><time>2026-04-03T19:02:23Z</time></trkpt><trkpt lat="43.5452656309832" lon="11.38002998420264"><ele>838.0</ele><time>2026-04-03T19:02:24Z</time></trkpt><trkpt lat="43.54536318046596" lon="11.379958431762558"><ele>838.0</ele><time>2026-04-03T19:02:26Z</time></trkpt><trkpt lat="43.545489100466746" lon="11.379982228646591"><ele>838.0</ele><time>2026-04-03T19:02:27.999Z</time></trkpt><trkpt lat="43.54556933599064" lon="11.380074956985245"><ele>838.0</ele><time>2026-04-03T19:02:29.999Z</time></trkpt><trkpt lat="43.54562250120788" lon="11.380158217507253"><ele>838.0</ele><time>2026-04-03T19:02:31.999Z</time></trkpt><trkpt lat="43.54567479123472" lon="11.380270016221223"><ele>838.0</ele><time>2026-04-03T19:02:33.999Z</time></trkpt><trkpt lat="43.545743522690145" lon="11.380351150819994"><ele>838.0</ele><time>2026-04-03T19:02:34.999Z</time></trkpt><trkpt lat="43.54581690742559" lon="11.38042995717853"><ele>838.0</ele><time>2026-04-03T19:02:35.999Z</time></trkpt><trkpt lat="43.545877274072566" lon="11.380520894810376"><ele>838.0</ele><time>2026-04-03T19:02:36.999Z</time></trkpt><trkpt lat="43.54593889747175" lon="11.38061938413058"><ele>838.0</ele><time>2026-04-03T19:02:37.999Z</time></trkpt><trkpt lat="43.546023424830274" lon="11.380698447719498"><ele>838.0</ele><time>2026-04-03T19:02:39.999Z</time></trkpt><trkpt lat="43.54609200585238" lon="11.38078478518714"><ele>839.9999999999999</ele><time>2026-04-03T19:02:42.999Z</time></trkpt><trkpt lat="43.546142257657294" lon="11.38086133390474"><ele>842.0</ele><time>2026-04-03T19:02:44.999Z</time></trkpt><trkpt lat="43.54618355844579" lon="11.380943524841612"><ele>844.0</ele><time>2026-04-03T19:02:46.999Z</time></trkpt><trkpt lat="43.546317300577094" lon="11.381013674605654"><ele>846.0</ele><time>2026-04-03T19:02:48.999Z</time></trkpt><trkpt lat="43.54638235056407" lon="11.381027427105257"><ele>847.9999999999999</ele><time>2026-04-03T19:02:49.999Z</time></trkpt><trkpt lat="43.54644509018501" lon="11.381036879262783"><ele>850.0</ele><time>2026-04-03T19:02:50.999Z</time></trkpt><trkpt lat="43.546555087986206" lon="11.381077580566394"><ele>850.2</ele><time>2026-04-03T19:02:52.999Z</time></trkpt><trkpt lat="43.54666151160798" lon="11.381127834537704"><ele>850.4</ele><time>2026-04-03T19:02:54.999Z</time></trkpt><trkpt lat="43.5467213014504" lon="11.381156525561664"><ele>850.5999999999999</ele><time>2026-04-03T19:02:55.999Z</time></trkpt><trkpt lat="43.54683254198087" lon="11.381225771308534"><ele>850.8</ele><time>2026-04-03T19:02:57.999Z</time></trkpt><trkpt lat="43.54689172101888" lon="11.38125925706238"><ele>851.0</ele><time>2026-04-03T19:02:58.999Z</time></trkpt><trkpt lat="43.54697785044839" lon="11.381329285680657"><ele>851.5999999999999</ele><time>2026-04-03T19:03:00.999Z</time></trkpt><trkpt lat="43.54702976708058" lon="11.381388475360671"><ele>852.2</ele><time>2026-04-03T19:03:01.999Z</time></trkpt><trkpt lat="43.547093608166165" lon="11.381448938978764"><ele>852.8000000000001</ele><time>2026-04-03T19:03:02.999Z</time></trkpt><trkpt lat="43.547136170143496" lon="11.381578745016109"><ele>853.4000000000001</ele><time>2026-04-03T19:03:04.999Z</time></trkpt><trkpt lat="43.54717284558153" lon="11.381688128360759"><ele>854.0</ele><time>2026-04-03T19:03:06.999Z</time></trkpt><trkpt lat="43.547269365574735" lon="11.381772364670173"><ele>854.0000000000001</ele><time>2026-04-03T19:03:08.999Z</time></trkpt><trkpt lat="43.54736371511964" lon="11.381812858365596"><ele>854.0</ele><time>2026-04-03T19:03:10.999Z</time></trkpt><trkpt lat="43.547443340952206" lon="11.381857694878637"><ele>854.0</ele><time>2026-04-03T19:03:12.999Z</time></trkpt><trkpt lat="43.54751815480931" lon="11.381931033482912"><ele>854.0</ele><time>2026-04-03T19:03:15.999Z</time></trkpt><trkpt lat="43.54761317308582" lon="11.381950957044767"><ele>854.0000000000001</ele><time>2026-04-03T19:03:17.999Z</time></trkpt><trkpt lat="43.5476793000243" lon="11.381969603964496"><ele>854.0</ele><time>2026-04-03T19:03:18.999Z</time></trkpt><trkpt lat="43.54774745921565" lon="11.382001821759413"><ele>854.0000000000001</ele><time>2026-04-03T19:03:19.999Z</time></trkpt><trkpt lat="43.54781095052053" lon="11.382042041346356"><ele>854.0</ele><time>2026-04-03T19:03:20.999Z</time></trkpt><trkpt lat="43.547873656659654" lon="11.382095970923581"><ele>854.0</ele><time>2026-04-03T19:03:21.999Z</time></trkpt><trkpt lat="43.54792937190254" lon="11.382161809968101"><ele>854.0</ele><time>2026-04-03T19:03:22.999Z</time></trkpt><trkpt lat="43.548016423674" lon="11.382269779023506"><ele>854.0000000000001</ele><time>2026-04-03T19:03:24.999Z</time></trkpt><trkpt lat="43.548038228205954" lon="11.382358135357439"><ele>854.0</ele><time>2026-04-03T19:03:25.999Z</time></trkpt><trkpt lat="43.548060109420874" lon="11.38245369419585"><ele>854.0</ele><time>2026-04-03T19:03:26.999Z</time></trkpt><trkpt lat="43.548099338766356" lon="11.382533829152106"><ele>854.0000000000001</ele><time>2026-04-03T19:03:27.999Z</time></trkpt><trkpt lat="43.54816806260933" lon="11.382655437007493"><ele>854.0000000000001</ele><time>2026-04-03T19:03:29.999Z</time></trkpt><trkpt lat="43.548174363463346" lon="11.382813637303812"><ele>854.0</ele><time>2026-04-03T19:03:31.999Z</time></trkpt><trkpt lat="43.54816035217419" lon="11.382956053998287"><ele>854.0</ele><time>2026-04-03T19:03:33.999Z</time></trkpt><trkpt lat="43.548185117429014" lon="11.383070386976504"><ele>853.6666666666667</ele><time>2026-04-03T19:03:35.999Z</time></trkpt><trkpt lat="43.54821273028483" lon="11.38320258053365"><ele>853.3333333333334</ele><time>2026-04-03T19:03:37.999Z</time></trkpt><trkpt lat="43.548244566443934" lon="11.383296197197621"><ele>853.0</ele><time>2026-04-03T19:03:38.999Z</time></trkpt><trkpt lat="43.54828571937507" lon="11.383432550587251"><ele>852.6666666666667</ele><time>2026-04-03T19:03:40.999Z</time></trkpt><trkpt lat="43.54833958471384" lon="11.383515468332662"><ele>852.3333333333334</ele><time>2026-04-03T19:03:42.999Z</time></trkpt><trkpt lat="43.5483959227417" lon="11.383595764341061"><ele>852.0</ele><time>2026-04-03T19:03:44.999Z</time></trkpt><trkpt lat="43.54847068154436" lon="11.383695017437656"><ele>852.0</ele><time>2026-04-03T19:03:47.999Z</time></trkpt><trkpt lat="43.54852777746005" lon="11.383779862147943"><ele>852.0</ele><time>2026-04-03T19:03:50Z</time></trkpt><trkpt lat="43.548587274063884" lon="11.383842756925088"><ele>852.0</ele><time>2026-04-03T19:03:52Z</time></trkpt><trkpt lat="43.54865384895039" lon="11.383933999995552"><ele>852.0</ele><time>2026-04-03T19:03:54Z</time></trkpt><trkpt lat="43.54873537064759" lon="11.384059778057356"><ele>852.0</ele><time>2026-04-03T19:03:56Z</time></trkpt><trkpt lat="43.548789055242416" lon="11.384128735180612"><ele>852.0</ele><time>2026-04-03T19:03:57Z</time></trkpt><trkpt lat="43.54882525305358" lon="11.384203066996122"><ele>850.3333333333334</ele><time>2026-04-03T19:03:58Z</time></trkpt><trkpt lat="43.54888322904589" lon="11.38426893839243"><ele>848.6666666666667</ele><time>2026-04-03T19:04:00Z</time></trkpt><trkpt lat="43.54896450605643" lon="11.38434114668464"><ele>847.0</ele><time>2026-04-03T19:04:02Z</time></trkpt><trkpt lat="43.54902010099447" lon="11.384443178543913"><ele>845.3333333333334</ele><time>2026-04-03T19:04:04Z</time></trkpt><trkpt lat="43.54906218074996" lon="11.384536313182288"><ele>843.6666666666667</ele><time>2026-04-03T19:04:05Z</time></trkpt><trkpt lat="43.549115659945436" lon="11.384639829573683"><ele>842.0</ele><time>2026-04-03T19:04:06Z</time></trkpt><trkpt lat="43.54919553497974" lon="11.384755626916753"><ele>842.0</ele><time>2026-04-03T19:04:07Z</time></trkpt><trkpt lat="43.54926244139107" lon="11.384883283107625"><ele>842.0</ele><time>2026-04-03T19:04:08Z</time></trkpt><trkpt lat="43.549309280932135" lon="11.384984533290417"><ele>842.0</ele><time>2026-04-03T19:04:09Z</time></trkpt><trkpt lat="43.54936815813281" lon="11.385091622070492"><ele>842.0</ele><time>2026-04-03T19:04:10Z</time></trkpt><trkpt lat="43.54942586332263" lon="11.385182813980794"><ele>842.0</ele><time>2026-04-03T19:04:11Z</time></trkpt><trkpt lat="43.54948930982663" lon="11.385282687568122"><ele>843.8333333333334</ele><time>2026-04-03T19:04:12Z</time></trkpt><trkpt lat="43.54954734046198" lon="11.385384949113833"><ele>845.6666666666667</ele><time>2026-04-03T19:04:13Z</time></trkpt><trkpt lat="43.549599509776556" lon="11.385448584520725"><ele>847.5</ele><time>2026-04-03T19:04:14Z</time></trkpt><trkpt lat="43.54971771711799" lon="11.38551005977635"><ele>849.3333333333333</ele><time>2026-04-03T19:04:16Z</time></trkpt><trkpt lat="43.549803525136966" lon="11.385507339912122"><ele>851.1666666666666</ele><time>2026-04-03T19:04:17Z</time></trkpt><trkpt lat="43.54987182537169" lon="11.385527066394596"><ele>853.0</ele><time>2026-04-03T19:04:18Z</time></trkpt><trkpt lat="43.549938743916115" lon="11.385579074785841"><ele>854.4999999999999</ele><time>2026-04-03T19:04:19Z</time></trkpt><trkpt lat="43.55000397206019" lon="11.38565345877394"><ele>856.0</ele><time>2026-04-03T19:04:20Z</time></trkpt><trkpt lat="43.55006933122288" lon="11.385752638877122"><ele>857.5</ele><time>2026-04-03T19:04:21Z</time></trkpt><trkpt lat="43.5501306728093" lon="11.385836037038203"><ele>859.0</ele><time>2026-04-03T19:04:22Z</time></trkpt><trkpt lat="43.550174752230326" lon="11.385916939076594"><ele>860.4999999999999</ele><time>2026-04-03T19:04:23Z</time></trkpt><trkpt lat="43.55021173919913" lon="11.386038069985897"><ele>862.0</ele><time>2026-04-03T19:04:25Z</time></trkpt><trkpt lat="43.55022929956095" lon="11.386145056458918"><ele>862.0</ele><time>2026-04-03T19:04:27Z</time></trkpt><trkpt lat="43.55024259617239" lon="11.386238027206021"><ele>862.0</ele><time>2026-04-03T19:04:29Z</time></trkpt><trkpt lat="43.55023742584484" lon="11.386394616654892"><ele>862.0</ele><time>2026-04-03T19:04:32Z</time></trkpt><trkpt lat="43.55023015221031" lon="11.386560130276196"><ele>862.0</ele><time>2026-04-03T19:04:34Z</time></trkpt><trkpt lat="43.55022887306427" lon="11.38672987279828"><ele>862.0</ele><time>2026-04-03T19:04:35.999Z</time></trkpt><trkpt lat="43.55022295775873" lon="11.38682609985978"><ele>864.2</ele><time>2026-04-03T19:04:36.999Z</time></trkpt><trkpt lat="43.55019849549558" lon="11.386983293544592"><ele>866.4000000000001</ele><time>2026-04-03T19:04:38.999Z</time></trkpt><trkpt lat="43.550186737483486" lon="11.387076702867583"><ele>868.5999999999999</ele><time>2026-04-03T19:04:39.999Z</time></trkpt><trkpt lat="43.55017824089555" lon="11.387170474786911"><ele>870.8</ele><time>2026-04-03T19:04:40.999Z</time></trkpt><trkpt lat="43.550159385218535" lon="11.38725970809267"><ele>873.0</ele><time>2026-04-03T19:04:41.999Z</time></trkpt><trkpt lat="43.550100439289785" lon="11.38742191061982"><ele>875.1666666666666</ele><time>2026-04-03T19:04:43.999Z</time></trkpt><trkpt lat="43.55008011245471" lon="11.387511201784744"><ele>877.3333333333333</ele><time>2026-04-03T19:04:44.999Z</time></trkpt><trkpt lat="43.55010060297676" lon="11.387643158248425"><ele>879.5</ele><time>2026-04-03T19:04:46.999Z</time></trkpt><trkpt lat="43.55014415716869" lon="11.387722207566622"><ele>881.6666666666666</ele><time>2026-04-03T19:04:47.999Z</time></trkpt><trkpt lat="43.55019096964157" lon="11.387791401639157"><ele>883.8333333333333</ele><time>2026-04-03T19:04:48.999Z</time></trkpt><trkpt lat="43.55025199778302" lon="11.387857447120368"><ele>886.0</ele><time>2026-04-03T19:04:49.999Z</time></trkpt><trkpt lat="43.550332022514716" lon="11.387924031587415"><ele>886.6666666666666</ele><time>2026-04-03T19:04:50.999Z</time></trkpt><trkpt lat="43.55039382175961" lon="11.387987032306246"><ele>887.3333333333333</ele><time>2026-04-03T19:04:51.999Z</time></trkpt><trkpt lat="43.55044152292402" lon="11.3880505803328"><ele>888.0</ele><time>2026-04-03T19:04:52.999Z</time></trkpt><trkpt lat="43.5505540365599" lon="11.388134890796161"><ele>888.6666666666667</ele><time>2026-04-03T19:04:54.999Z</time></trkpt><trkpt lat="43.5506161977305" lon="11.388164554388371"><ele>889.3333333333334</ele><time>2026-04-03T19:04:55.999Z</time></trkpt><trkpt lat="43.550681548022304" lon="11.388208668817965"><ele>890.0</ele><time>2026-04-03T19:04:56.999Z</time></trkpt><trkpt lat="43.550750382524726" lon="11.38825036092782"><ele>891.5000000000001</ele><time>2026-04-03T19:04:57.999Z</time></trkpt><trkpt lat="43.55082275113513" lon="11.388290658970023"><ele>893.0</ele><time>2026-04-03T19:04:58.999Z</time></trkpt><trkpt lat="43.55089391300047" lon="11.38832348424788"><ele>894.5</ele><time>2026-04-03T19:04:59.999Z</time></trkpt><trkpt lat="43.550964142525764" lon="11.388357028354646"><ele>896.0</ele><time>2026-04-03T19:05:00.999Z</time></trkpt><trkpt lat="43.55102494967053" lon="11.388382091231545"><ele>897.5000000000001</ele><time>2026-04-03T19:05:01.999Z</time></trkpt><trkpt lat="43.55114186963091" lon="11.388457281142077"><ele>899.0</ele><time>2026-04-03T19:05:03.999Z</time></trkpt><trkpt lat="43.55122443973793" lon="11.388481864504453"><ele>899.5000000000001</ele><time>2026-04-03T19:05:04.999Z</time></trkpt><trkpt lat="43.55129367569208" lon="11.38849830461618"><ele>900.0</ele><time>2026-04-03T19:05:05.999Z</time></trkpt><trkpt lat="43.55139607452928" lon="11.388556986585801"><ele>900.5</ele><time>2026-04-03T19:05:07.999Z</time></trkpt><trkpt lat="43.55144323620799" lon="11.388670049371811"><ele>901.0</ele><time>2026-04-03T19:05:09.999Z</time></trkpt><trkpt lat="43.5514659998518" lon="11.388786494119481"><ele>901.5000000000001</ele><time>2026-04-03T19:05:11.999Z</time></trkpt><trkpt lat="43.55151647754209" lon="11.388839405940411"><ele>902.0</ele><time>2026-04-03T19:05:14.999Z</time></trkpt><trkpt lat="43.55158000042694" lon="11.38881955015042"><ele>902.0</ele><time>2026-04-03T19:05:16.999Z</time></trkpt><trkpt lat="43.55162741107491" lon="11.38866918015342"><ele>902.0</ele><time>2026-04-03T19:05:18.999Z</time></trkpt><trkpt lat="43.55169419347808" lon="11.388618025077365"><ele>902.0</ele><time>2026-04-03T19:05:20.999Z</time></trkpt><trkpt lat="43.55180335363323" lon="11.388638924522414"><ele>902.0</ele><time>2026-04-03T19:05:22.999Z</time></trkpt><trkpt lat="43.55187711115697" lon="11.388693709012593"><ele>902.0</ele><time>2026-04-03T19:05:25.999Z</time></trkpt><trkpt lat="43.55191891064108" lon="11.388785021220682"><ele>901.8333333333334</ele><time>2026-04-03T19:05:26.999Z</time></trkpt><trkpt lat="43.55196052726344" lon="11.38887209813958"><ele>901.6666666666667</ele><time>2026-04-03T19:05:27.999Z</time></trkpt><trkpt lat="43.55200182446447" lon="11.388949474560068"><ele>901.5</ele><time>2026-04-03T19:05:28.999Z</time></trkpt><trkpt lat="43.55207997305718" lon="11.38898718394087"><ele>901.3333333333333</ele><time>2026-04-03T19:05:30.999Z</time></trkpt><trkpt lat="43.55221753943043" lon="11.388924349710353"><ele>901.1666666666666</ele><time>2026-04-03T19:05:32.999Z</time></trkpt><trkpt lat="43.55228600662089" lon="11.388877509778546"><ele>901.0</ele><time>2026-04-03T19:05:33.999Z</time></trkpt><trkpt lat="43.55234239368163" lon="11.388827712842255"><ele>901.3333333333333</ele><time>2026-04-03T19:05:34.999Z</time></trkpt><trkpt lat="43.5524027589087" lon="11.388772658083433"><ele>901.6666666666666</ele><time>2026-04-03T19:05:35.999Z</time></trkpt><trkpt lat="43.55246358061239" lon="11.388719627393764"><ele>902.0</ele><time>2026-04-03T19:05:36.999Z</time></trkpt><trkpt lat="43.55252035167358" lon="11.388673601399718"><ele>902.3333333333333</ele><time>2026-04-03T19:05:37.999Z</time></trkpt><trkpt lat="43.55260632599141" lon="11.388576609563701"><ele>902.6666666666666</ele><time>2026-04-03T19:05:39.999Z</time></trkpt><trkpt lat="43.55269243282916" lon="11.388500492006772"><ele>903.0</ele><time>2026-04-03T19:05:41.999Z</time></trkpt><trkpt lat="43.552790396020434" lon="11.388405476559353"><ele>903.0</ele><time>2026-04-03T19:05:43.999Z</time></trkpt><trkpt lat="43.55284581736835" lon="11.388359896014677"><ele>903.0</ele><time>2026-04-03T19:05:44.999Z</time></trkpt><trkpt lat="43.55290475113067" lon="11.388310379671932"><ele>903.0</ele><time>2026-04-03T19:05:45.999Z</time></trkpt><trkpt lat="43.55300576431748" lon="11.388230219326699"><ele>903.0</ele><time>2026-04-03T19:05:47.999Z</time></trkpt><trkpt lat="43.55305597145404" lon="11.388175767528804"><ele>903.0</ele><time>2026-04-03T19:05:48.999Z</time></trkpt><trkpt lat="43.55314285585771" lon="11.388051814785312"><ele>903.0</ele><time>2026-04-03T19:05:50.999Z</time></trkpt><trkpt lat="43.55324676243499" lon="11.387997442062378"><ele>901.1666666666666</ele><time>2026-04-03T19:05:52.999Z</time></trkpt><trkpt lat="43.55330840568997" lon="11.387972790699223"><ele>899.3333333333333</ele><time>2026-04-03T19:05:53.999Z</time></trkpt><trkpt lat="43.55337962657921" lon="11.387979189978575"><ele>897.5</ele><time>2026-04-03T19:05:56Z</time></trkpt><trkpt lat="43.55341272524578" lon="11.387892614612184"><ele>895.6666666666666</ele><time>2026-04-03T19:05:58Z</time></trkpt><trkpt lat="43.553445966356584" lon="11.387770737927614"><ele>893.8333333333333</ele><time>2026-04-03T19:06:00Z</time></trkpt><trkpt lat="43.55355339241768" lon="11.387694274262897"><ele>892.0</ele><time>2026-04-03T19:06:02Z</time></trkpt><trkpt lat="43.55363083942495" lon="11.387649796909855"><ele>891.9999999999999</ele><time>2026-04-03T19:06:03Z</time></trkpt><trkpt lat="43.55369502447501" lon="11.387607318327573"><ele>892.0</ele><time>2026-04-03T19:06:04Z</time></trkpt><trkpt lat="43.55374918964385" lon="11.38755194437765"><ele>892.0</ele><time>2026-04-03T19:06:05Z</time></trkpt><trkpt lat="43.55382084035073" lon="11.387421346656929"><ele>892.0</ele><time>2026-04-03T19:06:07Z</time></trkpt><trkpt lat="43.553848772138" lon="11.38733333676057"><ele>891.9999999999999</ele><time>2026-04-03T19:06:08Z</time></trkpt><trkpt lat="43.5538660002051" lon="11.387244038814362"><ele>892.0</ele><time>2026-04-03T19:06:09Z</time></trkpt><trkpt lat="43.55395040552765" lon="11.38712319294585"><ele>890.1666666666666</ele><time>2026-04-03T19:06:11Z</time></trkpt><trkpt lat="43.55401946783369" lon="11.387098377812334"><ele>888.3333333333333</ele><time>2026-04-03T19:06:12Z</time></trkpt><trkpt lat="43.554102396951095" lon="11.387085537090172"><ele>886.5</ele><time>2026-04-03T19:06:13Z</time></trkpt><trkpt lat="43.55418428163168" lon="11.38706286469772"><ele>884.6666666666667</ele><time>2026-04-03T19:06:14Z</time></trkpt><trkpt lat="43.55426297220231" lon="11.387048631128998"><ele>882.8333333333334</ele><time>2026-04-03T19:06:15Z</time></trkpt><trkpt lat="43.55432925419166" lon="11.387036574016395"><ele>881.0</ele><time>2026-04-03T19:06:16Z</time></trkpt><trkpt lat="43.55439580020388" lon="11.387023424471483"><ele>881.0</ele><time>2026-04-03T19:06:17Z</time></trkpt><trkpt lat="43.55447066352166" lon="11.386995612662986"><ele>881.0</ele><time>2026-04-03T19:06:18Z</time></trkpt><trkpt lat="43.55453776796143" lon="11.386967987899464"><ele>881.0</ele><time>2026-04-03T19:06:19Z</time></trkpt><trkpt lat="43.55460737008521" lon="11.386960636481097"><ele>881.0</ele><time>2026-04-03T19:06:20Z</time></trkpt><trkpt lat="43.554669906558985" lon="11.386948983290788"><ele>881.0</ele><time>2026-04-03T19:06:21Z</time></trkpt><trkpt lat="43.554735353432854" lon="11.386919094701312"><ele>881.0</ele><time>2026-04-03T19:06:22Z</time></trkpt><trkpt lat="43.554805365296176" lon="11.386897859451631"><ele>881.0</ele><time>2026-04-03T19:06:23Z</time></trkpt><trkpt lat="43.55489137992931" lon="11.38689557027784"><ele>882.0</ele><time>2026-04-03T19:06:24Z</time></trkpt><trkpt lat="43.554976427365055" lon="11.386908933529932"><ele>882.9999999999999</ele><time>2026-04-03T19:06:25Z</time></trkpt><trkpt lat="43.555054704365915" lon="11.386925085348684"><ele>883.9999999999999</ele><time>2026-04-03T19:06:26Z</time></trkpt><trkpt lat="43.555150241534605" lon="11.386925961039799"><ele>885.0</ele><time>2026-04-03T19:06:27Z</time></trkpt><trkpt lat="43.555250458585974" lon="11.386928540772349"><ele>886.0</ele><time>2026-04-03T19:06:28Z</time></trkpt><trkpt lat="43.55535546037089" lon="11.386935682788916"><ele>884.1999999999999</ele><time>2026-04-03T19:06:29Z</time></trkpt><trkpt lat="43.55544598125352" lon="11.386944964311551"><ele>882.3999999999999</ele><time>2026-04-03T19:06:30Z</time></trkpt><trkpt lat="43.55553403251416" lon="11.386943657947368"><ele>880.6</ele><time>2026-04-03T19:06:31Z</time></trkpt><trkpt lat="43.55562775939291" lon="11.386916877147925"><ele>878.8</ele><time>2026-04-03T19:06:32Z</time></trkpt><trkpt lat="43.555724574698885" lon="11.386914947742634"><ele>877.0</ele><time>2026-04-03T19:06:33Z</time></trkpt><trkpt lat="43.55582521293583" lon="11.386905741957705"><ele>876.9999999999999</ele><time>2026-04-03T19:06:34Z</time></trkpt><trkpt lat="43.55590589320147" lon="11.386880907987509"><ele>877.0</ele><time>2026-04-03T19:06:35Z</time></trkpt><trkpt lat="43.55598570760547" lon="11.386876404536784"><ele>877.0</ele><time>2026-04-03T19:06:36Z</time></trkpt><trkpt lat="43.55606925251164" lon="11.38685878803212"><ele>877.0</ele><time>2026-04-03T19:06:37Z</time></trkpt><trkpt lat="43.55615308367568" lon="11.386875765648798"><ele>876.9999999999999</ele><time>2026-04-03T19:06:37.999Z</time></trkpt><trkpt lat="43.556224039208075" lon="11.38687080980981"><ele>877.0</ele><time>2026-04-03T19:06:38.999Z</time></trkpt><trkpt lat="43.5562877546776" lon="11.386863816473166"><ele>875.8333333333333</ele><time>2026-04-03T19:06:39.999Z</time></trkpt><trkpt lat="43.556367127176905" lon="11.386848790652513"><ele>874.6666666666666</ele><time>2026-04-03T19:06:40.999Z</time></trkpt><trkpt lat="43.55644223210013" lon="11.386817598549989"><ele>873.5</ele><time>2026-04-03T19:06:41.999Z</time></trkpt><trkpt lat="43.55650425883085" lon="11.386784858372513"><ele>872.3333333333333</ele><time>2026-04-03T19:06:42.999Z</time></trkpt><trkpt lat="43.55656473595203" lon="11.38673699997023"><ele>871.1666666666666</ele><time>2026-04-03T19:06:43.999Z</time></trkpt><trkpt lat="43.556648191317144" lon="11.386634057119931"><ele>870.0</ele><time>2026-04-03T19:06:45.999Z</time></trkpt><trkpt lat="43.55671942685684" lon="11.386456852423942"><ele>872.0</ele><time>2026-04-03T19:06:47.999Z</time></trkpt><trkpt lat="43.55675852355894" lon="11.386310769634099"><ele>874.0</ele><time>2026-04-03T19:06:48.999Z</time></trkpt><trkpt lat="43.556786663333675" lon="11.386215995119441"><ele>876.0</ele><time>2026-04-03T19:06:49.999Z</time></trkpt><trkpt lat="43.55683664952905" lon="11.386098892248125"><ele>878.0</ele><time>2026-04-03T19:06:51.999Z</time></trkpt><trkpt lat="43.556907412702394" lon="11.385961965836831"><ele>880.0</ele><time>2026-04-03T19:06:53.999Z</time></trkpt><trkpt lat="43.556941732106736" lon="11.385886916570326"><ele>879.9999999999999</ele><time>2026-04-03T19:06:54.999Z</time></trkpt><trkpt lat="43.55699123175827" lon="11.38582043712324"><ele>880.0</ele><time>2026-04-03T19:06:55.999Z</time></trkpt><trkpt lat="43.55703733997799" lon="11.385739851951731"><ele>880.0</ele><time>2026-04-03T19:06:56.999Z</time></trkpt><trkpt lat="43.55709321658074" lon="11.385646623758598"><ele>880.0</ele><time>2026-04-03T19:06:57.999Z</time></trkpt><trkpt lat="43.55713707143939" lon="11.385551007175453"><ele>879.9999999999999</ele><time>2026-04-03T19:06:58.999Z</time></trkpt><trkpt lat="43.55718086330764" lon="11.385461929310956"><ele>880.0</ele><time>2026-04-03T19:06:59.999Z</time></trkpt><trkpt lat="43.55721627584151" lon="11.385384520679771"><ele>878.0</ele><time>2026-04-03T19:07:00.999Z</time></trkpt><trkpt lat="43.557268620990925" lon="11.385258838572566"><ele>876.0</ele><time>2026-04-03T19:07:02.999Z</time></trkpt><trkpt lat="43.55734662471627" lon="11.385142211719781"><ele>874.0</ele><time>2026-04-03T19:07:04.999Z</time></trkpt><trkpt lat="43.55740479844411" lon="11.38506980620306"><ele>872.0</ele><time>2026-04-03T19:07:05.999Z</time></trkpt><trkpt lat="43.55746227112934" lon="11.385004589024385"><ele>870.0</ele><time>2026-04-03T19:07:06.999Z</time></trkpt><trkpt lat="43.55753046219735" lon="11.384931565577384"><ele>870.0000000000001</ele><time>2026-04-03T19:07:07.999Z</time></trkpt><trkpt lat="43.557583175427084" lon="11.384857441312953"><ele>870.0</ele><time>2026-04-03T19:07:08.999Z</time></trkpt><trkpt lat="43.5576284393134" lon="11.384786944925596"><ele>870.0</ele><time>2026-04-03T19:07:09.999Z</time></trkpt><trkpt lat="43.55767874369828" lon="11.384714152992647"><ele>870.0</ele><time>2026-04-03T19:07:10.999Z</time></trkpt><trkpt lat="43.55771949072108" lon="11.384639434044267"><ele>870.0</ele><time>2026-04-03T19:07:11.999Z</time></trkpt><trkpt lat="43.55776056644885" lon="11.384551899992278"><ele>870.0000000000001</ele><time>2026-04-03T19:07:12.999Z</time></trkpt><trkpt lat="43.5577940911063" lon="11.384466331383148"><ele>870.0</ele><time>2026-04-03T19:07:13.999Z</time></trkpt><trkpt lat="43.55784134212292" lon="11.384386950857946"><ele>866.4</ele><time>2026-04-03T19:07:14.999Z</time></trkpt><trkpt lat="43.55790495304701" lon="11.38430443764086"><ele>862.8</ele><time>2026-04-03T19:07:15.999Z</time></trkpt><trkpt lat="43.55795583422571" lon="11.384252605102782"><ele>859.2</ele><time>2026-04-03T19:07:16.999Z</time></trkpt><trkpt lat="43.55805520394743" lon="11.384158160761377"><ele>855.6</ele><time>2026-04-03T19:07:18.999Z</time></trkpt><trkpt lat="43.55814140706743" lon="11.384060359763474"><ele>852.0</ele><time>2026-04-03T19:07:20.999Z</time></trkpt><trkpt lat="43.558213144525446" lon="11.383976928997653"><ele>852.0</ele><time>2026-04-03T19:07:22.999Z</time></trkpt><trkpt lat="43.55828605214338" lon="11.383859355074136"><ele>852.0</ele><time>2026-04-03T19:07:24.999Z</time></trkpt><trkpt lat="43.5583775455301" lon="11.38373835402118"><ele>852.0</ele><time>2026-04-03T19:07:26.999Z</time></trkpt><trkpt lat="43.558447863179865" lon="11.38368630288655"><ele>852.0</ele><time>2026-04-03T19:07:27.999Z</time></trkpt><trkpt lat="43.55851160200064" lon="11.383655678018188"><ele>852.0</ele><time>2026-04-03T19:07:28.999Z</time></trkpt><trkpt lat="43.558607833055625" lon="11.383576546509575"><ele>852.8</ele><time>2026-04-03T19:07:30.999Z</time></trkpt><trkpt lat="43.558689193204025" lon="11.383540820141382"><ele>853.6</ele><time>2026-04-03T19:07:32.999Z</time></trkpt><trkpt lat="43.558781564700645" lon="11.38350755950143"><ele>854.3999999999999</ele><time>2026-04-03T19:07:34.999Z</time></trkpt><trkpt lat="43.558871747019595" lon="11.383507857455749"><ele>855.1999999999999</ele><time>2026-04-03T19:07:36.999Z</time></trkpt><trkpt lat="43.558971887075415" lon="11.383432019064797"><ele>856.0</ele><time>2026-04-03T19:07:38.999Z</time></trkpt><trkpt lat="43.55902512144717" lon="11.383375693846896"><ele>853.9999999999999</ele><time>2026-04-03T19:07:39.999Z</time></trkpt><trkpt lat="43.55908419266419" lon="11.383302694534155"><ele>852.0</ele><time>2026-04-03T19:07:40.999Z</time></trkpt><trkpt lat="43.55914077299485" lon="11.383252643464129"><ele>850.0</ele><time>2026-04-03T19:07:41.999Z</time></trkpt><trkpt lat="43.55920182439229" lon="11.383221293695842"><ele>848.0</ele><time>2026-04-03T19:07:42.999Z</time></trkpt><trkpt lat="43.55931315452888" lon="11.383167242792592"><ele>845.9999999999999</ele><time>2026-04-03T19:07:44.999Z</time></trkpt><trkpt lat="43.55939286572001" lon="11.383063690818759"><ele>844.0</ele><time>2026-04-03T19:07:46.999Z</time></trkpt><trkpt lat="43.559427699688584" lon="11.382971712407358"><ele>844.0</ele><time>2026-04-03T19:07:48.999Z</time></trkpt><trkpt lat="43.55950537469437" lon="11.382885479014593"><ele>844.0</ele><time>2026-04-03T19:07:50.999Z</time></trkpt><trkpt lat="43.55960287266369" lon="11.382775436862683"><ele>844.0</ele><time>2026-04-03T19:07:52.999Z</time></trkpt><trkpt lat="43.5596714819573" lon="11.382712531923744"><ele>844.0</ele><time>2026-04-03T19:07:54.999Z</time></trkpt><trkpt lat="43.55974803959427" lon="11.382628346972488"><ele>844.0</ele><time>2026-04-03T19:07:56.999Z</time></trkpt><trkpt lat="43.559812251281045" lon="11.38251357251631"><ele>843.0</ele><time>2026-04-03T19:07:58.999Z</time></trkpt><trkpt lat="43.55988202861575" lon="11.382418958667198"><ele>842.0</ele><time>2026-04-03T19:08:01Z</time></trkpt><trkpt lat="43.55994190887873" lon="11.382315842644312"><ele>841.0</ele><time>2026-04-03T19:08:03Z</time></trkpt><trkpt lat="43.56001410427" lon="11.382217403293467"><ele>840.0</ele><time>2026-04-03T19:08:05Z</time></trkpt><trkpt lat="43.56008338526793" lon="11.382099386988934"><ele>839.0</ele><time>2026-04-03T19:08:07Z</time></trkpt><trkpt lat="43.5601395648476" lon="11.381999726080787"><ele>839.0000000000001</ele><time>2026-04-03T19:08:09Z</time></trkpt><trkpt lat="43.560185397966336" lon="11.38190184428445"><ele>839.0</ele><time>2026-04-03T19:08:11Z</time></trkpt><trkpt lat="43.56023216029514" lon="11.381817063307643"><ele>839.0</ele><time>2026-04-03T19:08:13Z</time></trkpt><trkpt lat="43.560262100406774" lon="11.38169094363762"><ele>839.0</ele><time>2026-04-03T19:08:16Z</time></trkpt><trkpt lat="43.56031119846178" lon="11.381621337767374"><ele>839.0000000000001</ele><time>2026-04-03T19:08:19Z</time></trkpt><trkpt lat="43.56035859121382" lon="11.38154387502905"><ele>839.0</ele><time>2026-04-03T19:08:22Z</time></trkpt><trkpt lat="43.56040098753777" lon="11.38146934751109"><ele>838.1428571428571</ele><time>2026-04-03T19:08:24Z</time></trkpt><trkpt lat="43.560436692995154" lon="11.38137888598071"><ele>837.2857142857143</ele><time>2026-04-03T19:08:27Z</time></trkpt><trkpt lat="43.56046179476866" lon="11.381298368081797"><ele>836.4285714285714</ele><time>2026-04-03T19:08:33Z</time></trkpt><trkpt lat="43.560471997982496" lon="11.381203550051572"><ele>835.5714285714286</ele><time>2026-04-03T19:08:36Z</time></trkpt><trkpt lat="43.56047982634348" lon="11.38108594942358"><ele>834.7142857142858</ele><time>2026-04-03T19:08:39Z</time></trkpt><trkpt lat="43.56049426601481" lon="11.380999838764739"><ele>833.8571428571429</ele><time>2026-04-03T19:08:40.999Z</time></trkpt><trkpt lat="43.56051556005692" lon="11.380887896040768"><ele>833.0</ele><time>2026-04-03T19:08:43.999Z</time></trkpt><trkpt lat="43.56053561876237" lon="11.380797491608709"><ele>835.1666666666667</ele><time>2026-04-03T19:08:45.999Z</time></trkpt><trkpt lat="43.56054503049498" lon="11.380676062210076"><ele>837.3333333333334</ele><time>2026-04-03T19:08:47.999Z</time></trkpt><trkpt lat="43.56060302582166" lon="11.380612828437085"><ele>839.5</ele><time>2026-04-03T19:08:49.999Z</time></trkpt><trkpt lat="43.560705354158856" lon="11.380596700651598"><ele>841.6666666666667</ele><time>2026-04-03T19:08:51.999Z</time></trkpt><trkpt lat="43.56077502413351" lon="11.380566753134032"><ele>843.8333333333334</ele><time>2026-04-03T19:08:52.999Z</time></trkpt><trkpt lat="43.560849675464574" lon="11.380526812991842"><ele>846.0</ele><time>2026-04-03T19:08:53.999Z</time></trkpt><trkpt lat="43.56092784080862" lon="11.380486070943805"><ele>847.4</ele><time>2026-04-03T19:08:54.999Z</time></trkpt><trkpt lat="43.56101138664065" lon="11.380441897269142"><ele>848.8</ele><time>2026-04-03T19:08:55.999Z</time></trkpt><trkpt lat="43.56109058434123" lon="11.38040565955453"><ele>850.1999999999999</ele><time>2026-04-03T19:08:56.999Z</time></trkpt><trkpt lat="43.561170508429974" lon="11.380366024423036"><ele>851.5999999999999</ele><time>2026-04-03T19:08:57.999Z</time></trkpt><trkpt lat="43.56124601825401" lon="11.380327196394061"><ele>853.0</ele><time>2026-04-03T19:08:58.999Z</time></trkpt><trkpt lat="43.561353235871984" lon="11.38024652585089"><ele>852.9999999999999</ele><time>2026-04-03T19:09:00.999Z</time></trkpt><trkpt lat="43.56140845825595" lon="11.380186422905961"><ele>853.0</ele><time>2026-04-03T19:09:01.999Z</time></trkpt><trkpt lat="43.56145780984826" lon="11.380118364220337"><ele>853.0</ele><time>2026-04-03T19:09:02.999Z</time></trkpt><trkpt lat="43.561499634735114" lon="11.380042499347983"><ele>853.0</ele><time>2026-04-03T19:09:03.999Z</time></trkpt><trkpt lat="43.56153790662371" lon="11.379955289599792"><ele>852.9999999999999</ele><time>2026-04-03T19:09:04.999Z</time></trkpt><trkpt lat="43.561602487638" lon="11.379879731193423"><ele>853.0</ele><time>2026-04-03T19:09:05.999Z</time></trkpt><trkpt lat="43.56164122723517" lon="11.379773016823744"><ele>852.9999999999999</ele><time>2026-04-03T19:09:06.999Z</time></trkpt><trkpt lat="43.561697218212736" lon="11.379691054429143"><ele>853.0</ele><time>2026-04-03T19:09:07.999Z</time></trkpt><trkpt lat="43.56175728639772" lon="11.379603605325169"><ele>853.0</ele><time>2026-04-03T19:09:08.999Z</time></trkpt><trkpt lat="43.561813833331385" lon="11.379515020905359"><ele>853.0</ele><time>2026-04-03T19:09:09.999Z</time></trkpt><trkpt lat="43.5618725644379" lon="11.379426280622821"><ele>852.9999999999999</ele><time>2026-04-03T19:09:10.999Z</time></trkpt><trkpt lat="43.56193076945802" lon="11.379335080226644"><ele>853.0</ele><time>2026-04-03T19:09:11.999Z</time></trkpt><trkpt lat="43.56198849601" lon="11.379240153782627"><ele>851.3333333333333</ele><time>2026-04-03T19:09:12.999Z</time></trkpt><trkpt lat="43.5620282268755" lon="11.379139625205331"><ele>849.6666666666666</ele><time>2026-04-03T19:09:13.999Z</time></trkpt><trkpt lat="43.56208252688883" lon="11.379055023835944"><ele>848.0</ele><time>2026-04-03T19:09:14.999Z</time></trkpt><trkpt lat="43.56211554049154" lon="11.378940819210579"><ele>846.3333333333333</ele><time>2026-04-03T19:09:15.999Z</time></trkpt><trkpt lat="43.56215906242801" lon="11.378838427561147"><ele>844.6666666666666</ele><time>2026-04-03T19:09:16.999Z</time></trkpt><trkpt lat="43.56220429024622" lon="11.378741900715186"><ele>843.0</ele><time>2026-04-03T19:09:17.999Z</time></trkpt><trkpt lat="43.56226207092425" lon="11.378649385482575"><ele>843.0</ele><time>2026-04-03T19:09:18.999Z</time></trkpt><trkpt lat="43.562326783360106" lon="11.378560447207375"><ele>843.0</ele><time>2026-04-03T19:09:19.999Z</time></trkpt><trkpt lat="43.562394718383366" lon="11.378469128713721"><ele>843.0</ele><time>2026-04-03T19:09:20.999Z</time></trkpt><trkpt lat="43.5624684480871" lon="11.378386369383858"><ele>843.0</ele><time>2026-04-03T19:09:21.999Z</time></trkpt><trkpt lat="43.5625439593229" lon="11.37830664754546"><ele>843.0</ele><time>2026-04-03T19:09:22.999Z</time></trkpt><trkpt lat="43.56263110889942" lon="11.378241337041102"><ele>843.0</ele><time>2026-04-03T19:09:23.999Z</time></trkpt><trkpt lat="43.562722641543296" lon="11.37819331757643"><ele>843.0</ele><time>2026-04-03T19:09:24.999Z</time></trkpt><trkpt lat="43.56281435533992" lon="11.37814400045506"><ele>843.0</ele><time>2026-04-03T19:09:25.999Z</time></trkpt><trkpt lat="43.56292242210762" lon="11.378099042570017"><ele>843.0</ele><time>2026-04-03T19:09:26.999Z</time></trkpt><trkpt lat="43.5630560577018" lon="11.378047481140806"><ele>843.0</ele><time>2026-04-03T19:09:27.999Z</time></trkpt><trkpt lat="43.56317276688403" lon="11.377990710002393"><ele>840.2</ele><time>2026-04-03T19:09:28.999Z</time></trkpt><trkpt lat="43.56327548803495" lon="11.377940525927324"><ele>837.4</ele><time>2026-04-03T19:09:29.999Z</time></trkpt><trkpt lat="43.563368318544484" lon="11.377893048064903"><ele>834.6</ele><time>2026-04-03T19:09:30.999Z</time></trkpt><trkpt lat="43.56345425669342" lon="11.377857275788365"><ele>831.8000000000001</ele><time>2026-04-03T19:09:31.999Z</time></trkpt><trkpt lat="43.5635342878799" lon="11.377827573367245"><ele>829.0</ele><time>2026-04-03T19:09:32.999Z</time></trkpt><trkpt lat="43.56360978345691" lon="11.377807890977046"><ele>828.0</ele><time>2026-04-03T19:09:33.999Z</time></trkpt><trkpt lat="43.563725413568534" lon="11.377779367659326"><ele>827.0</ele><time>2026-04-03T19:09:35.999Z</time></trkpt><trkpt lat="43.56380472694652" lon="11.377829780724282"><ele>826.0</ele><time>2026-04-03T19:09:37.999Z</time></trkpt><trkpt lat="43.56385476975839" lon="11.37788481530954"><ele>825.0</ele><time>2026-04-03T19:09:40.999Z</time></trkpt><trkpt lat="43.56391297454303" lon="11.377955858473237"><ele>824.0</ele><time>2026-04-03T19:09:43.999Z</time></trkpt><trkpt lat="43.56394139594287" lon="11.378098954314098"><ele>823.6</ele><time>2026-04-03T19:09:45.999Z</time></trkpt><trkpt lat="43.56388970524728" lon="11.378248395408296"><ele>823.2</ele><time>2026-04-03T19:09:47.999Z</time></trkpt><trkpt lat="43.56383732797289" lon="11.378369990628658"><ele>822.8000000000001</ele><time>2026-04-03T19:09:49.999Z</time></trkpt><trkpt lat="43.56380419525746" lon="11.3784685218792"><ele>822.4000000000001</ele><time>2026-04-03T19:09:52.999Z</time></trkpt><trkpt lat="43.56382606741778" lon="11.378592457324121"><ele>822.0</ele><time>2026-04-03T19:09:55.999Z</time></trkpt><trkpt lat="43.563842692708356" lon="11.378694751553365"><ele>822.0</ele><time>2026-04-03T19:09:57.999Z</time></trkpt><trkpt lat="43.5638938476138" lon="11.378766713157587"><ele>822.0</ele><time>2026-04-03T19:09:59.999Z</time></trkpt><trkpt lat="43.563959074615774" lon="11.378820836385474"><ele>822.0</ele><time>2026-04-03T19:10:02.999Z</time></trkpt><trkpt lat="43.56389006140575" lon="11.378763748406302"><ele>822.0</ele><time>2026-04-03T19:10:10Z</time></trkpt><trkpt lat="43.563819060101075" lon="11.3786673356393"><ele>822.0</ele><time>2026-04-03T19:10:12Z</time></trkpt><trkpt lat="43.563793251706635" lon="11.378571301372318"><ele>822.0</ele><time>2026-04-03T19:10:14Z</time></trkpt><trkpt lat="43.56364901969265" lon="11.37848528284775"><ele>823.8333333333334</ele><time>2026-04-03T19:10:18Z</time></trkpt><trkpt lat="43.56359445768121" lon="11.378440255754589"><ele>825.6666666666667</ele><time>2026-04-03T19:10:20Z</time></trkpt><trkpt lat="43.56353643553674" lon="11.3783942976731"><ele>827.5</ele><time>2026-04-03T19:10:23Z</time></trkpt><trkpt lat="43.5634521060209" lon="11.378373358119626"><ele>829.3333333333334</ele><time>2026-04-03T19:10:25Z</time></trkpt><trkpt lat="43.56335437711892" lon="11.378384110120622"><ele>831.1666666666667</ele><time>2026-04-03T19:10:27Z</time></trkpt><trkpt lat="43.5632642298972" lon="11.378430180244754"><ele>833.0</ele><time>2026-04-03T19:10:29Z</time></trkpt><trkpt lat="43.56318853102728" lon="11.378368573524664"><ele>833.0000000000001</ele><time>2026-04-03T19:10:31Z</time></trkpt><trkpt lat="43.56313837230415" lon="11.37827601210412"><ele>833.0</ele><time>2026-04-03T19:10:33Z</time></trkpt><trkpt lat="43.56311020390899" lon="11.37817483717703"><ele>833.0</ele><time>2026-04-03T19:10:35Z</time></trkpt><trkpt lat="43.56309046841745" lon="11.378063394600519"><ele>833.0</ele><time>2026-04-03T19:10:37Z</time></trkpt><trkpt lat="43.563123086650094" lon="11.377979717301626"><ele>833.0000000000001</ele><time>2026-04-03T19:10:40Z</time></trkpt><trkpt lat="43.56318442989168" lon="11.377953949753268"><ele>833.0</ele><time>2026-04-03T19:10:41Z</time></trkpt><trkpt lat="43.56325866865775" lon="11.377932481686875"><ele>832.3333333333334</ele><time>2026-04-03T19:10:42Z</time></trkpt><trkpt lat="43.56335368203994" lon="11.377904381487129"><ele>831.6666666666667</ele><time>2026-04-03T19:10:43Z</time></trkpt><trkpt lat="43.563434262125476" lon="11.377874925919823"><ele>831.0</ele><time>2026-04-03T19:10:44Z</time></trkpt><trkpt lat="43.563507450542374" lon="11.377843556493326"><ele>830.3333333333333</ele><time>2026-04-03T19:10:45Z</time></trkpt><trkpt lat="43.563582404753305" lon="11.377812113787387"><ele>829.6666666666666</ele><time>2026-04-03T19:10:46Z</time></trkpt><trkpt lat="43.5636523876827" lon="11.37779251433623"><ele>829.0</ele><time>2026-04-03T19:10:47Z</time></trkpt><trkpt lat="43.56372812370664" lon="11.377793798795606"><ele>828.1666666666666</ele><time>2026-04-03T19:10:47.999Z</time></trkpt><trkpt lat="43.563799456258266" lon="11.377816024773985"><ele>827.3333333333333</ele><time>2026-04-03T19:10:48.999Z</time></trkpt><trkpt lat="43.56386848421771" lon="11.377862680959204"><ele>826.5</ele><time>2026-04-03T19:10:49.999Z</time></trkpt><trkpt lat="43.56390571857801" lon="11.37794889947202"><ele>825.6666666666667</ele><time>2026-04-03T19:10:50.999Z</time></trkpt><trkpt lat="43.563933325331575" lon="11.378030278633778"><ele>824.8333333333334</ele><time>2026-04-03T19:10:51.999Z</time></trkpt><trkpt lat="43.56393511749336" lon="11.378118441672454"><ele>824.0</ele><time>2026-04-03T19:10:52.999Z</time></trkpt><trkpt lat="43.5638673360792" lon="11.378257050315538"><ele>823.6666666666667</ele><time>2026-04-03T19:10:54.999Z</time></trkpt><trkpt lat="43.563810831457" lon="11.378424166684791"><ele>823.3333333333334</ele><time>2026-04-03T19:10:56.999Z</time></trkpt><trkpt lat="43.56380251646488" lon="11.378522837071701"><ele>823.0</ele><time>2026-04-03T19:10:57.999Z</time></trkpt><trkpt lat="43.56381416989595" lon="11.378621513938711"><ele>822.6666666666667</ele><time>2026-04-03T19:10:58.999Z</time></trkpt><trkpt lat="43.56384810181695" lon="11.378709664786605"><ele>822.3333333333334</ele><time>2026-04-03T19:10:59.999Z</time></trkpt><trkpt lat="43.56389661471584" lon="11.378778672718907"><ele>822.0</ele><time>2026-04-03T19:11:00.999Z</time></trkpt><trkpt lat="43.56397264207359" lon="11.37882337027906"><ele>822.0</ele><time>2026-04-03T19:11:01.999Z</time></trkpt><trkpt lat="43.56404868250568" lon="11.378836679033663"><ele>822.0</ele><time>2026-04-03T19:11:02.999Z</time></trkpt><trkpt lat="43.564120489485695" lon="11.378811308394566"><ele>822.0</ele><time>2026-04-03T19:11:03.999Z</time></trkpt><trkpt lat="43.56419453882312" lon="11.378805129829162"><ele>822.0</ele><time>2026-04-03T19:11:04.999Z</time></trkpt><trkpt lat="43.56428116643967" lon="11.37878349278896"><ele>822.0</ele><time>2026-04-03T19:11:05.999Z</time></trkpt><trkpt lat="43.56436121761033" lon="11.378765416693323"><ele>822.0</ele><time>2026-04-03T19:11:06.999Z</time></trkpt><trkpt lat="43.56444249859468" lon="11.378741317336184"><ele>822.0</ele><time>2026-04-03T19:11:07.999Z</time></trkpt><trkpt lat="43.564519345991066" lon="11.378723747336384"><ele>822.0</ele><time>2026-04-03T19:11:08.999Z</time></trkpt><trkpt lat="43.56459757285541" lon="11.37870757417869"><ele>822.0</ele><time>2026-04-03T19:11:09.999Z</time></trkpt><trkpt lat="43.56466841548422" lon="11.378673153506929"><ele>822.0</ele><time>2026-04-03T19:11:10.999Z</time></trkpt><trkpt lat="43.56481296793103" lon="11.378627596075995"><ele>822.0</ele><time>2026-04-03T19:11:12.999Z</time></trkpt><trkpt lat="43.56488602984014" lon="11.378586250831212"><ele>819.5</ele><time>2026-04-03T19:11:13.999Z</time></trkpt><trkpt lat="43.56496067174858" lon="11.3785382602066"><ele>817.0</ele><time>2026-04-03T19:11:15.999Z</time></trkpt><trkpt lat="43.565017605228164" lon="11.378496195538602"><ele>814.5</ele><time>2026-04-03T19:11:16.999Z</time></trkpt><trkpt lat="43.56507271286393" lon="11.378428480113413"><ele>812.0</ele><time>2026-04-03T19:11:17.999Z</time></trkpt><trkpt lat="43.56517126088723" lon="11.378326463874854"><ele>809.5</ele><time>2026-04-03T19:11:19.999Z</time></trkpt><trkpt lat="43.56522128320575" lon="11.378261913677838"><ele>807.0</ele><time>2026-04-03T19:11:20.999Z</time></trkpt><trkpt lat="43.56527761059363" lon="11.3781970179739"><ele>807.0</ele><time>2026-04-03T19:11:21.999Z</time></trkpt><trkpt lat="43.56533371743401" lon="11.378131523322722"><ele>807.0</ele><time>2026-04-03T19:11:22.999Z</time></trkpt><trkpt lat="43.56539001299822" lon="11.378062062717682"><ele>807.0</ele><time>2026-04-03T19:11:23.999Z</time></trkpt><trkpt lat="43.5654415332149" lon="11.377985899333737"><ele>807.0</ele><time>2026-04-03T19:11:24.999Z</time></trkpt><trkpt lat="43.565506149162054" lon="11.377914941907628"><ele>807.0</ele><time>2026-04-03T19:11:25.999Z</time></trkpt><trkpt lat="43.56557464016446" lon="11.377851984098953"><ele>807.0</ele><time>2026-04-03T19:11:26.999Z</time></trkpt><trkpt lat="43.56562990776909" lon="11.37776713188657"><ele>804.8333333333334</ele><time>2026-04-03T19:11:27.999Z</time></trkpt><trkpt lat="43.5656962004488" lon="11.377715020442414"><ele>802.6666666666667</ele><time>2026-04-03T19:11:28.999Z</time></trkpt><trkpt lat="43.56576233141006" lon="11.377676228621423"><ele>800.5</ele><time>2026-04-03T19:11:29.999Z</time></trkpt><trkpt lat="43.565835109355035" lon="11.377643396038318"><ele>798.3333333333334</ele><time>2026-04-03T19:11:30.999Z</time></trkpt><trkpt lat="43.565915923372664" lon="11.37763096159815"><ele>796.1666666666667</ele><time>2026-04-03T19:11:31.999Z</time></trkpt><trkpt lat="43.56605083371153" lon="11.377660692500656"><ele>794.0</ele><time>2026-04-03T19:11:33.999Z</time></trkpt><trkpt lat="43.566120201557965" lon="11.377718904490024"><ele>794.0000000000001</ele><time>2026-04-03T19:11:34.999Z</time></trkpt><trkpt lat="43.566188110799736" lon="11.377763965732976"><ele>794.0</ele><time>2026-04-03T19:11:35.999Z</time></trkpt><trkpt lat="43.56625941041584" lon="11.377811740230872"><ele>794.0</ele><time>2026-04-03T19:11:36.999Z</time></trkpt><trkpt lat="43.566330698893665" lon="11.377858972657826"><ele>794.0</ele><time>2026-04-03T19:11:37.999Z</time></trkpt><trkpt lat="43.56639632116932" lon="11.377897300113236"><ele>794.0000000000001</ele><time>2026-04-03T19:11:38.999Z</time></trkpt><trkpt lat="43.56647049104986" lon="11.377937844648056"><ele>794.0</ele><time>2026-04-03T19:11:39.999Z</time></trkpt><trkpt lat="43.56654595608218" lon="11.377974598085602"><ele>792.6666666666667</ele><time>2026-04-03T19:11:40.999Z</time></trkpt><trkpt lat="43.56662772306906" lon="11.378004892407994"><ele>791.3333333333334</ele><time>2026-04-03T19:11:41.999Z</time></trkpt><trkpt lat="43.56670851961197" lon="11.378029570258585"><ele>790.0</ele><time>2026-04-03T19:11:42.999Z</time></trkpt><trkpt lat="43.56680010602243" lon="11.378030192611837"><ele>788.6666666666667</ele><time>2026-04-03T19:11:43.999Z</time></trkpt><trkpt lat="43.566882876280786" lon="11.378063602601634"><ele>787.3333333333334</ele><time>2026-04-03T19:11:44.999Z</time></trkpt><trkpt lat="43.56697262939415" lon="11.37808433854801"><ele>786.0</ele><time>2026-04-03T19:11:45.999Z</time></trkpt><trkpt lat="43.56706431419836" lon="11.378112969657215"><ele>784.3333333333334</ele><time>2026-04-03T19:11:46.999Z</time></trkpt><trkpt lat="43.56715725604067" lon="11.378141615227532"><ele>782.6666666666667</ele><time>2026-04-03T19:11:47.999Z</time></trkpt><trkpt lat="43.56725137919943" lon="11.378164060169857"><ele>781.0</ele><time>2026-04-03T19:11:48.999Z</time></trkpt><trkpt lat="43.56733415774712" lon="11.37818545701121"><ele>779.3333333333334</ele><time>2026-04-03T19:11:49.999Z</time></trkpt><trkpt lat="43.567417093252054" lon="11.378192711891526"><ele>777.6666666666667</ele><time>2026-04-03T19:11:50.999Z</time></trkpt><trkpt lat="43.56749930496599" lon="11.378213295746377"><ele>776.0</ele><time>2026-04-03T19:11:51.999Z</time></trkpt><trkpt lat="43.56758338902116" lon="11.378199527386347"><ele>776.0</ele><time>2026-04-03T19:11:52.999Z</time></trkpt><trkpt lat="43.5676535827304" lon="11.378149288185769"><ele>776.0</ele><time>2026-04-03T19:11:53.999Z</time></trkpt><trkpt lat="43.56772853005727" lon="11.378101481083783"><ele>776.0</ele><time>2026-04-03T19:11:54.999Z</time></trkpt><trkpt lat="43.5678079301593" lon="11.37802727633825"><ele>776.0</ele><time>2026-04-03T19:11:55.999Z</time></trkpt><trkpt lat="43.567892951033706" lon="11.377933653257745"><ele>776.0</ele><time>2026-04-03T19:11:56.999Z</time></trkpt><trkpt lat="43.56796728927436" lon="11.377843341310468"><ele>774.1666666666667</ele><time>2026-04-03T19:11:57.999Z</time></trkpt><trkpt lat="43.56802661422837" lon="11.377758996683733"><ele>772.3333333333334</ele><time>2026-04-03T19:11:58.999Z</time></trkpt><trkpt lat="43.56807233294128" lon="11.377668639687586"><ele>770.5</ele><time>2026-04-03T19:11:59.999Z</time></trkpt><trkpt lat="43.56810153978761" lon="11.377573570032082"><ele>768.6666666666667</ele><time>2026-04-03T19:12:00.999Z</time></trkpt><trkpt lat="43.56811377811894" lon="11.377475929750254"><ele>766.8333333333334</ele><time>2026-04-03T19:12:01.999Z</time></trkpt><trkpt lat="43.56812470515194" lon="11.377375720821059"><ele>765.0</ele><time>2026-04-03T19:12:02.999Z</time></trkpt><trkpt lat="43.56811226856773" lon="11.377275452886463"><ele>765.0000000000001</ele><time>2026-04-03T19:12:03.999Z</time></trkpt><trkpt lat="43.56813602115484" lon="11.377188842132234"><ele>765.0</ele><time>2026-04-03T19:12:04.999Z</time></trkpt><trkpt lat="43.56818072823051" lon="11.37711349735035"><ele>765.0</ele><time>2026-04-03T19:12:05.999Z</time></trkpt><trkpt lat="43.568237528591524" lon="11.3770693196146"><ele>765.0</ele><time>2026-04-03T19:12:06.999Z</time></trkpt><trkpt lat="43.568304882759676" lon="11.377064693911334"><ele>765.0</ele><time>2026-04-03T19:12:07.999Z</time></trkpt><trkpt lat="43.56835888137837" lon="11.377135721618124"><ele>765.0000000000001</ele><time>2026-04-03T19:12:08.999Z</time></trkpt><trkpt lat="43.568395856146594" lon="11.377208574550112"><ele>765.0</ele><time>2026-04-03T19:12:09.999Z</time></trkpt><trkpt lat="43.56842946225168" lon="11.377323043117574"><ele>765.0</ele><time>2026-04-03T19:12:12Z</time></trkpt><trkpt lat="43.56846140742594" lon="11.377409697095189"><ele>765.0</ele><time>2026-04-03T19:12:14Z</time></trkpt><trkpt lat="43.56849128830037" lon="11.377518563439356"><ele>765.0</ele><time>2026-04-03T19:12:16Z</time></trkpt><trkpt lat="43.568515642718076" lon="11.377599854162547"><ele>765.0</ele><time>2026-04-03T19:12:18Z</time></trkpt><trkpt lat="43.56854144865195" lon="11.37768677667249"><ele>765.0</ele><time>2026-04-03T19:12:20Z</time></trkpt><trkpt lat="43.56856697371422" lon="11.377772749094218"><ele>765.0</ele><time>2026-04-03T19:12:23Z</time></trkpt><trkpt lat="43.56893741916196" lon="11.377677951445952"><ele>762.3333333333334</ele><time>2026-04-03T19:12:26Z</time></trkpt><trkpt lat="43.56900737211481" lon="11.377726568390408"><ele>759.6666666666666</ele><time>2026-04-03T19:12:30Z</time></trkpt><trkpt lat="43.56907237202649" lon="11.377787171148656"><ele>757.0</ele><time>2026-04-03T19:12:33Z</time></trkpt><trkpt lat="43.56914426072023" lon="11.377820316764517"><ele>754.3333333333333</ele><time>2026-04-03T19:12:36Z</time></trkpt><trkpt lat="43.56920676992541" lon="11.377851818511862"><ele>751.6666666666666</ele><time>2026-04-03T19:12:38Z</time></trkpt><trkpt lat="43.56925816293233" lon="11.377922333961411"><ele>749.0</ele><time>2026-04-03T19:12:40Z</time></trkpt><trkpt lat="43.56937078388282" lon="11.377918568930532"><ele>749.0</ele><time>2026-04-03T19:12:42Z</time></trkpt><trkpt lat="43.56944840332249" lon="11.377875969553406"><ele>749.0</ele><time>2026-04-03T19:12:43Z</time></trkpt><trkpt lat="43.5695360576941" lon="11.377809509976515"><ele>749.0</ele><time>2026-04-03T19:12:44Z</time></trkpt><trkpt lat="43.569630939591875" lon="11.37773097089565"><ele>749.0</ele><time>2026-04-03T19:12:45Z</time></trkpt><trkpt lat="43.56973861581447" lon="11.377647045563254"><ele>749.0</ele><time>2026-04-03T19:12:46Z</time></trkpt><trkpt lat="43.56984906644968" lon="11.377570853669514"><ele>748.0</ele><time>2026-04-03T19:12:47Z</time></trkpt><trkpt lat="43.569946598461016" lon="11.377517877140939"><ele>747.0</ele><time>2026-04-03T19:12:48Z</time></trkpt><trkpt lat="43.570045274059424" lon="11.377462782528044"><ele>746.0</ele><time>2026-04-03T19:12:49Z</time></trkpt><trkpt lat="43.57014979870318" lon="11.377392773993863"><ele>745.0</ele><time>2026-04-03T19:12:50Z</time></trkpt><trkpt lat="43.57026625620505" lon="11.37731370298966"><ele>746.0</ele><time>2026-04-03T19:12:51Z</time></trkpt><trkpt lat="43.57038011961927" lon="11.377240449179055"><ele>747.0</ele><time>2026-04-03T19:12:51.999Z</time></trkpt><trkpt lat="43.57050120512428" lon="11.3771592644579"><ele>748.0</ele><time>2026-04-03T19:12:52.999Z</time></trkpt><trkpt lat="43.57061860025231" lon="11.377111461047132"><ele>749.0</ele><time>2026-04-03T19:12:53.999Z</time></trkpt><trkpt lat="43.570712501698154" lon="11.377059020821866"><ele>749.0</ele><time>2026-04-03T19:12:54.999Z</time></trkpt><trkpt lat="43.570809540004966" lon="11.37700967006826"><ele>749.0</ele><time>2026-04-03T19:12:55.999Z</time></trkpt><trkpt lat="43.57090583704482" lon="11.376973652503771"><ele>749.0</ele><time>2026-04-03T19:12:56.999Z</time></trkpt><trkpt lat="43.57101252125362" lon="11.376952262869944"><ele>749.0</ele><time>2026-04-03T19:12:57.999Z</time></trkpt><trkpt lat="43.571123614996374" lon="11.376910633816705"><ele>749.0</ele><time>2026-04-03T19:12:58.999Z</time></trkpt><trkpt lat="43.5712366422209" lon="11.376913609968724"><ele>749.5</ele><time>2026-04-03T19:12:59.999Z</time></trkpt><trkpt lat="43.57136219325957" lon="11.376900099742487"><ele>750.0</ele><time>2026-04-03T19:13:00.999Z</time></trkpt><trkpt lat="43.57149882823347" lon="11.376870383925576"><ele>750.5</ele><time>2026-04-03T19:13:01.999Z</time></trkpt><trkpt lat="43.57164048797995" lon="11.376811828063541"><ele>751.0</ele><time>2026-04-03T19:13:02.999Z</time></trkpt><trkpt lat="43.57176794788873" lon="11.376724540026261"><ele>751.0</ele><time>2026-04-03T19:13:03.999Z</time></trkpt><trkpt lat="43.571875278881166" lon="11.376646614830591"><ele>751.0</ele><time>2026-04-03T19:13:04.999Z</time></trkpt><trkpt lat="43.57197998697583" lon="11.376586635477851"><ele>751.0</ele><time>2026-04-03T19:13:05.999Z</time></trkpt><trkpt lat="43.57208773489388" lon="11.376554967378171"><ele>751.0</ele><time>2026-04-03T19:13:06.999Z</time></trkpt><trkpt lat="43.572195080554586" lon="11.376519414492439"><ele>750.4</ele><time>2026-04-03T19:13:07.999Z</time></trkpt><trkpt lat="43.572297158197735" lon="11.376488025747207"><ele>749.8</ele><time>2026-04-03T19:13:08.999Z</time></trkpt><trkpt lat="43.57239662394191" lon="11.376424709423944"><ele>749.1999999999999</ele><time>2026-04-03T19:13:09.999Z</time></trkpt><trkpt lat="43.57250279106089" lon="11.376375363018216"><ele>748.5999999999999</ele><time>2026-04-03T19:13:10.999Z</time></trkpt><trkpt lat="43.572613156972636" lon="11.376342704666405"><ele>748.0</ele><time>2026-04-03T19:13:11.999Z</time></trkpt><trkpt lat="43.572712439787914" lon="11.376296072916729"><ele>746.75</ele><time>2026-04-03T19:13:12.999Z</time></trkpt><trkpt lat="43.57281671857171" lon="11.376263719889543"><ele>745.5</ele><time>2026-04-03T19:13:13.999Z</time></trkpt><trkpt lat="43.572929375770606" lon="11.376237370855925"><ele>744.25</ele><time>2026-04-03T19:13:14.999Z</time></trkpt><trkpt lat="43.573046842142965" lon="11.376223066053402"><ele>743.0</ele><time>2026-04-03T19:13:15.999Z</time></trkpt><trkpt lat="43.57316158038204" lon="11.376184499913858"><ele>742.5999999999999</ele><time>2026-04-03T19:13:16.999Z</time></trkpt><trkpt lat="43.57326108684989" lon="11.376105846482377"><ele>742.1999999999999</ele><time>2026-04-03T19:13:17.999Z</time></trkpt><trkpt lat="43.573353857449284" lon="11.37602980392415"><ele>741.8</ele><time>2026-04-03T19:13:18.999Z</time></trkpt><trkpt lat="43.573438875601795" lon="11.375954194461995"><ele>741.4</ele><time>2026-04-03T19:13:19.999Z</time></trkpt><trkpt lat="43.57353469863634" lon="11.375886352205148"><ele>741.0</ele><time>2026-04-03T19:13:20.999Z</time></trkpt><trkpt lat="43.573641066780354" lon="11.37584942986448"><ele>742.0</ele><time>2026-04-03T19:13:21.999Z</time></trkpt><trkpt lat="43.573748150156874" lon="11.375795834396374"><ele>743.0</ele><time>2026-04-03T19:13:22.999Z</time></trkpt><trkpt lat="43.57385197851842" lon="11.375737179962663"><ele>744.0</ele><time>2026-04-03T19:13:23.999Z</time></trkpt><trkpt lat="43.57395207598247" lon="11.37568189698946"><ele>745.0</ele><time>2026-04-03T19:13:24.999Z</time></trkpt><trkpt lat="43.5740523642033" lon="11.375625093201252"><ele>746.0</ele><time>2026-04-03T19:13:25.999Z</time></trkpt><trkpt lat="43.57413737319247" lon="11.375553317132395"><ele>743.5999999999999</ele><time>2026-04-03T19:13:26.999Z</time></trkpt><trkpt lat="43.574234039893" lon="11.375503027687003"><ele>741.2</ele><time>2026-04-03T19:13:27.999Z</time></trkpt><trkpt lat="43.57432153495967" lon="11.37543999039987"><ele>738.8</ele><time>2026-04-03T19:13:28.999Z</time></trkpt><trkpt lat="43.57440526075613" lon="11.375378204302093"><ele>736.4000000000001</ele><time>2026-04-03T19:13:29.999Z</time></trkpt><trkpt lat="43.5744847280977" lon="11.37530963504451"><ele>734.0</ele><time>2026-04-03T19:13:30.999Z</time></trkpt><trkpt lat="43.57455661483381" lon="11.375226799008548"><ele>734.0</ele><time>2026-04-03T19:13:31.999Z</time></trkpt><trkpt lat="43.5746289392212" lon="11.3751320018031"><ele>734.0</ele><time>2026-04-03T19:13:32.999Z</time></trkpt><trkpt lat="43.57469326765022" lon="11.375033858522915"><ele>734.0</ele><time>2026-04-03T19:13:33.999Z</time></trkpt><trkpt lat="43.57476214695173" lon="11.3749439891149"><ele>734.0</ele><time>2026-04-03T19:13:34.999Z</time></trkpt><trkpt lat="43.57482256476597" lon="11.37484351115189"><ele>734.0</ele><time>2026-04-03T19:13:35.999Z</time></trkpt><trkpt lat="43.57489078980392" lon="11.374741037386768"><ele>732.2</ele><time>2026-04-03T19:13:36.999Z</time></trkpt><trkpt lat="43.574958489835964" lon="11.374642903740803"><ele>730.4000000000001</ele><time>2026-04-03T19:13:37.999Z</time></trkpt><trkpt lat="43.575029488981535" lon="11.37454364275843"><ele>728.6</ele><time>2026-04-03T19:13:38.999Z</time></trkpt><trkpt lat="43.57510187119674" lon="11.374452336181697"><ele>726.8</ele><time>2026-04-03T19:13:39.999Z</time></trkpt><trkpt lat="43.575166807061336" lon="11.374353269884834"><ele>725.0</ele><time>2026-04-03T19:13:40.999Z</time></trkpt><trkpt lat="43.57523808726918" lon="11.374263343003365"><ele>725.0</ele><time>2026-04-03T19:13:41.999Z</time></trkpt><trkpt lat="43.575302087880985" lon="11.37417978989518"><ele>725.0</ele><time>2026-04-03T19:13:42.999Z</time></trkpt><trkpt lat="43.575362115355304" lon="11.374096858259408"><ele>725.0</ele><time>2026-04-03T19:13:43.999Z</time></trkpt><trkpt lat="43.5754099674436" lon="11.37401657615809"><ele>725.0</ele><time>2026-04-03T19:13:44.999Z</time></trkpt><trkpt lat="43.57546444786725" lon="11.373949223942494"><ele>725.0</ele><time>2026-04-03T19:13:45.999Z</time></trkpt><trkpt lat="43.57551502848129" lon="11.373887666450889"><ele>725.0</ele><time>2026-04-03T19:13:46.999Z</time></trkpt><trkpt lat="43.57557112332541" lon="11.373838171038148"><ele>724.6666666666666</ele><time>2026-04-03T19:13:47.999Z</time></trkpt><trkpt lat="43.575663636498284" lon="11.373739276268484"><ele>724.3333333333333</ele><time>2026-04-03T19:13:49.999Z</time></trkpt><trkpt lat="43.57570961188312" lon="11.373672979487981"><ele>724.0</ele><time>2026-04-03T19:13:50.999Z</time></trkpt><trkpt lat="43.575769033622024" lon="11.373626868626003"><ele>723.6666666666666</ele><time>2026-04-03T19:13:51.999Z</time></trkpt><trkpt lat="43.5758452534823" lon="11.373609436642438"><ele>723.3333333333334</ele><time>2026-04-03T19:13:52.999Z</time></trkpt><trkpt lat="43.57593221268508" lon="11.373576561751275"><ele>723.0</ele><time>2026-04-03T19:13:53.999Z</time></trkpt><trkpt lat="43.57602192502889" lon="11.373547481529307"><ele>723.0</ele><time>2026-04-03T19:13:54.999Z</time></trkpt><trkpt lat="43.57611161384608" lon="11.373529591416556"><ele>723.0</ele><time>2026-04-03T19:13:55.999Z</time></trkpt><trkpt lat="43.57619922980484" lon="11.373528929194995"><ele>723.0</ele><time>2026-04-03T19:13:56.999Z</time></trkpt><trkpt lat="43.57628141517893" lon="11.373539947985583"><ele>723.0</ele><time>2026-04-03T19:13:57.999Z</time></trkpt><trkpt lat="43.576364029450396" lon="11.373556892100142"><ele>723.0</ele><time>2026-04-03T19:13:58.999Z</time></trkpt><trkpt lat="43.57645226792609" lon="11.37356822255988"><ele>723.0</ele><time>2026-04-03T19:13:59.999Z</time></trkpt><trkpt lat="43.57654979429946" lon="11.373603293460663"><ele>723.3333333333334</ele><time>2026-04-03T19:14:00.999Z</time></trkpt><trkpt lat="43.576649249925616" lon="11.373629340963715"><ele>723.6666666666666</ele><time>2026-04-03T19:14:01.999Z</time></trkpt><trkpt lat="43.57673091084825" lon="11.373636910402551"><ele>724.0</ele><time>2026-04-03T19:14:02.999Z</time></trkpt><trkpt lat="43.57680952228099" lon="11.373632602715384"><ele>724.3333333333333</ele><time>2026-04-03T19:14:03.999Z</time></trkpt><trkpt lat="43.576887054799485" lon="11.373627269767628"><ele>724.6666666666666</ele><time>2026-04-03T19:14:04.999Z</time></trkpt><trkpt lat="43.576970998581324" lon="11.373631523827735"><ele>725.0</ele><time>2026-04-03T19:14:05.999Z</time></trkpt><trkpt lat="43.57703735571849" lon="11.373572975407894"><ele>725.0</ele><time>2026-04-03T19:14:06.999Z</time></trkpt><trkpt lat="43.577103190307675" lon="11.37352854345713"><ele>725.0</ele><time>2026-04-03T19:14:07.999Z</time></trkpt><trkpt lat="43.57718198438763" lon="11.373484210897733"><ele>725.0</ele><time>2026-04-03T19:14:08.999Z</time></trkpt><trkpt lat="43.57727258466677" lon="11.373456124304122"><ele>725.0</ele><time>2026-04-03T19:14:09.999Z</time></trkpt><trkpt lat="43.577366142750776" lon="11.373470484878519"><ele>725.0</ele><time>2026-04-03T19:14:10.999Z</time></trkpt><trkpt lat="43.577457160385435" lon="11.37344768281619"><ele>725.0</ele><time>2026-04-03T19:14:11.999Z</time></trkpt><trkpt lat="43.57754476073485" lon="11.373448675395712"><ele>725.0</ele><time>2026-04-03T19:14:12.999Z</time></trkpt><trkpt lat="43.57763147513395" lon="11.373450984114417"><ele>725.0</ele><time>2026-04-03T19:14:13.999Z</time></trkpt><trkpt lat="43.57770662532581" lon="11.373447361158005"><ele>725.0</ele><time>2026-04-03T19:14:14.999Z</time></trkpt><trkpt lat="43.57781111291865" lon="11.373397998608622"><ele>725.0</ele><time>2026-04-03T19:14:16.999Z</time></trkpt><trkpt lat="43.57787495287269" lon="11.373337497155553"><ele>725.0</ele><time>2026-04-03T19:14:19Z</time></trkpt><trkpt lat="43.577938858064535" lon="11.373221072085784"><ele>724.6666666666666</ele><time>2026-04-03T19:14:21Z</time></trkpt><trkpt lat="43.57800027358657" lon="11.37310931116027"><ele>724.3333333333333</ele><time>2026-04-03T19:14:23Z</time></trkpt><trkpt lat="43.578042518492154" lon="11.373043677735565"><ele>724.0</ele><time>2026-04-03T19:14:48Z</time></trkpt><trkpt lat="43.577919740151664" lon="11.372964407988645"><ele>723.6666666666666</ele><time>2026-04-03T19:15:03.999Z</time></trkpt><trkpt lat="43.57785448591684" lon="11.372966588835796"><ele>723.3333333333334</ele><time>2026-04-03T19:15:22.999Z</time></trkpt><trkpt lat="43.577928092933156" lon="11.372953977449109"><ele>723.0</ele><time>2026-04-03T19:17:43.999Z</time></trkpt><trkpt lat="43.57798729905747" lon="11.372989547535456"><ele>723.0</ele><time>2026-04-03T19:17:48.999Z</time></trkpt><trkpt lat="43.57803633338961" lon="11.373060563937173"><ele>723.0</ele><time>2026-04-03T19:17:54.999Z</time></trkpt><trkpt lat="43.57796566430504" lon="11.373166540494331"><ele>723.0</ele><time>2026-04-03T19:17:56.999Z</time></trkpt><trkpt lat="43.57791214232314" lon="11.373246460548538"><ele>723.0</ele><time>2026-04-03T19:17:57.999Z</time></trkpt><trkpt lat="43.577848632468616" lon="11.373332301773544"><ele>723.0</ele><time>2026-04-03T19:17:58.999Z</time></trkpt><trkpt lat="43.57778085182933" lon="11.373392755164462"><ele>723.0</ele><time>2026-04-03T19:17:59.999Z</time></trkpt><trkpt lat="43.57770345550686" lon="11.37342860088867"><ele>723.3333333333334</ele><time>2026-04-03T19:18:00.999Z</time></trkpt><trkpt lat="43.577621499930224" lon="11.373439668764409"><ele>723.6666666666666</ele><time>2026-04-03T19:18:01.999Z</time></trkpt><trkpt lat="43.577536722820746" lon="11.373439305080776"><ele>724.0</ele><time>2026-04-03T19:18:02.999Z</time></trkpt><trkpt lat="43.5774607013394" lon="11.37343744142744"><ele>724.3333333333333</ele><time>2026-04-03T19:18:03.999Z</time></trkpt><trkpt lat="43.57738947222636" lon="11.37343815802626"><ele>724.6666666666666</ele><time>2026-04-03T19:18:04.999Z</time></trkpt><trkpt lat="43.57731874818982" lon="11.373445285291814"><ele>725.0</ele><time>2026-04-03T19:18:05.999Z</time></trkpt><trkpt lat="43.57724394270739" lon="11.373462983942133"><ele>725.0</ele><time>2026-04-03T19:18:06.999Z</time></trkpt><trkpt lat="43.57717384635945" lon="11.373488437001146"><ele>725.0</ele><time>2026-04-03T19:18:07.999Z</time></trkpt><trkpt lat="43.57710564624765" lon="11.373488452328191"><ele>725.0</ele><time>2026-04-03T19:18:08.999Z</time></trkpt><trkpt lat="43.57700792525" lon="11.373577309044258"><ele>725.0</ele><time>2026-04-03T19:18:10.999Z</time></trkpt><trkpt lat="43.57691253583484" lon="11.373613349854292"><ele>725.0</ele><time>2026-04-03T19:18:12.999Z</time></trkpt><trkpt lat="43.57681937646024" lon="11.373631277752095"><ele>725.0</ele><time>2026-04-03T19:18:14.999Z</time></trkpt><trkpt lat="43.57691555712016" lon="11.373599974692212"><ele>725.0</ele><time>2026-04-03T19:18:20.999Z</time></trkpt><trkpt lat="43.57698588600653" lon="11.373591872591524"><ele>725.0</ele><time>2026-04-03T19:18:21.999Z</time></trkpt><trkpt lat="43.577066128629745" lon="11.373542892021048"><ele>725.0</ele><time>2026-04-03T19:18:22.999Z</time></trkpt><trkpt lat="43.577156719990604" lon="11.373458907420805"><ele>725.0</ele><time>2026-04-03T19:18:23.999Z</time></trkpt><trkpt lat="43.57726468257219" lon="11.373388934492363"><ele>725.0</ele><time>2026-04-03T19:18:24.999Z</time></trkpt><trkpt lat="43.57743490359201" lon="11.37344342351017"><ele>725.0</ele><time>2026-04-03T19:18:25.999Z</time></trkpt><trkpt lat="43.577564457893956" lon="11.373452033386481"><ele>725.0</ele><time>2026-04-03T19:18:26.999Z</time></trkpt><trkpt lat="43.577664201316516" lon="11.373443436100978"><ele>725.0</ele><time>2026-04-03T19:18:27.999Z</time></trkpt><trkpt lat="43.577751552651776" lon="11.373444867848876"><ele>725.0</ele><time>2026-04-03T19:18:29Z</time></trkpt><trkpt lat="43.57783001340138" lon="11.373400846698749"><ele>725.0</ele><time>2026-04-03T19:18:30Z</time></trkpt><trkpt lat="43.57788424435419" lon="11.373309327488125"><ele>725.0</ele><time>2026-04-03T19:18:31Z</time></trkpt><trkpt lat="43.5779445107905" lon="11.373210828989762"><ele>725.0</ele><time>2026-04-03T19:18:32Z</time></trkpt><trkpt lat="43.578005914007704" lon="11.373100466337753"><ele>725.0</ele><time>2026-04-03T19:18:33Z</time></trkpt><trkpt lat="43.57805713791654" lon="11.372995648291997"><ele>724.5</ele><time>2026-04-03T19:18:34Z</time></trkpt><trkpt lat="43.57810175854931" lon="11.372902954523443"><ele>724.0</ele><time>2026-04-03T19:18:35Z</time></trkpt><trkpt lat="43.57814881644731" lon="11.37281030474284"><ele>723.5</ele><time>2026-04-03T19:18:36Z</time></trkpt><trkpt lat="43.57820446892933" lon="11.37271390250296"><ele>723.0</ele><time>2026-04-03T19:18:37Z</time></trkpt><trkpt lat="43.57827403384198" lon="11.372627809095487"><ele>722.5</ele><time>2026-04-03T19:18:38Z</time></trkpt><trkpt lat="43.57835005144656" lon="11.372547155614301"><ele>722.0</ele><time>2026-04-03T19:18:39Z</time></trkpt><trkpt lat="43.57842467968263" lon="11.372476691406515"><ele>722.0</ele><time>2026-04-03T19:18:40Z</time></trkpt><trkpt lat="43.57850255594871" lon="11.37240708439861"><ele>722.0</ele><time>2026-04-03T19:18:41Z</time></trkpt><trkpt lat="43.578574446417726" lon="11.37234137442893"><ele>722.0</ele><time>2026-04-03T19:18:42Z</time></trkpt><trkpt lat="43.578650567702695" lon="11.372273411789198"><ele>722.0</ele><time>2026-04-03T19:18:43Z</time></trkpt><trkpt lat="43.578734260270096" lon="11.372199600224285"><ele>722.0</ele><time>2026-04-03T19:18:44Z</time></trkpt><trkpt lat="43.57882464285584" lon="11.372141343989654"><ele>719.8333333333333</ele><time>2026-04-03T19:18:45Z</time></trkpt><trkpt lat="43.578905198700355" lon="11.372095782693856"><ele>717.6666666666666</ele><time>2026-04-03T19:18:46Z</time></trkpt><trkpt lat="43.5789798085404" lon="11.372051630989858"><ele>715.5</ele><time>2026-04-03T19:18:47Z</time></trkpt><trkpt lat="43.57905578525684" lon="11.372015936920144"><ele>713.3333333333334</ele><time>2026-04-03T19:18:48Z</time></trkpt><trkpt lat="43.579103717465124" lon="11.371922878304696"><ele>711.1666666666667</ele><time>2026-04-03T19:18:49Z</time></trkpt><trkpt lat="43.57915241414823" lon="11.371836912327797"><ele>709.0</ele><time>2026-04-03T19:18:50Z</time></trkpt><trkpt lat="43.579200976353135" lon="11.371752888232345"><ele>709.0</ele><time>2026-04-03T19:18:51Z</time></trkpt><trkpt lat="43.579258592112446" lon="11.371671341062102"><ele>709.0</ele><time>2026-04-03T19:18:52Z</time></trkpt><trkpt lat="43.57931810610505" lon="11.371596462699724"><ele>709.0</ele><time>2026-04-03T19:18:53Z</time></trkpt><trkpt lat="43.579387642535394" lon="11.371530293183545"><ele>709.0</ele><time>2026-04-03T19:18:54Z</time></trkpt><trkpt lat="43.57946638264136" lon="11.371506533199518"><ele>709.0</ele><time>2026-04-03T19:18:55Z</time></trkpt><trkpt lat="43.57953870467881" lon="11.371457722707524"><ele>709.0</ele><time>2026-04-03T19:18:56Z</time></trkpt><trkpt lat="43.57961479591866" lon="11.371476881072985"><ele>709.5</ele><time>2026-04-03T19:18:57Z</time></trkpt><trkpt lat="43.579689445761225" lon="11.37147225259927"><ele>710.0</ele><time>2026-04-03T19:18:58Z</time></trkpt><trkpt lat="43.579769835066074" lon="11.371467530109237"><ele>710.5</ele><time>2026-04-03T19:18:59Z</time></trkpt><trkpt lat="43.57984870305552" lon="11.371458648618109"><ele>711.0</ele><time>2026-04-03T19:19:00Z</time></trkpt><trkpt lat="43.57993525012684" lon="11.37141887008787"><ele>711.5</ele><time>2026-04-03T19:19:01Z</time></trkpt><trkpt lat="43.58002083274603" lon="11.371343124722367"><ele>712.0</ele><time>2026-04-03T19:19:02Z</time></trkpt><trkpt lat="43.580088348979885" lon="11.371243248188158"><ele>709.0</ele><time>2026-04-03T19:19:03Z</time></trkpt><trkpt lat="43.58013691171841" lon="11.371151216272018"><ele>706.0</ele><time>2026-04-03T19:19:04Z</time></trkpt><trkpt lat="43.58019108071323" lon="11.371063959508033"><ele>703.0</ele><time>2026-04-03T19:19:05Z</time></trkpt><trkpt lat="43.58023457042695" lon="11.370971605245868"><ele>700.0</ele><time>2026-04-03T19:19:06Z</time></trkpt><trkpt lat="43.58029756676396" lon="11.370917054432846"><ele>697.0</ele><time>2026-04-03T19:19:07Z</time></trkpt><trkpt lat="43.58037072550565" lon="11.370893786475868"><ele>694.0</ele><time>2026-04-03T19:19:08Z</time></trkpt><trkpt lat="43.58044216313373" lon="11.370948484786128"><ele>693.0</ele><time>2026-04-03T19:19:09Z</time></trkpt><trkpt lat="43.5805126838985" lon="11.371014913629915"><ele>692.0</ele><time>2026-04-03T19:19:10Z</time></trkpt><trkpt lat="43.58060761243461" lon="11.371087798199454"><ele>691.0</ele><time>2026-04-03T19:19:10.999Z</time></trkpt><trkpt lat="43.580708325012836" lon="11.371133981783698"><ele>690.0</ele><time>2026-04-03T19:19:11.999Z</time></trkpt><trkpt lat="43.58078724501811" lon="11.371210054195993"><ele>689.0</ele><time>2026-04-03T19:19:12.999Z</time></trkpt><trkpt lat="43.58086635455163" lon="11.371249736861492"><ele>689.0</ele><time>2026-04-03T19:19:13.999Z</time></trkpt><trkpt lat="43.58095578270512" lon="11.371266939811482"><ele>689.0</ele><time>2026-04-03T19:19:14.999Z</time></trkpt><trkpt lat="43.58104208640946" lon="11.371271718483523"><ele>689.0</ele><time>2026-04-03T19:19:15.999Z</time></trkpt><trkpt lat="43.58114119908898" lon="11.371268788743578"><ele>689.0</ele><time>2026-04-03T19:19:16.999Z</time></trkpt><trkpt lat="43.58125343621154" lon="11.371255401058278"><ele>689.0</ele><time>2026-04-03T19:19:17.999Z</time></trkpt><trkpt lat="43.58137554627209" lon="11.371240734796041"><ele>687.0</ele><time>2026-04-03T19:19:18.999Z</time></trkpt><trkpt lat="43.58148675119973" lon="11.37120163772535"><ele>685.0</ele><time>2026-04-03T19:19:19.999Z</time></trkpt><trkpt lat="43.58159183646095" lon="11.371187517673166"><ele>683.0</ele><time>2026-04-03T19:19:20.999Z</time></trkpt><trkpt lat="43.581689643890115" lon="11.371180762332408"><ele>681.0</ele><time>2026-04-03T19:19:21.999Z</time></trkpt><trkpt lat="43.58178768830848" lon="11.371149352729065"><ele>679.0</ele><time>2026-04-03T19:19:22.999Z</time></trkpt><trkpt lat="43.58189389049639" lon="11.371121369627266"><ele>679.0</ele><time>2026-04-03T19:19:23.999Z</time></trkpt><trkpt lat="43.58200697056939" lon="11.371087220866558"><ele>679.0</ele><time>2026-04-03T19:19:24.999Z</time></trkpt><trkpt lat="43.582137533857846" lon="11.371041368806628"><ele>679.0</ele><time>2026-04-03T19:19:25.999Z</time></trkpt><trkpt lat="43.58226737889826" lon="11.371005772519386"><ele>679.0</ele><time>2026-04-03T19:19:26.999Z</time></trkpt><trkpt lat="43.58238205724438" lon="11.37095308470379"><ele>677.2</ele><time>2026-04-03T19:19:27.999Z</time></trkpt><trkpt lat="43.582489638936956" lon="11.370910242533641"><ele>675.4000000000001</ele><time>2026-04-03T19:19:28.999Z</time></trkpt><trkpt lat="43.582587455037434" lon="11.370863752647264"><ele>673.6</ele><time>2026-04-03T19:19:29.999Z</time></trkpt><trkpt lat="43.58268372128455" lon="11.370805820254962"><ele>671.8</ele><time>2026-04-03T19:19:30.999Z</time></trkpt><trkpt lat="43.58278667720942" lon="11.370759008466248"><ele>670.0</ele><time>2026-04-03T19:19:31.999Z</time></trkpt><trkpt lat="43.58287174595359" lon="11.37069309868403"><ele>668.6</ele><time>2026-04-03T19:19:32.999Z</time></trkpt><trkpt lat="43.582958325176925" lon="11.370622838228977"><ele>667.2</ele><time>2026-04-03T19:19:33.999Z</time></trkpt><trkpt lat="43.58302109146687" lon="11.370527971180108"><ele>665.8</ele><time>2026-04-03T19:19:34.999Z</time></trkpt><trkpt lat="43.58309514465916" lon="11.370450142922486"><ele>664.4</ele><time>2026-04-03T19:19:35.999Z</time></trkpt><trkpt lat="43.58316704089525" lon="11.370374137633878"><ele>663.0</ele><time>2026-04-03T19:19:36.999Z</time></trkpt><trkpt lat="43.58323957758434" lon="11.370290193901537"><ele>663.0</ele><time>2026-04-03T19:19:37.999Z</time></trkpt><trkpt lat="43.5833221675598" lon="11.370205310308586"><ele>663.0</ele><time>2026-04-03T19:19:38.999Z</time></trkpt><trkpt lat="43.583397724490695" lon="11.370112908520452"><ele>663.0</ele><time>2026-04-03T19:19:39.999Z</time></trkpt><trkpt lat="43.58349010399406" lon="11.370039676003698"><ele>663.0</ele><time>2026-04-03T19:19:40.999Z</time></trkpt><trkpt lat="43.58356876719443" lon="11.369949672916828"><ele>663.0</ele><time>2026-04-03T19:19:41.999Z</time></trkpt><trkpt lat="43.58363465805088" lon="11.369845318279012"><ele>662.2</ele><time>2026-04-03T19:19:42.999Z</time></trkpt><trkpt lat="43.58371623425715" lon="11.369759482505861"><ele>661.4</ele><time>2026-04-03T19:19:43.999Z</time></trkpt><trkpt lat="43.58378683431185" lon="11.369670438487605"><ele>660.6</ele><time>2026-04-03T19:19:44.999Z</time></trkpt><trkpt lat="43.583859795007434" lon="11.36958259686016"><ele>659.8000000000001</ele><time>2026-04-03T19:19:45.999Z</time></trkpt><trkpt lat="43.583939814699576" lon="11.369495729837487"><ele>659.0</ele><time>2026-04-03T19:19:46.999Z</time></trkpt><trkpt lat="43.584026848103925" lon="11.369400556367216"><ele>659.0</ele><time>2026-04-03T19:19:47.999Z</time></trkpt><trkpt lat="43.584112473835404" lon="11.369306357150604"><ele>659.0</ele><time>2026-04-03T19:19:48.999Z</time></trkpt><trkpt lat="43.58419254421294" lon="11.36921170791922"><ele>659.0</ele><time>2026-04-03T19:19:49.999Z</time></trkpt><trkpt lat="43.58427269215065" lon="11.369113621807116"><ele>659.0</ele><time>2026-04-03T19:19:50.999Z</time></trkpt><trkpt lat="43.58434467425226" lon="11.369032041769714"><ele>659.0</ele><time>2026-04-03T19:19:51.999Z</time></trkpt><trkpt lat="43.584432727499824" lon="11.368952322087411"><ele>656.6</ele><time>2026-04-03T19:19:52.999Z</time></trkpt><trkpt lat="43.584517873212" lon="11.368882391301073"><ele>654.2</ele><time>2026-04-03T19:19:53.999Z</time></trkpt><trkpt lat="43.584608443095156" lon="11.368805657536443"><ele>651.8000000000001</ele><time>2026-04-03T19:19:54.999Z</time></trkpt><trkpt lat="43.58469563605615" lon="11.36872502585645"><ele>649.4000000000001</ele><time>2026-04-03T19:19:55.999Z</time></trkpt><trkpt lat="43.58478538858716" lon="11.368648442395413"><ele>647.0</ele><time>2026-04-03T19:19:56.999Z</time></trkpt><trkpt lat="43.58487086459295" lon="11.368560088459251"><ele>647.0</ele><time>2026-04-03T19:19:57.999Z</time></trkpt><trkpt lat="43.58495366470124" lon="11.36847565840803"><ele>647.0</ele><time>2026-04-03T19:19:58.999Z</time></trkpt><trkpt lat="43.58504181832662" lon="11.368399482582781"><ele>647.0</ele><time>2026-04-03T19:19:59.999Z</time></trkpt><trkpt lat="43.5851233968853" lon="11.368319049921135"><ele>647.0</ele><time>2026-04-03T19:20:00.999Z</time></trkpt><trkpt lat="43.58520877071608" lon="11.368253362942342"><ele>647.0</ele><time>2026-04-03T19:20:01.999Z</time></trkpt><trkpt lat="43.585281922176314" lon="11.368179130495658"><ele>644.8333333333333</ele><time>2026-04-03T19:20:02.999Z</time></trkpt><trkpt lat="43.58534588693811" lon="11.36811030374731"><ele>642.6666666666666</ele><time>2026-04-03T19:20:03.999Z</time></trkpt><trkpt lat="43.58539271268716" lon="11.368025909650825"><ele>640.5</ele><time>2026-04-03T19:20:04.999Z</time></trkpt><trkpt lat="43.58541534959878" lon="11.36792383771531"><ele>638.3333333333334</ele><time>2026-04-03T19:20:05.999Z</time></trkpt><trkpt lat="43.58541379131946" lon="11.367801888057663"><ele>636.1666666666667</ele><time>2026-04-03T19:20:06.999Z</time></trkpt><trkpt lat="43.58538374256728" lon="11.367650468809959"><ele>634.0</ele><time>2026-04-03T19:20:07.999Z</time></trkpt><trkpt lat="43.58534753014651" lon="11.367497369753808"><ele>632.25</ele><time>2026-04-03T19:20:08.999Z</time></trkpt><trkpt lat="43.585321844715054" lon="11.367349404522432"><ele>630.5</ele><time>2026-04-03T19:20:09.999Z</time></trkpt><trkpt lat="43.585342157238316" lon="11.36719586455649"><ele>628.75</ele><time>2026-04-03T19:20:10.999Z</time></trkpt><trkpt lat="43.585358897855535" lon="11.367025283260343"><ele>627.0</ele><time>2026-04-03T19:20:11.999Z</time></trkpt><trkpt lat="43.58537831354224" lon="11.366831126392697"><ele>627.0</ele><time>2026-04-03T19:20:12.999Z</time></trkpt><trkpt lat="43.58538350444576" lon="11.366660123139559"><ele>627.0</ele><time>2026-04-03T19:20:13.999Z</time></trkpt><trkpt lat="43.585395696463614" lon="11.366538352735564"><ele>627.0</ele><time>2026-04-03T19:20:14.999Z</time></trkpt><trkpt lat="43.58540660951512" lon="11.366435001018386"><ele>627.0</ele><time>2026-04-03T19:20:15.999Z</time></trkpt><trkpt lat="43.58542217011491" lon="11.366345059738387"><ele>627.0</ele><time>2026-04-03T19:20:16.999Z</time></trkpt><trkpt lat="43.58544805334482" lon="11.366226977385272"><ele>627.0</ele><time>2026-04-03T19:20:18.999Z</time></trkpt><trkpt lat="43.58562869705441" lon="11.366337692977158"><ele>627.0</ele><time>2026-04-03T19:20:20.999Z</time></trkpt><trkpt lat="43.585695062417926" lon="11.366343776608097"><ele>627.0</ele><time>2026-04-03T19:20:21.999Z</time></trkpt><trkpt lat="43.58576651264111" lon="11.366350326366291"><ele>627.0</ele><time>2026-04-03T19:20:22.999Z</time></trkpt><trkpt lat="43.58586235680085" lon="11.366336462420525"><ele>627.0</ele><time>2026-04-03T19:20:23.999Z</time></trkpt><trkpt lat="43.585990462163615" lon="11.36637085554898"><ele>627.0</ele><time>2026-04-03T19:20:24.999Z</time></trkpt><trkpt lat="43.586139429940175" lon="11.36638451124079"><ele>627.0</ele><time>2026-04-03T19:20:25.999Z</time></trkpt><trkpt lat="43.58629909839808" lon="11.366400278040032"><ele>627.0</ele><time>2026-04-03T19:20:26.999Z</time></trkpt><trkpt lat="43.58646067865132" lon="11.36641690927909"><ele>627.0</ele><time>2026-04-03T19:20:27.999Z</time></trkpt><trkpt lat="43.586596363130575" lon="11.36642943624646"><ele>627.0</ele><time>2026-04-03T19:20:28.999Z</time></trkpt><trkpt lat="43.58672125165323" lon="11.366437514773773"><ele>627.0</ele><time>2026-04-03T19:20:29.999Z</time></trkpt><trkpt lat="43.586852033417465" lon="11.366438791641162"><ele>627.0</ele><time>2026-04-03T19:20:30.999Z</time></trkpt><trkpt lat="43.58698839939781" lon="11.36643698680111"><ele>627.0</ele><time>2026-04-03T19:20:31.999Z</time></trkpt><trkpt lat="43.58714139548789" lon="11.366423518119442"><ele>626.0</ele><time>2026-04-03T19:20:32.999Z</time></trkpt><trkpt lat="43.587284294413664" lon="11.366413212688293"><ele>625.0</ele><time>2026-04-03T19:20:33.999Z</time></trkpt><trkpt lat="43.58741422226764" lon="11.36641155111867"><ele>624.0</ele><time>2026-04-03T19:20:35Z</time></trkpt><trkpt lat="43.58752883506195" lon="11.366413922826263"><ele>623.0</ele><time>2026-04-03T19:20:36Z</time></trkpt><trkpt lat="43.58763020222303" lon="11.366396712527738"><ele>623.0</ele><time>2026-04-03T19:20:37Z</time></trkpt><trkpt lat="43.587728858678176" lon="11.366409460122716"><ele>623.0</ele><time>2026-04-03T19:20:38Z</time></trkpt><trkpt lat="43.58784850252643" lon="11.366442927513694"><ele>623.0</ele><time>2026-04-03T19:20:39Z</time></trkpt><trkpt lat="43.58798095948926" lon="11.36646983633364"><ele>623.0</ele><time>2026-04-03T19:20:40Z</time></trkpt><trkpt lat="43.588094451806434" lon="11.366473799961593"><ele>622.4</ele><time>2026-04-03T19:20:41Z</time></trkpt><trkpt lat="43.58819982564688" lon="11.366501766824554"><ele>621.8</ele><time>2026-04-03T19:20:42Z</time></trkpt><trkpt lat="43.588304306572546" lon="11.366527822806502"><ele>621.2</ele><time>2026-04-03T19:20:43Z</time></trkpt><trkpt lat="43.58840700029587" lon="11.366537433757799"><ele>620.6</ele><time>2026-04-03T19:20:44Z</time></trkpt><trkpt lat="43.58850100331781" lon="11.366547378401464"><ele>620.0</ele><time>2026-04-03T19:20:45Z</time></trkpt><trkpt lat="43.588598683067715" lon="11.366539719097592"><ele>619.6</ele><time>2026-04-03T19:20:46Z</time></trkpt><trkpt lat="43.58869838489154" lon="11.36649176873922"><ele>619.2</ele><time>2026-04-03T19:20:47Z</time></trkpt><trkpt lat="43.588786412966286" lon="11.36647255206983"><ele>618.8</ele><time>2026-04-03T19:20:48Z</time></trkpt><trkpt lat="43.58888642065912" lon="11.366536963859424"><ele>618.4</ele><time>2026-04-03T19:20:50Z</time></trkpt><trkpt lat="43.58897363129536" lon="11.366604501615976"><ele>618.0</ele><time>2026-04-03T19:20:51Z</time></trkpt><trkpt lat="43.58904121639989" lon="11.366656635791214"><ele>618.0</ele><time>2026-04-03T19:20:52Z</time></trkpt><trkpt lat="43.58903710315946" lon="11.366748826730378"><ele>618.0</ele><time>2026-04-03T19:20:54Z</time></trkpt><trkpt lat="43.5890892944539" lon="11.366836368726617"><ele>618.0</ele><time>2026-04-03T19:20:56Z</time></trkpt><trkpt lat="43.58938724915528" lon="11.366631214888574"><ele>618.0</ele><time>2026-04-03T19:20:58Z</time></trkpt><trkpt lat="43.58945323819759" lon="11.366744814709278"><ele>618.0</ele><time>2026-04-03T19:21:00Z</time></trkpt><trkpt lat="43.58949731582036" lon="11.366845444877484"><ele>618.0</ele><time>2026-04-03T19:21:02Z</time></trkpt><trkpt lat="43.58961238649133" lon="11.366869100466111"><ele>618.0</ele><time>2026-04-03T19:21:04Z</time></trkpt><trkpt lat="43.589699876762836" lon="11.366947287881628"><ele>618.0</ele><time>2026-04-03T19:21:06Z</time></trkpt><trkpt lat="43.58980120431317" lon="11.36701356158265"><ele>616.6</ele><time>2026-04-03T19:21:08Z</time></trkpt><trkpt lat="43.589908507475016" lon="11.367025218868074"><ele>615.1999999999999</ele><time>2026-04-03T19:21:10Z</time></trkpt><trkpt lat="43.58999974787261" lon="11.36694886959257"><ele>613.8</ele><time>2026-04-03T19:21:12Z</time></trkpt><trkpt lat="43.59009668459644" lon="11.366901010722552"><ele>612.4</ele><time>2026-04-03T19:21:14Z</time></trkpt><trkpt lat="43.5901938975392" lon="11.36680970867924"><ele>611.0</ele><time>2026-04-03T19:21:16Z</time></trkpt><trkpt lat="43.59025275587705" lon="11.36675873941207"><ele>611.0</ele><time>2026-04-03T19:21:17Z</time></trkpt><trkpt lat="43.59031363264955" lon="11.366732827755321"><ele>611.0</ele><time>2026-04-03T19:21:18Z</time></trkpt><trkpt lat="43.590371795927226" lon="11.366688930678711"><ele>611.0</ele><time>2026-04-03T19:21:18.999Z</time></trkpt><trkpt lat="43.59042052785493" lon="11.36659723750796"><ele>611.0</ele><time>2026-04-03T19:21:19.999Z</time></trkpt><trkpt lat="43.59048323843475" lon="11.36647606356063"><ele>611.0</ele><time>2026-04-03T19:21:20.999Z</time></trkpt><trkpt lat="43.59054305755503" lon="11.366360548889139"><ele>611.0</ele><time>2026-04-03T19:21:21.999Z</time></trkpt><trkpt lat="43.590571459893894" lon="11.36625552762356"><ele>608.4</ele><time>2026-04-03T19:21:22.999Z</time></trkpt><trkpt lat="43.590622721826556" lon="11.366186634633376"><ele>605.8</ele><time>2026-04-03T19:21:24.999Z</time></trkpt><trkpt lat="43.59073568083601" lon="11.366271277876175"><ele>603.1999999999999</ele><time>2026-04-03T19:21:26.999Z</time></trkpt><trkpt lat="43.590799231494515" lon="11.36633092458078"><ele>600.6</ele><time>2026-04-03T19:21:27.999Z</time></trkpt><trkpt lat="43.59085027049831" lon="11.366437772110531"><ele>598.0</ele><time>2026-04-03T19:21:29.999Z</time></trkpt><trkpt lat="43.590935148473086" lon="11.36650951940057"><ele>598.0</ele><time>2026-04-03T19:21:31.999Z</time></trkpt><trkpt lat="43.591000523953504" lon="11.366559411693911"><ele>598.0</ele><time>2026-04-03T19:21:32.999Z</time></trkpt><trkpt lat="43.591055982178744" lon="11.366615494681449"><ele>598.0</ele><time>2026-04-03T19:21:33.999Z</time></trkpt><trkpt lat="43.59103370767294" lon="11.366755818695175"><ele>598.0</ele><time>2026-04-03T19:21:35.999Z</time></trkpt><trkpt lat="43.59101264346177" lon="11.3668612578006"><ele>598.0</ele><time>2026-04-03T19:21:36.999Z</time></trkpt><trkpt lat="43.59102266140312" lon="11.3669546200688"><ele>598.0</ele><time>2026-04-03T19:21:37.999Z</time></trkpt><trkpt lat="43.59105215074309" lon="11.367034508793527"><ele>598.0</ele><time>2026-04-03T19:21:38.999Z</time></trkpt><trkpt lat="43.59114742581698" lon="11.367056458738045"><ele>598.0</ele><time>2026-04-03T19:21:40.999Z</time></trkpt><trkpt lat="43.59119911153908" lon="11.366999691395856"><ele>598.0</ele><time>2026-04-03T19:21:41.999Z</time></trkpt><trkpt lat="43.59125455861072" lon="11.366942454512557"><ele>598.0</ele><time>2026-04-03T19:21:42.999Z</time></trkpt><trkpt lat="43.591359902093664" lon="11.366908636961526"><ele>598.0</ele><time>2026-04-03T19:21:44.999Z</time></trkpt><trkpt lat="43.591418434522936" lon="11.366875740021309"><ele>598.0</ele><time>2026-04-03T19:21:45.999Z</time></trkpt><trkpt lat="43.5914753297495" lon="11.366834031602515"><ele>598.6666666666667</ele><time>2026-04-03T19:21:46.999Z</time></trkpt><trkpt lat="43.59153927953991" lon="11.366801434714926"><ele>599.3333333333334</ele><time>2026-04-03T19:21:47.999Z</time></trkpt><trkpt lat="43.591608468661214" lon="11.366698748838921"><ele>600.0</ele><time>2026-04-03T19:21:49.999Z</time></trkpt><trkpt lat="43.59168046706164" lon="11.366600326684019"><ele>600.6666666666666</ele><time>2026-04-03T19:21:51.999Z</time></trkpt><trkpt lat="43.5917506828225" lon="11.366620034439718"><ele>601.3333333333333</ele><time>2026-04-03T19:21:54.999Z</time></trkpt><trkpt lat="43.59178287998292" lon="11.366509354297632"><ele>602.0</ele><time>2026-04-03T19:21:58.999Z</time></trkpt><trkpt lat="43.59183740477914" lon="11.36643125551608"><ele>602.0</ele><time>2026-04-03T19:22:00.999Z</time></trkpt><trkpt lat="43.59191001264877" lon="11.36639291345161"><ele>602.0</ele><time>2026-04-03T19:22:01.999Z</time></trkpt><trkpt lat="43.591987733508546" lon="11.366320180950428"><ele>602.0</ele><time>2026-04-03T19:22:03.999Z</time></trkpt><trkpt lat="43.59205943971365" lon="11.366274984898936"><ele>602.0</ele><time>2026-04-03T19:22:05.999Z</time></trkpt><trkpt lat="43.59211888236965" lon="11.36623461107791"><ele>602.0</ele><time>2026-04-03T19:22:11.999Z</time></trkpt><trkpt lat="43.59219125965038" lon="11.36626559770364"><ele>602.0</ele><time>2026-04-03T19:22:13.999Z</time></trkpt><trkpt lat="43.592264626979464" lon="11.366281645132585"><ele>602.4</ele><time>2026-04-03T19:22:14.999Z</time></trkpt><trkpt lat="43.592349861561566" lon="11.366277249321858"><ele>602.8000000000001</ele><time>2026-04-03T19:22:15.999Z</time></trkpt><trkpt lat="43.592424256542905" lon="11.366270682176467"><ele>603.2</ele><time>2026-04-03T19:22:16.999Z</time></trkpt><trkpt lat="43.592526571155354" lon="11.366257167035371"><ele>603.6</ele><time>2026-04-03T19:22:18.999Z</time></trkpt><trkpt lat="43.59264230081175" lon="11.366229771207125"><ele>604.0</ele><time>2026-04-03T19:22:20.999Z</time></trkpt><trkpt lat="43.592723661585694" lon="11.36621516098067"><ele>604.0</ele><time>2026-04-03T19:22:21.999Z</time></trkpt><trkpt lat="43.59281418721773" lon="11.366215362150507"><ele>604.0</ele><time>2026-04-03T19:22:22.999Z</time></trkpt><trkpt lat="43.59291432237894" lon="11.366179111945788"><ele>604.0</ele><time>2026-04-03T19:22:23.999Z</time></trkpt><trkpt lat="43.59301755584148" lon="11.366136849935986"><ele>604.0</ele><time>2026-04-03T19:22:24.999Z</time></trkpt><trkpt lat="43.593116797217796" lon="11.366247280488253"><ele>604.0</ele><time>2026-04-03T19:22:26.999Z</time></trkpt><trkpt lat="43.59320014190271" lon="11.366347963640008"><ele>604.1666666666667</ele><time>2026-04-03T19:22:28.999Z</time></trkpt><trkpt lat="43.593290025080684" lon="11.366445261664946"><ele>604.3333333333334</ele><time>2026-04-03T19:22:30.999Z</time></trkpt><trkpt lat="43.59333259608135" lon="11.366525719223253"><ele>604.5</ele><time>2026-04-03T19:22:31.999Z</time></trkpt><trkpt lat="43.59336612745307" lon="11.36661102618845"><ele>604.6666666666666</ele><time>2026-04-03T19:22:32.999Z</time></trkpt><trkpt lat="43.5934288565714" lon="11.366680659723764"><ele>604.8333333333333</ele><time>2026-04-03T19:22:33.999Z</time></trkpt><trkpt lat="43.59352743640861" lon="11.36667772915284"><ele>605.0</ele><time>2026-04-03T19:22:35.999Z</time></trkpt><trkpt lat="43.59360886840939" lon="11.366548374985985"><ele>602.8333333333333</ele><time>2026-04-03T19:22:37.999Z</time></trkpt><trkpt lat="43.59367431147434" lon="11.366430071171251"><ele>600.6666666666666</ele><time>2026-04-03T19:22:39.999Z</time></trkpt><trkpt lat="43.593724683866185" lon="11.366348266007574"><ele>598.5</ele><time>2026-04-03T19:22:42Z</time></trkpt><trkpt lat="43.593749557162056" lon="11.366267490954117"><ele>596.3333333333334</ele><time>2026-04-03T19:22:43Z</time></trkpt><trkpt lat="43.59379742164468" lon="11.366160318162946"><ele>594.1666666666667</ele><time>2026-04-03T19:22:45Z</time></trkpt><trkpt lat="43.59380449562061" lon="11.3660430056586"><ele>592.0</ele><time>2026-04-03T19:22:47Z</time></trkpt><trkpt lat="43.59386606238704" lon="11.36600012561035"><ele>591.4</ele><time>2026-04-03T19:22:49Z</time></trkpt><trkpt lat="43.59399161820404" lon="11.366076812023088"><ele>590.8000000000001</ele><time>2026-04-03T19:22:51Z</time></trkpt><trkpt lat="43.59406949794842" lon="11.366096617772"><ele>590.2</ele><time>2026-04-03T19:22:52Z</time></trkpt><trkpt lat="43.59413205883789" lon="11.366062299910327"><ele>589.6</ele><time>2026-04-03T19:22:53Z</time></trkpt><trkpt lat="43.59419110518591" lon="11.366000074807676"><ele>589.0</ele><time>2026-04-03T19:22:54Z</time></trkpt><trkpt lat="43.59426534214317" lon="11.365915947061557"><ele>589.0</ele><time>2026-04-03T19:22:55Z</time></trkpt><trkpt lat="43.59432634938445" lon="11.365849244645199"><ele>589.0</ele><time>2026-04-03T19:22:56Z</time></trkpt><trkpt lat="43.59438910783705" lon="11.36580065313622"><ele>589.0</ele><time>2026-04-03T19:22:57Z</time></trkpt><trkpt lat="43.594455751378796" lon="11.365783546592477"><ele>589.0</ele><time>2026-04-03T19:22:58Z</time></trkpt><trkpt lat="43.594522714555495" lon="11.365794644971366"><ele>589.0</ele><time>2026-04-03T19:22:59Z</time></trkpt><trkpt lat="43.59459357796103" lon="11.365825782176831"><ele>589.0</ele><time>2026-04-03T19:23:00Z</time></trkpt><trkpt lat="43.59466704349101" lon="11.365875468560448"><ele>589.0</ele><time>2026-04-03T19:23:01Z</time></trkpt><trkpt lat="43.59475332217215" lon="11.365928103073903"><ele>587.1666666666667</ele><time>2026-04-03T19:23:02Z</time></trkpt><trkpt lat="43.59483168507346" lon="11.365958940999983"><ele>585.3333333333334</ele><time>2026-04-03T19:23:03Z</time></trkpt><trkpt lat="43.594910633052145" lon="11.365978457256261"><ele>583.5</ele><time>2026-04-03T19:23:04Z</time></trkpt><trkpt lat="43.59498549470735" lon="11.365984485510275"><ele>581.6666666666666</ele><time>2026-04-03T19:23:05Z</time></trkpt><trkpt lat="43.59506015688017" lon="11.365981061477733"><ele>579.8333333333333</ele><time>2026-04-03T19:23:06Z</time></trkpt><trkpt lat="43.59513141486899" lon="11.365964625840283"><ele>578.0</ele><time>2026-04-03T19:23:07Z</time></trkpt><trkpt lat="43.59521033856552" lon="11.36592189262866"><ele>578.0</ele><time>2026-04-03T19:23:08Z</time></trkpt><trkpt lat="43.59529834699055" lon="11.36587348162025"><ele>578.0</ele><time>2026-04-03T19:23:09Z</time></trkpt><trkpt lat="43.595383603371886" lon="11.365823071585128"><ele>578.0</ele><time>2026-04-03T19:23:10Z</time></trkpt><trkpt lat="43.59545379735605" lon="11.365783455823191"><ele>578.0</ele><time>2026-04-03T19:23:11Z</time></trkpt><trkpt lat="43.5955154416617" lon="11.365744814090377"><ele>578.0</ele><time>2026-04-03T19:23:12Z</time></trkpt><trkpt lat="43.59557832644859" lon="11.365695724690392"><ele>578.0</ele><time>2026-04-03T19:23:13Z</time></trkpt><trkpt lat="43.59563001540062" lon="11.36563495112318"><ele>578.0</ele><time>2026-04-03T19:23:14Z</time></trkpt><trkpt lat="43.59567077258561" lon="11.365547447915239"><ele>578.0</ele><time>2026-04-03T19:23:15Z</time></trkpt><trkpt lat="43.595703853080536" lon="11.365449399806081"><ele>578.0</ele><time>2026-04-03T19:23:16Z</time></trkpt><trkpt lat="43.59572798662824" lon="11.365349654053174"><ele>578.0</ele><time>2026-04-03T19:23:17Z</time></trkpt><trkpt lat="43.595744826616944" lon="11.365252254382584"><ele>578.0</ele><time>2026-04-03T19:23:18Z</time></trkpt><trkpt lat="43.595750079466356" lon="11.365159412952227"><ele>578.0</ele><time>2026-04-03T19:23:18.999Z</time></trkpt><trkpt lat="43.595748815705576" lon="11.365067149261339"><ele>578.0</ele><time>2026-04-03T19:23:19.999Z</time></trkpt><trkpt lat="43.595739955618384" lon="11.364963463366099"><ele>577.1428571428571</ele><time>2026-04-03T19:23:20.999Z</time></trkpt><trkpt lat="43.59572199514633" lon="11.364856783264154"><ele>576.2857142857142</ele><time>2026-04-03T19:23:21.999Z</time></trkpt><trkpt lat="43.59570481085094" lon="11.364771210848462"><ele>575.4285714285713</ele><time>2026-04-03T19:23:22.999Z</time></trkpt><trkpt lat="43.595688046118944" lon="11.364669388595052"><ele>574.5714285714286</ele><time>2026-04-03T19:23:23.999Z</time></trkpt><trkpt lat="43.595671707771" lon="11.364568992307976"><ele>573.7142857142857</ele><time>2026-04-03T19:23:24.999Z</time></trkpt><trkpt lat="43.59566595059108" lon="11.364475035872939"><ele>572.8571428571428</ele><time>2026-04-03T19:23:25.999Z</time></trkpt><trkpt lat="43.59566275268406" lon="11.364380554532556"><ele>572.0</ele><time>2026-04-03T19:23:26.999Z</time></trkpt><trkpt lat="43.59567175801089" lon="11.364274478160121"><ele>570.5</ele><time>2026-04-03T19:23:27.999Z</time></trkpt><trkpt lat="43.59568274901643" lon="11.364173570067479"><ele>569.0</ele><time>2026-04-03T19:23:28.999Z</time></trkpt><trkpt lat="43.595692009182336" lon="11.364077323439817"><ele>567.5</ele><time>2026-04-03T19:23:29.999Z</time></trkpt><trkpt lat="43.59574362932373" lon="11.363996626705754"><ele>566.0</ele><time>2026-04-03T19:23:30.999Z</time></trkpt><trkpt lat="43.59576906033521" lon="11.363907630137877"><ele>564.5</ele><time>2026-04-03T19:23:31.999Z</time></trkpt><trkpt lat="43.59579629239327" lon="11.363829195305133"><ele>563.0</ele><time>2026-04-03T19:23:32.999Z</time></trkpt><trkpt lat="43.595872489959845" lon="11.363695942400922"><ele>560.8571428571429</ele><time>2026-04-03T19:23:34.999Z</time></trkpt><trkpt lat="43.595932266073724" lon="11.363661220570654"><ele>558.7142857142858</ele><time>2026-04-03T19:23:35.999Z</time></trkpt><trkpt lat="43.59600560191081" lon="11.36362911315523"><ele>556.5714285714287</ele><time>2026-04-03T19:23:36.999Z</time></trkpt><trkpt lat="43.59607412232657" lon="11.36358276672697"><ele>554.4285714285714</ele><time>2026-04-03T19:23:37.999Z</time></trkpt><trkpt lat="43.59612664099544" lon="11.363532974548999"><ele>552.2857142857143</ele><time>2026-04-03T19:23:38.999Z</time></trkpt><trkpt lat="43.5961928186933" lon="11.363515842956566"><ele>550.1428571428572</ele><time>2026-04-03T19:23:39.999Z</time></trkpt><trkpt lat="43.59625598894392" lon="11.363555618783966"><ele>548.0</ele><time>2026-04-03T19:23:40.999Z</time></trkpt><trkpt lat="43.59632233440008" lon="11.363583082875076"><ele>547.1666666666666</ele><time>2026-04-03T19:23:41.999Z</time></trkpt><trkpt lat="43.596406316558266" lon="11.363618314353412"><ele>546.3333333333333</ele><time>2026-04-03T19:23:42.999Z</time></trkpt><trkpt lat="43.59648032054518" lon="11.363660535096887"><ele>545.5</ele><time>2026-04-03T19:23:43.999Z</time></trkpt><trkpt lat="43.59654700673935" lon="11.36371934196996"><ele>544.6666666666666</ele><time>2026-04-03T19:23:44.999Z</time></trkpt><trkpt lat="43.59660047667874" lon="11.363774107570942"><ele>543.8333333333334</ele><time>2026-04-03T19:23:45.999Z</time></trkpt><trkpt lat="43.59665824622192" lon="11.36383080786801"><ele>543.0</ele><time>2026-04-03T19:23:46.999Z</time></trkpt><trkpt lat="43.596720118103676" lon="11.363881030082876"><ele>542.3333333333334</ele><time>2026-04-03T19:23:47.999Z</time></trkpt><trkpt lat="43.596838635742245" lon="11.363946406725347"><ele>541.6666666666666</ele><time>2026-04-03T19:23:49.999Z</time></trkpt><trkpt lat="43.59690559132261" lon="11.36395817408691"><ele>541.0</ele><time>2026-04-03T19:23:50.999Z</time></trkpt><trkpt lat="43.59697793011826" lon="11.363947816354862"><ele>540.3333333333333</ele><time>2026-04-03T19:23:51.999Z</time></trkpt><trkpt lat="43.59705507669589" lon="11.363931369066762"><ele>539.6666666666666</ele><time>2026-04-03T19:23:52.999Z</time></trkpt><trkpt lat="43.59713420553181" lon="11.363906788978337"><ele>539.0</ele><time>2026-04-03T19:23:53.999Z</time></trkpt><trkpt lat="43.59722456762284" lon="11.363887631706321"><ele>537.8333333333333</ele><time>2026-04-03T19:23:54.999Z</time></trkpt><trkpt lat="43.597332600242055" lon="11.363827512641402"><ele>536.6666666666666</ele><time>2026-04-03T19:23:55.999Z</time></trkpt><trkpt lat="43.597417833918804" lon="11.363767603965423"><ele>535.5</ele><time>2026-04-03T19:23:56.999Z</time></trkpt><trkpt lat="43.597484111746546" lon="11.363706623321892"><ele>534.3333333333334</ele><time>2026-04-03T19:23:57.999Z</time></trkpt><trkpt lat="43.59755576706398" lon="11.363710449785719"><ele>533.1666666666667</ele><time>2026-04-03T19:23:58.999Z</time></trkpt><trkpt lat="43.59762058920707" lon="11.363719317184316"><ele>532.0</ele><time>2026-04-03T19:23:59.999Z</time></trkpt><trkpt lat="43.59769923766977" lon="11.36373644153815"><ele>532.0</ele><time>2026-04-03T19:24:00.999Z</time></trkpt><trkpt lat="43.59779659957779" lon="11.363755372741164"><ele>532.0</ele><time>2026-04-03T19:24:01.999Z</time></trkpt><trkpt lat="43.597874690076765" lon="11.363782703894325"><ele>532.0</ele><time>2026-04-03T19:24:02.999Z</time></trkpt><trkpt lat="43.59793753566138" lon="11.363789935653784"><ele>532.0</ele><time>2026-04-03T19:24:03.999Z</time></trkpt><trkpt lat="43.598022642416545" lon="11.363833013666977"><ele>532.0</ele><time>2026-04-03T19:24:05.999Z</time></trkpt><trkpt lat="43.598086403777806" lon="11.363847312976562"><ele>532.0</ele><time>2026-04-03T19:24:08.999Z</time></trkpt><trkpt lat="43.59816124334218" lon="11.363850807417991"><ele>532.0</ele><time>2026-04-03T19:26:00.999Z</time></trkpt><trkpt lat="43.598237657470015" lon="11.363859195709281"><ele>532.0</ele><time>2026-04-03T19:26:03.999Z</time></trkpt><trkpt lat="43.598153207205954" lon="11.36357858744178"><ele>532.0</ele><time>2026-04-03T19:26:05.999Z</time></trkpt><trkpt lat="43.59809523993647" lon="11.363455025905555"><ele>532.0</ele><time>2026-04-03T19:26:06.999Z</time></trkpt><trkpt lat="43.59802179207727" lon="11.363347674760396"><ele>532.0</ele><time>2026-04-03T19:26:07.999Z</time></trkpt><trkpt lat="43.597932631439875" lon="11.363257379634971"><ele>532.0</ele><time>2026-04-03T19:26:08.999Z</time></trkpt><trkpt lat="43.59782010810326" lon="11.363184422682743"><ele>532.0</ele><time>2026-04-03T19:26:09.999Z</time></trkpt><trkpt lat="43.59774783265112" lon="11.36316786665005"><ele>532.0</ele><time>2026-04-03T19:26:11.999Z</time></trkpt><trkpt lat="43.5976485115411" lon="11.36314059342754"><ele>532.0</ele><time>2026-04-03T19:26:12.999Z</time></trkpt><trkpt lat="43.597541800118236" lon="11.363094244677415"><ele>532.0</ele><time>2026-04-03T19:26:13.999Z</time></trkpt><trkpt lat="43.597440245799426" lon="11.363064801866756"><ele>532.0</ele><time>2026-04-03T19:26:14.999Z</time></trkpt><trkpt lat="43.597346072387616" lon="11.363053045237544"><ele>532.0</ele><time>2026-04-03T19:26:15.999Z</time></trkpt><trkpt lat="43.597263442178836" lon="11.363017642599281"><ele>532.0</ele><time>2026-04-03T19:26:16.999Z</time></trkpt><trkpt lat="43.597183256793315" lon="11.36298482590222"><ele>532.0</ele><time>2026-04-03T19:26:17.999Z</time></trkpt><trkpt lat="43.59709962271032" lon="11.362953790809932"><ele>530.8000000000001</ele><time>2026-04-03T19:26:18.999Z</time></trkpt><trkpt lat="43.597015753648" lon="11.362915248242789"><ele>529.6</ele><time>2026-04-03T19:26:19.999Z</time></trkpt><trkpt lat="43.59693107548321" lon="11.362854829149917"><ele>528.4000000000001</ele><time>2026-04-03T19:26:20.999Z</time></trkpt><trkpt lat="43.59685258039371" lon="11.362749151715349"><ele>527.2</ele><time>2026-04-03T19:26:21.999Z</time></trkpt><trkpt lat="43.59678911843428" lon="11.362623438732575"><ele>526.0</ele><time>2026-04-03T19:26:22.999Z</time></trkpt><trkpt lat="43.59674599159633" lon="11.36249989384346"><ele>526.0</ele><time>2026-04-03T19:26:23.999Z</time></trkpt><trkpt lat="43.596704626295626" lon="11.362379950419312"><ele>526.0</ele><time>2026-04-03T19:26:24.999Z</time></trkpt><trkpt lat="43.59664640856188" lon="11.362273790403464"><ele>526.0</ele><time>2026-04-03T19:26:25.999Z</time></trkpt><trkpt lat="43.59657961859043" lon="11.362177491986168"><ele>526.0</ele><time>2026-04-03T19:26:26.999Z</time></trkpt><trkpt lat="43.59649348724176" lon="11.362108706376517"><ele>526.0</ele><time>2026-04-03T19:26:27.999Z</time></trkpt><trkpt lat="43.59639071326812" lon="11.362086959759838"><ele>525.25</ele><time>2026-04-03T19:26:28.999Z</time></trkpt><trkpt lat="43.59627786093542" lon="11.362112644929503"><ele>524.5</ele><time>2026-04-03T19:26:29.999Z</time></trkpt><trkpt lat="43.59616156928816" lon="11.362153811496563"><ele>523.75</ele><time>2026-04-03T19:26:30.999Z</time></trkpt><trkpt lat="43.59604504960602" lon="11.36219537614127"><ele>523.0</ele><time>2026-04-03T19:26:31.999Z</time></trkpt><trkpt lat="43.59594697876663" lon="11.362254726369189"><ele>523.0</ele><time>2026-04-03T19:26:32.999Z</time></trkpt><trkpt lat="43.595849751882945" lon="11.36233064780349"><ele>523.0</ele><time>2026-04-03T19:26:33.999Z</time></trkpt><trkpt lat="43.59574819586268" lon="11.36239580323032"><ele>523.0</ele><time>2026-04-03T19:26:34.999Z</time></trkpt><trkpt lat="43.59565184965215" lon="11.36247033426673"><ele>523.0</ele><time>2026-04-03T19:26:35.999Z</time></trkpt><trkpt lat="43.595558452911504" lon="11.362544031443694"><ele>523.0</ele><time>2026-04-03T19:26:36.999Z</time></trkpt><trkpt lat="43.59547537265444" lon="11.362634416338624"><ele>523.0</ele><time>2026-04-03T19:26:37.999Z</time></trkpt><trkpt lat="43.595381510972764" lon="11.362696396102205"><ele>523.0</ele><time>2026-04-03T19:26:38.999Z</time></trkpt><trkpt lat="43.59528030703211" lon="11.362760698654776"><ele>523.0</ele><time>2026-04-03T19:26:39.999Z</time></trkpt><trkpt lat="43.595175437417325" lon="11.362825159036133"><ele>523.0</ele><time>2026-04-03T19:26:40.999Z</time></trkpt><trkpt lat="43.59507132863673" lon="11.362887461461623"><ele>523.0</ele><time>2026-04-03T19:26:41.999Z</time></trkpt><trkpt lat="43.594970627781855" lon="11.362943365003455"><ele>524.0</ele><time>2026-04-03T19:26:42.999Z</time></trkpt><trkpt lat="43.59488251230501" lon="11.363029767933803"><ele>525.0</ele><time>2026-04-03T19:26:43.999Z</time></trkpt><trkpt lat="43.594789586046325" lon="11.363113849520623"><ele>526.0</ele><time>2026-04-03T19:26:44.999Z</time></trkpt><trkpt lat="43.59470629822999" lon="11.363211662129075"><ele>527.0</ele><time>2026-04-03T19:26:45.999Z</time></trkpt><trkpt lat="43.59462363208992" lon="11.36330378035879"><ele>528.0</ele><time>2026-04-03T19:26:46.999Z</time></trkpt><trkpt lat="43.59453163702896" lon="11.363386066783159"><ele>526.4</ele><time>2026-04-03T19:26:47.999Z</time></trkpt><trkpt lat="43.59442962693488" lon="11.363443079037312"><ele>524.8</ele><time>2026-04-03T19:26:48.999Z</time></trkpt><trkpt lat="43.59432397728232" lon="11.363484072600587"><ele>523.2</ele><time>2026-04-03T19:26:49.999Z</time></trkpt><trkpt lat="43.59422100627332" lon="11.3634838274892"><ele>521.6</ele><time>2026-04-03T19:26:50.999Z</time></trkpt><trkpt lat="43.59411328884859" lon="11.363459234662155"><ele>520.0</ele><time>2026-04-03T19:26:51.999Z</time></trkpt><trkpt lat="43.59400776992389" lon="11.363405949409488"><ele>520.0</ele><time>2026-04-03T19:26:53Z</time></trkpt><trkpt lat="43.59389567080912" lon="11.363369747912989"><ele>520.0</ele><time>2026-04-03T19:26:54Z</time></trkpt><trkpt lat="43.5937874787835" lon="11.363314543420175"><ele>520.0</ele><time>2026-04-03T19:26:55Z</time></trkpt><trkpt lat="43.593680109412965" lon="11.36326961825509"><ele>520.0</ele><time>2026-04-03T19:26:56Z</time></trkpt><trkpt lat="43.5935746660306" lon="11.363229993533807"><ele>521.4</ele><time>2026-04-03T19:26:57Z</time></trkpt><trkpt lat="43.593467065477896" lon="11.363211224697842"><ele>522.8</ele><time>2026-04-03T19:26:58Z</time></trkpt><trkpt lat="43.5933544966749" lon="11.3632098483492"><ele>524.2</ele><time>2026-04-03T19:26:59Z</time></trkpt><trkpt lat="43.593245043782" lon="11.36322627120319"><ele>525.6</ele><time>2026-04-03T19:27:00Z</time></trkpt><trkpt lat="43.59313540259272" lon="11.363254678610204"><ele>527.0</ele><time>2026-04-03T19:27:01Z</time></trkpt><trkpt lat="43.593024095633446" lon="11.36327719443128"><ele>527.0</ele><time>2026-04-03T19:27:02Z</time></trkpt><trkpt lat="43.592910035412025" lon="11.363298533394968"><ele>527.0</ele><time>2026-04-03T19:27:03Z</time></trkpt><trkpt lat="43.59280283339956" lon="11.363304589880938"><ele>527.0</ele><time>2026-04-03T19:27:04Z</time></trkpt><trkpt lat="43.59270323188236" lon="11.363303771226938"><ele>527.0</ele><time>2026-04-03T19:27:05Z</time></trkpt><trkpt lat="43.5926092238462" lon="11.363283743164759"><ele>527.0</ele><time>2026-04-03T19:27:06Z</time></trkpt><trkpt lat="43.592526870138364" lon="11.363215905462132"><ele>528.0</ele><time>2026-04-03T19:27:07Z</time></trkpt><trkpt lat="43.59247166246273" lon="11.363113871637928"><ele>529.0</ele><time>2026-04-03T19:27:08Z</time></trkpt><trkpt lat="43.59244740019356" lon="11.362972701393598"><ele>530.0</ele><time>2026-04-03T19:27:09Z</time></trkpt><trkpt lat="43.59248316018187" lon="11.362808954076085"><ele>531.0</ele><time>2026-04-03T19:27:10Z</time></trkpt><trkpt lat="43.592518210441206" lon="11.362676902293519"><ele>532.0</ele><time>2026-04-03T19:27:11Z</time></trkpt><trkpt lat="43.592553276148166" lon="11.362518331981255"><ele>532.0</ele><time>2026-04-03T19:27:12Z</time></trkpt><trkpt lat="43.59260868335318" lon="11.3623700717759"><ele>532.0</ele><time>2026-04-03T19:27:13Z</time></trkpt><trkpt lat="43.59266838446366" lon="11.362222611046276"><ele>532.0</ele><time>2026-04-03T19:27:14Z</time></trkpt><trkpt lat="43.592726365812794" lon="11.362087843319912"><ele>532.0</ele><time>2026-04-03T19:27:15Z</time></trkpt><trkpt lat="43.59278518131532" lon="11.361954946717184"><ele>532.0</ele><time>2026-04-03T19:27:16Z</time></trkpt><trkpt lat="43.59283748086316" lon="11.36181938838859"><ele>532.0</ele><time>2026-04-03T19:27:17Z</time></trkpt><trkpt lat="43.59288699384988" lon="11.3616592616568"><ele>532.0</ele><time>2026-04-03T19:27:18Z</time></trkpt><trkpt lat="43.592922131673575" lon="11.361497419194707"><ele>532.0</ele><time>2026-04-03T19:27:19Z</time></trkpt><trkpt lat="43.59294310971661" lon="11.361341248004363"><ele>529.8000000000001</ele><time>2026-04-03T19:27:20Z</time></trkpt><trkpt lat="43.592945118197605" lon="11.361191128696294"><ele>527.6</ele><time>2026-04-03T19:27:21Z</time></trkpt><trkpt lat="43.592924317879394" lon="11.361051786545667"><ele>525.4000000000001</ele><time>2026-04-03T19:27:21.999Z</time></trkpt><trkpt lat="43.592875170790755" lon="11.360924454669359"><ele>523.2</ele><time>2026-04-03T19:27:22.999Z</time></trkpt><trkpt lat="43.592804272885616" lon="11.360824872154275"><ele>521.0</ele><time>2026-04-03T19:27:23.999Z</time></trkpt><trkpt lat="43.592719012908894" lon="11.360749474176046"><ele>521.0</ele><time>2026-04-03T19:27:24.999Z</time></trkpt><trkpt lat="43.592620460509295" lon="11.360714750858083"><ele>521.0</ele><time>2026-04-03T19:27:25.999Z</time></trkpt><trkpt lat="43.59252155274931" lon="11.360665887299849"><ele>521.0</ele><time>2026-04-03T19:27:26.999Z</time></trkpt><trkpt lat="43.592435430890916" lon="11.360581607412588"><ele>521.0</ele><time>2026-04-03T19:27:27.999Z</time></trkpt><trkpt lat="43.59238291677365" lon="11.360451384901529"><ele>521.0</ele><time>2026-04-03T19:27:28.999Z</time></trkpt><trkpt lat="43.592369942480964" lon="11.360297420370385"><ele>517.75</ele><time>2026-04-03T19:27:29.999Z</time></trkpt><trkpt lat="43.59238909591108" lon="11.360142918358822"><ele>514.5</ele><time>2026-04-03T19:27:30.999Z</time></trkpt><trkpt lat="43.592419835966915" lon="11.359991762879126"><ele>511.25</ele><time>2026-04-03T19:27:31.999Z</time></trkpt><trkpt lat="43.5924426188158" lon="11.35983708977179"><ele>508.0</ele><time>2026-04-03T19:27:32.999Z</time></trkpt><trkpt lat="43.592461586657215" lon="11.359669072799253"><ele>507.79999999999995</ele><time>2026-04-03T19:27:33.999Z</time></trkpt><trkpt lat="43.592495994911864" lon="11.359501329586799"><ele>507.59999999999997</ele><time>2026-04-03T19:27:34.999Z</time></trkpt><trkpt lat="43.592529740686864" lon="11.359360393263605"><ele>507.40000000000003</ele><time>2026-04-03T19:27:35.999Z</time></trkpt><trkpt lat="43.592584959828415" lon="11.35923902226743"><ele>507.20000000000005</ele><time>2026-04-03T19:27:36.999Z</time></trkpt><trkpt lat="43.59265804921712" lon="11.359135368465003"><ele>507.0</ele><time>2026-04-03T19:27:37.999Z</time></trkpt><trkpt lat="43.59272814249491" lon="11.35903898880214"><ele>507.0</ele><time>2026-04-03T19:27:38.999Z</time></trkpt><trkpt lat="43.59277315495812" lon="11.358921211015085"><ele>507.00000000000006</ele><time>2026-04-03T19:27:39.999Z</time></trkpt><trkpt lat="43.59276903708864" lon="11.358784909746252"><ele>507.00000000000006</ele><time>2026-04-03T19:27:40.999Z</time></trkpt><trkpt lat="43.59272632594256" lon="11.358655161146112"><ele>507.0</ele><time>2026-04-03T19:27:41.999Z</time></trkpt><trkpt lat="43.59265968250904" lon="11.35853307269904"><ele>507.0</ele><time>2026-04-03T19:27:42.999Z</time></trkpt><trkpt lat="43.5925844253657" lon="11.358419999301642"><ele>506.0</ele><time>2026-04-03T19:27:43.999Z</time></trkpt><trkpt lat="43.59252069494701" lon="11.358286517142941"><ele>505.0</ele><time>2026-04-03T19:27:44.999Z</time></trkpt><trkpt lat="43.59247293191522" lon="11.35812924422582"><ele>504.0</ele><time>2026-04-03T19:27:45.999Z</time></trkpt><trkpt lat="43.592437421386485" lon="11.35795118358666"><ele>503.0</ele><time>2026-04-03T19:27:46.999Z</time></trkpt><trkpt lat="43.59240686629967" lon="11.35777902423505"><ele>498.5</ele><time>2026-04-03T19:27:47.999Z</time></trkpt><trkpt lat="43.59237665338988" lon="11.357619618623154"><ele>494.0</ele><time>2026-04-03T19:27:48.999Z</time></trkpt><trkpt lat="43.5923500019485" lon="11.357462704817967"><ele>489.5</ele><time>2026-04-03T19:27:49.999Z</time></trkpt><trkpt lat="43.59232621477362" lon="11.357311063376631"><ele>485.0</ele><time>2026-04-03T19:27:50.999Z</time></trkpt><trkpt lat="43.59230472697997" lon="11.357163800712973"><ele>481.8</ele><time>2026-04-03T19:27:51.999Z</time></trkpt><trkpt lat="43.59228479178916" lon="11.35701897773175"><ele>478.6</ele><time>2026-04-03T19:27:52.999Z</time></trkpt><trkpt lat="43.59226261314323" lon="11.356877916191014"><ele>475.4</ele><time>2026-04-03T19:27:53.999Z</time></trkpt><trkpt lat="43.59223734712404" lon="11.356740812983722"><ele>472.2</ele><time>2026-04-03T19:27:54.999Z</time></trkpt><trkpt lat="43.59220283876533" lon="11.35660924583955"><ele>469.0</ele><time>2026-04-03T19:27:55.999Z</time></trkpt><trkpt lat="43.592144275814505" lon="11.356488703117277"><ele>469.0</ele><time>2026-04-03T19:27:56.999Z</time></trkpt><trkpt lat="43.59205906625577" lon="11.356394208829544"><ele>469.0</ele><time>2026-04-03T19:27:57.999Z</time></trkpt><trkpt lat="43.591967053025" lon="11.356322190170655"><ele>469.0</ele><time>2026-04-03T19:27:58.999Z</time></trkpt><trkpt lat="43.59187439600359" lon="11.356266172754836"><ele>469.0</ele><time>2026-04-03T19:27:59.999Z</time></trkpt><trkpt lat="43.591782646426964" lon="11.356198993803304"><ele>469.0</ele><time>2026-04-03T19:28:00.999Z</time></trkpt><trkpt lat="43.5917020558452" lon="11.356119353995705"><ele>470.2</ele><time>2026-04-03T19:28:01.999Z</time></trkpt><trkpt lat="43.591636859679625" lon="11.356015681252819"><ele>471.4</ele><time>2026-04-03T19:28:02.999Z</time></trkpt><trkpt lat="43.59157946623025" lon="11.355902920283297"><ele>472.6</ele><time>2026-04-03T19:28:03.999Z</time></trkpt><trkpt lat="43.59152393936139" lon="11.355808130895445"><ele>473.8</ele><time>2026-04-03T19:28:04.999Z</time></trkpt><trkpt lat="43.59146096289135" lon="11.355710637118458"><ele>475.0</ele><time>2026-04-03T19:28:05.999Z</time></trkpt><trkpt lat="43.5913480689517" lon="11.355702634762395"><ele>475.0</ele><time>2026-04-03T19:28:06.999Z</time></trkpt><trkpt lat="43.59123922733008" lon="11.355724683195533"><ele>475.0</ele><time>2026-04-03T19:28:07.999Z</time></trkpt><trkpt lat="43.59113339748935" lon="11.355774111948765"><ele>475.0</ele><time>2026-04-03T19:28:08.999Z</time></trkpt><trkpt lat="43.59102510310375" lon="11.355785226220405"><ele>475.0</ele><time>2026-04-03T19:28:09.999Z</time></trkpt><trkpt lat="43.59091819507034" lon="11.355789516615138"><ele>475.0</ele><time>2026-04-03T19:28:10.999Z</time></trkpt><trkpt lat="43.590829491976045" lon="11.355714979381824"><ele>475.6</ele><time>2026-04-03T19:28:11.999Z</time></trkpt><trkpt lat="43.59076859098329" lon="11.355596946493346"><ele>476.2</ele><time>2026-04-03T19:28:12.999Z</time></trkpt><trkpt lat="43.59073824396329" lon="11.355460383242571"><ele>476.79999999999995</ele><time>2026-04-03T19:28:13.999Z</time></trkpt><trkpt lat="43.590757169601" lon="11.355308508657986"><ele>477.4</ele><time>2026-04-03T19:28:14.999Z</time></trkpt><trkpt lat="43.59082382653734" lon="11.3551729651193"><ele>478.0</ele><time>2026-04-03T19:28:15.999Z</time></trkpt><trkpt lat="43.590920539819955" lon="11.35507291355653"><ele>478.25</ele><time>2026-04-03T19:28:16.999Z</time></trkpt><trkpt lat="43.59102760778089" lon="11.354998241688795"><ele>478.5</ele><time>2026-04-03T19:28:17.999Z</time></trkpt><trkpt lat="43.59113541679105" lon="11.354941956587748"><ele>478.75</ele><time>2026-04-03T19:28:18.999Z</time></trkpt><trkpt lat="43.591262139650915" lon="11.354909299072355"><ele>479.0</ele><time>2026-04-03T19:28:19.999Z</time></trkpt><trkpt lat="43.59137096141253" lon="11.354844715096604"><ele>480.25</ele><time>2026-04-03T19:28:20.999Z</time></trkpt><trkpt lat="43.59147870463955" lon="11.354787476839714"><ele>481.5</ele><time>2026-04-03T19:28:21.999Z</time></trkpt><trkpt lat="43.59158232001724" lon="11.354710628310183"><ele>482.75</ele><time>2026-04-03T19:28:22.999Z</time></trkpt><trkpt lat="43.591678935131746" lon="11.354617687474503"><ele>484.0</ele><time>2026-04-03T19:28:23.999Z</time></trkpt><trkpt lat="43.59177303107584" lon="11.354512253930316"><ele>484.0</ele><time>2026-04-03T19:28:24.999Z</time></trkpt><trkpt lat="43.59187815072634" lon="11.354412464977665"><ele>484.0</ele><time>2026-04-03T19:28:25.999Z</time></trkpt><trkpt lat="43.59198800116306" lon="11.354344296473247"><ele>484.0</ele><time>2026-04-03T19:28:26.999Z</time></trkpt><trkpt lat="43.59210443164885" lon="11.35431054280515"><ele>484.0</ele><time>2026-04-03T19:28:27.999Z</time></trkpt><trkpt lat="43.59221207158594" lon="11.35428705484939"><ele>481.2</ele><time>2026-04-03T19:28:28.999Z</time></trkpt><trkpt lat="43.59230649291132" lon="11.35423287814452"><ele>478.4</ele><time>2026-04-03T19:28:29.999Z</time></trkpt><trkpt lat="43.592379643161266" lon="11.354138003879703"><ele>475.6</ele><time>2026-04-03T19:28:30.999Z</time></trkpt><trkpt lat="43.59244519616288" lon="11.35399263955883"><ele>472.8</ele><time>2026-04-03T19:28:31.999Z</time></trkpt><trkpt lat="43.59251449730562" lon="11.353867058822544"><ele>470.0</ele><time>2026-04-03T19:28:32.999Z</time></trkpt><trkpt lat="43.59261709267583" lon="11.353793414935057"><ele>470.0</ele><time>2026-04-03T19:28:33.999Z</time></trkpt><trkpt lat="43.592691615915946" lon="11.35367281350407"><ele>470.0</ele><time>2026-04-03T19:28:34.999Z</time></trkpt><trkpt lat="43.59277854273141" lon="11.353575598982616"><ele>470.0</ele><time>2026-04-03T19:28:35.999Z</time></trkpt><trkpt lat="43.59285537148925" lon="11.353468828315025"><ele>470.0</ele><time>2026-04-03T19:28:36.999Z</time></trkpt><trkpt lat="43.592917115655716" lon="11.353329564645753"><ele>468.5</ele><time>2026-04-03T19:28:37.999Z</time></trkpt><trkpt lat="43.59295730400952" lon="11.353169453213152"><ele>467.0</ele><time>2026-04-03T19:28:38.999Z</time></trkpt><trkpt lat="43.592979926418806" lon="11.352997010752478"><ele>465.5</ele><time>2026-04-03T19:28:39.999Z</time></trkpt><trkpt lat="43.59300154354888" lon="11.35284141878623"><ele>464.0</ele><time>2026-04-03T19:28:40.999Z</time></trkpt><trkpt lat="43.5930428019619" lon="11.35270060305293"><ele>464.0</ele><time>2026-04-03T19:28:41.999Z</time></trkpt><trkpt lat="43.59312721569065" lon="11.352594411894996"><ele>464.0</ele><time>2026-04-03T19:28:42.999Z</time></trkpt><trkpt lat="43.59320367684379" lon="11.352473824223397"><ele>464.0</ele><time>2026-04-03T19:28:43.999Z</time></trkpt><trkpt lat="43.59328000486471" lon="11.35235036946021"><ele>464.0</ele><time>2026-04-03T19:28:44.999Z</time></trkpt><trkpt lat="43.593354677325834" lon="11.352222745684019"><ele>466.25</ele><time>2026-04-03T19:28:45.999Z</time></trkpt><trkpt lat="43.59340824341087" lon="11.35207370259497"><ele>468.5</ele><time>2026-04-03T19:28:46.999Z</time></trkpt><trkpt lat="43.59348216073472" lon="11.351939987194582"><ele>470.75</ele><time>2026-04-03T19:28:47.999Z</time></trkpt><trkpt lat="43.59352604891616" lon="11.351773804563608"><ele>473.0</ele><time>2026-04-03T19:28:48.999Z</time></trkpt><trkpt lat="43.593581531074896" lon="11.351611575758866"><ele>473.0</ele><time>2026-04-03T19:28:49.999Z</time></trkpt><trkpt lat="43.59362230769369" lon="11.351453409824405"><ele>473.0</ele><time>2026-04-03T19:28:50.999Z</time></trkpt><trkpt lat="43.593651629808434" lon="11.351300026005243"><ele>473.0</ele><time>2026-04-03T19:28:51.999Z</time></trkpt><trkpt lat="43.59366763582115" lon="11.351147801908933"><ele>473.0</ele><time>2026-04-03T19:28:52.999Z</time></trkpt><trkpt lat="43.593670880839205" lon="11.35099459874609"><ele>473.0</ele><time>2026-04-03T19:28:53.999Z</time></trkpt><trkpt lat="43.59365889780224" lon="11.350847012981621"><ele>472.99999999999994</ele><time>2026-04-03T19:28:54.999Z</time></trkpt><trkpt lat="43.5936275156592" lon="11.350711193169333"><ele>472.99999999999994</ele><time>2026-04-03T19:28:55.999Z</time></trkpt><trkpt lat="43.59357508698716" lon="11.35058115366026"><ele>473.0</ele><time>2026-04-03T19:28:56.999Z</time></trkpt><trkpt lat="43.59351352443129" lon="11.3504559059793"><ele>473.0</ele><time>2026-04-03T19:28:57.999Z</time></trkpt><trkpt lat="43.59345387943885" lon="11.350316873256446"><ele>471.0</ele><time>2026-04-03T19:28:59Z</time></trkpt><trkpt lat="43.59341020127996" lon="11.350160487510152"><ele>469.0</ele><time>2026-04-03T19:29:00Z</time></trkpt><trkpt lat="43.5933794619614" lon="11.350002905204878"><ele>467.0</ele><time>2026-04-03T19:29:01Z</time></trkpt><trkpt lat="43.593360128851685" lon="11.349848899450063"><ele>465.0</ele><time>2026-04-03T19:29:02Z</time></trkpt><trkpt lat="43.59335706606095" lon="11.349699810448575"><ele>463.2</ele><time>2026-04-03T19:29:03Z</time></trkpt><trkpt lat="43.593373281403224" lon="11.349555941914812"><ele>461.4</ele><time>2026-04-03T19:29:04Z</time></trkpt><trkpt lat="43.59342299029477" lon="11.349435086044064"><ele>459.6</ele><time>2026-04-03T19:29:05Z</time></trkpt><trkpt lat="43.59344579492459" lon="11.349307732814923"><ele>457.8</ele><time>2026-04-03T19:29:06Z</time></trkpt><trkpt lat="43.59347553681823" lon="11.349187482863286"><ele>456.0</ele><time>2026-04-03T19:29:07Z</time></trkpt><trkpt lat="43.59348301970993" lon="11.349059109693004"><ele>456.0</ele><time>2026-04-03T19:29:08Z</time></trkpt><trkpt lat="43.593466829993" lon="11.34892656380479"><ele>456.0</ele><time>2026-04-03T19:29:09Z</time></trkpt><trkpt lat="43.59342864242511" lon="11.348801545664768"><ele>456.0</ele><time>2026-04-03T19:29:10Z</time></trkpt><trkpt lat="43.59338003537792" lon="11.348682018942336"><ele>456.0</ele><time>2026-04-03T19:29:11Z</time></trkpt><trkpt lat="43.59332828520141" lon="11.348557977036588"><ele>456.0</ele><time>2026-04-03T19:29:12Z</time></trkpt><trkpt lat="43.59327753458936" lon="11.348425214634366"><ele>453.6</ele><time>2026-04-03T19:29:13Z</time></trkpt><trkpt lat="43.593223317283986" lon="11.348287269194676"><ele>451.20000000000005</ele><time>2026-04-03T19:29:14Z</time></trkpt><trkpt lat="43.59317778159279" lon="11.348140393635845"><ele>448.79999999999995</ele><time>2026-04-03T19:29:15Z</time></trkpt><trkpt lat="43.593148391832884" lon="11.347995776799612"><ele>446.4</ele><time>2026-04-03T19:29:16Z</time></trkpt><trkpt lat="43.59314706260614" lon="11.347849874773221"><ele>444.0</ele><time>2026-04-03T19:29:17Z</time></trkpt><trkpt lat="43.59317137877086" lon="11.34770903528372"><ele>442.79999999999995</ele><time>2026-04-03T19:29:18Z</time></trkpt><trkpt lat="43.59320004224249" lon="11.347572612549179"><ele>441.59999999999997</ele><time>2026-04-03T19:29:19Z</time></trkpt><trkpt lat="43.593221142045806" lon="11.347431106719075"><ele>440.4</ele><time>2026-04-03T19:29:20Z</time></trkpt><trkpt lat="43.593225267960975" lon="11.34729528803737"><ele>439.2</ele><time>2026-04-03T19:29:21Z</time></trkpt><trkpt lat="43.593201693450624" lon="11.34716636706104"><ele>438.0</ele><time>2026-04-03T19:29:22Z</time></trkpt><trkpt lat="43.59315280959478" lon="11.347055003435129"><ele>438.75</ele><time>2026-04-03T19:29:23Z</time></trkpt><trkpt lat="43.59308491531476" lon="11.346951299942367"><ele>439.5</ele><time>2026-04-03T19:29:24Z</time></trkpt><trkpt lat="43.59299684959658" lon="11.346849261876585"><ele>440.25</ele><time>2026-04-03T19:29:25Z</time></trkpt><trkpt lat="43.59290853294377" lon="11.346746486989078"><ele>441.0</ele><time>2026-04-03T19:29:26Z</time></trkpt><trkpt lat="43.592814755743866" lon="11.346639397939922"><ele>441.0</ele><time>2026-04-03T19:29:27Z</time></trkpt><trkpt lat="43.59271912554355" lon="11.346539110817227"><ele>441.0</ele><time>2026-04-03T19:29:28Z</time></trkpt><trkpt lat="43.59262397503503" lon="11.346453234640682"><ele>441.0</ele><time>2026-04-03T19:29:29Z</time></trkpt><trkpt lat="43.59252778234557" lon="11.346379558766706"><ele>441.0</ele><time>2026-04-03T19:29:29.999Z</time></trkpt><trkpt lat="43.59242238828734" lon="11.346322406898018"><ele>437.5</ele><time>2026-04-03T19:29:30.999Z</time></trkpt><trkpt lat="43.59230869126119" lon="11.346279896232042"><ele>434.0</ele><time>2026-04-03T19:29:31.999Z</time></trkpt><trkpt lat="43.59218871588762" lon="11.346254830715079"><ele>430.5</ele><time>2026-04-03T19:29:32.999Z</time></trkpt><trkpt lat="43.592065670238796" lon="11.346249168027498"><ele>427.0</ele><time>2026-04-03T19:29:33.999Z</time></trkpt><trkpt lat="43.59194094516381" lon="11.346262418268726"><ele>427.0</ele><time>2026-04-03T19:29:34.999Z</time></trkpt><trkpt lat="43.591803592663155" lon="11.346286458799064"><ele>427.0</ele><time>2026-04-03T19:29:35.999Z</time></trkpt><trkpt lat="43.591669689647674" lon="11.346302283045672"><ele>427.0</ele><time>2026-04-03T19:29:36.999Z</time></trkpt><trkpt lat="43.591545635619084" lon="11.346295143116139"><ele>427.0</ele><time>2026-04-03T19:29:37.999Z</time></trkpt><trkpt lat="43.59142970338508" lon="11.346258072139136"><ele>427.0</ele><time>2026-04-03T19:29:38.999Z</time></trkpt><trkpt lat="43.59132762247567" lon="11.346192821111297"><ele>427.00000000000006</ele><time>2026-04-03T19:29:39.999Z</time></trkpt><trkpt lat="43.591248214267324" lon="11.346090778544783"><ele>427.00000000000006</ele><time>2026-04-03T19:29:40.999Z</time></trkpt><trkpt lat="43.591192514653514" lon="11.345954722146628"><ele>427.0</ele><time>2026-04-03T19:29:41.999Z</time></trkpt><trkpt lat="43.59115630666997" lon="11.345804504241103"><ele>427.0</ele><time>2026-04-03T19:29:42.999Z</time></trkpt><trkpt lat="43.59113854770901" lon="11.34564968517138"><ele>428.0</ele><time>2026-04-03T19:29:43.999Z</time></trkpt><trkpt lat="43.59112881503291" lon="11.34548733552486"><ele>429.0</ele><time>2026-04-03T19:29:44.999Z</time></trkpt><trkpt lat="43.59112572557028" lon="11.3453218981539"><ele>430.0</ele><time>2026-04-03T19:29:45.999Z</time></trkpt><trkpt lat="43.5911383188228" lon="11.345156576446648"><ele>431.0</ele><time>2026-04-03T19:29:46.999Z</time></trkpt><trkpt lat="43.59117075336482" lon="11.344993695084884"><ele>429.0</ele><time>2026-04-03T19:29:47.999Z</time></trkpt><trkpt lat="43.5912197541709" lon="11.344832825063065"><ele>427.0</ele><time>2026-04-03T19:29:48.999Z</time></trkpt><trkpt lat="43.59127894899456" lon="11.34467113548431"><ele>425.0</ele><time>2026-04-03T19:29:49.999Z</time></trkpt><trkpt lat="43.59134136518887" lon="11.344497473788035"><ele>423.0</ele><time>2026-04-03T19:29:50.999Z</time></trkpt><trkpt lat="43.59139846969592" lon="11.344329242591547"><ele>423.0</ele><time>2026-04-03T19:29:51.999Z</time></trkpt><trkpt lat="43.59145119761686" lon="11.344173147000015"><ele>423.0</ele><time>2026-04-03T19:29:52.999Z</time></trkpt><trkpt lat="43.591509404252" lon="11.344027330054722"><ele>423.0</ele><time>2026-04-03T19:29:53.999Z</time></trkpt><trkpt lat="43.591566009453615" lon="11.343888421266984"><ele>423.0</ele><time>2026-04-03T19:29:54.999Z</time></trkpt><trkpt lat="43.59162186570025" lon="11.343749649216889"><ele>422.79999999999995</ele><time>2026-04-03T19:29:55.999Z</time></trkpt><trkpt lat="43.591678159815395" lon="11.343619200943714"><ele>422.6</ele><time>2026-04-03T19:29:56.999Z</time></trkpt><trkpt lat="43.59173875650798" lon="11.343501118471579"><ele>422.4</ele><time>2026-04-03T19:29:57.999Z</time></trkpt><trkpt lat="43.591816603125565" lon="11.343399267612172"><ele>422.20000000000005</ele><time>2026-04-03T19:29:58.999Z</time></trkpt><trkpt lat="43.591930330015806" lon="11.343336601775361"><ele>422.0</ele><time>2026-04-03T19:29:59.999Z</time></trkpt><trkpt lat="43.59204882274964" lon="11.343266262136913"><ele>422.25</ele><time>2026-04-03T19:30:00.999Z</time></trkpt><trkpt lat="43.59216497699248" lon="11.343181831359972"><ele>422.5</ele><time>2026-04-03T19:30:01.999Z</time></trkpt><trkpt lat="43.59227139024252" lon="11.34311146037597"><ele>422.75</ele><time>2026-04-03T19:30:02.999Z</time></trkpt><trkpt lat="43.592353901999076" lon="11.343016831664455"><ele>423.0</ele><time>2026-04-03T19:30:03.999Z</time></trkpt><trkpt lat="43.59242156680471" lon="11.342901990886578"><ele>423.0</ele><time>2026-04-03T19:30:04.999Z</time></trkpt><trkpt lat="43.592423818760196" lon="11.342736519084049"><ele>423.0</ele><time>2026-04-03T19:30:05.999Z</time></trkpt><trkpt lat="43.59245528310414" lon="11.342593288654259"><ele>423.0</ele><time>2026-04-03T19:30:06.999Z</time></trkpt><trkpt lat="43.59252029783434" lon="11.342470597135359"><ele>423.0</ele><time>2026-04-03T19:30:07.999Z</time></trkpt><trkpt lat="43.5926225759393" lon="11.34240876664647"><ele>423.0</ele><time>2026-04-03T19:30:08.999Z</time></trkpt><trkpt lat="43.592738286582644" lon="11.342404137468822"><ele>423.0</ele><time>2026-04-03T19:30:09.999Z</time></trkpt><trkpt lat="43.592864647970146" lon="11.342367048104009"><ele>423.0</ele><time>2026-04-03T19:30:10.999Z</time></trkpt><trkpt lat="43.59297241053894" lon="11.342259381228939"><ele>423.0</ele><time>2026-04-03T19:30:11.999Z</time></trkpt><trkpt lat="43.59307348414041" lon="11.342163665741792"><ele>421.4</ele><time>2026-04-03T19:30:12.999Z</time></trkpt><trkpt lat="43.5931719168162" lon="11.34207078022323"><ele>419.79999999999995</ele><time>2026-04-03T19:30:13.999Z</time></trkpt><trkpt lat="43.59326899395397" lon="11.341993662613126"><ele>418.2</ele><time>2026-04-03T19:30:14.999Z</time></trkpt><trkpt lat="43.59336141321981" lon="11.341925738196233"><ele>416.6</ele><time>2026-04-03T19:30:15.999Z</time></trkpt><trkpt lat="43.59344822882269" lon="11.341858205672253"><ele>415.0</ele><time>2026-04-03T19:30:16.999Z</time></trkpt><trkpt lat="43.59352465808611" lon="11.341781385193174"><ele>415.0</ele><time>2026-04-03T19:30:17.999Z</time></trkpt><trkpt lat="43.59358670500907" lon="11.341689876414815"><ele>415.0</ele><time>2026-04-03T19:30:18.999Z</time></trkpt><trkpt lat="43.593637252750156" lon="11.341575450901338"><ele>415.0</ele><time>2026-04-03T19:30:19.999Z</time></trkpt><trkpt lat="43.593644960382" lon="11.341445628317539"><ele>415.0</ele><time>2026-04-03T19:30:20.999Z</time></trkpt><trkpt lat="43.59361856589484" lon="11.341316144323642"><ele>415.0</ele><time>2026-04-03T19:30:21.999Z</time></trkpt><trkpt lat="43.59356302150505" lon="11.341196833539016"><ele>413.75</ele><time>2026-04-03T19:30:22.999Z</time></trkpt><trkpt lat="43.59348840293117" lon="11.341077756071583"><ele>412.5</ele><time>2026-04-03T19:30:23.999Z</time></trkpt><trkpt lat="43.593399479602304" lon="11.340958288159005"><ele>411.25</ele><time>2026-04-03T19:30:24.999Z</time></trkpt><trkpt lat="43.59330867582729" lon="11.34085489316987"><ele>410.0</ele><time>2026-04-03T19:30:25.999Z</time></trkpt><trkpt lat="43.593209176239455" lon="11.340758768986598"><ele>410.0</ele><time>2026-04-03T19:30:26.999Z</time></trkpt><trkpt lat="43.59309515912371" lon="11.340682675460863"><ele>410.0</ele><time>2026-04-03T19:30:27.999Z</time></trkpt><trkpt lat="43.59298555226256" lon="11.340599752056246"><ele>410.0</ele><time>2026-04-03T19:30:28.999Z</time></trkpt><trkpt lat="43.59288441718513" lon="11.340524055338904"><ele>410.0</ele><time>2026-04-03T19:30:29.999Z</time></trkpt><trkpt lat="43.59279207558844" lon="11.340436794477958"><ele>410.0</ele><time>2026-04-03T19:30:30.999Z</time></trkpt><trkpt lat="43.59272502835582" lon="11.34030866567468"><ele>410.0</ele><time>2026-04-03T19:30:31.999Z</time></trkpt><trkpt lat="43.59265350538122" lon="11.340178754751998"><ele>410.0</ele><time>2026-04-03T19:30:32.999Z</time></trkpt><trkpt lat="43.592593428791425" lon="11.340045082084682"><ele>410.0</ele><time>2026-04-03T19:30:33.999Z</time></trkpt><trkpt lat="43.59255017768468" lon="11.339906008475285"><ele>410.0</ele><time>2026-04-03T19:30:34.999Z</time></trkpt><trkpt lat="43.59251909973896" lon="11.339755555512484"><ele>410.0</ele><time>2026-04-03T19:30:35.999Z</time></trkpt><trkpt lat="43.592482249362014" lon="11.339607869044364"><ele>410.0</ele><time>2026-04-03T19:30:36.999Z</time></trkpt><trkpt lat="43.59245827783007" lon="11.339455424351238"><ele>410.0</ele><time>2026-04-03T19:30:37.999Z</time></trkpt><trkpt lat="43.59243034503524" lon="11.339309367216131"><ele>410.0</ele><time>2026-04-03T19:30:38.999Z</time></trkpt><trkpt lat="43.5924019875519" lon="11.33917650202204"><ele>407.25</ele><time>2026-04-03T19:30:39.999Z</time></trkpt><trkpt lat="43.59236971289844" lon="11.339029963013761"><ele>404.5</ele><time>2026-04-03T19:30:40.999Z</time></trkpt><trkpt lat="43.592334083008005" lon="11.338874650856658"><ele>401.75</ele><time>2026-04-03T19:30:41.999Z</time></trkpt><trkpt lat="43.592296690483664" lon="11.338709942690414"><ele>399.0</ele><time>2026-04-03T19:30:42.999Z</time></trkpt><trkpt lat="43.59226726626522" lon="11.338553568403652"><ele>396.5</ele><time>2026-04-03T19:30:43.999Z</time></trkpt><trkpt lat="43.59223271063756" lon="11.338401493395722"><ele>394.0</ele><time>2026-04-03T19:30:44.999Z</time></trkpt><trkpt lat="43.59219224365586" lon="11.33825220018845"><ele>391.5</ele><time>2026-04-03T19:30:45.999Z</time></trkpt><trkpt lat="43.592151796027544" lon="11.338111434591642"><ele>389.0</ele><time>2026-04-03T19:30:46.999Z</time></trkpt><trkpt lat="43.59209663378167" lon="11.337980670234222"><ele>389.5</ele><time>2026-04-03T19:30:47.999Z</time></trkpt><trkpt lat="43.59202584249127" lon="11.337868694908964"><ele>390.0</ele><time>2026-04-03T19:30:48.999Z</time></trkpt><trkpt lat="43.59193539978287" lon="11.33777513153542"><ele>390.5</ele><time>2026-04-03T19:30:49.999Z</time></trkpt><trkpt lat="43.59182842033585" lon="11.33769094334908"><ele>391.0</ele><time>2026-04-03T19:30:50.999Z</time></trkpt><trkpt lat="43.591714740947786" lon="11.337587917244843"><ele>391.0</ele><time>2026-04-03T19:30:51.999Z</time></trkpt><trkpt lat="43.59162207911564" lon="11.337476128874632"><ele>391.0</ele><time>2026-04-03T19:30:52.999Z</time></trkpt><trkpt lat="43.591543863136756" lon="11.337352847580076"><ele>391.0</ele><time>2026-04-03T19:30:53.999Z</time></trkpt><trkpt lat="43.591481966018584" lon="11.33722140104302"><ele>391.0</ele><time>2026-04-03T19:30:54.999Z</time></trkpt><trkpt lat="43.591433767078996" lon="11.337080004190872"><ele>385.75</ele><time>2026-04-03T19:30:55.999Z</time></trkpt><trkpt lat="43.591408702023536" lon="11.336930543343152"><ele>380.5</ele><time>2026-04-03T19:30:56.999Z</time></trkpt><trkpt lat="43.59139655772012" lon="11.336774086329264"><ele>375.25</ele><time>2026-04-03T19:30:57.999Z</time></trkpt><trkpt lat="43.59137928477425" lon="11.336611442763143"><ele>370.0</ele><time>2026-04-03T19:30:58.999Z</time></trkpt><trkpt lat="43.591348631075725" lon="11.33644092040199"><ele>372.0</ele><time>2026-04-03T19:30:59.999Z</time></trkpt><trkpt lat="43.59130074994941" lon="11.33628691567875"><ele>374.0</ele><time>2026-04-03T19:31:00.999Z</time></trkpt><trkpt lat="43.59124332997625" lon="11.336146883166034"><ele>376.0</ele><time>2026-04-03T19:31:01.999Z</time></trkpt><trkpt lat="43.591171491621886" lon="11.336022346298392"><ele>378.0</ele><time>2026-04-03T19:31:02.999Z</time></trkpt><trkpt lat="43.59109085155406" lon="11.335913956106161"><ele>378.0</ele><time>2026-04-03T19:31:03.999Z</time></trkpt><trkpt lat="43.59100994127326" lon="11.335809511275599"><ele>378.0</ele><time>2026-04-03T19:31:05Z</time></trkpt><trkpt lat="43.59092935669149" lon="11.33570499931463"><ele>378.0</ele><time>2026-04-03T19:31:06Z</time></trkpt><trkpt lat="43.590847403618646" lon="11.335595653652659"><ele>378.0</ele><time>2026-04-03T19:31:07Z</time></trkpt><trkpt lat="43.59077266379494" lon="11.335482157950377"><ele>378.0</ele><time>2026-04-03T19:31:08Z</time></trkpt><trkpt lat="43.59069590463679" lon="11.335375582662572"><ele>374.4</ele><time>2026-04-03T19:31:09Z</time></trkpt><trkpt lat="43.59062544918381" lon="11.33526757419742"><ele>370.79999999999995</ele><time>2026-04-03T19:31:10Z</time></trkpt><trkpt lat="43.59055295003741" lon="11.335166542181444"><ele>367.2</ele><time>2026-04-03T19:31:11Z</time></trkpt><trkpt lat="43.59049518948721" lon="11.335056918748231"><ele>363.6</ele><time>2026-04-03T19:31:12Z</time></trkpt><trkpt lat="43.5904209592259" lon="11.334992254918976"><ele>360.0</ele><time>2026-04-03T19:31:13Z</time></trkpt><trkpt lat="43.59036588875122" lon="11.334924779370857"><ele>360.4</ele><time>2026-04-03T19:31:14Z</time></trkpt><trkpt lat="43.5902739407504" lon="11.334820662021695"><ele>360.8</ele><time>2026-04-03T19:31:16Z</time></trkpt><trkpt lat="43.59020278665739" lon="11.334713196376638"><ele>361.20000000000005</ele><time>2026-04-03T19:31:18Z</time></trkpt><trkpt lat="43.59015799719277" lon="11.334635676653528"><ele>361.6</ele><time>2026-04-03T19:31:20Z</time></trkpt><trkpt lat="43.59023934503179" lon="11.334665720322754"><ele>362.0</ele><time>2026-04-03T19:31:23Z</time></trkpt><trkpt lat="43.59031787503799" lon="11.334774734147446"><ele>361.6</ele><time>2026-04-03T19:31:25Z</time></trkpt><trkpt lat="43.59040004613706" lon="11.334838312849627"><ele>361.20000000000005</ele><time>2026-04-03T19:31:27Z</time></trkpt><trkpt lat="43.59047558732007" lon="11.334899454471646"><ele>360.8</ele><time>2026-04-03T19:31:29Z</time></trkpt><trkpt lat="43.59055380222007" lon="11.334963329199436"><ele>360.4</ele><time>2026-04-03T19:31:31Z</time></trkpt><trkpt lat="43.590617814667155" lon="11.335010999063433"><ele>360.0</ele><time>2026-04-03T19:31:32.999Z</time></trkpt><trkpt lat="43.59063470152651" lon="11.334706247715573"><ele>356.6666666666667</ele><time>2026-04-03T19:31:36.999Z</time></trkpt><trkpt lat="43.59057216832059" lon="11.33466753041417"><ele>353.3333333333333</ele><time>2026-04-03T19:31:37.999Z</time></trkpt><trkpt lat="43.59051383803587" lon="11.3346190500006"><ele>350.0</ele><time>2026-04-03T19:31:38.999Z</time></trkpt><trkpt lat="43.59044557926022" lon="11.33447887188417"><ele>346.66666666666663</ele><time>2026-04-03T19:31:40.999Z</time></trkpt><trkpt lat="43.59042660353859" lon="11.334395344639846"><ele>343.3333333333333</ele><time>2026-04-03T19:31:41.999Z</time></trkpt><trkpt lat="43.59038385101603" lon="11.334237896105988"><ele>340.0</ele><time>2026-04-03T19:31:43.999Z</time></trkpt><trkpt lat="43.590372293162694" lon="11.334151353192125"><ele>341.4</ele><time>2026-04-03T19:31:44.999Z</time></trkpt><trkpt lat="43.59034064539726" lon="11.333979606050884"><ele>342.8</ele><time>2026-04-03T19:31:46.999Z</time></trkpt><trkpt lat="43.5902950030079" lon="11.333877348391441"><ele>344.20000000000005</ele><time>2026-04-03T19:31:47.999Z</time></trkpt><trkpt lat="43.590247269109696" lon="11.333800538524248"><ele>345.6</ele><time>2026-04-03T19:31:48.999Z</time></trkpt><trkpt lat="43.590161245760754" lon="11.333718185397567"><ele>347.0</ele><time>2026-04-03T19:31:50.999Z</time></trkpt><trkpt lat="43.59006768436458" lon="11.333677777901178"><ele>347.0</ele><time>2026-04-03T19:31:52.999Z</time></trkpt><trkpt lat="43.589967809211814" lon="11.333597881441559"><ele>347.0</ele><time>2026-04-03T19:31:54.999Z</time></trkpt><trkpt lat="43.589925990313304" lon="11.333478773727798"><ele>347.0</ele><time>2026-04-03T19:31:56.999Z</time></trkpt><trkpt lat="43.58991821815208" lon="11.333388704654608"><ele>347.0</ele><time>2026-04-03T19:32:03.999Z</time></trkpt></trkseg></trk></gpx>